﻿_id	data_ora	id_station	denominazione	temperatura	cod_validazione_temperatura	umidita	cod_validazione_umidita_rel	precipitazione	cod_validazione_precipitazione	velocita_vento	cod_validazione_velocita_vento	direzione_vento	cod_validazione_direzione_vento	rad_solare_globale	cod_validazione_rad_solare_globale	pressione_atmosferica	cod_validazione_pressione_atmosferica	Latitude	Longitude
1	2024-01-01 00:00:00	16	carbonara	11.8	1	90.48	1	0.0	1	null	6	null	6	0.0	1	1008.29	1	41.076845	16.866987
2	2024-01-01 01:00:00	16	carbonara	11.53	1	90.53	1	0.0	1	null	6	null	6	0.0	1	1007.84	1	41.076845	16.866987
3	2024-01-01 02:00:00	16	carbonara	11.32	1	89.81	1	0.0	1	null	6	null	6	0.0	1	1007.38	1	41.076845	16.866987
4	2024-01-01 03:00:00	16	carbonara	11.4	1	87.68	1	0.0	1	null	6	null	6	0.0	1	1007.09	1	41.076845	16.866987
5	2024-01-01 04:00:00	16	carbonara	11.53	1	87.67	1	0.0	1	null	6	null	6	0.0	1	1006.92	1	41.076845	16.866987
6	2024-01-01 05:00:00	16	carbonara	11.88	1	84.51	1	0.0	1	null	6	null	6	0.0	1	1006.52	1	41.076845	16.866987
7	2024-01-01 06:00:00	16	carbonara	12.07	1	84.54	1	0.0	1	null	6	null	6	0.0	1	1006.16	1	41.076845	16.866987
8	2024-01-01 07:00:00	16	carbonara	11.9	1	86.18	1	0.0	1	null	6	null	6	0.0	1	1006.15	1	41.076845	16.866987
9	2024-01-01 08:00:00	16	carbonara	11.71	1	85.29	1	0.0	1	null	6	null	6	7.63	1	1006.01	1	41.076845	16.866987
10	2024-01-01 09:00:00	16	carbonara	12.26	1	79.81	1	0.0	1	null	6	null	6	54.43	1	1006.17	1	41.076845	16.866987
11	2024-01-01 10:00:00	16	carbonara	13.5	1	75.23	1	0.0	1	null	6	null	6	121.28	1	1006.34	1	41.076845	16.866987
12	2024-01-01 11:00:00	16	carbonara	15.91	1	66.56	1	0.0	1	null	6	null	6	199.61	1	1006.34	1	41.076845	16.866987
13	2024-01-01 12:00:00	16	carbonara	16.35	1	67.3	1	0.0	1	null	6	null	6	232.53	1	1005.79	1	41.076845	16.866987
14	2024-01-01 13:00:00	16	carbonara	18.94	1	50.59	1	0.0	1	null	6	null	6	356.48	1	1005.05	1	41.076845	16.866987
15	2024-01-01 14:00:00	16	carbonara	20.56	1	40.83	1	0.0	1	null	6	null	6	340.27	1	1004.59	1	41.076845	16.866987
16	2024-01-01 15:00:00	16	carbonara	20.44	1	38.68	1	0.0	1	null	6	null	6	228.05	1	1004.57	1	41.076845	16.866987
17	2024-01-01 16:00:00	16	carbonara	18.39	1	44.29	1	0.0	1	null	6	null	6	49.37	1	1004.81	1	41.076845	16.866987
18	2024-01-01 17:00:00	16	carbonara	16.65	1	51.93	1	0.0	1	null	6	null	6	0.0	5	1005.12	1	41.076845	16.866987
19	2024-01-01 18:00:00	16	carbonara	15.56	1	57.61	1	0.0	1	null	6	null	6	0.0	1	1005.43	1	41.076845	16.866987
20	2024-01-01 19:00:00	16	carbonara	14.55	1	64.7	1	0.0	1	null	6	null	6	0.0	1	1005.81	1	41.076845	16.866987
21	2024-01-01 20:00:00	16	carbonara	13.44	1	70.04	1	0.0	1	null	6	null	6	0.0	1	1006.17	1	41.076845	16.866987
22	2024-01-01 21:00:00	16	carbonara	13.31	1	74.63	1	0.0	1	null	6	null	6	0.0	1	1006.13	1	41.076845	16.866987
23	2024-01-01 22:00:00	16	carbonara	12.9	1	79.75	1	0.0	1	null	6	null	6	0.0	1	1005.99	1	41.076845	16.866987
24	2024-01-01 23:00:00	16	carbonara	12.97	1	80.63	1	0.0	1	null	6	null	6	0.0	1	1005.95	1	41.076845	16.866987
25	2024-01-02 00:00:00	16	carbonara	13.13	1	79.75	1	0.0	1	null	6	null	6	0.0	1	1005.94	1	41.076845	16.866987
26	2024-01-02 01:00:00	16	carbonara	13.78	1	76.09	1	0.0	1	null	6	null	6	0.0	1	1005.77	1	41.076845	16.866987
27	2024-01-02 02:00:00	16	carbonara	13.92	1	73.89	1	0.0	1	null	6	null	6	0.0	1	1005.69	1	41.076845	16.866987
28	2024-01-02 03:00:00	16	carbonara	13.14	1	78.14	1	0.0	1	null	6	null	6	0.0	1	1006.37	1	41.076845	16.866987
29	2024-01-02 04:00:00	16	carbonara	12.61	1	76.83	1	0.0	1	null	6	null	6	0.0	1	1006.16	1	41.076845	16.866987
30	2024-01-02 05:00:00	16	carbonara	11.84	1	75.48	1	0.0	1	null	6	null	6	0.0	1	1006.33	1	41.076845	16.866987
31	2024-01-02 06:00:00	16	carbonara	11.52	1	72.31	1	0.0	1	null	6	null	6	0.0	1	1006.64	1	41.076845	16.866987
32	2024-01-02 07:00:00	16	carbonara	10.97	1	74.84	1	0.0	1	null	6	null	6	0.0	1	1007.41	1	41.076845	16.866987
33	2024-01-02 08:00:00	16	carbonara	10.62	1	75.61	1	0.0	1	null	6	null	6	7.05	1	1007.84	1	41.076845	16.866987
34	2024-01-02 09:00:00	16	carbonara	11.11	1	72.85	1	0.0	1	null	6	null	6	36.05	1	1008.4	1	41.076845	16.866987
35	2024-01-02 10:00:00	16	carbonara	13.03	1	64.18	1	0.0	1	null	6	null	6	55.43	1	1008.97	1	41.076845	16.866987
36	2024-01-02 11:00:00	16	carbonara	15.32	1	54.92	1	0.0	1	null	6	null	6	311.25	1	1008.99	1	41.076845	16.866987
37	2024-01-02 12:00:00	16	carbonara	18.04	1	44.45	1	0.0	1	null	6	null	6	413.58	1	1008.55	1	41.076845	16.866987
38	2024-01-02 13:00:00	16	carbonara	18.4	1	48.1	1	0.0	1	null	6	null	6	377.23	1	1008.05	1	41.076845	16.866987
39	2024-01-02 14:00:00	16	carbonara	16.6	1	51.64	1	0.0	1	null	6	null	6	150.98	1	1007.67	1	41.076845	16.866987
40	2024-01-02 15:00:00	16	carbonara	17.07	1	50.75	1	0.0	1	null	6	null	6	245.78	1	1007.61	1	41.076845	16.866987
41	2024-01-02 16:00:00	16	carbonara	15.93	1	55.67	1	0.0	1	null	6	null	6	82.72	1	1007.64	1	41.076845	16.866987
42	2024-01-02 17:00:00	16	carbonara	13.96	1	72.12	1	0.0	1	null	6	null	6	7.78	1	1007.95	1	41.076845	16.866987
43	2024-01-02 18:00:00	16	carbonara	12.43	1	79.7	1	0.0	1	null	6	null	6	0.0	1	1008.08	1	41.076845	16.866987
44	2024-01-02 19:00:00	16	carbonara	11.46	1	79.78	1	0.0	1	null	6	null	6	0.0	1	1008.19	1	41.076845	16.866987
45	2024-01-02 20:00:00	16	carbonara	11.0	1	71.91	1	0.0	1	null	6	null	6	0.0	1	1008.55	1	41.076845	16.866987
46	2024-01-02 21:00:00	16	carbonara	10.58	1	68.59	1	0.0	1	null	6	null	6	0.0	1	1008.53	1	41.076845	16.866987
47	2024-01-02 22:00:00	16	carbonara	10.07	1	69.93	1	0.0	1	null	6	null	6	0.0	1	1008.26	1	41.076845	16.866987
48	2024-01-02 23:00:00	16	carbonara	9.87	1	73.42	1	0.0	1	null	6	null	6	0.0	1	1008.14	1	41.076845	16.866987
49	2024-01-03 00:00:00	16	carbonara	9.12	1	76.73	1	0.0	1	null	6	null	6	0.0	1	1007.62	1	41.076845	16.866987
50	2024-01-03 01:00:00	16	carbonara	8.79	1	78.58	1	0.0	1	null	6	null	6	0.0	1	1007.18	1	41.076845	16.866987
51	2024-01-03 02:00:00	16	carbonara	8.97	1	76.65	1	0.0	1	null	6	null	6	0.0	1	1007.0	1	41.076845	16.866987
52	2024-01-03 03:00:00	16	carbonara	8.48	1	77.96	1	0.0	1	null	6	null	6	0.0	1	1007.15	1	41.076845	16.866987
53	2024-01-03 04:00:00	16	carbonara	8.95	1	74.47	1	0.0	1	null	6	null	6	0.0	1	1006.23	1	41.076845	16.866987
54	2024-01-03 05:00:00	16	carbonara	11.27	1	62.49	1	0.0	1	null	6	null	6	0.0	1	1005.44	1	41.076845	16.866987
55	2024-01-03 06:00:00	16	carbonara	11.63	1	61.73	1	0.0	1	null	6	null	6	0.0	1	1005.4	1	41.076845	16.866987
56	2024-01-03 07:00:00	16	carbonara	11.18	1	66.84	1	0.0	1	null	6	null	6	0.0	1	1005.23	1	41.076845	16.866987
57	2024-01-03 08:00:00	16	carbonara	11.41	1	66.35	1	0.0	1	null	6	null	6	0.0	5	1004.97	1	41.076845	16.866987
58	2024-01-03 09:00:00	16	carbonara	11.83	1	64.58	1	0.0	1	null	6	null	6	27.73	1	1005.07	1	41.076845	16.866987
59	2024-01-03 10:00:00	16	carbonara	12.59	1	63.79	1	0.0	1	null	6	null	6	93.23	1	1004.98	1	41.076845	16.866987
60	2024-01-03 11:00:00	16	carbonara	14.46	1	55.93	1	0.0	1	null	6	null	6	190.65	1	1004.83	1	41.076845	16.866987
61	2024-01-03 12:00:00	16	carbonara	17.78	1	47.1	1	0.0	1	null	6	null	6	359.23	1	1003.98	1	41.076845	16.866987
62	2024-01-03 13:00:00	16	carbonara	19.48	1	40.87	1	0.0	1	null	6	null	6	345.03	1	1003.19	1	41.076845	16.866987
63	2024-01-03 14:00:00	16	carbonara	20.63	1	38.29	1	0.0	1	null	6	null	6	349.66	1	1002.61	1	41.076845	16.866987
64	2024-01-03 15:00:00	16	carbonara	20.04	1	39.47	1	0.0	1	null	6	null	6	192.3	1	1002.46	1	41.076845	16.866987
65	2024-01-03 16:00:00	16	carbonara	19.08	1	42.13	1	0.0	1	null	6	null	6	74.72	1	1002.57	1	41.076845	16.866987
66	2024-01-03 17:00:00	16	carbonara	17.22	1	48.19	1	0.0	1	null	6	null	6	6.37	1	1002.6	1	41.076845	16.866987
67	2024-01-03 18:00:00	16	carbonara	16.1	1	50.45	1	0.0	1	null	6	null	6	0.0	1	1002.84	1	41.076845	16.866987
68	2024-01-03 19:00:00	16	carbonara	15.34	1	52.98	1	0.0	1	null	6	null	6	0.0	1	1003.13	1	41.076845	16.866987
69	2024-01-03 20:00:00	16	carbonara	13.88	1	59.36	1	0.0	1	null	6	null	6	0.0	1	1003.32	1	41.076845	16.866987
70	2024-01-03 21:00:00	16	carbonara	12.7	1	63.16	1	0.0	1	null	6	null	6	0.0	1	1003.04	1	41.076845	16.866987
71	2024-01-03 22:00:00	16	carbonara	12.36	1	66.54	1	0.0	1	null	6	null	6	0.0	1	1002.87	1	41.076845	16.866987
72	2024-01-03 23:00:00	16	carbonara	12.62	1	67.68	1	0.0	1	null	6	null	6	0.0	1	1002.67	1	41.076845	16.866987
73	2024-01-04 00:00:00	16	carbonara	12.79	1	67.31	1	0.0	1	null	6	null	6	0.0	1	1002.2	1	41.076845	16.866987
74	2024-01-04 01:00:00	16	carbonara	12.75	1	67.29	1	0.0	1	null	6	null	6	0.0	1	1001.8	1	41.076845	16.866987
75	2024-01-04 02:00:00	16	carbonara	12.31	1	68.44	1	0.0	1	null	6	null	6	0.0	1	1001.81	1	41.076845	16.866987
76	2024-01-04 03:00:00	16	carbonara	12.3	1	68.25	1	0.0	1	null	6	null	6	0.0	1	1001.73	1	41.076845	16.866987
77	2024-01-04 04:00:00	16	carbonara	12.16	1	71.71	1	0.0	1	null	6	null	6	0.0	1	1001.49	1	41.076845	16.866987
78	2024-01-04 05:00:00	16	carbonara	11.63	1	75.31	1	0.0	1	null	6	null	6	0.0	1	1000.98	1	41.076845	16.866987
79	2024-01-04 06:00:00	16	carbonara	11.07	1	76.88	1	0.0	1	null	6	null	6	0.0	1	1000.74	1	41.076845	16.866987
80	2024-01-04 07:00:00	16	carbonara	10.85	1	77.91	1	0.0	1	null	6	null	6	0.0	1	1000.93	1	41.076845	16.866987
81	2024-01-04 08:00:00	16	carbonara	11.42	1	74.55	1	0.0	1	null	6	null	6	7.91	1	1001.35	1	41.076845	16.866987
82	2024-01-04 09:00:00	16	carbonara	13.43	1	64.67	1	0.0	1	null	6	null	6	37.51	1	1001.56	1	41.076845	16.866987
83	2024-01-04 10:00:00	16	carbonara	15.71	1	56.35	1	0.0	1	null	6	null	6	50.67	1	1001.9	1	41.076845	16.866987
84	2024-01-04 11:00:00	16	carbonara	18.72	1	48.57	1	0.0	1	null	6	null	6	309.88	1	1001.94	1	41.076845	16.866987
85	2024-01-04 12:00:00	16	carbonara	20.9	1	41.07	1	0.0	1	null	6	null	6	423.06	1	1001.82	1	41.076845	16.866987
86	2024-01-04 13:00:00	16	carbonara	21.32	1	37.15	1	0.0	1	null	6	null	6	429.04	1	1001.44	1	41.076845	16.866987
87	2024-01-04 14:00:00	16	carbonara	21.86	1	38.37	1	0.0	1	null	6	null	6	389.35	1	1001.29	1	41.076845	16.866987
88	2024-01-04 15:00:00	16	carbonara	21.79	1	45.31	1	0.0	1	null	6	null	6	257.45	1	1001.49	1	41.076845	16.866987
89	2024-01-04 16:00:00	16	carbonara	20.32	1	44.42	1	0.0	1	null	6	null	6	75.66	1	1001.84	1	41.076845	16.866987
90	2024-01-04 17:00:00	16	carbonara	18.2	1	47.87	1	0.0	1	null	6	null	6	5.8	1	1002.43	1	41.076845	16.866987
91	2024-01-04 18:00:00	16	carbonara	15.59	1	62.34	1	0.0	1	null	6	null	6	0.0	1	1003.59	1	41.076845	16.866987
92	2024-01-04 19:00:00	16	carbonara	14.48	1	67.71	1	0.0	1	null	6	null	6	0.0	1	1004.26	1	41.076845	16.866987
93	2024-01-04 20:00:00	16	carbonara	13.41	1	68.13	1	0.0	1	null	6	null	6	0.0	1	1004.83	1	41.076845	16.866987
94	2024-01-04 21:00:00	16	carbonara	11.57	1	71.3	1	0.0	1	null	6	null	6	0.0	1	1005.41	1	41.076845	16.866987
95	2024-01-04 22:00:00	16	carbonara	10.65	1	75.41	1	0.0	1	null	6	null	6	0.0	1	1005.62	1	41.076845	16.866987
96	2024-01-04 23:00:00	16	carbonara	10.58	1	76.36	1	0.0	1	null	6	null	6	0.0	1	1005.88	1	41.076845	16.866987
97	2024-01-05 00:00:00	16	carbonara	10.88	1	74.66	1	0.0	1	null	6	null	6	0.0	1	1006.07	1	41.076845	16.866987
98	2024-01-05 01:00:00	16	carbonara	10.56	1	74.13	1	0.0	1	null	6	null	6	0.0	1	1005.96	1	41.076845	16.866987
99	2024-01-05 02:00:00	16	carbonara	9.74	1	77.46	1	0.0	1	null	6	null	6	0.0	1	1005.82	1	41.076845	16.866987
100	2024-01-05 03:00:00	16	carbonara	10.08	1	77.02	1	0.0	1	null	6	null	6	0.0	1	1005.73	1	41.076845	16.866987
101	2024-01-05 04:00:00	16	carbonara	10.89	1	75.4	1	0.0	1	null	6	null	6	0.0	1	1005.25	1	41.076845	16.866987
102	2024-01-05 05:00:00	16	carbonara	10.52	1	77.01	1	0.0	1	null	6	null	6	0.0	1	1004.82	1	41.076845	16.866987
103	2024-01-05 06:00:00	16	carbonara	9.62	1	79.8	1	0.0	1	null	6	null	6	0.0	1	1004.46	1	41.076845	16.866987
104	2024-01-05 07:00:00	16	carbonara	9.18	1	82.04	1	0.0	1	null	6	null	6	0.0	1	1004.41	1	41.076845	16.866987
105	2024-01-05 08:00:00	16	carbonara	9.1	1	83.18	1	0.0	1	null	6	null	6	14.09	1	1004.6	1	41.076845	16.866987
106	2024-01-05 09:00:00	16	carbonara	11.15	1	81.43	1	0.0	1	null	6	null	6	66.97	1	1004.4	1	41.076845	16.866987
107	2024-01-05 10:00:00	16	carbonara	13.85	1	79.65	1	0.0	1	null	6	null	6	128.57	1	1004.24	1	41.076845	16.866987
108	2024-01-05 11:00:00	16	carbonara	16.06	1	70.33	1	0.0	1	null	6	null	6	171.45	1	1004.03	1	41.076845	16.866987
109	2024-01-05 12:00:00	16	carbonara	16.62	1	67.99	1	0.0	1	null	6	null	6	202.76	1	1003.19	1	41.076845	16.866987
110	2024-01-05 13:00:00	16	carbonara	16.88	1	66.82	1	0.0	1	null	6	null	6	172.92	1	1002.07	1	41.076845	16.866987
111	2024-01-05 14:00:00	16	carbonara	17.0	1	61.61	1	0.0	1	null	6	null	6	173.36	1	1001.58	1	41.076845	16.866987
112	2024-01-05 15:00:00	16	carbonara	16.22	1	67.33	1	0.0	1	null	6	null	6	87.0	1	1001.47	1	41.076845	16.866987
113	2024-01-05 16:00:00	16	carbonara	16.11	1	74.96	1	0.0	1	null	6	null	6	39.38	1	1001.08	1	41.076845	16.866987
114	2024-01-05 17:00:00	16	carbonara	16.07	1	76.94	1	0.0	1	null	6	null	6	0.0	5	1000.71	1	41.076845	16.866987
115	2024-01-05 18:00:00	16	carbonara	15.93	1	78.31	1	0.0	1	null	6	null	6	0.0	1	1000.29	1	41.076845	16.866987
116	2024-01-05 19:00:00	16	carbonara	15.86	1	78.76	1	0.0	1	null	6	null	6	0.0	1	1000.2	1	41.076845	16.866987
117	2024-01-05 20:00:00	16	carbonara	15.71	1	78.7	1	0.0	1	null	6	null	6	0.0	1	1000.21	1	41.076845	16.866987
118	2024-01-05 21:00:00	16	carbonara	15.8	1	79.34	1	0.0	1	null	6	null	6	0.0	1	999.86	1	41.076845	16.866987
119	2024-01-05 22:00:00	16	carbonara	15.93	1	77.93	1	0.0	1	null	6	null	6	0.0	1	999.43	1	41.076845	16.866987
120	2024-01-05 23:00:00	16	carbonara	15.77	1	77.42	1	0.0	1	null	6	null	6	0.0	1	999.06	1	41.076845	16.866987
121	2024-01-06 00:00:00	16	carbonara	15.81	1	75.66	1	0.0	1	null	6	null	6	0.0	1	998.24	1	41.076845	16.866987
122	2024-01-06 01:00:00	16	carbonara	15.82	1	75.7	1	0.0	1	null	6	null	6	0.0	1	997.58	1	41.076845	16.866987
123	2024-01-06 02:00:00	16	carbonara	15.7	1	77.05	1	0.0	1	null	6	null	6	0.0	1	997.28	1	41.076845	16.866987
124	2024-01-06 03:00:00	16	carbonara	15.4	1	74.51	1	0.0	1	null	6	null	6	0.0	1	997.04	1	41.076845	16.866987
125	2024-01-06 04:00:00	16	carbonara	15.25	1	77.52	1	0.0	1	null	6	null	6	0.0	1	996.28	1	41.076845	16.866987
126	2024-01-06 05:00:00	16	carbonara	15.52	1	79.34	1	0.0	1	null	6	null	6	0.0	1	995.54	1	41.076845	16.866987
127	2024-01-06 06:00:00	16	carbonara	15.68	1	77.75	1	0.0	1	null	6	null	6	0.0	1	995.1	1	41.076845	16.866987
128	2024-01-06 07:00:00	16	carbonara	15.89	1	76.45	1	0.0	1	null	6	null	6	0.0	1	995.29	1	41.076845	16.866987
129	2024-01-06 08:00:00	16	carbonara	16.17	1	76.29	1	0.0	1	null	6	null	6	0.0	5	995.06	1	41.076845	16.866987
130	2024-01-06 09:00:00	16	carbonara	16.42	1	76.73	1	0.0	1	null	6	null	6	39.54	1	995.18	1	41.076845	16.866987
131	2024-01-06 10:00:00	16	carbonara	16.73	1	78.33	1	0.0	1	null	6	null	6	117.24	1	995.0	1	41.076845	16.866987
132	2024-01-06 11:00:00	16	carbonara	17.67	1	71.55	1	0.0	1	null	6	null	6	202.46	1	994.33	1	41.076845	16.866987
133	2024-01-06 12:00:00	16	carbonara	18.53	1	68.08	1	0.0	1	null	6	null	6	255.63	1	992.74	1	41.076845	16.866987
134	2024-01-06 13:00:00	16	carbonara	18.93	1	66.47	1	0.0	1	null	6	null	6	217.64	1	990.56	1	41.076845	16.866987
135	2024-01-06 14:00:00	16	carbonara	17.07	1	76.4	1	0.2	1	null	6	null	6	58.2	1	988.47	1	41.076845	16.866987
136	2024-01-06 15:00:00	16	carbonara	16.18	1	82.75	1	0.2	1	null	6	null	6	40.98	1	987.35	1	41.076845	16.866987
137	2024-01-06 16:00:00	16	carbonara	16.08	1	81.71	1	0.0	1	null	6	null	6	34.85	1	986.63	1	41.076845	16.866987
138	2024-01-06 17:00:00	16	carbonara	15.77	1	74.7	1	0.2	1	null	6	null	6	9.1	1	985.68	1	41.076845	16.866987
139	2024-01-06 18:00:00	16	carbonara	14.23	1	68.96	1	0.0	1	null	6	null	6	0.0	1	984.97	1	41.076845	16.866987
140	2024-01-06 19:00:00	16	carbonara	12.89	1	78.43	1	0.0	1	null	6	null	6	0.0	1	984.49	1	41.076845	16.866987
141	2024-01-06 20:00:00	16	carbonara	12.52	1	82.38	1	0.0	1	null	6	null	6	0.0	1	985.11	1	41.076845	16.866987
142	2024-01-06 21:00:00	16	carbonara	12.3	1	83.09	1	0.0	1	null	6	null	6	0.0	1	984.74	1	41.076845	16.866987
143	2024-01-06 22:00:00	16	carbonara	11.9	1	85.03	1	0.2	1	null	6	null	6	0.0	1	984.53	1	41.076845	16.866987
144	2024-01-06 23:00:00	16	carbonara	11.67	1	87.92	1	0.0	1	null	6	null	6	0.0	1	984.63	1	41.076845	16.866987
145	2024-01-07 00:00:00	16	carbonara	11.61	1	88.45	1	0.0	1	null	6	null	6	0.0	1	984.0	1	41.076845	16.866987
146	2024-01-07 01:00:00	16	carbonara	11.48	1	89.1	1	0.0	1	null	6	null	6	0.0	1	983.93	1	41.076845	16.866987
147	2024-01-07 02:00:00	16	carbonara	11.39	1	89.17	1	0.2	1	null	6	null	6	0.0	1	983.84	1	41.076845	16.866987
148	2024-01-07 03:00:00	16	carbonara	11.05	1	90.3	1	0.0	1	null	6	null	6	0.0	1	983.76	1	41.076845	16.866987
149	2024-01-07 04:00:00	16	carbonara	10.79	1	91.47	1	0.0	1	null	6	null	6	0.0	1	983.47	1	41.076845	16.866987
150	2024-01-07 05:00:00	16	carbonara	10.4	1	92.83	1	0.2	1	null	6	null	6	0.0	1	983.28	1	41.076845	16.866987
151	2024-01-07 06:00:00	16	carbonara	9.91	1	93.62	1	0.0	1	null	6	null	6	0.0	1	983.68	1	41.076845	16.866987
152	2024-01-07 07:00:00	16	carbonara	9.94	1	93.51	1	0.0	1	null	6	null	6	0.0	1	984.49	1	41.076845	16.866987
153	2024-01-07 08:00:00	16	carbonara	10.4	1	91.9	1	0.0	1	null	6	null	6	0.0	5	984.93	1	41.076845	16.866987
154	2024-01-07 09:00:00	16	carbonara	11.24	1	89.38	1	0.0	1	null	6	null	6	43.05	1	985.45	1	41.076845	16.866987
155	2024-01-07 10:00:00	16	carbonara	12.16	1	86.86	1	0.0	1	null	6	null	6	89.94	1	985.86	1	41.076845	16.866987
156	2024-01-07 11:00:00	16	carbonara	13.13	1	84.9	1	0.2	1	null	6	null	6	105.07	1	986.14	1	41.076845	16.866987
157	2024-01-07 12:00:00	16	carbonara	14.12	1	82.18	1	0.0	1	null	6	null	6	166.2	1	986.05	1	41.076845	16.866987
158	2024-01-07 13:00:00	16	carbonara	14.33	1	79.66	1	0.0	1	null	6	null	6	85.83	1	985.84	1	41.076845	16.866987
159	2024-01-07 14:00:00	16	carbonara	13.83	1	81.88	1	0.0	1	null	6	null	6	85.46	1	985.91	1	41.076845	16.866987
160	2024-01-07 15:00:00	16	carbonara	13.74	1	73.12	1	0.2	1	null	6	null	6	66.99	1	986.25	1	41.076845	16.866987
161	2024-01-07 16:00:00	16	carbonara	12.79	1	66.34	1	0.0	1	null	6	null	6	41.78	1	987.03	1	41.076845	16.866987
162	2024-01-07 17:00:00	16	carbonara	12.5	1	58.45	1	0.0	1	null	6	null	6	0.0	5	987.71	1	41.076845	16.866987
163	2024-01-07 18:00:00	16	carbonara	11.75	1	65.92	1	0.0	1	null	6	null	6	0.0	1	988.71	1	41.076845	16.866987
164	2024-01-07 19:00:00	16	carbonara	10.91	1	78.8	1	0.0	1	null	6	null	6	0.0	1	989.44	1	41.076845	16.866987
165	2024-01-07 20:00:00	16	carbonara	10.52	1	83.97	1	0.0	1	null	6	null	6	0.0	1	990.0	1	41.076845	16.866987
166	2024-01-07 21:00:00	16	carbonara	10.31	1	86.02	1	0.0	1	null	6	null	6	0.0	1	990.5	1	41.076845	16.866987
167	2024-01-07 22:00:00	16	carbonara	10.06	1	88.75	1	0.0	1	null	6	null	6	0.0	1	991.18	1	41.076845	16.866987
168	2024-01-07 23:00:00	16	carbonara	9.89	1	90.79	1	0.2	1	null	6	null	6	0.0	1	991.58	1	41.076845	16.866987
169	2024-01-08 00:00:00	16	carbonara	9.68	1	91.55	1	0.0	1	null	6	null	6	0.0	1	991.76	1	41.076845	16.866987
170	2024-01-08 01:00:00	16	carbonara	9.72	1	90.8	1	0.0	1	null	6	null	6	0.0	1	991.84	1	41.076845	16.866987
171	2024-01-08 02:00:00	16	carbonara	9.8	1	89.77	1	0.0	1	null	6	null	6	0.0	1	992.03	1	41.076845	16.866987
172	2024-01-08 03:00:00	16	carbonara	9.66	1	89.23	1	0.0	1	null	6	null	6	0.0	1	992.15	1	41.076845	16.866987
173	2024-01-08 04:00:00	16	carbonara	9.63	1	85.69	1	0.0	1	null	6	null	6	0.0	1	992.11	1	41.076845	16.866987
174	2024-01-08 05:00:00	16	carbonara	9.17	1	88.36	1	0.0	1	null	6	null	6	0.0	1	992.27	1	41.076845	16.866987
175	2024-01-08 06:00:00	16	carbonara	9.11	1	85.58	1	0.2	1	null	6	null	6	0.0	1	992.51	1	41.076845	16.866987
176	2024-01-08 07:00:00	16	carbonara	9.08	1	82.95	1	0.0	1	null	6	null	6	0.0	1	992.95	1	41.076845	16.866987
177	2024-01-08 08:00:00	16	carbonara	9.04	1	82.97	1	0.0	1	null	6	null	6	9.4	1	993.4	1	41.076845	16.866987
178	2024-01-08 09:00:00	16	carbonara	9.49	1	81.92	1	0.0	1	null	6	null	6	56.92	1	993.87	1	41.076845	16.866987
179	2024-01-08 10:00:00	16	carbonara	10.78	1	80.26	1	0.0	1	null	6	null	6	106.75	1	994.32	1	41.076845	16.866987
180	2024-01-08 11:00:00	16	carbonara	11.42	1	77.97	1	0.0	1	null	6	null	6	126.8	1	994.87	1	41.076845	16.866987
181	2024-01-08 12:00:00	16	carbonara	12.63	1	71.58	1	0.0	1	null	6	null	6	200.67	1	994.71	1	41.076845	16.866987
182	2024-01-08 13:00:00	16	carbonara	15.25	1	59.64	1	0.2	1	null	6	null	6	388.71	1	994.3	1	41.076845	16.866987
183	2024-01-08 14:00:00	16	carbonara	16.24	1	52.97	1	0.0	1	null	6	null	6	264.33	1	994.14	1	41.076845	16.866987
184	2024-01-08 15:00:00	16	carbonara	14.4	1	55.53	1	0.0	1	null	6	null	6	181.22	1	994.37	1	41.076845	16.866987
185	2024-01-08 16:00:00	16	carbonara	13.54	1	63.29	1	0.0	1	null	6	null	6	66.07	1	994.92	1	41.076845	16.866987
186	2024-01-08 17:00:00	16	carbonara	12.58	1	70.21	1	0.0	1	null	6	null	6	7.88	1	995.44	1	41.076845	16.866987
187	2024-01-08 18:00:00	16	carbonara	11.32	1	78.05	1	0.0	1	null	6	null	6	0.0	1	995.93	1	41.076845	16.866987
188	2024-01-08 19:00:00	16	carbonara	10.25	1	84.06	1	0.0	1	null	6	null	6	0.0	1	996.43	1	41.076845	16.866987
189	2024-01-08 20:00:00	16	carbonara	9.69	1	87.83	1	0.0	1	null	6	null	6	0.0	1	997.18	1	41.076845	16.866987
190	2024-01-08 21:00:00	16	carbonara	9.2	1	89.96	1	0.2	1	null	6	null	6	0.0	1	997.97	1	41.076845	16.866987
191	2024-01-08 22:00:00	16	carbonara	8.81	1	91.48	1	0.0	1	null	6	null	6	0.0	1	998.87	1	41.076845	16.866987
192	2024-01-08 23:00:00	16	carbonara	8.88	1	92.28	1	0.0	1	null	6	null	6	0.0	1	999.61	1	41.076845	16.866987
193	2024-01-09 00:00:00	16	carbonara	8.71	1	93.39	1	0.0	1	null	6	null	6	0.0	1	999.97	1	41.076845	16.866987
194	2024-01-09 01:00:00	16	carbonara	9.28	1	96.42	1	0.0	1	null	6	null	6	0.0	1	1000.43	1	41.076845	16.866987
195	2024-01-09 02:00:00	16	carbonara	9.58	1	98.0	1	0.0	1	null	6	null	6	0.0	1	1000.77	1	41.076845	16.866987
196	2024-01-09 03:00:00	16	carbonara	9.48	1	98.48	1	0.0	1	null	6	null	6	0.0	1	1001.41	1	41.076845	16.866987
197	2024-01-09 04:00:00	16	carbonara	9.52	1	99.34	1	0.0	1	null	6	null	6	0.0	1	1001.94	1	41.076845	16.866987
198	2024-01-09 05:00:00	16	carbonara	9.5	1	null	3	0.0	1	null	6	null	6	0.0	1	1002.26	1	41.076845	16.866987
199	2024-01-09 06:00:00	16	carbonara	9.35	1	null	3	0.2	1	null	6	null	6	0.0	1	1002.87	1	41.076845	16.866987
200	2024-01-09 07:00:00	16	carbonara	9.39	1	null	3	0.0	1	null	6	null	6	0.0	1	1003.65	1	41.076845	16.866987
201	2024-01-09 08:00:00	16	carbonara	9.64	1	null	3	0.0	1	null	6	null	6	0.0	5	1004.64	1	41.076845	16.866987
202	2024-01-09 09:00:00	16	carbonara	9.73	1	null	3	0.0	1	null	6	null	6	0.0	5	1005.63	1	41.076845	16.866987
203	2024-01-09 10:00:00	16	carbonara	9.84	1	98.92	1	0.0	1	null	6	null	6	58.69	1	1006.63	1	41.076845	16.866987
204	2024-01-09 11:00:00	16	carbonara	10.64	1	91.59	1	0.0	1	null	6	null	6	100.97	1	1007.39	1	41.076845	16.866987
205	2024-01-09 12:00:00	16	carbonara	9.78	1	89.64	1	0.0	1	null	6	null	6	91.74	1	1007.96	1	41.076845	16.866987
206	2024-01-09 13:00:00	16	carbonara	9.63	1	91.83	1	0.2	1	null	6	null	6	59.55	1	1008.18	1	41.076845	16.866987
207	2024-01-09 14:00:00	16	carbonara	9.46	1	90.83	1	0.0	1	null	6	null	6	19.68	1	1008.33	1	41.076845	16.866987
208	2024-01-09 15:00:00	16	carbonara	10.12	1	78.05	1	0.0	1	null	6	null	6	39.88	1	1008.89	1	41.076845	16.866987
209	2024-01-09 16:00:00	16	carbonara	10.42	1	72.16	1	0.0	1	null	6	null	6	14.57	1	1009.5	1	41.076845	16.866987
210	2024-01-09 17:00:00	16	carbonara	9.69	1	80.4	1	0.0	1	null	6	null	6	0.0	5	1010.06	1	41.076845	16.866987
211	2024-01-09 18:00:00	16	carbonara	9.42	1	79.03	1	0.0	1	null	6	null	6	0.0	1	1010.68	1	41.076845	16.866987
212	2024-01-09 19:00:00	16	carbonara	9.2	1	77.31	1	0.0	1	null	6	null	6	0.0	1	1011.2	1	41.076845	16.866987
213	2024-01-09 20:00:00	16	carbonara	9.14	1	73.38	1	0.0	1	null	6	null	6	0.0	1	1011.76	1	41.076845	16.866987
214	2024-01-09 21:00:00	16	carbonara	8.98	1	71.42	1	0.2	1	null	6	null	6	0.0	1	1012.25	1	41.076845	16.866987
215	2024-01-09 22:00:00	16	carbonara	8.78	1	72.62	1	0.0	1	null	6	null	6	0.0	1	1012.7	1	41.076845	16.866987
216	2024-01-09 23:00:00	16	carbonara	8.13	1	77.41	1	0.0	1	null	6	null	6	0.0	1	1013.08	1	41.076845	16.866987
217	2024-01-10 00:00:00	16	carbonara	8.17	1	78.78	1	0.0	1	null	6	null	6	0.0	1	1013.21	1	41.076845	16.866987
218	2024-01-10 01:00:00	16	carbonara	8.21	1	79.05	1	0.0	1	null	6	null	6	0.0	1	1013.13	1	41.076845	16.866987
219	2024-01-10 02:00:00	16	carbonara	8.23	1	79.04	1	0.0	1	null	6	null	6	0.0	1	1013.46	1	41.076845	16.866987
220	2024-01-10 03:00:00	16	carbonara	8.31	1	78.94	1	0.0	1	null	6	null	6	0.0	1	1014.13	1	41.076845	16.866987
221	2024-01-10 04:00:00	16	carbonara	8.42	1	78.55	1	0.2	1	null	6	null	6	0.0	1	1014.09	1	41.076845	16.866987
222	2024-01-10 05:00:00	16	carbonara	8.37	1	79.73	1	0.0	1	null	6	null	6	0.0	1	1014.08	1	41.076845	16.866987
223	2024-01-10 06:00:00	16	carbonara	8.34	1	80.15	1	0.0	1	null	6	null	6	0.0	1	1014.35	1	41.076845	16.866987
224	2024-01-10 07:00:00	16	carbonara	8.38	1	80.24	1	0.0	1	null	6	null	6	0.0	1	1014.94	1	41.076845	16.866987
225	2024-01-10 08:00:00	16	carbonara	8.46	1	80.16	1	0.0	1	null	6	null	6	0.0	5	1015.31	1	41.076845	16.866987
226	2024-01-10 09:00:00	16	carbonara	8.65	1	79.88	1	0.0	1	null	6	null	6	7.52	1	1015.98	1	41.076845	16.866987
227	2024-01-10 10:00:00	16	carbonara	8.76	1	79.06	1	0.0	1	null	6	null	6	22.07	1	1016.47	1	41.076845	16.866987
228	2024-01-10 11:00:00	16	carbonara	9.02	1	75.93	1	0.0	1	null	6	null	6	49.82	1	1016.49	1	41.076845	16.866987
229	2024-01-10 12:00:00	16	carbonara	10.11	1	71.42	1	0.2	1	null	6	null	6	174.93	1	1016.02	1	41.076845	16.866987
230	2024-01-10 13:00:00	16	carbonara	11.41	1	64.9	1	0.0	1	null	6	null	6	209.34	1	1015.64	1	41.076845	16.866987
231	2024-01-10 14:00:00	16	carbonara	11.67	1	64.93	1	0.0	1	null	6	null	6	162.13	1	1015.47	1	41.076845	16.866987
232	2024-01-10 15:00:00	16	carbonara	11.27	1	72.8	1	0.0	1	null	6	null	6	115.08	1	1015.43	1	41.076845	16.866987
233	2024-01-10 16:00:00	16	carbonara	10.72	1	78.76	1	0.0	1	null	6	null	6	31.99	1	1015.51	1	41.076845	16.866987
234	2024-01-10 17:00:00	16	carbonara	10.33	1	80.18	1	0.0	1	null	6	null	6	8.02	1	1015.75	1	41.076845	16.866987
235	2024-01-10 18:00:00	16	carbonara	10.33	1	77.92	1	0.0	1	null	6	null	6	0.0	1	1016.01	1	41.076845	16.866987
236	2024-01-10 19:00:00	16	carbonara	9.95	1	85.68	1	0.2	1	null	6	null	6	0.0	1	1015.82	1	41.076845	16.866987
237	2024-01-10 20:00:00	16	carbonara	9.67	1	87.74	1	0.0	1	null	6	null	6	0.0	1	1015.84	1	41.076845	16.866987
238	2024-01-10 21:00:00	16	carbonara	9.51	1	86.73	1	0.0	1	null	6	null	6	0.0	1	1015.95	1	41.076845	16.866987
239	2024-01-10 22:00:00	16	carbonara	9.1	1	89.6	1	0.0	1	null	6	null	6	0.0	1	1016.04	1	41.076845	16.866987
240	2024-01-10 23:00:00	16	carbonara	8.86	1	91.97	1	0.0	1	null	6	null	6	0.0	1	1015.85	1	41.076845	16.866987
241	2024-01-11 00:00:00	16	carbonara	8.76	1	92.43	1	0.0	1	null	6	null	6	0.0	1	1015.48	1	41.076845	16.866987
242	2024-01-11 01:00:00	16	carbonara	8.67	1	92.08	1	0.0	1	null	6	null	6	0.0	1	1015.14	1	41.076845	16.866987
243	2024-01-11 02:00:00	16	carbonara	8.55	1	92.51	1	0.0	1	null	6	null	6	0.0	1	1014.75	1	41.076845	16.866987
244	2024-01-11 03:00:00	16	carbonara	8.49	1	91.37	1	0.0	1	null	6	null	6	0.0	1	1014.56	1	41.076845	16.866987
245	2024-01-11 04:00:00	16	carbonara	8.44	1	90.19	1	0.2	1	null	6	null	6	0.0	1	1014.28	1	41.076845	16.866987
246	2024-01-11 05:00:00	16	carbonara	8.47	1	88.98	1	0.0	1	null	6	null	6	0.0	1	1013.79	1	41.076845	16.866987
247	2024-01-11 06:00:00	16	carbonara	8.28	1	88.86	1	0.0	1	null	6	null	6	0.0	1	1013.52	1	41.076845	16.866987
248	2024-01-11 07:00:00	16	carbonara	8.03	1	91.08	1	0.0	1	null	6	null	6	0.0	1	1013.68	1	41.076845	16.866987
249	2024-01-11 08:00:00	16	carbonara	8.11	1	91.35	1	0.0	1	null	6	null	6	13.21	1	1013.72	1	41.076845	16.866987
250	2024-01-11 09:00:00	16	carbonara	8.57	1	90.15	1	0.0	1	null	6	null	6	67.22	1	1013.58	1	41.076845	16.866987
251	2024-01-11 10:00:00	16	carbonara	9.62	1	86.88	1	0.0	1	null	6	null	6	123.5	1	1013.4	1	41.076845	16.866987
252	2024-01-11 11:00:00	16	carbonara	10.77	1	82.89	1	0.2	1	null	6	null	6	200.31	1	1013.03	1	41.076845	16.866987
253	2024-01-11 12:00:00	16	carbonara	11.76	1	74.0	1	0.0	1	null	6	null	6	159.39	1	1012.41	1	41.076845	16.866987
254	2024-01-11 13:00:00	16	carbonara	11.87	1	71.46	1	0.0	1	null	6	null	6	118.82	1	1011.73	1	41.076845	16.866987
255	2024-01-11 14:00:00	16	carbonara	11.86	1	71.72	1	0.0	1	null	6	null	6	123.98	1	1010.99	1	41.076845	16.866987
256	2024-01-11 15:00:00	16	carbonara	11.79	1	76.05	1	0.0	1	null	6	null	6	130.82	1	1010.42	1	41.076845	16.866987
257	2024-01-11 16:00:00	16	carbonara	11.58	1	74.88	1	0.0	1	null	6	null	6	56.38	1	1010.26	1	41.076845	16.866987
258	2024-01-11 17:00:00	16	carbonara	10.35	1	86.54	1	0.0	1	null	6	null	6	5.63	1	1010.33	1	41.076845	16.866987
259	2024-01-11 18:00:00	16	carbonara	9.58	1	92.83	1	0.0	1	null	6	null	6	0.0	1	1010.25	1	41.076845	16.866987
260	2024-01-11 19:00:00	16	carbonara	9.33	1	94.1	1	0.2	1	null	6	null	6	0.0	1	1010.05	1	41.076845	16.866987
261	2024-01-11 20:00:00	16	carbonara	9.09	1	92.62	1	0.0	1	null	6	null	6	0.0	1	1009.8	1	41.076845	16.866987
262	2024-01-11 21:00:00	16	carbonara	8.83	1	91.42	1	0.0	1	null	6	null	6	0.0	1	1009.53	1	41.076845	16.866987
263	2024-01-11 22:00:00	16	carbonara	8.7	1	90.19	1	0.0	1	null	6	null	6	0.0	1	1009.53	1	41.076845	16.866987
264	2024-01-11 23:00:00	16	carbonara	8.55	1	94.29	1	0.0	1	null	6	null	6	0.0	1	1009.57	1	41.076845	16.866987
265	2024-01-12 00:00:00	16	carbonara	8.56	1	96.64	1	0.0	1	null	6	null	6	0.0	1	1009.16	1	41.076845	16.866987
266	2024-01-12 01:00:00	16	carbonara	8.69	1	96.54	1	0.0	1	null	6	null	6	0.0	1	1008.53	1	41.076845	16.866987
267	2024-01-12 02:00:00	16	carbonara	8.59	1	93.44	1	0.0	1	null	6	null	6	0.0	1	1008.32	1	41.076845	16.866987
268	2024-01-12 03:00:00	16	carbonara	8.56	1	88.67	1	0.2	1	null	6	null	6	0.0	1	1008.22	1	41.076845	16.866987
269	2024-01-12 04:00:00	16	carbonara	8.61	1	86.21	1	0.0	1	null	6	null	6	0.0	1	1007.85	1	41.076845	16.866987
270	2024-01-12 05:00:00	16	carbonara	8.35	1	85.85	1	0.0	1	null	6	null	6	0.0	1	1007.53	1	41.076845	16.866987
271	2024-01-12 06:00:00	16	carbonara	8.43	1	85.35	1	0.0	1	null	6	null	6	0.0	1	1007.55	1	41.076845	16.866987
272	2024-01-12 07:00:00	16	carbonara	8.27	1	85.44	1	0.0	1	null	6	null	6	0.0	1	1007.68	1	41.076845	16.866987
273	2024-01-12 08:00:00	16	carbonara	7.87	1	84.24	1	0.0	1	null	6	null	6	9.15	1	1007.78	1	41.076845	16.866987
274	2024-01-12 09:00:00	16	carbonara	8.39	1	77.97	1	0.0	1	null	6	null	6	59.56	1	1008.01	1	41.076845	16.866987
275	2024-01-12 10:00:00	16	carbonara	9.57	1	70.36	1	0.0	1	null	6	null	6	114.35	1	1008.48	1	41.076845	16.866987
276	2024-01-12 11:00:00	16	carbonara	11.18	1	60.74	1	0.0	1	null	6	null	6	273.5	1	1008.78	1	41.076845	16.866987
277	2024-01-12 12:00:00	16	carbonara	13.0	1	36.88	1	0.2	1	null	6	null	6	462.36	1	1008.6	1	41.076845	16.866987
278	2024-01-12 13:00:00	16	carbonara	13.84	1	37.76	1	0.0	1	null	6	null	6	467.74	1	1008.23	1	41.076845	16.866987
279	2024-01-12 14:00:00	16	carbonara	13.7	1	38.92	1	0.0	1	null	6	null	6	421.6	1	1007.95	1	41.076845	16.866987
280	2024-01-12 15:00:00	16	carbonara	13.22	1	40.62	1	0.0	1	null	6	null	6	307.68	1	1007.9	1	41.076845	16.866987
281	2024-01-12 16:00:00	16	carbonara	12.05	1	43.69	1	0.0	1	null	6	null	6	72.87	1	1008.21	1	41.076845	16.866987
282	2024-01-12 17:00:00	16	carbonara	10.8	1	48.57	1	0.0	1	null	6	null	6	10.11	1	1008.61	1	41.076845	16.866987
283	2024-01-12 18:00:00	16	carbonara	10.18	1	55.18	1	0.0	1	null	6	null	6	0.0	1	1008.83	1	41.076845	16.866987
284	2024-01-12 19:00:00	16	carbonara	10.3	1	52.31	1	0.2	1	null	6	null	6	0.0	1	1009.04	1	41.076845	16.866987
285	2024-01-12 20:00:00	16	carbonara	9.82	1	59.94	1	0.0	1	null	6	null	6	0.0	1	1009.23	1	41.076845	16.866987
286	2024-01-12 21:00:00	16	carbonara	9.44	1	62.46	1	0.0	1	null	6	null	6	0.0	1	1009.68	1	41.076845	16.866987
287	2024-01-12 22:00:00	16	carbonara	8.11	1	74.98	1	0.0	1	null	6	null	6	0.0	1	1010.24	1	41.076845	16.866987
288	2024-01-12 23:00:00	16	carbonara	7.72	1	68.67	1	0.0	1	null	6	null	6	0.0	1	1010.63	1	41.076845	16.866987
289	2024-01-13 00:00:00	16	carbonara	7.52	1	63.88	1	0.0	1	null	6	null	6	0.0	1	1010.78	1	41.076845	16.866987
290	2024-01-13 01:00:00	16	carbonara	7.6	1	61.47	1	0.0	1	null	6	null	6	0.0	1	1010.72	1	41.076845	16.866987
291	2024-01-13 02:00:00	16	carbonara	7.38	1	59.36	1	0.0	1	null	6	null	6	0.0	1	1010.93	1	41.076845	16.866987
292	2024-01-13 03:00:00	16	carbonara	7.18	1	59.04	1	0.0	1	null	6	null	6	0.0	1	1011.02	1	41.076845	16.866987
293	2024-01-13 04:00:00	16	carbonara	7.12	1	60.44	1	0.0	1	null	6	null	6	0.0	1	1010.85	1	41.076845	16.866987
294	2024-01-13 05:00:00	16	carbonara	6.96	1	59.46	1	0.2	1	null	6	null	6	0.0	1	1010.93	1	41.076845	16.866987
295	2024-01-13 06:00:00	16	carbonara	7.0	1	58.96	1	0.0	1	null	6	null	6	0.0	1	1011.07	1	41.076845	16.866987
296	2024-01-13 07:00:00	16	carbonara	6.94	1	58.1	1	0.0	1	null	6	null	6	0.0	1	1011.25	1	41.076845	16.866987
297	2024-01-13 08:00:00	16	carbonara	6.85	1	57.42	1	0.0	1	null	6	null	6	0.0	5	1011.74	1	41.076845	16.866987
298	2024-01-13 09:00:00	16	carbonara	6.61	1	57.54	1	0.0	1	null	6	null	6	52.97	1	1012.45	1	41.076845	16.866987
299	2024-01-13 10:00:00	16	carbonara	7.52	1	57.54	1	0.0	1	null	6	null	6	123.89	1	1012.92	1	41.076845	16.866987
300	2024-01-13 11:00:00	16	carbonara	9.06	1	53.93	1	0.0	1	null	6	null	6	262.69	1	1013.05	1	41.076845	16.866987
301	2024-01-13 12:00:00	16	carbonara	10.47	1	50.0	1	0.0	1	null	6	null	6	406.86	1	1012.69	1	41.076845	16.866987
302	2024-01-13 13:00:00	16	carbonara	11.44	1	48.36	1	0.2	1	null	6	null	6	379.37	1	1012.23	1	41.076845	16.866987
303	2024-01-13 14:00:00	16	carbonara	11.47	1	49.86	1	0.0	1	null	6	null	6	315.96	1	1011.67	1	41.076845	16.866987
304	2024-01-13 15:00:00	16	carbonara	11.65	1	50.88	1	0.0	1	null	6	null	6	280.0	1	1011.37	1	41.076845	16.866987
305	2024-01-13 16:00:00	16	carbonara	11.26	1	52.15	1	0.0	1	null	6	null	6	118.96	1	1011.29	1	41.076845	16.866987
306	2024-01-13 17:00:00	16	carbonara	9.96	1	55.97	1	0.0	1	null	6	null	6	17.8	1	1011.35	1	41.076845	16.866987
307	2024-01-13 18:00:00	16	carbonara	8.73	1	61.32	1	0.0	1	null	6	null	6	0.0	1	1011.51	1	41.076845	16.866987
308	2024-01-13 19:00:00	16	carbonara	7.97	1	70.58	1	0.0	1	null	6	null	6	0.0	1	1011.5	1	41.076845	16.866987
309	2024-01-13 20:00:00	16	carbonara	6.81	1	79.01	1	0.0	1	null	6	null	6	0.0	1	1011.48	1	41.076845	16.866987
310	2024-01-13 21:00:00	16	carbonara	6.01	1	81.83	1	0.0	1	null	6	null	6	0.0	1	1011.38	1	41.076845	16.866987
311	2024-01-13 22:00:00	16	carbonara	5.73	1	81.39	1	0.2	1	null	6	null	6	0.0	1	1011.41	1	41.076845	16.866987
312	2024-01-13 23:00:00	16	carbonara	5.3	1	82.27	1	0.0	1	null	6	null	6	0.0	1	1011.22	1	41.076845	16.866987
313	2024-01-14 00:00:00	16	carbonara	4.9	1	84.08	1	0.0	1	null	6	null	6	0.0	1	1010.84	1	41.076845	16.866987
314	2024-01-14 01:00:00	16	carbonara	4.6	1	81.94	1	0.0	1	null	6	null	6	0.0	1	1010.35	1	41.076845	16.866987
315	2024-01-14 02:00:00	16	carbonara	3.93	1	81.53	1	0.0	1	null	6	null	6	0.0	1	1009.93	1	41.076845	16.866987
316	2024-01-14 03:00:00	16	carbonara	3.32	1	79.47	1	0.0	1	null	6	null	6	0.0	1	1009.75	1	41.076845	16.866987
317	2024-01-14 04:00:00	16	carbonara	2.49	1	81.11	1	0.0	1	null	6	null	6	0.0	1	1009.16	1	41.076845	16.866987
318	2024-01-14 05:00:00	16	carbonara	2.22	1	80.39	1	0.0	1	null	6	null	6	0.0	1	1008.83	1	41.076845	16.866987
319	2024-01-14 06:00:00	16	carbonara	2.14	1	76.33	1	0.0	1	null	6	null	6	0.0	1	1008.76	1	41.076845	16.866987
320	2024-01-14 07:00:00	16	carbonara	2.43	1	72.7	1	0.0	1	null	6	null	6	0.0	1	1008.66	1	41.076845	16.866987
321	2024-01-14 08:00:00	16	carbonara	2.08	1	75.74	1	0.0	1	null	6	null	6	8.7	1	1008.74	1	41.076845	16.866987
322	2024-01-14 09:00:00	16	carbonara	3.64	1	69.53	1	0.2	1	null	6	null	6	36.16	1	1008.82	1	41.076845	16.866987
323	2024-01-14 10:00:00	16	carbonara	6.93	1	59.73	1	0.0	1	null	6	null	6	59.45	1	1008.8	1	41.076845	16.866987
324	2024-01-14 11:00:00	16	carbonara	10.49	1	48.92	1	0.0	1	null	6	null	6	188.51	1	1008.65	1	41.076845	16.866987
325	2024-01-14 12:00:00	16	carbonara	12.52	1	43.53	1	0.0	1	null	6	null	6	294.23	1	1007.7	1	41.076845	16.866987
326	2024-01-14 13:00:00	16	carbonara	12.95	1	44.04	1	0.0	1	null	6	null	6	214.79	1	1006.59	1	41.076845	16.866987
327	2024-01-14 14:00:00	16	carbonara	12.62	1	52.72	1	0.0	1	null	6	null	6	79.33	1	1005.76	1	41.076845	16.866987
328	2024-01-14 15:00:00	16	carbonara	12.33	1	56.8	1	0.0	1	null	6	null	6	82.74	1	1005.17	1	41.076845	16.866987
329	2024-01-14 16:00:00	16	carbonara	12.15	1	53.59	1	0.0	1	null	6	null	6	57.88	1	1004.96	1	41.076845	16.866987
330	2024-01-14 17:00:00	16	carbonara	11.04	1	57.31	1	0.0	1	null	6	null	6	20.41	1	1004.79	1	41.076845	16.866987
331	2024-01-14 18:00:00	16	carbonara	9.96	1	65.59	1	0.2	1	null	6	null	6	0.0	1	1004.32	1	41.076845	16.866987
332	2024-01-14 19:00:00	16	carbonara	9.43	1	73.79	1	0.0	1	null	6	null	6	0.0	1	1004.08	1	41.076845	16.866987
333	2024-01-14 20:00:00	16	carbonara	9.18	1	80.88	1	0.0	1	null	6	null	6	0.0	1	1003.86	1	41.076845	16.866987
334	2024-01-14 21:00:00	16	carbonara	9.11	1	82.14	1	0.0	1	null	6	null	6	0.0	1	1003.71	1	41.076845	16.866987
335	2024-01-14 22:00:00	16	carbonara	9.33	1	81.02	1	0.0	1	null	6	null	6	0.0	1	1003.24	1	41.076845	16.866987
336	2024-01-14 23:00:00	16	carbonara	8.91	1	81.46	1	0.0	1	null	6	null	6	0.0	1	1002.66	1	41.076845	16.866987
337	2024-01-15 00:00:00	16	carbonara	8.94	1	76.81	1	0.0	1	null	6	null	6	0.0	1	1002.27	1	41.076845	16.866987
338	2024-01-15 01:00:00	16	carbonara	9.32	1	71.97	1	0.0	1	null	6	null	6	0.0	1	1001.47	1	41.076845	16.866987
339	2024-01-15 02:00:00	16	carbonara	10.28	1	67.47	1	0.0	1	null	6	null	6	0.0	1	1000.59	1	41.076845	16.866987
340	2024-01-15 03:00:00	16	carbonara	10.7	1	68.55	1	0.2	1	null	6	null	6	0.0	1	1000.02	1	41.076845	16.866987
341	2024-01-15 04:00:00	16	carbonara	10.81	1	72.62	1	0.0	1	null	6	null	6	0.0	1	999.07	1	41.076845	16.866987
342	2024-01-15 05:00:00	16	carbonara	10.39	1	84.05	1	0.0	1	null	6	null	6	0.0	1	998.42	1	41.076845	16.866987
343	2024-01-15 06:00:00	16	carbonara	10.15	1	88.81	1	0.0	1	null	6	null	6	0.0	1	997.72	1	41.076845	16.866987
344	2024-01-15 07:00:00	16	carbonara	10.48	1	90.93	1	0.0	1	null	6	null	6	0.0	1	996.74	1	41.076845	16.866987
345	2024-01-15 08:00:00	16	carbonara	11.15	1	89.96	1	0.0	1	null	6	null	6	0.0	5	995.97	1	41.076845	16.866987
346	2024-01-15 09:00:00	16	carbonara	11.64	1	83.85	1	0.0	1	null	6	null	6	18.26	1	995.81	1	41.076845	16.866987
347	2024-01-15 10:00:00	16	carbonara	12.18	1	83.78	1	0.0	1	null	6	null	6	49.33	1	995.43	1	41.076845	16.866987
348	2024-01-15 11:00:00	16	carbonara	12.65	1	77.28	1	0.0	1	null	6	null	6	47.65	1	995.07	1	41.076845	16.866987
349	2024-01-15 12:00:00	16	carbonara	13.76	1	67.55	1	0.2	1	null	6	null	6	149.31	1	994.22	1	41.076845	16.866987
350	2024-01-15 13:00:00	16	carbonara	14.97	1	65.31	1	3.0	1	null	6	null	6	224.28	1	993.34	1	41.076845	16.866987
351	2024-01-15 14:00:00	16	carbonara	15.33	1	67.68	1	0.0	1	null	6	null	6	188.79	1	992.55	1	41.076845	16.866987
352	2024-01-15 15:00:00	16	carbonara	15.34	1	69.93	1	0.0	1	null	6	null	6	107.4	1	992.43	1	41.076845	16.866987
353	2024-01-15 16:00:00	16	carbonara	15.42	1	70.01	1	0.0	1	null	6	null	6	94.57	1	992.15	1	41.076845	16.866987
354	2024-01-15 17:00:00	16	carbonara	15.14	1	64.78	1	0.0	1	null	6	null	6	16.32	1	992.13	1	41.076845	16.866987
355	2024-01-15 18:00:00	16	carbonara	14.57	1	63.07	1	0.0	1	null	6	null	6	0.0	1	992.43	1	41.076845	16.866987
356	2024-01-15 19:00:00	16	carbonara	14.03	1	64.23	1	0.0	1	null	6	null	6	0.0	1	992.95	1	41.076845	16.866987
357	2024-01-15 20:00:00	16	carbonara	13.31	1	64.85	1	0.0	1	null	6	null	6	0.0	1	993.02	1	41.076845	16.866987
358	2024-01-15 21:00:00	16	carbonara	14.32	1	58.53	1	0.0	1	null	6	null	6	0.0	1	993.38	1	41.076845	16.866987
359	2024-01-15 22:00:00	16	carbonara	12.43	1	66.98	1	0.0	1	null	6	null	6	0.0	1	993.43	1	41.076845	16.866987
360	2024-01-15 23:00:00	16	carbonara	11.94	1	69.0	1	0.0	1	null	6	null	6	0.0	1	993.53	1	41.076845	16.866987
361	2024-01-16 00:00:00	16	carbonara	10.41	1	76.65	1	0.0	1	null	6	null	6	0.0	1	994.04	1	41.076845	16.866987
362	2024-01-16 01:00:00	16	carbonara	10.47	1	75.7	1	0.0	1	null	6	null	6	0.0	1	994.51	1	41.076845	16.866987
363	2024-01-16 02:00:00	16	carbonara	9.09	1	83.07	1	0.0	1	null	6	null	6	0.0	1	994.98	1	41.076845	16.866987
364	2024-01-16 03:00:00	16	carbonara	8.52	1	85.11	1	0.0	1	null	6	null	6	0.0	1	995.39	1	41.076845	16.866987
365	2024-01-16 04:00:00	16	carbonara	8.18	1	83.56	1	0.0	1	null	6	null	6	0.0	1	995.51	1	41.076845	16.866987
366	2024-01-16 05:00:00	16	carbonara	8.44	1	80.17	1	0.0	1	null	6	null	6	0.0	1	995.92	1	41.076845	16.866987
367	2024-01-16 06:00:00	16	carbonara	7.69	1	85.18	1	0.0	1	null	6	null	6	0.0	1	996.58	1	41.076845	16.866987
368	2024-01-16 07:00:00	16	carbonara	7.36	1	88.08	1	0.0	1	null	6	null	6	0.0	1	997.47	1	41.076845	16.866987
369	2024-01-16 08:00:00	16	carbonara	8.96	1	82.9	1	0.0	1	null	6	null	6	9.29	1	998.32	1	41.076845	16.866987
370	2024-01-16 09:00:00	16	carbonara	11.11	1	72.63	1	0.0	1	null	6	null	6	37.97	1	999.31	1	41.076845	16.866987
371	2024-01-16 10:00:00	16	carbonara	13.81	1	62.38	1	0.0	1	null	6	null	6	55.36	1	1000.22	1	41.076845	16.866987
372	2024-01-16 11:00:00	16	carbonara	16.61	1	50.26	1	0.0	1	null	6	null	6	310.47	1	1000.75	1	41.076845	16.866987
373	2024-01-16 12:00:00	16	carbonara	19.09	1	40.69	1	0.0	1	null	6	null	6	448.24	1	1000.71	1	41.076845	16.866987
374	2024-01-16 13:00:00	16	carbonara	19.18	1	40.94	1	0.0	1	null	6	null	6	422.24	1	1000.59	1	41.076845	16.866987
375	2024-01-16 14:00:00	16	carbonara	18.12	1	43.57	1	0.0	1	null	6	null	6	304.5	1	1000.4	1	41.076845	16.866987
376	2024-01-16 15:00:00	16	carbonara	17.54	1	47.98	1	0.0	1	null	6	null	6	224.55	1	1000.35	1	41.076845	16.866987
377	2024-01-16 16:00:00	16	carbonara	15.53	1	62.4	1	0.0	1	null	6	null	6	63.37	1	1001.06	1	41.076845	16.866987
378	2024-01-16 17:00:00	16	carbonara	14.48	1	73.07	1	0.0	1	null	6	null	6	18.12	1	1001.6	1	41.076845	16.866987
379	2024-01-16 18:00:00	16	carbonara	13.8	1	76.31	1	0.0	1	null	6	null	6	0.0	1	1002.17	1	41.076845	16.866987
380	2024-01-16 19:00:00	16	carbonara	13.16	1	76.79	1	0.0	1	null	6	null	6	0.0	1	1002.77	1	41.076845	16.866987
381	2024-01-16 20:00:00	16	carbonara	12.39	1	83.66	1	0.2	1	null	6	null	6	0.0	1	1002.69	1	41.076845	16.866987
382	2024-01-16 21:00:00	16	carbonara	11.3	1	87.11	1	0.0	1	null	6	null	6	0.0	1	1002.81	1	41.076845	16.866987
383	2024-01-16 22:00:00	16	carbonara	10.77	1	86.06	1	0.0	1	null	6	null	6	0.0	1	1003.07	1	41.076845	16.866987
384	2024-01-16 23:00:00	16	carbonara	10.92	1	83.2	1	0.0	1	null	6	null	6	0.0	1	1003.48	1	41.076845	16.866987
385	2024-01-17 00:00:00	16	carbonara	10.38	1	86.12	1	0.0	1	null	6	null	6	0.0	1	1003.55	1	41.076845	16.866987
386	2024-01-17 01:00:00	16	carbonara	10.1	1	88.29	1	0.0	1	null	6	null	6	0.0	1	1003.05	1	41.076845	16.866987
387	2024-01-17 02:00:00	16	carbonara	9.97	1	87.6	1	0.0	1	null	6	null	6	0.0	1	1003.17	1	41.076845	16.866987
388	2024-01-17 03:00:00	16	carbonara	9.84	1	86.5	1	0.0	1	null	6	null	6	0.0	1	1003.43	1	41.076845	16.866987
389	2024-01-17 04:00:00	16	carbonara	9.73	1	84.1	1	0.0	1	null	6	null	6	0.0	1	1002.93	1	41.076845	16.866987
390	2024-01-17 05:00:00	16	carbonara	10.05	1	80.2	1	0.0	1	null	6	null	6	0.0	1	1002.88	1	41.076845	16.866987
391	2024-01-17 06:00:00	16	carbonara	10.59	1	78.79	1	0.0	1	null	6	null	6	0.0	1	1002.69	1	41.076845	16.866987
392	2024-01-17 07:00:00	16	carbonara	10.3	1	79.9	1	0.0	1	null	6	null	6	0.0	1	1002.89	1	41.076845	16.866987
393	2024-01-17 08:00:00	16	carbonara	10.44	1	78.2	1	0.0	1	null	6	null	6	14.05	1	1003.33	1	41.076845	16.866987
394	2024-01-17 09:00:00	16	carbonara	12.0	1	75.08	1	0.0	1	null	6	null	6	69.08	1	1003.25	1	41.076845	16.866987
395	2024-01-17 10:00:00	16	carbonara	14.79	1	64.79	1	0.0	1	null	6	null	6	134.19	1	1003.09	1	41.076845	16.866987
396	2024-01-17 11:00:00	16	carbonara	17.43	1	55.26	1	0.0	1	null	6	null	6	303.0	1	1002.69	1	41.076845	16.866987
397	2024-01-17 12:00:00	16	carbonara	19.02	1	51.59	1	0.0	1	null	6	null	6	265.43	1	1001.97	1	41.076845	16.866987
398	2024-01-17 13:00:00	16	carbonara	18.28	1	55.72	1	0.0	1	null	6	null	6	82.31	1	1001.37	1	41.076845	16.866987
399	2024-01-17 14:00:00	16	carbonara	17.33	1	61.12	1	0.0	1	null	6	null	6	149.8	1	1000.59	1	41.076845	16.866987
400	2024-01-17 15:00:00	16	carbonara	17.23	1	66.44	1	0.0	1	null	6	null	6	118.65	1	1000.33	1	41.076845	16.866987
401	2024-01-17 16:00:00	16	carbonara	16.82	1	68.32	1	0.0	1	null	6	null	6	34.97	1	1000.43	1	41.076845	16.866987
402	2024-01-17 17:00:00	16	carbonara	16.43	1	72.21	1	0.0	1	null	6	null	6	0.0	5	1000.15	1	41.076845	16.866987
403	2024-01-17 18:00:00	16	carbonara	15.75	1	77.8	1	0.0	1	null	6	null	6	0.0	1	1000.17	1	41.076845	16.866987
404	2024-01-17 19:00:00	16	carbonara	15.51	1	77.83	1	0.0	1	null	6	null	6	0.0	1	1001.16	1	41.076845	16.866987
405	2024-01-17 20:00:00	16	carbonara	15.13	1	78.4	1	0.2	1	null	6	null	6	0.0	1	1000.6	1	41.076845	16.866987
406	2024-01-17 21:00:00	16	carbonara	15.25	1	75.79	1	0.0	1	null	6	null	6	0.0	1	999.99	1	41.076845	16.866987
407	2024-01-17 22:00:00	16	carbonara	15.66	1	74.25	1	0.0	1	null	6	null	6	0.0	1	999.54	1	41.076845	16.866987
408	2024-01-17 23:00:00	16	carbonara	15.34	1	75.72	1	0.0	1	null	6	null	6	0.0	1	998.76	1	41.076845	16.866987
409	2024-01-18 00:00:00	16	carbonara	15.74	1	69.85	1	0.0	1	null	6	null	6	0.0	1	998.34	1	41.076845	16.866987
410	2024-01-18 01:00:00	16	carbonara	16.01	1	69.17	1	0.0	1	null	6	null	6	0.0	1	998.46	1	41.076845	16.866987
411	2024-01-18 02:00:00	16	carbonara	15.32	1	76.41	1	0.0	1	null	6	null	6	0.0	1	998.31	1	41.076845	16.866987
412	2024-01-18 03:00:00	16	carbonara	15.14	1	74.62	1	0.0	1	null	6	null	6	0.0	1	997.32	1	41.076845	16.866987
413	2024-01-18 04:00:00	16	carbonara	15.13	1	73.89	1	0.0	1	null	6	null	6	0.0	1	996.37	1	41.076845	16.866987
414	2024-01-18 05:00:00	16	carbonara	14.62	1	76.62	1	0.0	1	null	6	null	6	0.0	1	995.71	1	41.076845	16.866987
415	2024-01-18 06:00:00	16	carbonara	14.26	1	79.94	1	0.0	1	null	6	null	6	0.0	1	994.9	1	41.076845	16.866987
416	2024-01-18 07:00:00	16	carbonara	14.0	1	82.84	1	0.0	1	null	6	null	6	0.0	1	995.22	1	41.076845	16.866987
417	2024-01-18 08:00:00	16	carbonara	14.6	1	76.01	1	0.0	1	null	6	null	6	9.28	1	995.2	1	41.076845	16.866987
418	2024-01-18 09:00:00	16	carbonara	15.59	1	67.8	1	0.0	1	null	6	null	6	40.18	1	994.95	1	41.076845	16.866987
419	2024-01-18 10:00:00	16	carbonara	17.48	1	57.9	1	0.0	1	null	6	null	6	57.48	1	994.88	1	41.076845	16.866987
420	2024-01-18 11:00:00	16	carbonara	20.14	1	46.62	1	0.0	1	null	6	null	6	312.64	1	994.74	1	41.076845	16.866987
421	2024-01-18 12:00:00	16	carbonara	22.18	1	41.02	1	0.0	1	null	6	null	6	399.29	1	994.48	1	41.076845	16.866987
422	2024-01-18 13:00:00	16	carbonara	21.89	1	40.73	1	0.0	1	null	6	null	6	193.91	1	993.97	1	41.076845	16.866987
423	2024-01-18 14:00:00	16	carbonara	22.97	1	37.49	1	0.0	1	null	6	null	6	424.4	1	993.73	1	41.076845	16.866987
424	2024-01-18 15:00:00	16	carbonara	22.37	1	39.41	1	0.0	1	null	6	null	6	318.51	1	993.4	1	41.076845	16.866987
425	2024-01-18 16:00:00	16	carbonara	21.44	1	38.4	1	0.0	1	null	6	null	6	131.53	1	993.72	1	41.076845	16.866987
426	2024-01-18 17:00:00	16	carbonara	20.04	1	39.52	1	0.0	1	null	6	null	6	26.06	1	994.69	1	41.076845	16.866987
427	2024-01-18 18:00:00	16	carbonara	18.47	1	44.63	1	0.0	1	null	6	null	6	0.0	1	995.01	1	41.076845	16.866987
428	2024-01-18 19:00:00	16	carbonara	17.7	1	48.43	1	0.0	1	null	6	null	6	0.0	1	995.26	1	41.076845	16.866987
429	2024-01-18 20:00:00	16	carbonara	16.79	1	52.76	1	0.0	1	null	6	null	6	0.0	1	995.61	1	41.076845	16.866987
430	2024-01-18 21:00:00	16	carbonara	16.64	1	51.54	1	0.0	1	null	6	null	6	0.0	1	996.25	1	41.076845	16.866987
431	2024-01-18 22:00:00	16	carbonara	16.23	1	50.48	1	0.0	1	null	6	null	6	0.0	1	996.39	1	41.076845	16.866987
432	2024-01-18 23:00:00	16	carbonara	15.57	1	51.99	1	0.0	1	null	6	null	6	0.0	1	996.31	1	41.076845	16.866987
433	2024-01-19 00:00:00	16	carbonara	15.77	1	50.98	1	0.0	1	null	6	null	6	0.0	1	996.36	1	41.076845	16.866987
434	2024-01-19 01:00:00	16	carbonara	16.04	1	52.21	1	0.0	1	null	6	null	6	0.0	1	996.82	1	41.076845	16.866987
435	2024-01-19 02:00:00	16	carbonara	16.03	1	52.91	1	0.0	1	null	6	null	6	0.0	1	997.0	1	41.076845	16.866987
436	2024-01-19 03:00:00	16	carbonara	16.24	1	53.29	1	0.0	1	null	6	null	6	0.0	1	997.27	1	41.076845	16.866987
437	2024-01-19 04:00:00	16	carbonara	15.28	1	57.34	1	0.0	1	null	6	null	6	0.0	1	997.62	1	41.076845	16.866987
438	2024-01-19 05:00:00	16	carbonara	14.82	1	56.38	1	0.0	1	null	6	null	6	0.0	1	997.48	1	41.076845	16.866987
439	2024-01-19 06:00:00	16	carbonara	15.23	1	55.47	1	0.0	1	null	6	null	6	0.0	1	997.6	1	41.076845	16.866987
440	2024-01-19 07:00:00	16	carbonara	14.76	1	58.82	1	0.0	1	null	6	null	6	0.0	1	998.2	1	41.076845	16.866987
441	2024-01-19 08:00:00	16	carbonara	15.96	1	54.38	1	0.0	1	null	6	null	6	9.66	1	997.93	1	41.076845	16.866987
442	2024-01-19 09:00:00	16	carbonara	16.61	1	53.03	1	0.0	1	null	6	null	6	40.36	1	998.07	1	41.076845	16.866987
443	2024-01-19 10:00:00	16	carbonara	18.03	1	48.87	1	0.0	1	null	6	null	6	72.9	1	998.27	1	41.076845	16.866987
444	2024-01-19 11:00:00	16	carbonara	19.81	1	43.23	1	0.0	1	null	6	null	6	316.12	1	998.68	1	41.076845	16.866987
445	2024-01-19 12:00:00	16	carbonara	20.78	1	39.67	1	0.0	1	null	6	null	6	404.28	1	999.12	1	41.076845	16.866987
446	2024-01-19 13:00:00	16	carbonara	21.38	1	37.97	1	0.0	1	null	6	null	6	298.3	1	999.07	1	41.076845	16.866987
447	2024-01-19 14:00:00	16	carbonara	21.08	1	38.27	1	0.0	1	null	6	null	6	235.42	1	998.63	1	41.076845	16.866987
448	2024-01-19 15:00:00	16	carbonara	21.05	1	40.08	1	0.0	1	null	6	null	6	179.71	1	998.49	1	41.076845	16.866987
449	2024-01-19 16:00:00	16	carbonara	19.31	1	51.68	1	0.0	1	null	6	null	6	75.34	1	998.92	1	41.076845	16.866987
450	2024-01-19 17:00:00	16	carbonara	18.3	1	57.58	1	0.0	1	null	6	null	6	19.03	1	999.1	1	41.076845	16.866987
451	2024-01-19 18:00:00	16	carbonara	17.21	1	62.58	1	0.0	1	null	6	null	6	0.0	1	999.1	1	41.076845	16.866987
452	2024-01-19 19:00:00	16	carbonara	16.61	1	60.2	1	0.0	1	null	6	null	6	0.0	1	999.38	1	41.076845	16.866987
453	2024-01-19 20:00:00	16	carbonara	17.1	1	53.3	1	0.0	1	null	6	null	6	0.0	1	999.43	1	41.076845	16.866987
454	2024-01-19 21:00:00	16	carbonara	17.12	1	51.94	1	0.0	1	null	6	null	6	0.0	1	999.38	1	41.076845	16.866987
455	2024-01-19 22:00:00	16	carbonara	17.25	1	51.4	1	0.0	1	null	6	null	6	0.0	1	1000.05	1	41.076845	16.866987
456	2024-01-19 23:00:00	16	carbonara	17.08	1	52.71	1	0.0	1	null	6	null	6	0.0	1	1000.79	1	41.076845	16.866987
457	2024-01-20 00:00:00	16	carbonara	15.97	1	63.41	1	0.0	1	null	6	null	6	0.0	1	1002.02	1	41.076845	16.866987
458	2024-01-20 01:00:00	16	carbonara	13.31	1	88.13	1	0.4	1	null	6	null	6	0.0	1	1002.6	1	41.076845	16.866987
459	2024-01-20 02:00:00	16	carbonara	11.72	1	93.58	1	0.8	1	null	6	null	6	0.0	1	1003.38	1	41.076845	16.866987
460	2024-01-20 03:00:00	16	carbonara	11.31	1	93.5	1	0.6	1	null	6	null	6	0.0	1	1004.04	1	41.076845	16.866987
461	2024-01-20 04:00:00	16	carbonara	10.91	1	91.49	1	0.0	1	null	6	null	6	0.0	1	1004.52	1	41.076845	16.866987
462	2024-01-20 05:00:00	16	carbonara	10.48	1	81.27	1	0.2	1	null	6	null	6	0.0	1	1005.2	1	41.076845	16.866987
463	2024-01-20 06:00:00	16	carbonara	9.95	1	81.67	1	0.2	1	null	6	null	6	0.0	1	1005.88	1	41.076845	16.866987
464	2024-01-20 07:00:00	16	carbonara	9.12	1	90.43	1	2.2	1	null	6	null	6	0.0	1	1006.67	1	41.076845	16.866987
465	2024-01-20 08:00:00	16	carbonara	8.34	1	95.29	1	3.2	1	null	6	null	6	0.0	5	1007.57	1	41.076845	16.866987
466	2024-01-20 09:00:00	16	carbonara	7.96	1	94.4	1	1.4	1	null	6	null	6	10.44	1	1008.25	1	41.076845	16.866987
467	2024-01-20 10:00:00	16	carbonara	7.54	1	94.18	1	4.0	1	null	6	null	6	22.2	1	1008.94	1	41.076845	16.866987
468	2024-01-20 11:00:00	16	carbonara	6.85	1	90.02	1	2.4	1	null	6	null	6	20.75	1	1009.71	1	41.076845	16.866987
469	2024-01-20 12:00:00	16	carbonara	6.7	1	88.39	1	1.6	1	null	6	null	6	68.19	1	1009.75	1	41.076845	16.866987
470	2024-01-20 13:00:00	16	carbonara	7.23	1	88.21	1	1.0	1	null	6	null	6	72.82	1	1009.75	1	41.076845	16.866987
471	2024-01-20 14:00:00	16	carbonara	7.05	1	91.48	1	1.4	1	null	6	null	6	43.33	1	1009.78	1	41.076845	16.866987
472	2024-01-20 15:00:00	16	carbonara	7.22	1	90.06	1	0.4	1	null	6	null	6	72.38	1	1009.79	1	41.076845	16.866987
473	2024-01-20 16:00:00	16	carbonara	7.61	1	76.54	1	0.2	1	null	6	null	6	29.58	1	1010.03	1	41.076845	16.866987
474	2024-01-20 17:00:00	16	carbonara	8.09	1	62.94	1	0.0	1	null	6	null	6	5.63	1	1010.35	1	41.076845	16.866987
475	2024-01-20 18:00:00	16	carbonara	8.61	1	50.68	1	0.0	1	null	6	null	6	0.0	1	1010.85	1	41.076845	16.866987
476	2024-01-20 19:00:00	16	carbonara	8.56	1	44.96	1	0.0	1	null	6	null	6	0.0	1	1011.37	1	41.076845	16.866987
477	2024-01-20 20:00:00	16	carbonara	8.18	1	45.1	1	0.0	1	null	6	null	6	0.0	1	1011.93	1	41.076845	16.866987
478	2024-01-20 21:00:00	16	carbonara	8.2	1	47.33	1	0.0	1	null	6	null	6	0.0	1	1012.32	1	41.076845	16.866987
479	2024-01-20 22:00:00	16	carbonara	8.33	1	47.15	1	0.0	1	null	6	null	6	0.0	1	1012.63	1	41.076845	16.866987
480	2024-01-20 23:00:00	16	carbonara	8.31	1	45.96	1	0.0	1	null	6	null	6	0.0	1	1012.84	1	41.076845	16.866987
481	2024-01-21 00:00:00	16	carbonara	8.05	1	42.92	1	0.0	1	null	6	null	6	0.0	1	1013.22	1	41.076845	16.866987
482	2024-01-21 01:00:00	16	carbonara	7.52	1	41.5	1	0.0	1	null	6	null	6	0.0	1	1013.44	1	41.076845	16.866987
483	2024-01-21 02:00:00	16	carbonara	7.63	1	40.39	1	0.0	1	null	6	null	6	0.0	1	1013.51	1	41.076845	16.866987
484	2024-01-21 03:00:00	16	carbonara	7.49	1	41.29	1	0.0	1	null	6	null	6	0.0	1	1013.8	1	41.076845	16.866987
485	2024-01-21 04:00:00	16	carbonara	7.35	1	40.86	1	0.0	1	null	6	null	6	0.0	1	1013.91	1	41.076845	16.866987
486	2024-01-21 05:00:00	16	carbonara	7.06	1	42.01	1	0.0	1	null	6	null	6	0.0	1	1014.32	1	41.076845	16.866987
487	2024-01-21 06:00:00	16	carbonara	6.7	1	46.37	1	0.0	1	null	6	null	6	0.0	1	1014.73	1	41.076845	16.866987
488	2024-01-21 07:00:00	16	carbonara	4.66	1	58.85	1	0.0	1	null	6	null	6	0.0	1	1015.28	1	41.076845	16.866987
489	2024-01-21 08:00:00	16	carbonara	5.31	1	56.42	1	0.0	1	null	6	null	6	11.76	1	1015.82	1	41.076845	16.866987
490	2024-01-21 09:00:00	16	carbonara	7.99	1	46.05	1	0.0	1	null	6	null	6	51.63	1	1016.61	1	41.076845	16.866987
491	2024-01-21 10:00:00	16	carbonara	9.4	1	41.29	1	0.0	1	null	6	null	6	61.32	1	1017.33	1	41.076845	16.866987
492	2024-01-21 11:00:00	16	carbonara	11.05	1	37.35	1	0.0	1	null	6	null	6	352.58	1	1017.8	1	41.076845	16.866987
493	2024-01-21 12:00:00	16	carbonara	12.64	1	36.41	1	0.0	1	null	6	null	6	482.24	1	1017.82	1	41.076845	16.866987
494	2024-01-21 13:00:00	16	carbonara	13.57	1	36.83	1	0.0	1	null	6	null	6	495.5	1	1017.86	1	41.076845	16.866987
495	2024-01-21 14:00:00	16	carbonara	13.77	1	33.24	1	0.0	1	null	6	null	6	458.95	1	1017.72	1	41.076845	16.866987
496	2024-01-21 15:00:00	16	carbonara	14.19	1	32.59	1	0.0	1	null	6	null	6	363.92	1	1017.65	1	41.076845	16.866987
497	2024-01-21 16:00:00	16	carbonara	13.12	1	34.12	1	0.0	1	null	6	null	6	156.13	1	1017.96	1	41.076845	16.866987
498	2024-01-21 17:00:00	16	carbonara	11.6	1	39.77	1	0.0	1	null	6	null	6	34.0	1	1018.59	1	41.076845	16.866987
499	2024-01-21 18:00:00	16	carbonara	10.09	1	40.71	1	0.0	1	null	6	null	6	0.0	1	1019.35	1	41.076845	16.866987
500	2024-01-21 19:00:00	16	carbonara	10.1	1	37.36	1	0.0	1	null	6	null	6	0.0	1	1020.12	1	41.076845	16.866987
501	2024-01-21 20:00:00	16	carbonara	10.54	1	36.46	1	0.0	1	null	6	null	6	0.0	1	1020.5	1	41.076845	16.866987
502	2024-01-21 21:00:00	16	carbonara	10.3	1	39.18	1	0.0	1	null	6	null	6	0.0	1	1020.82	1	41.076845	16.866987
503	2024-01-21 22:00:00	16	carbonara	8.87	1	46.49	1	0.0	1	null	6	null	6	0.0	1	1021.21	1	41.076845	16.866987
504	2024-01-21 23:00:00	16	carbonara	6.86	1	59.06	1	0.0	1	null	6	null	6	0.0	1	1021.71	1	41.076845	16.866987
505	2024-01-22 00:00:00	16	carbonara	6.7	1	62.94	1	0.0	1	null	6	null	6	0.0	1	1021.92	1	41.076845	16.866987
506	2024-01-22 01:00:00	16	carbonara	6.12	1	68.56	1	0.0	1	null	6	null	6	0.0	1	1021.94	1	41.076845	16.866987
507	2024-01-22 02:00:00	16	carbonara	6.09	1	70.56	1	0.0	1	null	6	null	6	0.0	1	1022.3	1	41.076845	16.866987
508	2024-01-22 03:00:00	16	carbonara	5.54	1	72.35	1	0.0	1	null	6	null	6	0.0	1	1022.46	1	41.076845	16.866987
509	2024-01-22 04:00:00	16	carbonara	4.7	1	77.1	1	0.0	1	null	6	null	6	0.0	1	1022.45	1	41.076845	16.866987
510	2024-01-22 05:00:00	16	carbonara	4.41	1	78.84	1	0.0	1	null	6	null	6	0.0	1	1022.57	1	41.076845	16.866987
511	2024-01-22 06:00:00	16	carbonara	4.15	1	80.42	1	0.0	1	null	6	null	6	0.0	1	1022.52	1	41.076845	16.866987
512	2024-01-22 07:00:00	16	carbonara	3.84	1	82.18	1	0.0	1	null	6	null	6	0.0	1	1022.76	1	41.076845	16.866987
513	2024-01-22 08:00:00	16	carbonara	4.55	1	79.78	1	0.0	1	null	6	null	6	18.52	1	1022.87	1	41.076845	16.866987
514	2024-01-22 09:00:00	16	carbonara	5.82	1	75.76	1	0.0	1	null	6	null	6	39.34	1	1023.14	1	41.076845	16.866987
515	2024-01-22 10:00:00	16	carbonara	8.62	1	64.74	1	0.0	1	null	6	null	6	54.44	1	1023.35	1	41.076845	16.866987
516	2024-01-22 11:00:00	16	carbonara	11.87	1	54.73	1	0.0	1	null	6	null	6	355.12	1	1023.53	1	41.076845	16.866987
517	2024-01-22 12:00:00	16	carbonara	13.93	1	48.64	1	0.0	1	null	6	null	6	486.87	1	1023.01	1	41.076845	16.866987
518	2024-01-22 13:00:00	16	carbonara	15.15	1	46.82	1	0.0	1	null	6	null	6	501.91	1	1022.59	1	41.076845	16.866987
519	2024-01-22 14:00:00	16	carbonara	15.82	1	45.86	1	0.0	1	null	6	null	6	457.2	1	1021.91	1	41.076845	16.866987
520	2024-01-22 15:00:00	16	carbonara	15.65	1	47.24	1	0.0	1	null	6	null	6	356.88	1	1021.4	1	41.076845	16.866987
521	2024-01-22 16:00:00	16	carbonara	14.43	1	48.09	1	0.0	1	null	6	null	6	154.02	1	1020.91	1	41.076845	16.866987
522	2024-01-22 17:00:00	16	carbonara	12.57	1	52.35	1	0.0	1	null	6	null	6	31.47	1	1020.48	1	41.076845	16.866987
523	2024-01-22 18:00:00	16	carbonara	9.73	1	61.66	1	0.0	1	null	6	null	6	0.0	1	1020.49	1	41.076845	16.866987
524	2024-01-22 19:00:00	16	carbonara	8.31	1	71.07	1	0.0	1	null	6	null	6	0.0	1	1020.58	1	41.076845	16.866987
525	2024-01-22 20:00:00	16	carbonara	6.48	1	79.13	1	0.0	1	null	6	null	6	0.0	1	1020.44	1	41.076845	16.866987
526	2024-01-22 21:00:00	16	carbonara	5.66	1	82.65	1	0.0	1	null	6	null	6	0.0	1	1020.12	1	41.076845	16.866987
527	2024-01-22 22:00:00	16	carbonara	5.12	1	84.56	1	0.0	1	null	6	null	6	0.0	1	1019.79	1	41.076845	16.866987
528	2024-01-22 23:00:00	16	carbonara	5.1	1	83.61	1	0.0	1	null	6	null	6	0.0	1	1019.38	1	41.076845	16.866987
529	2024-01-23 00:00:00	16	carbonara	4.71	1	82.12	1	0.0	1	null	6	null	6	0.0	1	1018.85	1	41.076845	16.866987
530	2024-01-23 01:00:00	16	carbonara	4.01	1	82.47	1	0.0	1	null	6	null	6	0.0	1	1018.05	1	41.076845	16.866987
531	2024-01-23 02:00:00	16	carbonara	4.62	1	69.87	1	0.0	1	null	6	null	6	0.0	1	1017.31	1	41.076845	16.866987
532	2024-01-23 03:00:00	16	carbonara	4.85	1	65.15	1	0.0	1	null	6	null	6	0.0	1	1017.1	1	41.076845	16.866987
533	2024-01-23 04:00:00	16	carbonara	4.64	1	69.51	1	0.0	1	null	6	null	6	0.0	1	1016.94	1	41.076845	16.866987
534	2024-01-23 05:00:00	16	carbonara	5.18	1	70.88	1	0.0	1	null	6	null	6	0.0	1	1017.04	1	41.076845	16.866987
535	2024-01-23 06:00:00	16	carbonara	5.51	1	66.53	1	0.0	1	null	6	null	6	0.0	1	1017.0	1	41.076845	16.866987
536	2024-01-23 07:00:00	16	carbonara	6.88	1	62.41	1	0.0	1	null	6	null	6	0.0	1	1016.8	1	41.076845	16.866987
537	2024-01-23 08:00:00	16	carbonara	7.75	1	62.84	1	0.0	1	null	6	null	6	8.02	1	1016.99	1	41.076845	16.866987
538	2024-01-23 09:00:00	16	carbonara	8.21	1	62.65	1	0.0	1	null	6	null	6	42.61	1	1017.35	1	41.076845	16.866987
539	2024-01-23 10:00:00	16	carbonara	10.22	1	54.09	1	0.0	1	null	6	null	6	99.95	1	1017.62	1	41.076845	16.866987
540	2024-01-23 11:00:00	16	carbonara	10.91	1	54.54	1	0.0	1	null	6	null	6	159.55	1	1017.87	1	41.076845	16.866987
541	2024-01-23 12:00:00	16	carbonara	11.74	1	55.06	1	0.0	1	null	6	null	6	148.67	1	1017.67	1	41.076845	16.866987
542	2024-01-23 13:00:00	16	carbonara	11.34	1	62.53	1	0.0	1	null	6	null	6	35.12	1	1017.37	1	41.076845	16.866987
543	2024-01-23 14:00:00	16	carbonara	11.14	1	74.18	1	0.0	1	null	6	null	6	72.57	1	1017.2	1	41.076845	16.866987
544	2024-01-23 15:00:00	16	carbonara	10.45	1	86.2	1	0.4	1	null	6	null	6	57.01	1	1017.3	1	41.076845	16.866987
545	2024-01-23 16:00:00	16	carbonara	9.83	1	92.31	1	0.6	1	null	6	null	6	12.97	1	1017.46	1	41.076845	16.866987
546	2024-01-23 17:00:00	16	carbonara	9.58	1	90.58	1	0.0	1	null	6	null	6	5.72	1	1017.86	1	41.076845	16.866987
547	2024-01-23 18:00:00	16	carbonara	11.09	1	77.85	1	0.0	1	null	6	null	6	0.0	5	1018.3	1	41.076845	16.866987
548	2024-01-23 19:00:00	16	carbonara	11.39	1	73.69	1	0.0	1	null	6	null	6	0.0	1	1018.92	1	41.076845	16.866987
549	2024-01-23 20:00:00	16	carbonara	11.59	1	73.83	1	0.0	1	null	6	null	6	0.0	1	1019.56	1	41.076845	16.866987
550	2024-01-23 21:00:00	16	carbonara	11.66	1	75.52	1	0.0	1	null	6	null	6	0.0	1	1019.83	1	41.076845	16.866987
551	2024-01-23 22:00:00	16	carbonara	11.77	1	76.09	1	0.0	1	null	6	null	6	0.0	1	1019.88	1	41.076845	16.866987
552	2024-01-23 23:00:00	16	carbonara	11.92	1	74.23	1	0.0	1	null	6	null	6	0.0	1	1020.0	1	41.076845	16.866987
553	2024-01-24 00:00:00	16	carbonara	12.09	1	66.55	1	0.0	1	null	6	null	6	0.0	1	1020.22	1	41.076845	16.866987
554	2024-01-24 01:00:00	16	carbonara	11.92	1	53.36	1	0.0	1	null	6	null	6	0.0	1	1020.11	1	41.076845	16.866987
555	2024-01-24 02:00:00	16	carbonara	11.61	1	49.18	1	0.0	1	null	6	null	6	0.0	1	1020.42	1	41.076845	16.866987
556	2024-01-24 03:00:00	16	carbonara	11.52	1	45.54	1	0.0	1	null	6	null	6	0.0	1	1020.35	1	41.076845	16.866987
557	2024-01-24 04:00:00	16	carbonara	11.1	1	49.38	1	0.0	1	null	6	null	6	0.0	1	1020.45	1	41.076845	16.866987
558	2024-01-24 05:00:00	16	carbonara	10.99	1	49.1	1	0.0	1	null	6	null	6	0.0	1	1020.52	1	41.076845	16.866987
559	2024-01-24 06:00:00	16	carbonara	10.75	1	47.23	1	0.0	1	null	6	null	6	0.0	1	1020.81	1	41.076845	16.866987
560	2024-01-24 07:00:00	16	carbonara	10.54	1	46.94	1	0.0	1	null	6	null	6	0.0	1	1020.91	1	41.076845	16.866987
561	2024-01-24 08:00:00	16	carbonara	10.63	1	46.93	1	0.0	1	null	6	null	6	10.93	1	1021.14	1	41.076845	16.866987
562	2024-01-24 09:00:00	16	carbonara	11.51	1	46.07	1	0.0	1	null	6	null	6	39.09	1	1021.53	1	41.076845	16.866987
563	2024-01-24 10:00:00	16	carbonara	12.08	1	50.13	1	0.0	1	null	6	null	6	54.34	1	1021.91	1	41.076845	16.866987
564	2024-01-24 11:00:00	16	carbonara	13.57	1	47.87	1	0.0	1	null	6	null	6	358.28	1	1022.04	1	41.076845	16.866987
565	2024-01-24 12:00:00	16	carbonara	14.79	1	47.21	1	0.0	1	null	6	null	6	480.61	1	1021.73	1	41.076845	16.866987
566	2024-01-24 13:00:00	16	carbonara	16.37	1	42.76	1	0.0	1	null	6	null	6	494.85	1	1020.8	1	41.076845	16.866987
567	2024-01-24 14:00:00	16	carbonara	17.83	1	36.53	1	0.0	1	null	6	null	6	455.87	1	1019.85	1	41.076845	16.866987
568	2024-01-24 15:00:00	16	carbonara	17.98	1	34.83	1	0.0	1	null	6	null	6	358.77	1	1019.38	1	41.076845	16.866987
569	2024-01-24 16:00:00	16	carbonara	17.2	1	39.33	1	0.0	1	null	6	null	6	198.41	1	1018.85	1	41.076845	16.866987
570	2024-01-24 17:00:00	16	carbonara	15.45	1	42.52	1	0.0	1	null	6	null	6	50.29	1	1017.89	1	41.076845	16.866987
571	2024-01-24 18:00:00	16	carbonara	12.56	1	51.83	1	0.0	1	null	6	null	6	0.0	1	1017.99	1	41.076845	16.866987
572	2024-01-24 19:00:00	16	carbonara	11.12	1	57.86	1	0.0	1	null	6	null	6	0.0	1	1017.82	1	41.076845	16.866987
573	2024-01-24 20:00:00	16	carbonara	10.03	1	58.33	1	0.0	1	null	6	null	6	0.0	1	1017.45	1	41.076845	16.866987
574	2024-01-24 21:00:00	16	carbonara	9.36	1	61.5	1	0.0	1	null	6	null	6	0.0	1	1017.42	1	41.076845	16.866987
575	2024-01-24 22:00:00	16	carbonara	8.43	1	63.6	1	0.0	1	null	6	null	6	0.0	1	1017.04	1	41.076845	16.866987
576	2024-01-24 23:00:00	16	carbonara	8.39	1	56.66	1	0.0	1	null	6	null	6	0.0	1	1016.59	1	41.076845	16.866987
577	2024-01-25 00:00:00	16	carbonara	8.73	1	53.64	1	0.0	1	null	6	null	6	0.0	1	1016.19	1	41.076845	16.866987
578	2024-01-25 01:00:00	16	carbonara	8.86	1	55.82	1	0.0	1	null	6	null	6	0.0	1	1015.5	1	41.076845	16.866987
579	2024-01-25 02:00:00	16	carbonara	8.18	1	60.59	1	0.0	1	null	6	null	6	0.0	1	1015.15	1	41.076845	16.866987
580	2024-01-25 03:00:00	16	carbonara	7.96	1	61.28	1	0.0	1	null	6	null	6	0.0	1	1014.94	1	41.076845	16.866987
581	2024-01-25 04:00:00	16	carbonara	6.88	1	66.55	1	0.0	1	null	6	null	6	0.0	1	1014.44	1	41.076845	16.866987
582	2024-01-25 05:00:00	16	carbonara	6.45	1	68.49	1	0.0	1	null	6	null	6	0.0	1	1014.27	1	41.076845	16.866987
583	2024-01-25 06:00:00	16	carbonara	6.09	1	71.64	1	0.0	1	null	6	null	6	0.0	1	1014.39	1	41.076845	16.866987
584	2024-01-25 07:00:00	16	carbonara	6.15	1	71.43	1	0.0	1	null	6	null	6	0.0	1	1014.56	1	41.076845	16.866987
585	2024-01-25 08:00:00	16	carbonara	5.96	1	72.75	1	0.0	1	null	6	null	6	15.28	1	1014.66	1	41.076845	16.866987
586	2024-01-25 09:00:00	16	carbonara	8.13	1	63.75	1	0.0	1	null	6	null	6	42.95	1	1014.41	1	41.076845	16.866987
587	2024-01-25 10:00:00	16	carbonara	11.74	1	53.4	1	0.0	1	null	6	null	6	59.94	1	1014.27	1	41.076845	16.866987
588	2024-01-25 11:00:00	16	carbonara	15.13	1	46.31	1	0.0	1	null	6	null	6	356.61	1	1014.36	1	41.076845	16.866987
589	2024-01-25 12:00:00	16	carbonara	17.11	1	44.01	1	0.0	1	null	6	null	6	483.71	1	1014.51	1	41.076845	16.866987
590	2024-01-25 13:00:00	16	carbonara	17.91	1	47.62	1	0.0	1	null	6	null	6	498.59	1	1014.28	1	41.076845	16.866987
591	2024-01-25 14:00:00	16	carbonara	18.0	1	54.46	1	0.0	1	null	6	null	6	453.61	1	1014.3	1	41.076845	16.866987
592	2024-01-25 15:00:00	16	carbonara	17.39	1	65.19	1	0.0	1	null	6	null	6	346.69	1	1014.68	1	41.076845	16.866987
593	2024-01-25 16:00:00	16	carbonara	15.74	1	66.49	1	0.0	1	null	6	null	6	180.22	1	1014.79	1	41.076845	16.866987
594	2024-01-25 17:00:00	16	carbonara	14.72	1	62.65	1	0.0	1	null	6	null	6	46.24	1	1014.99	1	41.076845	16.866987
595	2024-01-25 18:00:00	16	carbonara	12.64	1	72.3	1	0.0	1	null	6	null	6	0.0	5	1015.33	1	41.076845	16.866987
596	2024-01-25 19:00:00	16	carbonara	11.63	1	79.89	1	0.0	1	null	6	null	6	0.0	1	1015.37	1	41.076845	16.866987
597	2024-01-25 20:00:00	16	carbonara	10.1	1	88.9	1	0.0	1	null	6	null	6	0.0	1	1015.98	1	41.076845	16.866987
598	2024-01-25 21:00:00	16	carbonara	9.31	1	90.39	1	0.0	1	null	6	null	6	0.0	1	1015.99	1	41.076845	16.866987
599	2024-01-25 22:00:00	16	carbonara	8.43	1	84.65	1	0.0	1	null	6	null	6	0.0	1	1015.99	1	41.076845	16.866987
600	2024-01-25 23:00:00	16	carbonara	8.16	1	83.55	1	0.0	1	null	6	null	6	0.0	1	1016.09	1	41.076845	16.866987
601	2024-01-26 00:00:00	16	carbonara	7.9	1	87.61	1	0.0	1	null	6	null	6	0.0	1	1016.16	1	41.076845	16.866987
602	2024-01-26 01:00:00	16	carbonara	8.16	1	90.74	1	0.0	1	null	6	null	6	0.0	1	1015.88	1	41.076845	16.866987
603	2024-01-26 02:00:00	16	carbonara	7.77	1	89.29	1	0.0	1	null	6	null	6	0.0	1	1015.97	1	41.076845	16.866987
604	2024-01-26 03:00:00	16	carbonara	7.41	1	85.49	1	0.0	1	null	6	null	6	0.0	1	1016.36	1	41.076845	16.866987
605	2024-01-26 04:00:00	16	carbonara	7.16	1	81.99	1	0.0	1	null	6	null	6	0.0	1	1016.41	1	41.076845	16.866987
606	2024-01-26 05:00:00	16	carbonara	6.64	1	81.4	1	0.0	1	null	6	null	6	0.0	1	1016.37	1	41.076845	16.866987
607	2024-01-26 06:00:00	16	carbonara	5.8	1	82.84	1	0.0	1	null	6	null	6	0.0	1	1016.33	1	41.076845	16.866987
608	2024-01-26 07:00:00	16	carbonara	5.4	1	82.56	1	0.0	1	null	6	null	6	0.0	1	1016.47	1	41.076845	16.866987
609	2024-01-26 08:00:00	16	carbonara	4.85	1	84.42	1	0.0	1	null	6	null	6	12.17	1	1017.04	1	41.076845	16.866987
610	2024-01-26 09:00:00	16	carbonara	6.59	1	79.56	1	0.0	1	null	6	null	6	40.86	1	1017.38	1	41.076845	16.866987
611	2024-01-26 10:00:00	16	carbonara	10.59	1	67.76	1	0.0	1	null	6	null	6	52.49	1	1017.36	1	41.076845	16.866987
612	2024-01-26 11:00:00	16	carbonara	14.24	1	56.55	1	0.0	1	null	6	null	6	376.55	1	1017.46	1	41.076845	16.866987
613	2024-01-26 12:00:00	16	carbonara	17.21	1	46.98	1	0.0	1	null	6	null	6	495.77	1	1016.78	1	41.076845	16.866987
614	2024-01-26 13:00:00	16	carbonara	20.53	1	35.22	1	0.0	1	null	6	null	6	503.33	1	1016.06	1	41.076845	16.866987
615	2024-01-26 14:00:00	16	carbonara	21.69	1	29.44	1	0.0	1	null	6	null	6	458.8	1	1015.42	1	41.076845	16.866987
616	2024-01-26 15:00:00	16	carbonara	21.57	1	28.98	1	0.0	1	null	6	null	6	367.41	1	1014.97	1	41.076845	16.866987
617	2024-01-26 16:00:00	16	carbonara	18.67	1	38.04	1	0.0	1	null	6	null	6	229.24	1	1014.99	1	41.076845	16.866987
618	2024-01-26 17:00:00	16	carbonara	15.78	1	49.61	1	0.0	1	null	6	null	6	30.99	1	1015.07	1	41.076845	16.866987
619	2024-01-26 18:00:00	16	carbonara	12.99	1	61.6	1	0.0	1	null	6	null	6	0.0	1	1015.63	1	41.076845	16.866987
620	2024-01-26 19:00:00	16	carbonara	11.33	1	68.52	1	0.0	1	null	6	null	6	0.0	1	1015.89	1	41.076845	16.866987
621	2024-01-26 20:00:00	16	carbonara	9.91	1	68.32	1	0.0	1	null	6	null	6	0.0	1	1016.07	1	41.076845	16.866987
622	2024-01-26 21:00:00	16	carbonara	8.21	1	72.04	1	0.0	1	null	6	null	6	0.0	1	1016.07	1	41.076845	16.866987
623	2024-01-26 22:00:00	16	carbonara	7.13	1	70.08	1	0.0	1	null	6	null	6	0.0	1	1016.16	1	41.076845	16.866987
624	2024-01-26 23:00:00	16	carbonara	6.39	1	71.51	1	0.0	1	null	6	null	6	0.0	1	1016.34	1	41.076845	16.866987
625	2024-01-27 00:00:00	16	carbonara	6.84	1	70.86	1	0.0	1	null	6	null	6	0.0	1	1016.42	1	41.076845	16.866987
626	2024-01-27 01:00:00	16	carbonara	7.63	1	73.26	1	0.0	1	null	6	null	6	0.0	1	1016.08	1	41.076845	16.866987
627	2024-01-27 02:00:00	16	carbonara	7.66	1	77.54	1	0.0	1	null	6	null	6	0.0	1	1015.95	1	41.076845	16.866987
628	2024-01-27 03:00:00	16	carbonara	6.83	1	81.67	1	0.0	1	null	6	null	6	0.0	1	1016.11	1	41.076845	16.866987
629	2024-01-27 04:00:00	16	carbonara	6.03	1	85.65	1	0.0	1	null	6	null	6	0.0	1	1016.47	1	41.076845	16.866987
630	2024-01-27 05:00:00	16	carbonara	6.09	1	85.12	1	0.0	1	null	6	null	6	0.0	1	1016.31	1	41.076845	16.866987
631	2024-01-27 06:00:00	16	carbonara	6.58	1	87.23	1	0.0	1	null	6	null	6	0.0	1	1016.85	1	41.076845	16.866987
632	2024-01-27 07:00:00	16	carbonara	7.03	1	90.92	1	0.0	1	null	6	null	6	0.0	1	1017.37	1	41.076845	16.866987
633	2024-01-27 08:00:00	16	carbonara	7.91	1	90.58	1	0.0	1	null	6	null	6	12.49	1	1017.92	1	41.076845	16.866987
634	2024-01-27 09:00:00	16	carbonara	9.72	1	88.2	1	0.0	1	null	6	null	6	73.03	1	1016.99	1	41.076845	16.866987
635	2024-01-27 10:00:00	16	carbonara	11.67	1	81.95	1	0.0	1	null	6	null	6	120.31	1	1018.03	1	41.076845	16.866987
636	2024-01-27 11:00:00	16	carbonara	12.73	1	80.08	1	0.0	1	null	6	null	6	210.94	1	1018.91	1	41.076845	16.866987
637	2024-01-27 12:00:00	16	carbonara	13.57	1	73.67	1	0.0	1	null	6	null	6	186.56	1	1019.0	1	41.076845	16.866987
638	2024-01-27 13:00:00	16	carbonara	14.36	1	71.99	1	0.0	1	null	6	null	6	246.22	1	1018.93	1	41.076845	16.866987
639	2024-01-27 14:00:00	16	carbonara	14.35	1	75.74	1	0.0	1	null	6	null	6	166.83	1	1018.59	1	41.076845	16.866987
640	2024-01-27 15:00:00	16	carbonara	13.88	1	78.82	1	0.0	1	null	6	null	6	121.44	1	1018.59	1	41.076845	16.866987
641	2024-01-27 16:00:00	16	carbonara	14.86	1	72.53	1	0.0	1	null	6	null	6	183.79	1	1018.71	1	41.076845	16.866987
642	2024-01-27 17:00:00	16	carbonara	13.82	1	75.25	1	0.0	1	null	6	null	6	20.18	1	1019.13	1	41.076845	16.866987
643	2024-01-27 18:00:00	16	carbonara	12.54	1	81.18	1	0.0	1	null	6	null	6	0.0	5	1019.53	1	41.076845	16.866987
644	2024-01-27 19:00:00	16	carbonara	11.09	1	86.46	1	0.0	1	null	6	null	6	0.0	1	1019.79	1	41.076845	16.866987
645	2024-01-27 20:00:00	16	carbonara	10.04	1	88.48	1	0.0	1	null	6	null	6	0.0	1	1020.31	1	41.076845	16.866987
646	2024-01-27 21:00:00	16	carbonara	9.43	1	88.51	1	0.0	1	null	6	null	6	0.0	1	1020.72	1	41.076845	16.866987
647	2024-01-27 22:00:00	16	carbonara	8.82	1	90.64	1	0.0	1	null	6	null	6	0.0	1	1021.22	1	41.076845	16.866987
648	2024-01-27 23:00:00	16	carbonara	8.38	1	92.39	1	0.0	1	null	6	null	6	0.0	1	1021.24	1	41.076845	16.866987
649	2024-01-28 00:00:00	16	carbonara	8.67	1	90.87	1	0.0	1	null	6	null	6	0.0	1	1021.46	1	41.076845	16.866987
650	2024-01-28 01:00:00	16	carbonara	8.89	1	88.55	1	0.0	1	null	6	null	6	0.0	1	1021.87	1	41.076845	16.866987
651	2024-01-28 02:00:00	16	carbonara	8.55	1	87.68	1	0.0	1	null	6	null	6	0.0	1	1022.22	1	41.076845	16.866987
652	2024-01-28 03:00:00	16	carbonara	8.51	1	85.77	1	0.0	1	null	6	null	6	0.0	1	1022.15	1	41.076845	16.866987
653	2024-01-28 04:00:00	16	carbonara	8.03	1	83.66	1	0.0	1	null	6	null	6	0.0	1	1022.17	1	41.076845	16.866987
654	2024-01-28 05:00:00	16	carbonara	8.93	1	57.86	1	0.0	1	null	6	null	6	0.0	1	1022.28	1	41.076845	16.866987
655	2024-01-28 06:00:00	16	carbonara	10.26	1	38.89	1	0.0	1	null	6	null	6	0.0	1	1022.55	1	41.076845	16.866987
656	2024-01-28 07:00:00	16	carbonara	10.28	1	39.12	1	0.0	1	null	6	null	6	0.0	1	1023.01	1	41.076845	16.866987
657	2024-01-28 08:00:00	16	carbonara	10.75	1	39.73	1	0.0	1	null	6	null	6	18.13	1	1023.48	1	41.076845	16.866987
658	2024-01-28 09:00:00	16	carbonara	11.16	1	39.59	1	0.0	1	null	6	null	6	52.71	1	1023.91	1	41.076845	16.866987
659	2024-01-28 10:00:00	16	carbonara	11.38	1	41.62	1	0.0	1	null	6	null	6	98.62	1	1024.33	1	41.076845	16.866987
660	2024-01-28 11:00:00	16	carbonara	11.92	1	42.34	1	0.0	1	null	6	null	6	334.9	1	1024.89	1	41.076845	16.866987
661	2024-01-28 12:00:00	16	carbonara	12.53	1	39.25	1	0.0	1	null	6	null	6	524.31	1	1025.11	1	41.076845	16.866987
662	2024-01-28 13:00:00	16	carbonara	13.38	1	36.84	1	0.0	1	null	6	null	6	469.69	1	1024.8	1	41.076845	16.866987
663	2024-01-28 14:00:00	16	carbonara	13.33	1	38.58	1	0.0	1	null	6	null	6	404.35	1	1024.31	1	41.076845	16.866987
664	2024-01-28 15:00:00	16	carbonara	13.37	1	40.75	1	0.0	1	null	6	null	6	298.08	1	1024.06	1	41.076845	16.866987
665	2024-01-28 16:00:00	16	carbonara	13.85	1	40.89	1	0.0	1	null	6	null	6	220.07	1	1023.98	1	41.076845	16.866987
666	2024-01-28 17:00:00	16	carbonara	11.8	1	44.04	1	0.0	1	null	6	null	6	34.5	1	1024.03	1	41.076845	16.866987
667	2024-01-28 18:00:00	16	carbonara	10.38	1	47.23	1	0.0	1	null	6	null	6	0.0	5	1024.48	1	41.076845	16.866987
668	2024-01-28 19:00:00	16	carbonara	10.29	1	47.2	1	0.0	1	null	6	null	6	0.0	1	1024.63	1	41.076845	16.866987
669	2024-01-28 20:00:00	16	carbonara	10.5	1	44.59	1	0.0	1	null	6	null	6	0.0	1	1024.69	1	41.076845	16.866987
670	2024-01-28 21:00:00	16	carbonara	10.91	1	46.03	1	0.0	1	null	6	null	6	0.0	1	1024.63	1	41.076845	16.866987
671	2024-01-28 22:00:00	16	carbonara	10.99	1	49.23	1	0.0	1	null	6	null	6	0.0	1	1024.65	1	41.076845	16.866987
672	2024-01-28 23:00:00	16	carbonara	11.2	1	41.17	1	0.0	1	null	6	null	6	0.0	1	1024.68	1	41.076845	16.866987
673	2024-01-29 00:00:00	16	carbonara	9.72	1	54.24	1	0.0	1	null	6	null	6	0.0	1	1024.81	1	41.076845	16.866987
674	2024-01-29 01:00:00	16	carbonara	8.37	1	61.36	1	0.0	1	null	6	null	6	0.0	1	1024.94	1	41.076845	16.866987
675	2024-01-29 02:00:00	16	carbonara	7.53	1	68.93	1	0.0	1	null	6	null	6	0.0	1	1025.09	1	41.076845	16.866987
676	2024-01-29 03:00:00	16	carbonara	6.6	1	78.47	1	0.0	1	null	6	null	6	0.0	1	1025.05	1	41.076845	16.866987
677	2024-01-29 04:00:00	16	carbonara	6.06	1	83.36	1	0.0	1	null	6	null	6	0.0	1	1024.92	1	41.076845	16.866987
678	2024-01-29 05:00:00	16	carbonara	5.58	1	86.87	1	0.0	1	null	6	null	6	0.0	1	1025.01	1	41.076845	16.866987
679	2024-01-29 06:00:00	16	carbonara	5.46	1	87.85	1	0.0	1	null	6	null	6	0.0	1	1024.95	1	41.076845	16.866987
680	2024-01-29 07:00:00	16	carbonara	5.27	1	87.8	1	0.0	1	null	6	null	6	0.0	1	1025.33	1	41.076845	16.866987
681	2024-01-29 08:00:00	16	carbonara	5.15	1	86.89	1	0.0	1	null	6	null	6	11.3	1	1025.6	1	41.076845	16.866987
682	2024-01-29 09:00:00	16	carbonara	6.14	1	83.29	1	0.0	1	null	6	null	6	41.74	1	1025.72	1	41.076845	16.866987
683	2024-01-29 10:00:00	16	carbonara	9.21	1	68.03	1	0.0	1	null	6	null	6	58.11	1	1025.94	1	41.076845	16.866987
684	2024-01-29 11:00:00	16	carbonara	12.07	1	53.98	1	0.0	1	null	6	null	6	397.95	1	1026.17	1	41.076845	16.866987
685	2024-01-29 12:00:00	16	carbonara	13.83	1	47.94	1	0.0	1	null	6	null	6	495.11	1	1025.78	1	41.076845	16.866987
686	2024-01-29 13:00:00	16	carbonara	14.97	1	44.55	1	0.0	1	null	6	null	6	512.93	1	1025.36	1	41.076845	16.866987
687	2024-01-29 14:00:00	16	carbonara	14.89	1	40.26	1	0.0	1	null	6	null	6	416.5	1	1024.86	1	41.076845	16.866987
688	2024-01-29 15:00:00	16	carbonara	14.75	1	34.82	1	0.0	1	null	6	null	6	399.27	1	1024.63	1	41.076845	16.866987
689	2024-01-29 16:00:00	16	carbonara	14.71	1	36.26	1	0.0	1	null	6	null	6	245.71	1	1024.47	1	41.076845	16.866987
690	2024-01-29 17:00:00	16	carbonara	12.15	1	42.54	1	0.0	1	null	6	null	6	31.71	1	1024.4	1	41.076845	16.866987
691	2024-01-29 18:00:00	16	carbonara	10.12	1	47.9	1	0.0	1	null	6	null	6	0.0	5	1024.67	1	41.076845	16.866987
692	2024-01-29 19:00:00	16	carbonara	9.77	1	49.68	1	0.0	1	null	6	null	6	0.0	1	1025.01	1	41.076845	16.866987
693	2024-01-29 20:00:00	16	carbonara	9.73	1	50.91	1	0.0	1	null	6	null	6	0.0	1	1025.28	1	41.076845	16.866987
694	2024-01-29 21:00:00	16	carbonara	9.12	1	56.01	1	0.0	1	null	6	null	6	0.0	1	1025.48	1	41.076845	16.866987
695	2024-01-29 22:00:00	16	carbonara	6.54	1	71.76	1	0.0	1	null	6	null	6	0.0	1	1025.7	1	41.076845	16.866987
696	2024-01-29 23:00:00	16	carbonara	6.67	1	77.1	1	0.0	1	null	6	null	6	0.0	1	1025.77	1	41.076845	16.866987
697	2024-01-30 00:00:00	16	carbonara	7.53	1	73.64	1	0.0	1	null	6	null	6	0.0	1	1026.0	1	41.076845	16.866987
698	2024-01-30 01:00:00	16	carbonara	6.99	1	75.85	1	0.0	1	null	6	null	6	0.0	1	1025.96	1	41.076845	16.866987
699	2024-01-30 02:00:00	16	carbonara	6.29	1	77.4	1	0.0	1	null	6	null	6	0.0	1	1025.94	1	41.076845	16.866987
700	2024-01-30 03:00:00	16	carbonara	5.55	1	78.77	1	0.0	1	null	6	null	6	0.0	1	1025.82	1	41.076845	16.866987
701	2024-01-30 04:00:00	16	carbonara	4.97	1	80.25	1	0.0	1	null	6	null	6	0.0	1	1025.54	1	41.076845	16.866987
702	2024-01-30 05:00:00	16	carbonara	5.06	1	78.92	1	0.0	1	null	6	null	6	0.0	1	1025.31	1	41.076845	16.866987
703	2024-01-30 06:00:00	16	carbonara	4.6	1	81.35	1	0.0	1	null	6	null	6	0.0	1	1025.31	1	41.076845	16.866987
704	2024-01-30 07:00:00	16	carbonara	4.8	1	81.56	1	0.0	1	null	6	null	6	0.0	1	1025.76	1	41.076845	16.866987
705	2024-01-30 08:00:00	16	carbonara	4.82	1	83.59	1	0.0	1	null	6	null	6	27.55	1	1026.16	1	41.076845	16.866987
706	2024-01-30 09:00:00	16	carbonara	6.94	1	78.97	1	0.0	1	null	6	null	6	96.86	1	1026.62	1	41.076845	16.866987
707	2024-01-30 10:00:00	16	carbonara	9.69	1	69.04	1	0.0	1	null	6	null	6	157.55	1	1026.9	1	41.076845	16.866987
708	2024-01-30 11:00:00	16	carbonara	12.0	1	56.59	1	0.0	1	null	6	null	6	415.16	1	1026.99	1	41.076845	16.866987
709	2024-01-30 12:00:00	16	carbonara	12.49	1	47.26	1	0.0	1	null	6	null	6	470.95	1	1026.74	1	41.076845	16.866987
710	2024-01-30 13:00:00	16	carbonara	13.43	1	44.95	1	0.0	1	null	6	null	6	534.74	1	1026.21	1	41.076845	16.866987
711	2024-01-30 14:00:00	16	carbonara	13.67	1	44.89	1	0.0	1	null	6	null	6	495.63	1	1025.64	1	41.076845	16.866987
712	2024-01-30 15:00:00	16	carbonara	13.43	1	44.36	1	0.0	1	null	6	null	6	399.93	1	1025.33	1	41.076845	16.866987
713	2024-01-30 16:00:00	16	carbonara	12.96	1	45.56	1	0.0	1	null	6	null	6	254.45	1	1025.42	1	41.076845	16.866987
714	2024-01-30 17:00:00	16	carbonara	10.97	1	49.66	1	0.0	1	null	6	null	6	32.9	1	1025.47	1	41.076845	16.866987
715	2024-01-30 18:00:00	16	carbonara	9.34	1	54.56	1	0.0	1	null	6	null	6	0.0	5	1025.79	1	41.076845	16.866987
716	2024-01-30 19:00:00	16	carbonara	7.85	1	61.61	1	0.0	1	null	6	null	6	0.0	1	1025.94	1	41.076845	16.866987
717	2024-01-30 20:00:00	16	carbonara	5.96	1	70.22	1	0.0	1	null	6	null	6	0.0	1	1026.07	1	41.076845	16.866987
718	2024-01-30 21:00:00	16	carbonara	4.36	1	76.65	1	0.0	1	null	6	null	6	0.0	1	1026.07	1	41.076845	16.866987
719	2024-01-30 22:00:00	16	carbonara	3.5	1	79.92	1	0.0	1	null	6	null	6	0.0	1	1026.17	1	41.076845	16.866987
720	2024-01-30 23:00:00	16	carbonara	3.3	1	81.31	1	0.0	1	null	6	null	6	0.0	1	1026.03	1	41.076845	16.866987
721	2024-01-31 00:00:00	16	carbonara	3.47	1	82.02	1	0.0	1	null	6	null	6	0.0	1	1026.03	1	41.076845	16.866987
722	2024-01-31 01:00:00	16	carbonara	3.55	1	85.25	1	0.0	1	null	6	null	6	0.0	1	1025.84	1	41.076845	16.866987
723	2024-01-31 02:00:00	16	carbonara	3.75	1	87.97	1	0.0	1	null	6	null	6	0.0	1	1025.66	1	41.076845	16.866987
724	2024-01-31 03:00:00	16	carbonara	3.96	1	89.91	1	0.0	1	null	6	null	6	0.0	1	1025.61	1	41.076845	16.866987
725	2024-01-31 04:00:00	16	carbonara	3.88	1	91.68	1	0.0	1	null	6	null	6	0.0	1	1025.21	1	41.076845	16.866987
726	2024-01-31 05:00:00	16	carbonara	3.78	1	92.39	1	0.0	1	null	6	null	6	0.0	1	1024.84	1	41.076845	16.866987
727	2024-01-31 06:00:00	16	carbonara	3.7	1	93.11	1	0.0	1	null	6	null	6	0.0	1	1024.67	1	41.076845	16.866987
728	2024-01-31 07:00:00	16	carbonara	4.31	1	91.63	1	0.0	1	null	6	null	6	0.0	1	1024.65	1	41.076845	16.866987
729	2024-01-31 08:00:00	16	carbonara	4.72	1	88.23	1	0.0	1	null	6	null	6	14.58	1	1024.94	1	41.076845	16.866987
730	2024-01-31 09:00:00	16	carbonara	6.12	1	84.31	1	0.0	1	null	6	null	6	44.36	1	1025.04	1	41.076845	16.866987
731	2024-01-31 10:00:00	16	carbonara	9.03	1	72.56	1	0.0	1	null	6	null	6	60.84	1	1024.89	1	41.076845	16.866987
732	2024-01-31 11:00:00	16	carbonara	12.31	1	58.91	1	0.0	1	null	6	null	6	409.47	1	1024.71	1	41.076845	16.866987
733	2024-01-31 12:00:00	16	carbonara	13.7	1	55.57	1	0.0	1	null	6	null	6	514.43	1	1024.22	1	41.076845	16.866987
734	2024-01-31 13:00:00	16	carbonara	15.32	1	53.85	1	0.0	1	null	6	null	6	532.64	1	1023.64	1	41.076845	16.866987
735	2024-01-31 14:00:00	16	carbonara	15.66	1	54.27	1	0.0	1	null	6	null	6	477.85	1	1023.2	1	41.076845	16.866987
736	2024-01-31 15:00:00	16	carbonara	15.66	1	54.49	1	0.0	1	null	6	null	6	396.33	1	1022.68	1	41.076845	16.866987
737	2024-01-31 16:00:00	16	carbonara	15.35	1	56.41	1	0.0	1	null	6	null	6	248.3	1	1022.44	1	41.076845	16.866987
738	2024-01-31 17:00:00	16	carbonara	12.87	1	63.76	1	0.0	1	null	6	null	6	35.91	1	1022.47	1	41.076845	16.866987
739	2024-01-31 18:00:00	16	carbonara	10.34	1	73.33	1	0.0	1	null	6	null	6	0.0	5	1022.82	1	41.076845	16.866987
740	2024-01-31 19:00:00	16	carbonara	9.26	1	78.13	1	0.0	1	null	6	null	6	0.0	1	1022.78	1	41.076845	16.866987
741	2024-01-31 20:00:00	16	carbonara	7.79	1	82.81	1	0.0	1	null	6	null	6	0.0	1	1022.59	1	41.076845	16.866987
742	2024-01-31 21:00:00	16	carbonara	6.35	1	87.09	1	0.0	1	null	6	null	6	0.0	1	1022.4	1	41.076845	16.866987
743	2024-01-31 22:00:00	16	carbonara	5.54	1	89.29	1	0.0	1	null	6	null	6	0.0	1	1022.21	1	41.076845	16.866987
744	2024-01-31 23:00:00	16	carbonara	5.13	1	91.38	1	0.0	1	null	6	null	6	0.0	1	1022.09	1	41.076845	16.866987
745	2024-02-01 00:00:00	16	carbonara	5.02	1	92.18	1	0.0	1	null	6	null	6	0.0	1	1021.96	1	41.076845	16.866987
746	2024-02-01 01:00:00	16	carbonara	4.66	1	88.92	1	0.0	1	null	6	null	6	0.0	1	1021.79	1	41.076845	16.866987
747	2024-02-01 02:00:00	16	carbonara	4.88	1	86.97	1	0.0	1	null	6	null	6	0.0	1	1021.52	1	41.076845	16.866987
748	2024-02-01 03:00:00	16	carbonara	4.65	1	88.52	1	0.0	1	null	6	null	6	0.0	1	1021.21	1	41.076845	16.866987
749	2024-02-01 04:00:00	16	carbonara	4.37	1	90.97	1	0.0	1	null	6	null	6	0.0	1	1020.73	1	41.076845	16.866987
750	2024-02-01 05:00:00	16	carbonara	4.48	1	91.41	1	0.0	1	null	6	null	6	0.0	1	1020.2	1	41.076845	16.866987
751	2024-02-01 06:00:00	16	carbonara	4.54	1	88.96	1	0.0	1	null	6	null	6	0.0	1	1019.95	1	41.076845	16.866987
752	2024-02-01 07:00:00	16	carbonara	4.61	1	89.14	1	0.0	1	null	6	null	6	0.0	5	1019.87	1	41.076845	16.866987
753	2024-02-01 08:00:00	16	carbonara	4.98	1	87.12	1	0.0	1	null	6	null	6	22.57	1	1019.9	1	41.076845	16.866987
754	2024-02-01 09:00:00	16	carbonara	6.02	1	82.51	1	0.0	1	null	6	null	6	89.25	1	1020.27	1	41.076845	16.866987
755	2024-02-01 10:00:00	16	carbonara	8.27	1	76.21	1	0.0	1	null	6	null	6	102.13	1	1020.31	1	41.076845	16.866987
756	2024-02-01 11:00:00	16	carbonara	11.2	1	58.73	1	0.0	1	null	6	null	6	408.78	1	1020.11	1	41.076845	16.866987
757	2024-02-01 12:00:00	16	carbonara	13.22	1	44.67	1	0.0	1	null	6	null	6	500.64	1	1019.22	1	41.076845	16.866987
758	2024-02-01 13:00:00	16	carbonara	15.02	1	42.6	1	0.0	1	null	6	null	6	509.31	1	1018.43	1	41.076845	16.866987
759	2024-02-01 14:00:00	16	carbonara	15.85	1	44.14	1	0.0	1	null	6	null	6	492.39	1	1017.65	1	41.076845	16.866987
760	2024-02-01 15:00:00	16	carbonara	15.77	1	41.14	1	0.0	1	null	6	null	6	391.68	1	1016.81	1	41.076845	16.866987
761	2024-02-01 16:00:00	16	carbonara	14.53	1	48.27	1	0.0	1	null	6	null	6	235.68	1	1016.46	1	41.076845	16.866987
762	2024-02-01 17:00:00	16	carbonara	12.33	1	62.08	1	0.0	1	null	6	null	6	39.32	1	1016.34	1	41.076845	16.866987
763	2024-02-01 18:00:00	16	carbonara	10.58	1	70.59	1	0.0	1	null	6	null	6	0.0	5	1016.66	1	41.076845	16.866987
764	2024-02-01 19:00:00	16	carbonara	9.23	1	76.47	1	0.0	1	null	6	null	6	0.0	1	1016.82	1	41.076845	16.866987
765	2024-02-01 20:00:00	16	carbonara	7.33	1	81.12	1	0.0	1	null	6	null	6	0.0	1	1016.85	1	41.076845	16.866987
766	2024-02-01 21:00:00	16	carbonara	6.07	1	83.53	1	0.0	1	null	6	null	6	0.0	1	1016.62	1	41.076845	16.866987
767	2024-02-01 22:00:00	16	carbonara	5.4	1	84.4	1	0.0	1	null	6	null	6	0.0	1	1016.35	1	41.076845	16.866987
768	2024-02-01 23:00:00	16	carbonara	5.22	1	83.56	1	0.0	1	null	6	null	6	0.0	1	1016.26	1	41.076845	16.866987
769	2024-02-02 00:00:00	16	carbonara	5.43	1	83.46	1	0.0	1	null	6	null	6	0.0	1	1016.39	1	41.076845	16.866987
770	2024-02-02 01:00:00	16	carbonara	5.58	1	83.84	1	0.0	1	null	6	null	6	0.0	1	1016.41	1	41.076845	16.866987
771	2024-02-02 02:00:00	16	carbonara	5.76	1	82.58	1	0.0	1	null	6	null	6	0.0	1	1016.18	1	41.076845	16.866987
772	2024-02-02 03:00:00	16	carbonara	5.9	1	82.53	1	0.0	1	null	6	null	6	0.0	1	1016.06	1	41.076845	16.866987
773	2024-02-02 04:00:00	16	carbonara	5.83	1	86.21	1	0.0	1	null	6	null	6	0.0	1	1015.85	1	41.076845	16.866987
774	2024-02-02 05:00:00	16	carbonara	5.74	1	86.85	1	0.0	1	null	6	null	6	0.0	1	1015.87	1	41.076845	16.866987
775	2024-02-02 06:00:00	16	carbonara	5.91	1	79.82	1	0.0	1	null	6	null	6	0.0	1	1015.83	1	41.076845	16.866987
776	2024-02-02 07:00:00	16	carbonara	6.53	1	78.47	1	0.0	1	null	6	null	6	0.0	1	1016.28	1	41.076845	16.866987
777	2024-02-02 08:00:00	16	carbonara	6.61	1	80.72	1	0.0	1	null	6	null	6	13.94	1	1016.81	1	41.076845	16.866987
778	2024-02-02 09:00:00	16	carbonara	8.04	1	72.51	1	0.0	1	null	6	null	6	71.8	1	1017.29	1	41.076845	16.866987
779	2024-02-02 10:00:00	16	carbonara	10.56	1	59.79	1	0.0	1	null	6	null	6	102.92	1	1017.41	1	41.076845	16.866987
780	2024-02-02 11:00:00	16	carbonara	13.46	1	56.91	1	0.0	1	null	6	null	6	425.29	1	1017.55	1	41.076845	16.866987
781	2024-02-02 12:00:00	16	carbonara	14.11	1	58.65	1	0.0	1	null	6	null	6	381.84	1	1017.45	1	41.076845	16.866987
782	2024-02-02 13:00:00	16	carbonara	16.07	1	51.1	1	0.0	1	null	6	null	6	468.65	1	1017.01	1	41.076845	16.866987
783	2024-02-02 14:00:00	16	carbonara	16.46	1	46.83	1	0.0	1	null	6	null	6	434.08	1	1016.53	1	41.076845	16.866987
784	2024-02-02 15:00:00	16	carbonara	16.37	1	42.75	1	0.0	1	null	6	null	6	399.7	1	1016.43	1	41.076845	16.866987
785	2024-02-02 16:00:00	16	carbonara	15.99	1	41.73	1	0.0	1	null	6	null	6	258.57	1	1016.55	1	41.076845	16.866987
786	2024-02-02 17:00:00	16	carbonara	13.69	1	43.57	1	0.0	1	null	6	null	6	42.11	1	1016.66	1	41.076845	16.866987
787	2024-02-02 18:00:00	16	carbonara	12.2	1	53.68	1	0.0	1	null	6	null	6	0.0	5	1017.12	1	41.076845	16.866987
788	2024-02-02 19:00:00	16	carbonara	11.44	1	62.47	1	0.0	1	null	6	null	6	0.0	1	1017.48	1	41.076845	16.866987
789	2024-02-02 20:00:00	16	carbonara	11.34	1	67.25	1	0.0	1	null	6	null	6	0.0	1	1017.87	1	41.076845	16.866987
790	2024-02-02 21:00:00	16	carbonara	11.05	1	71.43	1	0.0	1	null	6	null	6	0.0	1	1017.95	1	41.076845	16.866987
791	2024-02-02 22:00:00	16	carbonara	9.69	1	72.64	1	0.0	1	null	6	null	6	0.0	1	1017.86	1	41.076845	16.866987
792	2024-02-02 23:00:00	16	carbonara	8.98	1	70.34	1	0.0	1	null	6	null	6	0.0	1	1017.88	1	41.076845	16.866987
793	2024-02-03 00:00:00	16	carbonara	8.24	1	72.65	1	0.0	1	null	6	null	6	0.0	1	1018.02	1	41.076845	16.866987
794	2024-02-03 01:00:00	16	carbonara	8.13	1	76.47	1	0.0	1	null	6	null	6	0.0	1	1017.93	1	41.076845	16.866987
795	2024-02-03 02:00:00	16	carbonara	7.95	1	76.33	1	0.0	1	null	6	null	6	0.0	1	1017.86	1	41.076845	16.866987
796	2024-02-03 03:00:00	16	carbonara	7.69	1	76.11	1	0.0	1	null	6	null	6	0.0	1	1018.06	1	41.076845	16.866987
797	2024-02-03 04:00:00	16	carbonara	7.44	1	80.01	1	0.0	1	null	6	null	6	0.0	1	1017.71	1	41.076845	16.866987
798	2024-02-03 05:00:00	16	carbonara	6.88	1	82.82	1	0.0	1	null	6	null	6	0.0	1	1017.91	1	41.076845	16.866987
799	2024-02-03 06:00:00	16	carbonara	6.98	1	79.19	1	0.0	1	null	6	null	6	0.0	1	1017.76	1	41.076845	16.866987
800	2024-02-03 07:00:00	16	carbonara	6.75	1	78.71	1	0.0	1	null	6	null	6	0.0	1	1017.89	1	41.076845	16.866987
801	2024-02-03 08:00:00	16	carbonara	7.49	1	75.25	1	0.0	1	null	6	null	6	16.08	1	1018.09	1	41.076845	16.866987
802	2024-02-03 09:00:00	16	carbonara	8.7	1	74.13	1	0.0	1	null	6	null	6	44.08	1	1018.2	1	41.076845	16.866987
803	2024-02-03 10:00:00	16	carbonara	11.74	1	63.5	1	0.0	1	null	6	null	6	60.35	1	1018.48	1	41.076845	16.866987
804	2024-02-03 11:00:00	16	carbonara	14.69	1	53.87	1	0.0	1	null	6	null	6	426.27	1	1018.52	1	41.076845	16.866987
805	2024-02-03 12:00:00	16	carbonara	16.38	1	49.73	1	0.0	1	null	6	null	6	520.11	1	1018.25	1	41.076845	16.866987
806	2024-02-03 13:00:00	16	carbonara	18.46	1	42.6	1	0.0	1	null	6	null	6	541.62	1	1017.82	1	41.076845	16.866987
807	2024-02-03 14:00:00	16	carbonara	19.27	1	29.59	1	0.0	1	null	6	null	6	508.53	1	1017.05	1	41.076845	16.866987
808	2024-02-03 15:00:00	16	carbonara	20.28	1	24.5	1	0.0	1	null	6	null	6	410.19	1	1016.4	1	41.076845	16.866987
809	2024-02-03 16:00:00	16	carbonara	20.69	1	22.66	1	0.0	1	null	6	null	6	267.52	1	1015.88	1	41.076845	16.866987
810	2024-02-03 17:00:00	16	carbonara	18.19	1	27.85	1	0.0	1	null	6	null	6	42.35	1	1015.56	1	41.076845	16.866987
811	2024-02-03 18:00:00	16	carbonara	13.74	1	40.46	1	0.0	1	null	6	null	6	0.0	5	1015.68	1	41.076845	16.866987
812	2024-02-03 19:00:00	16	carbonara	12.06	1	46.64	1	0.0	1	null	6	null	6	0.0	1	1015.9	1	41.076845	16.866987
813	2024-02-03 20:00:00	16	carbonara	10.7	1	52.34	1	0.0	1	null	6	null	6	0.0	1	1016.15	1	41.076845	16.866987
814	2024-02-03 21:00:00	16	carbonara	10.37	1	50.86	1	0.0	1	null	6	null	6	0.0	1	1016.18	1	41.076845	16.866987
815	2024-02-03 22:00:00	16	carbonara	10.16	1	50.95	1	0.0	1	null	6	null	6	0.0	1	1016.37	1	41.076845	16.866987
816	2024-02-03 23:00:00	16	carbonara	9.67	1	53.58	1	0.0	1	null	6	null	6	0.0	1	1016.4	1	41.076845	16.866987
817	2024-02-04 00:00:00	16	carbonara	9.03	1	56.57	1	0.0	1	null	6	null	6	0.0	1	1016.37	1	41.076845	16.866987
818	2024-02-04 01:00:00	16	carbonara	9.08	1	56.92	1	0.0	1	null	6	null	6	0.0	1	1016.11	1	41.076845	16.866987
819	2024-02-04 02:00:00	16	carbonara	8.03	1	62.14	1	0.0	1	null	6	null	6	0.0	1	1015.94	1	41.076845	16.866987
820	2024-02-04 03:00:00	16	carbonara	7.23	1	66.4	1	0.0	1	null	6	null	6	0.0	1	1015.92	1	41.076845	16.866987
821	2024-02-04 04:00:00	16	carbonara	6.05	1	72.76	1	0.0	1	null	6	null	6	0.0	1	1015.72	1	41.076845	16.866987
822	2024-02-04 05:00:00	16	carbonara	5.74	1	74.19	1	0.0	1	null	6	null	6	0.0	1	1015.34	1	41.076845	16.866987
823	2024-02-04 06:00:00	16	carbonara	5.88	1	73.22	1	0.0	1	null	6	null	6	0.0	1	1015.08	1	41.076845	16.866987
824	2024-02-04 07:00:00	16	carbonara	5.98	1	72.95	1	0.0	1	null	6	null	6	0.0	1	1015.16	1	41.076845	16.866987
825	2024-02-04 08:00:00	16	carbonara	6.75	1	70.03	1	0.0	1	null	6	null	6	35.41	1	1015.39	1	41.076845	16.866987
826	2024-02-04 09:00:00	16	carbonara	9.43	1	60.99	1	0.0	1	null	6	null	6	96.73	1	1015.34	1	41.076845	16.866987
827	2024-02-04 10:00:00	16	carbonara	12.29	1	55.75	1	0.0	1	null	6	null	6	156.59	1	1015.53	1	41.076845	16.866987
828	2024-02-04 11:00:00	16	carbonara	15.99	1	44.22	1	0.0	1	null	6	null	6	378.53	1	1015.9	1	41.076845	16.866987
829	2024-02-04 12:00:00	16	carbonara	17.23	1	40.39	1	0.0	1	null	6	null	6	526.96	1	1016.09	1	41.076845	16.866987
830	2024-02-04 13:00:00	16	carbonara	18.87	1	39.15	1	0.0	1	null	6	null	6	539.57	1	1015.49	1	41.076845	16.866987
831	2024-02-04 14:00:00	16	carbonara	20.14	1	37.97	1	0.0	1	null	6	null	6	490.49	1	1014.68	1	41.076845	16.866987
832	2024-02-04 15:00:00	16	carbonara	20.48	1	39.27	1	0.0	1	null	6	null	6	388.54	1	1014.07	1	41.076845	16.866987
833	2024-02-04 16:00:00	16	carbonara	19.73	1	42.31	1	0.0	1	null	6	null	6	253.81	1	1013.86	1	41.076845	16.866987
834	2024-02-04 17:00:00	16	carbonara	16.98	1	50.04	1	0.0	1	null	6	null	6	52.28	1	1014.09	1	41.076845	16.866987
835	2024-02-04 18:00:00	16	carbonara	14.27	1	58.35	1	0.0	1	null	6	null	6	0.0	5	1014.9	1	41.076845	16.866987
836	2024-02-04 19:00:00	16	carbonara	12.62	1	65.5	1	0.0	1	null	6	null	6	0.0	1	1015.32	1	41.076845	16.866987
837	2024-02-04 20:00:00	16	carbonara	10.92	1	74.94	1	0.0	1	null	6	null	6	0.0	1	1015.45	1	41.076845	16.866987
838	2024-02-04 21:00:00	16	carbonara	9.78	1	79.88	1	0.0	1	null	6	null	6	0.0	1	1015.81	1	41.076845	16.866987
839	2024-02-04 22:00:00	16	carbonara	9.21	1	82.96	1	0.0	1	null	6	null	6	0.0	1	1015.96	1	41.076845	16.866987
840	2024-02-04 23:00:00	16	carbonara	9.14	1	83.28	1	0.0	1	null	6	null	6	0.0	1	1016.03	1	41.076845	16.866987
841	2024-02-05 00:00:00	16	carbonara	8.35	1	85.08	1	0.0	1	null	6	null	6	0.0	1	1016.13	1	41.076845	16.866987
842	2024-02-05 01:00:00	16	carbonara	7.9	1	85.67	1	0.0	1	null	6	null	6	0.0	1	1016.21	1	41.076845	16.866987
843	2024-02-05 02:00:00	16	carbonara	7.73	1	84.94	1	0.0	1	null	6	null	6	0.0	1	1015.78	1	41.076845	16.866987
844	2024-02-05 03:00:00	16	carbonara	7.7	1	83.87	1	0.0	1	null	6	null	6	0.0	1	1015.71	1	41.076845	16.866987
845	2024-02-05 04:00:00	16	carbonara	7.5	1	84.31	1	0.0	1	null	6	null	6	0.0	1	1015.51	1	41.076845	16.866987
846	2024-02-05 05:00:00	16	carbonara	7.26	1	85.17	1	0.0	1	null	6	null	6	0.0	1	1015.53	1	41.076845	16.866987
847	2024-02-05 06:00:00	16	carbonara	7.31	1	85.32	1	0.0	1	null	6	null	6	0.0	1	1015.39	1	41.076845	16.866987
848	2024-02-05 07:00:00	16	carbonara	7.5	1	82.95	1	0.0	1	null	6	null	6	0.0	5	1015.54	1	41.076845	16.866987
849	2024-02-05 08:00:00	16	carbonara	7.84	1	80.46	1	0.0	1	null	6	null	6	26.75	1	1015.53	1	41.076845	16.866987
850	2024-02-05 09:00:00	16	carbonara	9.01	1	78.4	1	0.0	1	null	6	null	6	89.7	1	1015.67	1	41.076845	16.866987
851	2024-02-05 10:00:00	16	carbonara	12.09	1	67.34	1	0.0	1	null	6	null	6	103.73	1	1015.77	1	41.076845	16.866987
852	2024-02-05 11:00:00	16	carbonara	16.01	1	53.23	1	0.0	1	null	6	null	6	426.7	1	1016.06	1	41.076845	16.866987
853	2024-02-05 12:00:00	16	carbonara	18.23	1	45.68	1	0.0	1	null	6	null	6	536.93	1	1015.77	1	41.076845	16.866987
854	2024-02-05 13:00:00	16	carbonara	19.85	1	40.92	1	0.0	1	null	6	null	6	465.06	1	1015.2	1	41.076845	16.866987
855	2024-02-05 14:00:00	16	carbonara	19.97	1	43.64	1	0.0	1	null	6	null	6	477.06	1	1014.55	1	41.076845	16.866987
856	2024-02-05 15:00:00	16	carbonara	19.86	1	42.11	1	0.0	1	null	6	null	6	420.74	1	1014.19	1	41.076845	16.866987
857	2024-02-05 16:00:00	16	carbonara	18.43	1	50.68	1	0.0	1	null	6	null	6	273.83	1	1014.14	1	41.076845	16.866987
858	2024-02-05 17:00:00	16	carbonara	16.24	1	65.75	1	0.0	1	null	6	null	6	55.7	1	1014.4	1	41.076845	16.866987
859	2024-02-05 18:00:00	16	carbonara	14.1	1	75.18	1	0.0	1	null	6	null	6	0.0	5	1014.7	1	41.076845	16.866987
860	2024-02-05 19:00:00	16	carbonara	12.91	1	77.01	1	0.0	1	null	6	null	6	0.0	1	1015.15	1	41.076845	16.866987
861	2024-02-05 20:00:00	16	carbonara	12.92	1	68.88	1	0.0	1	null	6	null	6	0.0	1	1015.4	1	41.076845	16.866987
862	2024-02-05 21:00:00	16	carbonara	11.73	1	71.33	1	0.0	1	null	6	null	6	0.0	1	1015.34	1	41.076845	16.866987
863	2024-02-05 22:00:00	16	carbonara	10.46	1	75.0	1	0.0	1	null	6	null	6	0.0	1	1015.62	1	41.076845	16.866987
864	2024-02-05 23:00:00	16	carbonara	10.15	1	78.02	1	0.0	1	null	6	null	6	0.0	1	1015.89	1	41.076845	16.866987
865	2024-02-06 00:00:00	16	carbonara	9.77	1	79.33	1	0.0	1	null	6	null	6	0.0	1	1016.14	1	41.076845	16.866987
866	2024-02-06 01:00:00	16	carbonara	8.94	1	87.07	1	0.0	1	null	6	null	6	0.0	1	1016.34	1	41.076845	16.866987
867	2024-02-06 02:00:00	16	carbonara	7.85	1	90.85	1	0.0	1	null	6	null	6	0.0	1	1016.07	1	41.076845	16.866987
868	2024-02-06 03:00:00	16	carbonara	7.02	1	91.61	1	0.0	1	null	6	null	6	0.0	1	1015.93	1	41.076845	16.866987
869	2024-02-06 04:00:00	16	carbonara	6.56	1	91.47	1	0.0	1	null	6	null	6	0.0	1	1015.43	1	41.076845	16.866987
870	2024-02-06 05:00:00	16	carbonara	6.73	1	89.45	1	0.0	1	null	6	null	6	0.0	1	1015.2	1	41.076845	16.866987
871	2024-02-06 06:00:00	16	carbonara	6.27	1	90.41	1	0.0	1	null	6	null	6	0.0	1	1015.18	1	41.076845	16.866987
872	2024-02-06 07:00:00	16	carbonara	6.56	1	89.97	1	0.0	1	null	6	null	6	0.0	1	1015.16	1	41.076845	16.866987
873	2024-02-06 08:00:00	16	carbonara	7.49	1	88.01	1	0.0	1	null	6	null	6	18.38	1	1015.21	1	41.076845	16.866987
874	2024-02-06 09:00:00	16	carbonara	9.64	1	80.52	1	0.0	1	null	6	null	6	50.0	1	1015.18	1	41.076845	16.866987
875	2024-02-06 10:00:00	16	carbonara	13.06	1	66.82	1	0.0	1	null	6	null	6	71.1	1	1015.16	1	41.076845	16.866987
876	2024-02-06 11:00:00	16	carbonara	16.96	1	53.61	1	0.0	1	null	6	null	6	447.64	1	1015.04	1	41.076845	16.866987
877	2024-02-06 12:00:00	16	carbonara	16.76	1	55.43	1	0.0	1	null	6	null	6	416.95	1	1014.74	1	41.076845	16.866987
878	2024-02-06 13:00:00	16	carbonara	17.63	1	51.53	1	0.0	1	null	6	null	6	540.7	1	1014.14	1	41.076845	16.866987
879	2024-02-06 14:00:00	16	carbonara	18.65	1	49.74	1	0.0	1	null	6	null	6	498.78	1	1013.37	1	41.076845	16.866987
880	2024-02-06 15:00:00	16	carbonara	18.69	1	49.82	1	0.0	1	null	6	null	6	414.04	1	1012.88	1	41.076845	16.866987
881	2024-02-06 16:00:00	16	carbonara	18.09	1	50.93	1	0.0	1	null	6	null	6	233.31	1	1012.57	1	41.076845	16.866987
882	2024-02-06 17:00:00	16	carbonara	16.18	1	55.22	1	0.0	1	null	6	null	6	60.08	1	1012.46	1	41.076845	16.866987
883	2024-02-06 18:00:00	16	carbonara	14.38	1	61.69	1	0.0	1	null	6	null	6	0.0	5	1012.8	1	41.076845	16.866987
884	2024-02-06 19:00:00	16	carbonara	13.17	1	68.06	1	0.0	1	null	6	null	6	0.0	1	1013.02	1	41.076845	16.866987
885	2024-02-06 20:00:00	16	carbonara	11.93	1	76.81	1	0.0	1	null	6	null	6	0.0	1	1013.09	1	41.076845	16.866987
886	2024-02-06 21:00:00	16	carbonara	10.71	1	83.82	1	0.0	1	null	6	null	6	0.0	1	1012.95	1	41.076845	16.866987
887	2024-02-06 22:00:00	16	carbonara	10.43	1	85.92	1	0.0	1	null	6	null	6	0.0	1	1012.72	1	41.076845	16.866987
888	2024-02-06 23:00:00	16	carbonara	10.45	1	90.83	1	0.0	1	null	6	null	6	0.0	1	1012.35	1	41.076845	16.866987
889	2024-02-07 00:00:00	16	carbonara	10.43	1	92.2	1	0.0	1	null	6	null	6	0.0	1	1011.96	1	41.076845	16.866987
890	2024-02-07 01:00:00	16	carbonara	10.29	1	93.02	1	0.0	1	null	6	null	6	0.0	1	1011.67	1	41.076845	16.866987
891	2024-02-07 02:00:00	16	carbonara	10.27	1	93.58	1	0.0	1	null	6	null	6	0.0	1	1011.15	1	41.076845	16.866987
892	2024-02-07 03:00:00	16	carbonara	9.95	1	94.0	1	0.0	1	null	6	null	6	0.0	1	1010.61	1	41.076845	16.866987
893	2024-02-07 04:00:00	16	carbonara	9.94	1	93.27	1	0.0	1	null	6	null	6	0.0	1	1009.97	1	41.076845	16.866987
894	2024-02-07 05:00:00	16	carbonara	9.93	1	92.66	1	0.0	1	null	6	null	6	0.0	1	1009.38	1	41.076845	16.866987
895	2024-02-07 06:00:00	16	carbonara	9.63	1	93.6	1	0.0	1	null	6	null	6	0.0	1	1008.98	1	41.076845	16.866987
896	2024-02-07 07:00:00	16	carbonara	9.94	1	93.54	1	0.0	1	null	6	null	6	0.0	1	1008.73	1	41.076845	16.866987
897	2024-02-07 08:00:00	16	carbonara	10.32	1	92.34	1	0.0	1	null	6	null	6	26.74	1	1008.57	1	41.076845	16.866987
898	2024-02-07 09:00:00	16	carbonara	12.37	1	81.53	1	0.0	1	null	6	null	6	102.44	1	1008.38	1	41.076845	16.866987
899	2024-02-07 10:00:00	16	carbonara	14.83	1	67.01	1	0.0	1	null	6	null	6	128.78	1	1008.28	1	41.076845	16.866987
900	2024-02-07 11:00:00	16	carbonara	17.53	1	54.97	1	0.0	1	null	6	null	6	434.97	1	1007.92	1	41.076845	16.866987
901	2024-02-07 12:00:00	16	carbonara	19.53	1	43.07	1	0.0	1	null	6	null	6	430.72	1	1007.22	1	41.076845	16.866987
902	2024-02-07 13:00:00	16	carbonara	19.05	1	50.44	1	0.0	1	null	6	null	6	487.33	1	1006.4	1	41.076845	16.866987
903	2024-02-07 14:00:00	16	carbonara	19.17	1	45.56	1	0.0	1	null	6	null	6	377.83	1	1005.6	1	41.076845	16.866987
904	2024-02-07 15:00:00	16	carbonara	17.54	1	49.41	1	0.0	1	null	6	null	6	239.61	1	1005.07	1	41.076845	16.866987
905	2024-02-07 16:00:00	16	carbonara	15.81	1	62.38	1	0.0	1	null	6	null	6	137.49	1	1004.95	1	41.076845	16.866987
906	2024-02-07 17:00:00	16	carbonara	14.88	1	67.27	1	0.0	1	null	6	null	6	34.02	1	1004.72	1	41.076845	16.866987
907	2024-02-07 18:00:00	16	carbonara	14.09	1	70.36	1	0.0	1	null	6	null	6	0.0	5	1004.68	1	41.076845	16.866987
908	2024-02-07 19:00:00	16	carbonara	13.45	1	73.55	1	0.0	1	null	6	null	6	0.0	1	1004.7	1	41.076845	16.866987
909	2024-02-07 20:00:00	16	carbonara	13.11	1	83.71	1	0.0	1	null	6	null	6	0.0	1	1004.45	1	41.076845	16.866987
910	2024-02-07 21:00:00	16	carbonara	12.42	1	86.46	1	0.0	1	null	6	null	6	0.0	1	1004.15	1	41.076845	16.866987
911	2024-02-07 22:00:00	16	carbonara	11.64	1	87.6	1	0.0	1	null	6	null	6	0.0	1	1004.07	1	41.076845	16.866987
912	2024-02-07 23:00:00	16	carbonara	10.95	1	89.84	1	0.0	1	null	6	null	6	0.0	1	1004.02	1	41.076845	16.866987
913	2024-02-08 00:00:00	16	carbonara	9.8	1	89.18	1	0.0	1	null	6	null	6	0.0	1	1004.2	1	41.076845	16.866987
914	2024-02-08 01:00:00	16	carbonara	9.52	1	88.94	1	0.0	1	null	6	null	6	0.0	1	1004.25	1	41.076845	16.866987
915	2024-02-08 02:00:00	16	carbonara	8.74	1	92.2	1	0.0	1	null	6	null	6	0.0	1	1004.11	1	41.076845	16.866987
916	2024-02-08 03:00:00	16	carbonara	8.43	1	94.97	1	0.0	1	null	6	null	6	0.0	1	1003.93	1	41.076845	16.866987
917	2024-02-08 04:00:00	16	carbonara	8.05	1	91.98	1	0.0	1	null	6	null	6	0.0	1	1003.32	1	41.076845	16.866987
918	2024-02-08 05:00:00	16	carbonara	7.55	1	88.12	1	0.0	1	null	6	null	6	0.0	1	1002.98	1	41.076845	16.866987
919	2024-02-08 06:00:00	16	carbonara	8.02	1	83.79	1	0.0	1	null	6	null	6	0.0	1	1002.89	1	41.076845	16.866987
920	2024-02-08 07:00:00	16	carbonara	7.82	1	83.76	1	0.0	1	null	6	null	6	0.0	5	1003.09	1	41.076845	16.866987
921	2024-02-08 08:00:00	16	carbonara	8.13	1	83.7	1	0.0	1	null	6	null	6	20.82	1	1003.5	1	41.076845	16.866987
922	2024-02-08 09:00:00	16	carbonara	10.76	1	75.05	1	0.0	1	null	6	null	6	50.88	1	1004.04	1	41.076845	16.866987
923	2024-02-08 10:00:00	16	carbonara	14.31	1	59.06	1	0.0	1	null	6	null	6	74.28	1	1004.11	1	41.076845	16.866987
924	2024-02-08 11:00:00	16	carbonara	17.52	1	48.9	1	0.0	1	null	6	null	6	458.9	1	1004.24	1	41.076845	16.866987
925	2024-02-08 12:00:00	16	carbonara	18.93	1	44.68	1	0.0	1	null	6	null	6	522.32	1	1003.94	1	41.076845	16.866987
926	2024-02-08 13:00:00	16	carbonara	19.32	1	44.53	1	0.0	1	null	6	null	6	444.07	1	1003.34	1	41.076845	16.866987
927	2024-02-08 14:00:00	16	carbonara	18.3	1	47.3	1	0.0	1	null	6	null	6	325.92	1	1002.95	1	41.076845	16.866987
928	2024-02-08 15:00:00	16	carbonara	19.36	1	43.18	1	0.0	1	null	6	null	6	392.67	1	1002.7	1	41.076845	16.866987
929	2024-02-08 16:00:00	16	carbonara	18.86	1	46.35	1	0.0	1	null	6	null	6	256.21	1	1002.79	1	41.076845	16.866987
930	2024-02-08 17:00:00	16	carbonara	16.8	1	51.59	1	0.0	1	null	6	null	6	64.17	1	1002.96	1	41.076845	16.866987
931	2024-02-08 18:00:00	16	carbonara	14.81	1	56.04	1	0.0	1	null	6	null	6	0.0	5	1003.02	1	41.076845	16.866987
932	2024-02-08 19:00:00	16	carbonara	13.75	1	60.0	1	0.0	1	null	6	null	6	0.0	1	1003.43	1	41.076845	16.866987
933	2024-02-08 20:00:00	16	carbonara	12.34	1	63.66	1	0.0	1	null	6	null	6	0.0	1	1003.59	1	41.076845	16.866987
934	2024-02-08 21:00:00	16	carbonara	11.91	1	67.19	1	0.0	1	null	6	null	6	0.0	1	1003.59	1	41.076845	16.866987
935	2024-02-08 22:00:00	16	carbonara	11.46	1	68.49	1	0.0	1	null	6	null	6	0.0	1	1003.76	1	41.076845	16.866987
936	2024-02-08 23:00:00	16	carbonara	11.45	1	66.69	1	0.0	1	null	6	null	6	0.0	1	1003.74	1	41.076845	16.866987
937	2024-02-09 00:00:00	16	carbonara	11.08	1	67.49	1	0.0	1	null	6	null	6	0.0	1	1003.9	1	41.076845	16.866987
938	2024-02-09 01:00:00	16	carbonara	10.36	1	68.81	1	0.0	1	null	6	null	6	0.0	1	1003.77	1	41.076845	16.866987
939	2024-02-09 02:00:00	16	carbonara	10.12	1	68.08	1	0.0	1	null	6	null	6	0.0	1	1003.22	1	41.076845	16.866987
940	2024-02-09 03:00:00	16	carbonara	10.01	1	66.66	1	0.0	1	null	6	null	6	0.0	1	1003.06	1	41.076845	16.866987
941	2024-02-09 04:00:00	16	carbonara	10.02	1	65.49	1	0.0	1	null	6	null	6	0.0	1	1002.6	1	41.076845	16.866987
942	2024-02-09 05:00:00	16	carbonara	9.48	1	67.02	1	0.0	1	null	6	null	6	0.0	1	1002.39	1	41.076845	16.866987
943	2024-02-09 06:00:00	16	carbonara	9.27	1	67.12	1	0.0	1	null	6	null	6	0.0	1	1002.38	1	41.076845	16.866987
944	2024-02-09 07:00:00	16	carbonara	9.35	1	71.8	1	0.0	1	null	6	null	6	0.0	5	1002.27	1	41.076845	16.866987
945	2024-02-09 08:00:00	16	carbonara	10.21	1	70.02	1	0.0	1	null	6	null	6	38.3	1	1002.39	1	41.076845	16.866987
946	2024-02-09 09:00:00	16	carbonara	11.84	1	63.68	1	0.0	1	null	6	null	6	90.75	1	1002.22	1	41.076845	16.866987
947	2024-02-09 10:00:00	16	carbonara	14.61	1	52.04	1	0.0	1	null	6	null	6	190.04	1	1002.03	1	41.076845	16.866987
948	2024-02-09 11:00:00	16	carbonara	16.21	1	48.36	1	0.0	1	null	6	null	6	356.06	1	1002.13	1	41.076845	16.866987
949	2024-02-09 12:00:00	16	carbonara	18.41	1	39.06	1	0.0	1	null	6	null	6	485.13	1	1001.63	1	41.076845	16.866987
950	2024-02-09 13:00:00	16	carbonara	19.46	1	35.96	1	0.0	1	null	6	null	6	306.22	1	1000.94	1	41.076845	16.866987
951	2024-02-09 14:00:00	16	carbonara	18.81	1	37.99	1	0.0	1	null	6	null	6	167.51	1	1000.11	1	41.076845	16.866987
952	2024-02-09 15:00:00	16	carbonara	17.67	1	42.33	1	0.0	1	null	6	null	6	104.04	1	999.76	1	41.076845	16.866987
953	2024-02-09 16:00:00	16	carbonara	17.05	1	45.34	1	0.0	1	null	6	null	6	176.83	1	999.32	1	41.076845	16.866987
954	2024-02-09 17:00:00	16	carbonara	16.41	1	48.03	1	0.0	1	null	6	null	6	84.09	1	998.7	1	41.076845	16.866987
955	2024-02-09 18:00:00	16	carbonara	15.0	1	61.3	1	0.0	1	null	6	null	6	0.0	5	998.11	1	41.076845	16.866987
956	2024-02-09 19:00:00	16	carbonara	13.78	1	77.62	1	0.0	1	null	6	null	6	0.0	1	998.15	1	41.076845	16.866987
957	2024-02-09 20:00:00	16	carbonara	13.46	1	83.07	1	0.0	1	null	6	null	6	0.0	1	998.35	1	41.076845	16.866987
958	2024-02-09 21:00:00	16	carbonara	13.28	1	84.6	1	0.0	1	null	6	null	6	0.0	1	998.09	1	41.076845	16.866987
959	2024-02-09 22:00:00	16	carbonara	13.22	1	85.98	1	0.0	1	null	6	null	6	0.0	1	998.34	1	41.076845	16.866987
960	2024-02-09 23:00:00	16	carbonara	13.64	1	84.37	1	0.0	1	null	6	null	6	0.0	1	998.1	1	41.076845	16.866987
961	2024-02-10 00:00:00	16	carbonara	13.86	1	82.68	1	0.0	1	null	6	null	6	0.0	1	997.4	1	41.076845	16.866987
962	2024-02-10 01:00:00	16	carbonara	14.12	1	82.73	1	0.0	1	null	6	null	6	0.0	1	996.78	1	41.076845	16.866987
963	2024-02-10 02:00:00	16	carbonara	14.32	1	83.47	1	0.0	1	null	6	null	6	0.0	1	996.42	1	41.076845	16.866987
964	2024-02-10 03:00:00	16	carbonara	14.48	1	83.08	1	0.0	1	null	6	null	6	0.0	1	995.98	1	41.076845	16.866987
965	2024-02-10 04:00:00	16	carbonara	14.28	1	84.02	1	0.0	1	null	6	null	6	0.0	1	995.34	1	41.076845	16.866987
966	2024-02-10 05:00:00	16	carbonara	14.24	1	82.58	1	0.0	1	null	6	null	6	0.0	1	995.48	1	41.076845	16.866987
967	2024-02-10 06:00:00	16	carbonara	13.82	1	82.56	1	0.0	1	null	6	null	6	0.0	1	995.13	1	41.076845	16.866987
968	2024-02-10 07:00:00	16	carbonara	14.11	1	72.07	1	0.0	1	null	6	null	6	0.0	1	994.66	1	41.076845	16.866987
969	2024-02-10 08:00:00	16	carbonara	15.11	1	58.64	1	0.0	1	null	6	null	6	0.0	5	994.69	1	41.076845	16.866987
970	2024-02-10 09:00:00	16	carbonara	15.42	1	52.9	1	0.0	1	null	6	null	6	14.43	1	995.0	1	41.076845	16.866987
971	2024-02-10 10:00:00	16	carbonara	15.4	1	53.31	1	0.0	1	null	6	null	6	28.39	1	995.06	1	41.076845	16.866987
972	2024-02-10 11:00:00	16	carbonara	15.82	1	63.52	1	0.0	1	null	6	null	6	72.08	1	995.32	1	41.076845	16.866987
973	2024-02-10 12:00:00	16	carbonara	16.31	1	65.43	1	0.0	1	null	6	null	6	98.36	1	994.69	1	41.076845	16.866987
974	2024-02-10 13:00:00	16	carbonara	16.56	1	65.06	1	0.0	1	null	6	null	6	66.07	1	993.78	1	41.076845	16.866987
975	2024-02-10 14:00:00	16	carbonara	16.61	1	64.42	1	0.0	1	null	6	null	6	58.22	1	992.82	1	41.076845	16.866987
976	2024-02-10 15:00:00	16	carbonara	16.79	1	56.91	1	0.0	1	null	6	null	6	47.99	1	991.8	1	41.076845	16.866987
977	2024-02-10 16:00:00	16	carbonara	16.98	1	48.75	1	0.0	1	null	6	null	6	38.14	1	991.21	1	41.076845	16.866987
978	2024-02-10 17:00:00	16	carbonara	16.7	1	52.71	1	0.0	1	null	6	null	6	11.14	1	990.62	1	41.076845	16.866987
979	2024-02-10 18:00:00	16	carbonara	15.83	1	71.79	1	0.0	1	null	6	null	6	0.0	5	990.34	1	41.076845	16.866987
980	2024-02-10 19:00:00	16	carbonara	15.58	1	77.52	1	0.0	1	null	6	null	6	0.0	1	989.82	1	41.076845	16.866987
981	2024-02-10 20:00:00	16	carbonara	15.8	1	75.54	1	0.0	1	null	6	null	6	0.0	1	989.32	1	41.076845	16.866987
982	2024-02-10 21:00:00	16	carbonara	15.82	1	71.65	1	0.0	1	null	6	null	6	0.0	1	989.06	1	41.076845	16.866987
983	2024-02-10 22:00:00	16	carbonara	15.07	1	71.0	1	0.0	1	null	6	null	6	0.0	1	989.09	1	41.076845	16.866987
984	2024-02-10 23:00:00	16	carbonara	14.76	1	72.67	1	0.0	1	null	6	null	6	0.0	1	989.41	1	41.076845	16.866987
985	2024-02-11 00:00:00	16	carbonara	14.82	1	70.55	1	0.0	1	null	6	null	6	0.0	1	989.45	1	41.076845	16.866987
986	2024-02-11 01:00:00	16	carbonara	14.73	1	68.79	1	0.0	1	null	6	null	6	0.0	1	989.0	1	41.076845	16.866987
987	2024-02-11 02:00:00	16	carbonara	14.24	1	68.88	1	0.0	1	null	6	null	6	0.0	1	988.6	1	41.076845	16.866987
988	2024-02-11 03:00:00	16	carbonara	14.22	1	66.21	1	0.0	1	null	6	null	6	0.0	1	987.98	1	41.076845	16.866987
989	2024-02-11 04:00:00	16	carbonara	14.2	1	65.39	1	0.0	1	null	6	null	6	0.0	1	988.17	1	41.076845	16.866987
990	2024-02-11 05:00:00	16	carbonara	13.77	1	71.4	1	0.0	1	null	6	null	6	0.0	1	988.11	1	41.076845	16.866987
991	2024-02-11 06:00:00	16	carbonara	14.03	1	68.64	1	0.0	1	null	6	null	6	0.0	1	987.79	1	41.076845	16.866987
992	2024-02-11 07:00:00	16	carbonara	13.47	1	66.71	1	0.0	1	null	6	null	6	0.0	5	987.53	1	41.076845	16.866987
993	2024-02-11 08:00:00	16	carbonara	13.65	1	61.72	1	0.0	1	null	6	null	6	33.97	1	987.44	1	41.076845	16.866987
994	2024-02-11 09:00:00	16	carbonara	15.36	1	59.19	1	0.0	1	null	6	null	6	133.29	1	988.17	1	41.076845	16.866987
995	2024-02-11 10:00:00	16	carbonara	16.96	1	49.75	1	0.0	1	null	6	null	6	167.29	1	988.75	1	41.076845	16.866987
996	2024-02-11 11:00:00	16	carbonara	17.34	1	45.49	1	0.0	1	null	6	null	6	304.87	1	989.14	1	41.076845	16.866987
997	2024-02-11 12:00:00	16	carbonara	15.95	1	55.72	1	0.0	1	null	6	null	6	302.19	1	989.69	1	41.076845	16.866987
998	2024-02-11 13:00:00	16	carbonara	18.47	1	40.03	1	0.0	1	null	6	null	6	430.98	1	989.43	1	41.076845	16.866987
999	2024-02-11 14:00:00	16	carbonara	16.96	1	47.52	1	0.0	1	null	6	null	6	203.51	1	989.62	1	41.076845	16.866987
1000	2024-02-11 15:00:00	16	carbonara	16.68	1	46.7	1	0.0	1	null	6	null	6	217.02	1	989.38	1	41.076845	16.866987
1001	2024-02-11 16:00:00	16	carbonara	16.96	1	44.81	1	0.0	1	null	6	null	6	116.03	1	989.43	1	41.076845	16.866987
1002	2024-02-11 17:00:00	16	carbonara	15.76	1	51.33	1	0.0	1	null	6	null	6	48.95	1	989.63	1	41.076845	16.866987
1003	2024-02-11 18:00:00	16	carbonara	14.52	1	56.84	1	0.0	1	null	6	null	6	0.0	5	990.07	1	41.076845	16.866987
1004	2024-02-11 19:00:00	16	carbonara	13.49	1	62.07	1	0.0	1	null	6	null	6	0.0	1	990.41	1	41.076845	16.866987
1005	2024-02-11 20:00:00	16	carbonara	12.76	1	68.11	1	0.0	1	null	6	null	6	0.0	1	990.74	1	41.076845	16.866987
1006	2024-02-11 21:00:00	16	carbonara	11.7	1	71.73	1	0.0	1	null	6	null	6	0.0	1	991.28	1	41.076845	16.866987
1007	2024-02-11 22:00:00	16	carbonara	10.85	1	71.57	1	0.0	1	null	6	null	6	0.0	1	991.98	1	41.076845	16.866987
1008	2024-02-11 23:00:00	16	carbonara	10.46	1	67.07	1	0.0	1	null	6	null	6	0.0	1	992.26	1	41.076845	16.866987
1009	2024-02-12 00:00:00	16	carbonara	9.99	1	66.47	1	0.0	1	null	6	null	6	0.0	1	992.3	1	41.076845	16.866987
1010	2024-02-12 01:00:00	16	carbonara	8.96	1	70.92	1	0.0	1	null	6	null	6	0.0	1	992.51	1	41.076845	16.866987
1011	2024-02-12 02:00:00	16	carbonara	9.52	1	65.82	1	0.0	1	null	6	null	6	0.0	1	992.55	1	41.076845	16.866987
1012	2024-02-12 03:00:00	16	carbonara	9.44	1	64.03	1	0.0	1	null	6	null	6	0.0	1	992.6	1	41.076845	16.866987
1013	2024-02-12 04:00:00	16	carbonara	9.26	1	64.77	1	0.0	1	null	6	null	6	0.0	1	992.54	1	41.076845	16.866987
1014	2024-02-12 05:00:00	16	carbonara	9.01	1	65.69	1	0.0	1	null	6	null	6	0.0	1	992.81	1	41.076845	16.866987
1015	2024-02-12 06:00:00	16	carbonara	8.24	1	70.41	1	0.0	1	null	6	null	6	0.0	1	993.11	1	41.076845	16.866987
1016	2024-02-12 07:00:00	16	carbonara	8.37	1	71.36	1	0.0	1	null	6	null	6	0.0	5	993.37	1	41.076845	16.866987
1017	2024-02-12 08:00:00	16	carbonara	8.99	1	68.88	1	0.0	1	null	6	null	6	44.83	1	993.97	1	41.076845	16.866987
1018	2024-02-12 09:00:00	16	carbonara	10.31	1	65.48	1	0.0	1	null	6	null	6	99.37	1	994.58	1	41.076845	16.866987
1019	2024-02-12 10:00:00	16	carbonara	12.95	1	57.07	1	0.0	1	null	6	null	6	184.85	1	994.93	1	41.076845	16.866987
1020	2024-02-12 11:00:00	16	carbonara	14.56	1	51.41	1	0.0	1	null	6	null	6	274.43	1	995.3	1	41.076845	16.866987
1021	2024-02-12 12:00:00	16	carbonara	15.99	1	49.29	1	0.0	1	null	6	null	6	524.22	1	995.17	1	41.076845	16.866987
1022	2024-02-12 13:00:00	16	carbonara	17.17	1	49.83	1	0.0	1	null	6	null	6	364.83	1	994.98	1	41.076845	16.866987
1023	2024-02-12 14:00:00	16	carbonara	16.28	1	51.12	1	0.0	1	null	6	null	6	309.98	1	994.89	1	41.076845	16.866987
1024	2024-02-12 15:00:00	16	carbonara	17.43	1	48.49	1	0.0	1	null	6	null	6	394.16	1	994.92	1	41.076845	16.866987
1025	2024-02-12 16:00:00	16	carbonara	17.28	1	46.66	1	0.0	1	null	6	null	6	198.01	1	995.11	1	41.076845	16.866987
1026	2024-02-12 17:00:00	16	carbonara	14.56	1	56.06	1	0.0	1	null	6	null	6	37.71	1	995.84	1	41.076845	16.866987
1027	2024-02-12 18:00:00	16	carbonara	13.66	1	68.01	1	0.0	1	null	6	null	6	0.0	5	996.72	1	41.076845	16.866987
1028	2024-02-12 19:00:00	16	carbonara	13.17	1	73.63	1	0.0	1	null	6	null	6	0.0	1	997.7	1	41.076845	16.866987
1029	2024-02-12 20:00:00	16	carbonara	12.04	1	76.2	1	0.0	1	null	6	null	6	0.0	1	998.3	1	41.076845	16.866987
1030	2024-02-12 21:00:00	16	carbonara	11.04	1	80.27	1	0.0	1	null	6	null	6	0.0	1	998.94	1	41.076845	16.866987
1031	2024-02-12 22:00:00	16	carbonara	10.3	1	83.21	1	0.0	1	null	6	null	6	0.0	1	999.45	1	41.076845	16.866987
1032	2024-02-12 23:00:00	16	carbonara	10.2	1	83.63	1	0.0	1	null	6	null	6	0.0	1	999.87	1	41.076845	16.866987
1033	2024-02-13 00:00:00	16	carbonara	10.52	1	80.92	1	0.0	1	null	6	null	6	0.0	1	1000.24	1	41.076845	16.866987
1034	2024-02-13 01:00:00	16	carbonara	10.45	1	79.08	1	0.0	1	null	6	null	6	0.0	1	1000.34	1	41.076845	16.866987
1035	2024-02-13 02:00:00	16	carbonara	10.06	1	77.59	1	0.0	1	null	6	null	6	0.0	1	1000.47	1	41.076845	16.866987
1036	2024-02-13 03:00:00	16	carbonara	9.3	1	80.3	1	0.0	1	null	6	null	6	0.0	1	1000.72	1	41.076845	16.866987
1037	2024-02-13 04:00:00	16	carbonara	9.17	1	81.26	1	0.0	1	null	6	null	6	0.0	1	1000.97	1	41.076845	16.866987
1038	2024-02-13 05:00:00	16	carbonara	8.65	1	84.91	1	0.0	1	null	6	null	6	0.0	1	1001.37	1	41.076845	16.866987
1039	2024-02-13 06:00:00	16	carbonara	9.38	1	85.22	1	0.0	1	null	6	null	6	0.0	1	1001.72	1	41.076845	16.866987
1040	2024-02-13 07:00:00	16	carbonara	10.13	1	81.48	1	0.0	1	null	6	null	6	0.0	5	1002.18	1	41.076845	16.866987
1041	2024-02-13 08:00:00	16	carbonara	10.5	1	78.1	1	0.0	1	null	6	null	6	48.37	1	1003.12	1	41.076845	16.866987
1042	2024-02-13 09:00:00	16	carbonara	12.34	1	69.86	1	0.0	1	null	6	null	6	115.82	1	1003.85	1	41.076845	16.866987
1043	2024-02-13 10:00:00	16	carbonara	12.0	1	80.21	1	0.0	1	null	6	null	6	102.15	1	1004.56	1	41.076845	16.866987
1044	2024-02-13 11:00:00	16	carbonara	12.06	1	82.11	1	0.0	1	null	6	null	6	173.0	1	1004.81	1	41.076845	16.866987
1045	2024-02-13 12:00:00	16	carbonara	13.11	1	77.21	1	0.0	1	null	6	null	6	248.44	1	1004.85	1	41.076845	16.866987
1046	2024-02-13 13:00:00	16	carbonara	13.73	1	70.11	1	0.0	1	null	6	null	6	249.52	1	1004.36	1	41.076845	16.866987
1047	2024-02-13 14:00:00	16	carbonara	13.89	1	71.16	1	0.0	1	null	6	null	6	133.42	1	1004.25	1	41.076845	16.866987
1048	2024-02-13 15:00:00	16	carbonara	13.01	1	73.97	1	0.4	1	null	6	null	6	44.74	1	1004.49	1	41.076845	16.866987
1049	2024-02-13 16:00:00	16	carbonara	10.53	1	89.63	1	1.6	1	null	6	null	6	33.79	1	1005.25	1	41.076845	16.866987
1050	2024-02-13 17:00:00	16	carbonara	10.2	1	94.7	1	0.4	1	null	6	null	6	25.58	1	1005.5	1	41.076845	16.866987
1051	2024-02-13 18:00:00	16	carbonara	9.73	1	96.02	1	0.0	1	null	6	null	6	0.0	5	1006.35	1	41.076845	16.866987
1052	2024-02-13 19:00:00	16	carbonara	9.27	1	93.94	1	0.0	1	null	6	null	6	0.0	1	1006.97	1	41.076845	16.866987
1053	2024-02-13 20:00:00	16	carbonara	9.17	1	88.27	1	0.0	1	null	6	null	6	0.0	1	1007.45	1	41.076845	16.866987
1054	2024-02-13 21:00:00	16	carbonara	9.42	1	88.01	1	0.0	1	null	6	null	6	0.0	1	1007.88	1	41.076845	16.866987
1055	2024-02-13 22:00:00	16	carbonara	10.0	1	84.84	1	0.0	1	null	6	null	6	0.0	1	1008.13	1	41.076845	16.866987
1056	2024-02-13 23:00:00	16	carbonara	10.16	1	79.49	1	0.0	1	null	6	null	6	0.0	1	1008.33	1	41.076845	16.866987
1057	2024-02-14 00:00:00	16	carbonara	9.93	1	82.61	1	0.0	1	null	6	null	6	0.0	1	1008.72	1	41.076845	16.866987
1058	2024-02-14 01:00:00	16	carbonara	9.5	1	86.96	1	0.0	1	null	6	null	6	0.0	1	1008.97	1	41.076845	16.866987
1059	2024-02-14 02:00:00	16	carbonara	9.43	1	82.66	1	0.0	1	null	6	null	6	0.0	1	1009.13	1	41.076845	16.866987
1060	2024-02-14 03:00:00	16	carbonara	9.23	1	82.32	1	0.0	1	null	6	null	6	0.0	1	1009.28	1	41.076845	16.866987
1061	2024-02-14 04:00:00	16	carbonara	9.12	1	82.06	1	0.2	1	null	6	null	6	0.0	1	1009.52	1	41.076845	16.866987
1062	2024-02-14 05:00:00	16	carbonara	8.79	1	91.69	1	0.2	1	null	6	null	6	0.0	1	1010.03	1	41.076845	16.866987
1063	2024-02-14 06:00:00	16	carbonara	9.26	1	82.7	1	0.0	1	null	6	null	6	0.0	1	1010.33	1	41.076845	16.866987
1064	2024-02-14 07:00:00	16	carbonara	9.86	1	69.73	1	0.0	1	null	6	null	6	0.0	5	1010.68	1	41.076845	16.866987
1065	2024-02-14 08:00:00	16	carbonara	11.26	1	54.45	1	0.0	1	null	6	null	6	40.09	1	1011.18	1	41.076845	16.866987
1066	2024-02-14 09:00:00	16	carbonara	12.11	1	47.82	1	0.0	1	null	6	null	6	85.51	1	1011.77	1	41.076845	16.866987
1067	2024-02-14 10:00:00	16	carbonara	12.78	1	46.14	1	0.0	1	null	6	null	6	105.46	1	1012.01	1	41.076845	16.866987
1068	2024-02-14 11:00:00	16	carbonara	13.76	1	44.75	1	0.0	1	null	6	null	6	317.71	1	1012.17	1	41.076845	16.866987
1069	2024-02-14 12:00:00	16	carbonara	14.45	1	42.94	1	0.0	1	null	6	null	6	521.59	1	1012.15	1	41.076845	16.866987
1070	2024-02-14 13:00:00	16	carbonara	15.71	1	39.83	1	0.0	1	null	6	null	6	613.61	1	1011.98	1	41.076845	16.866987
1071	2024-02-14 14:00:00	16	carbonara	16.37	1	40.7	1	0.0	1	null	6	null	6	594.81	1	1011.81	1	41.076845	16.866987
1072	2024-02-14 15:00:00	16	carbonara	16.17	1	39.25	1	0.0	1	null	6	null	6	482.07	1	1011.85	1	41.076845	16.866987
1073	2024-02-14 16:00:00	16	carbonara	15.43	1	43.1	1	0.0	1	null	6	null	6	322.58	1	1011.93	1	41.076845	16.866987
1074	2024-02-14 17:00:00	16	carbonara	13.97	1	47.49	1	0.0	1	null	6	null	6	103.55	1	1012.3	1	41.076845	16.866987
1075	2024-02-14 18:00:00	16	carbonara	12.38	1	52.65	1	0.0	1	null	6	null	6	0.0	5	1012.89	1	41.076845	16.866987
1076	2024-02-14 19:00:00	16	carbonara	12.02	1	55.11	1	0.0	1	null	6	null	6	0.0	1	1013.36	1	41.076845	16.866987
1077	2024-02-14 20:00:00	16	carbonara	11.82	1	60.05	1	0.0	1	null	6	null	6	0.0	1	1013.58	1	41.076845	16.866987
1078	2024-02-14 21:00:00	16	carbonara	11.06	1	61.27	1	0.0	1	null	6	null	6	0.0	1	1013.93	1	41.076845	16.866987
1079	2024-02-14 22:00:00	16	carbonara	8.65	1	60.57	1	0.0	1	null	6	null	6	0.0	1	1014.1	1	41.076845	16.866987
1080	2024-02-14 23:00:00	16	carbonara	8.1	1	62.75	1	0.0	1	null	6	null	6	0.0	1	1013.88	1	41.076845	16.866987
1081	2024-02-15 00:00:00	16	carbonara	8.03	1	68.45	1	0.0	1	null	6	null	6	0.0	1	1013.78	1	41.076845	16.866987
1082	2024-02-15 01:00:00	16	carbonara	8.75	1	64.66	1	0.0	1	null	6	null	6	0.0	1	1013.76	1	41.076845	16.866987
1083	2024-02-15 02:00:00	16	carbonara	8.35	1	68.69	1	0.0	1	null	6	null	6	0.0	1	1013.5	1	41.076845	16.866987
1084	2024-02-15 03:00:00	16	carbonara	8.16	1	70.01	1	0.0	1	null	6	null	6	0.0	1	1013.24	1	41.076845	16.866987
1085	2024-02-15 04:00:00	16	carbonara	8.0	1	71.24	1	0.0	1	null	6	null	6	0.0	1	1013.2	1	41.076845	16.866987
1086	2024-02-15 05:00:00	16	carbonara	7.58	1	73.5	1	0.0	1	null	6	null	6	0.0	1	1013.34	1	41.076845	16.866987
1087	2024-02-15 06:00:00	16	carbonara	7.16	1	74.94	1	0.0	1	null	6	null	6	0.0	1	1013.46	1	41.076845	16.866987
1088	2024-02-15 07:00:00	16	carbonara	6.37	1	77.76	1	0.0	1	null	6	null	6	0.0	5	1013.61	1	41.076845	16.866987
1089	2024-02-15 08:00:00	16	carbonara	7.14	1	72.57	1	0.0	1	null	6	null	6	25.68	1	1013.84	1	41.076845	16.866987
1090	2024-02-15 09:00:00	16	carbonara	10.43	1	61.87	1	0.0	1	null	6	null	6	51.21	1	1014.04	1	41.076845	16.866987
1091	2024-02-15 10:00:00	16	carbonara	13.09	1	60.83	1	0.0	1	null	6	null	6	67.97	1	1014.16	1	41.076845	16.866987
1092	2024-02-15 11:00:00	16	carbonara	14.9	1	61.08	1	0.0	1	null	6	null	6	326.83	1	1014.3	1	41.076845	16.866987
1093	2024-02-15 12:00:00	16	carbonara	16.04	1	57.24	1	0.0	1	null	6	null	6	511.25	1	1014.21	1	41.076845	16.866987
1094	2024-02-15 13:00:00	16	carbonara	17.37	1	53.35	1	0.0	1	null	6	null	6	573.42	1	1013.69	1	41.076845	16.866987
1095	2024-02-15 14:00:00	16	carbonara	17.69	1	53.09	1	0.0	1	null	6	null	6	549.17	1	1013.14	1	41.076845	16.866987
1096	2024-02-15 15:00:00	16	carbonara	17.47	1	56.37	1	0.0	1	null	6	null	6	420.93	1	1012.65	1	41.076845	16.866987
1097	2024-02-15 16:00:00	16	carbonara	17.47	1	57.87	1	0.0	1	null	6	null	6	322.92	1	1012.35	1	41.076845	16.866987
1098	2024-02-15 17:00:00	16	carbonara	16.06	1	63.95	1	0.0	1	null	6	null	6	104.91	1	1012.19	1	41.076845	16.866987
1099	2024-02-15 18:00:00	16	carbonara	13.48	1	74.83	1	0.0	1	null	6	null	6	0.0	5	1012.44	1	41.076845	16.866987
1100	2024-02-15 19:00:00	16	carbonara	12.34	1	83.05	1	0.0	1	null	6	null	6	0.0	1	1012.76	1	41.076845	16.866987
1101	2024-02-15 20:00:00	16	carbonara	11.12	1	87.95	1	0.0	1	null	6	null	6	0.0	1	1013.13	1	41.076845	16.866987
1102	2024-02-15 21:00:00	16	carbonara	9.95	1	90.65	1	0.0	1	null	6	null	6	0.0	1	1013.22	1	41.076845	16.866987
1103	2024-02-15 22:00:00	16	carbonara	9.33	1	91.32	1	0.0	1	null	6	null	6	0.0	1	1013.28	1	41.076845	16.866987
1104	2024-02-15 23:00:00	16	carbonara	9.13	1	90.55	1	0.0	1	null	6	null	6	0.0	1	1013.09	1	41.076845	16.866987
1105	2024-02-16 00:00:00	16	carbonara	8.22	1	88.41	1	0.0	1	null	6	null	6	0.0	1	1012.97	1	41.076845	16.866987
1106	2024-02-16 01:00:00	16	carbonara	7.81	1	80.4	1	0.0	1	null	6	null	6	0.0	1	1012.69	1	41.076845	16.866987
1107	2024-02-16 02:00:00	16	carbonara	7.49	1	77.85	1	0.0	1	null	6	null	6	0.0	1	1012.43	1	41.076845	16.866987
1108	2024-02-16 03:00:00	16	carbonara	7.07	1	78.61	1	0.0	1	null	6	null	6	0.0	1	1012.29	1	41.076845	16.866987
1109	2024-02-16 04:00:00	16	carbonara	6.71	1	79.59	1	0.0	1	null	6	null	6	0.0	1	1012.18	1	41.076845	16.866987
1110	2024-02-16 05:00:00	16	carbonara	5.91	1	81.41	1	0.0	1	null	6	null	6	0.0	1	1012.09	1	41.076845	16.866987
1111	2024-02-16 06:00:00	16	carbonara	5.44	1	81.74	1	0.0	1	null	6	null	6	0.0	1	1012.21	1	41.076845	16.866987
1112	2024-02-16 07:00:00	16	carbonara	5.58	1	79.21	1	0.0	1	null	6	null	6	0.0	5	1012.3	1	41.076845	16.866987
1113	2024-02-16 08:00:00	16	carbonara	5.74	1	79.03	1	0.0	1	null	6	null	6	24.91	1	1012.58	1	41.076845	16.866987
1114	2024-02-16 09:00:00	16	carbonara	8.66	1	70.06	1	0.0	1	null	6	null	6	49.03	1	1012.85	1	41.076845	16.866987
1115	2024-02-16 10:00:00	16	carbonara	12.64	1	55.29	1	0.0	1	null	6	null	6	58.86	1	1012.97	1	41.076845	16.866987
1116	2024-02-16 11:00:00	16	carbonara	16.03	1	55.57	1	0.0	1	null	6	null	6	452.49	1	1013.0	1	41.076845	16.866987
1117	2024-02-16 12:00:00	16	carbonara	17.85	1	43.85	1	0.0	1	null	6	null	6	589.19	1	1012.54	1	41.076845	16.866987
1118	2024-02-16 13:00:00	16	carbonara	18.86	1	45.61	1	0.0	1	null	6	null	6	604.03	1	1011.95	1	41.076845	16.866987
1119	2024-02-16 14:00:00	16	carbonara	18.3	1	50.61	1	0.0	1	null	6	null	6	573.13	1	1011.53	1	41.076845	16.866987
1120	2024-02-16 15:00:00	16	carbonara	18.08	1	48.23	1	0.0	1	null	6	null	6	478.86	1	1011.22	1	41.076845	16.866987
1121	2024-02-16 16:00:00	16	carbonara	18.04	1	49.73	1	0.0	1	null	6	null	6	332.03	1	1011.06	1	41.076845	16.866987
1122	2024-02-16 17:00:00	16	carbonara	16.46	1	54.65	1	0.0	1	null	6	null	6	109.3	1	1011.2	1	41.076845	16.866987
1123	2024-02-16 18:00:00	16	carbonara	13.57	1	61.78	1	0.0	1	null	6	null	6	0.0	5	1011.74	1	41.076845	16.866987
1124	2024-02-16 19:00:00	16	carbonara	12.31	1	64.04	1	0.0	1	null	6	null	6	0.0	1	1012.4	1	41.076845	16.866987
1125	2024-02-16 20:00:00	16	carbonara	11.39	1	67.43	1	0.0	1	null	6	null	6	0.0	1	1012.66	1	41.076845	16.866987
1126	2024-02-16 21:00:00	16	carbonara	9.79	1	78.67	1	0.0	1	null	6	null	6	0.0	1	1012.95	1	41.076845	16.866987
1127	2024-02-16 22:00:00	16	carbonara	8.59	1	82.17	1	0.0	1	null	6	null	6	0.0	1	1013.28	1	41.076845	16.866987
1128	2024-02-16 23:00:00	16	carbonara	8.46	1	80.29	1	0.0	1	null	6	null	6	0.0	1	1013.6	1	41.076845	16.866987
1129	2024-02-17 00:00:00	16	carbonara	8.46	1	78.79	1	0.0	1	null	6	null	6	0.0	1	1013.72	1	41.076845	16.866987
1130	2024-02-17 01:00:00	16	carbonara	8.31	1	77.84	1	0.0	1	null	6	null	6	0.0	1	1013.91	1	41.076845	16.866987
1131	2024-02-17 02:00:00	16	carbonara	7.82	1	79.03	1	0.0	1	null	6	null	6	0.0	1	1014.04	1	41.076845	16.866987
1132	2024-02-17 03:00:00	16	carbonara	7.48	1	74.54	1	0.0	1	null	6	null	6	0.0	1	1014.13	1	41.076845	16.866987
1133	2024-02-17 04:00:00	16	carbonara	6.5	1	78.44	1	0.0	1	null	6	null	6	0.0	1	1014.21	1	41.076845	16.866987
1134	2024-02-17 05:00:00	16	carbonara	5.81	1	79.91	1	0.0	1	null	6	null	6	0.0	1	1014.45	1	41.076845	16.866987
1135	2024-02-17 06:00:00	16	carbonara	5.15	1	82.2	1	0.0	1	null	6	null	6	0.0	1	1014.9	1	41.076845	16.866987
1136	2024-02-17 07:00:00	16	carbonara	4.75	1	83.83	1	0.0	1	null	6	null	6	0.0	5	1015.27	1	41.076845	16.866987
1137	2024-02-17 08:00:00	16	carbonara	5.25	1	83.38	1	0.0	1	null	6	null	6	29.04	1	1015.9	1	41.076845	16.866987
1138	2024-02-17 09:00:00	16	carbonara	8.2	1	77.65	1	0.0	1	null	6	null	6	57.16	1	1016.43	1	41.076845	16.866987
1139	2024-02-17 10:00:00	16	carbonara	11.91	1	77.17	1	0.0	1	null	6	null	6	75.38	1	1016.85	1	41.076845	16.866987
1140	2024-02-17 11:00:00	16	carbonara	14.68	1	70.06	1	0.0	1	null	6	null	6	449.26	1	1017.17	1	41.076845	16.866987
1141	2024-02-17 12:00:00	16	carbonara	15.64	1	66.08	1	0.0	1	null	6	null	6	577.87	1	1017.29	1	41.076845	16.866987
1142	2024-02-17 13:00:00	16	carbonara	17.18	1	62.95	1	0.0	1	null	6	null	6	599.81	1	1017.19	1	41.076845	16.866987
1143	2024-02-17 14:00:00	16	carbonara	17.59	1	63.81	1	0.0	1	null	6	null	6	565.0	1	1016.99	1	41.076845	16.866987
1144	2024-02-17 15:00:00	16	carbonara	17.15	1	66.55	1	0.0	1	null	6	null	6	465.91	1	1016.87	1	41.076845	16.866987
1145	2024-02-17 16:00:00	16	carbonara	17.44	1	63.0	1	0.0	1	null	6	null	6	316.55	1	1017.06	1	41.076845	16.866987
1146	2024-02-17 17:00:00	16	carbonara	16.19	1	68.42	1	0.0	1	null	6	null	6	109.26	1	1017.38	1	41.076845	16.866987
1147	2024-02-17 18:00:00	16	carbonara	13.04	1	81.9	1	0.0	1	null	6	null	6	0.0	5	1018.12	1	41.076845	16.866987
1148	2024-02-17 19:00:00	16	carbonara	11.7	1	89.31	1	0.0	1	null	6	null	6	0.0	1	1018.87	1	41.076845	16.866987
1149	2024-02-17 20:00:00	16	carbonara	10.79	1	92.68	1	0.0	1	null	6	null	6	0.0	1	1019.18	1	41.076845	16.866987
1150	2024-02-17 21:00:00	16	carbonara	9.82	1	96.46	1	0.0	1	null	6	null	6	0.0	1	1019.72	1	41.076845	16.866987
1151	2024-02-17 22:00:00	16	carbonara	9.99	1	99.62	1	0.0	1	null	6	null	6	0.0	1	1020.22	1	41.076845	16.866987
1152	2024-02-17 23:00:00	16	carbonara	9.71	1	99.97	1	0.0	1	null	6	null	6	0.0	1	1020.69	1	41.076845	16.866987
1153	2024-02-18 00:00:00	16	carbonara	10.24	1	99.79	1	0.0	1	null	6	null	6	0.0	1	1020.9	1	41.076845	16.866987
1154	2024-02-18 01:00:00	16	carbonara	10.59	1	99.64	1	0.0	1	null	6	null	6	0.0	1	1020.94	1	41.076845	16.866987
1155	2024-02-18 02:00:00	16	carbonara	10.53	1	99.36	1	0.0	1	null	6	null	6	0.0	1	1020.86	1	41.076845	16.866987
1156	2024-02-18 03:00:00	16	carbonara	9.74	1	96.97	1	0.0	1	null	6	null	6	0.0	1	1020.75	1	41.076845	16.866987
1157	2024-02-18 04:00:00	16	carbonara	8.78	1	95.9	1	0.0	1	null	6	null	6	0.0	1	1020.64	1	41.076845	16.866987
1158	2024-02-18 05:00:00	16	carbonara	7.72	1	95.78	1	0.0	1	null	6	null	6	0.0	1	1020.68	1	41.076845	16.866987
1159	2024-02-18 06:00:00	16	carbonara	6.59	1	95.89	1	0.0	1	null	6	null	6	0.0	1	1021.05	1	41.076845	16.866987
1160	2024-02-18 07:00:00	16	carbonara	6.09	1	94.81	1	0.0	1	null	6	null	6	0.0	5	1021.33	1	41.076845	16.866987
1161	2024-02-18 08:00:00	16	carbonara	6.45	1	92.66	1	0.0	1	null	6	null	6	34.2	1	1021.83	1	41.076845	16.866987
1162	2024-02-18 09:00:00	16	carbonara	8.74	1	92.25	1	0.0	1	null	6	null	6	103.17	1	1022.1	1	41.076845	16.866987
1163	2024-02-18 10:00:00	16	carbonara	11.1	1	87.42	1	0.0	1	null	6	null	6	195.37	1	1022.04	1	41.076845	16.866987
1164	2024-02-18 11:00:00	16	carbonara	13.76	1	72.72	1	0.0	1	null	6	null	6	391.04	1	1021.91	1	41.076845	16.866987
1165	2024-02-18 12:00:00	16	carbonara	15.6	1	64.27	1	0.0	1	null	6	null	6	560.99	1	1021.58	1	41.076845	16.866987
1166	2024-02-18 13:00:00	16	carbonara	17.54	1	58.6	1	0.0	1	null	6	null	6	585.67	1	1020.83	1	41.076845	16.866987
1167	2024-02-18 14:00:00	16	carbonara	18.0	1	57.51	1	0.0	1	null	6	null	6	550.78	1	1020.12	1	41.076845	16.866987
1168	2024-02-18 15:00:00	16	carbonara	17.92	1	56.45	1	0.0	1	null	6	null	6	451.98	1	1019.6	1	41.076845	16.866987
1169	2024-02-18 16:00:00	16	carbonara	17.67	1	56.57	1	0.0	1	null	6	null	6	300.52	1	1019.27	1	41.076845	16.866987
1170	2024-02-18 17:00:00	16	carbonara	17.11	1	59.25	1	0.0	1	null	6	null	6	134.02	1	1018.97	1	41.076845	16.866987
1171	2024-02-18 18:00:00	16	carbonara	13.82	1	71.14	1	0.0	1	null	6	null	6	5.54	1	1018.94	1	41.076845	16.866987
1172	2024-02-18 19:00:00	16	carbonara	12.51	1	78.29	1	0.0	1	null	6	null	6	0.0	1	1019.01	1	41.076845	16.866987
1173	2024-02-18 20:00:00	16	carbonara	11.83	1	81.5	1	0.0	1	null	6	null	6	0.0	1	1018.47	1	41.076845	16.866987
1174	2024-02-18 21:00:00	16	carbonara	11.28	1	82.64	1	0.0	1	null	6	null	6	0.0	1	1018.22	1	41.076845	16.866987
1175	2024-02-18 22:00:00	16	carbonara	10.89	1	84.89	1	0.0	1	null	6	null	6	0.0	1	1018.02	1	41.076845	16.866987
1176	2024-02-18 23:00:00	16	carbonara	10.83	1	84.79	1	0.0	1	null	6	null	6	0.0	1	1017.71	1	41.076845	16.866987
1177	2024-02-19 00:00:00	16	carbonara	10.74	1	82.63	1	0.0	1	null	6	null	6	0.0	1	1017.62	1	41.076845	16.866987
1178	2024-02-19 01:00:00	16	carbonara	10.67	1	80.65	1	0.0	1	null	6	null	6	0.0	1	1017.46	1	41.076845	16.866987
1179	2024-02-19 02:00:00	16	carbonara	10.35	1	84.04	1	0.0	1	null	6	null	6	0.0	1	1016.98	1	41.076845	16.866987
1180	2024-02-19 03:00:00	16	carbonara	9.5	1	86.08	1	0.0	1	null	6	null	6	0.0	1	1016.28	1	41.076845	16.866987
1181	2024-02-19 04:00:00	16	carbonara	8.79	1	87.93	1	0.0	1	null	6	null	6	0.0	1	1015.78	1	41.076845	16.866987
1182	2024-02-19 05:00:00	16	carbonara	8.33	1	87.54	1	0.0	1	null	6	null	6	0.0	1	1015.63	1	41.076845	16.866987
1183	2024-02-19 06:00:00	16	carbonara	8.06	1	83.46	1	0.0	1	null	6	null	6	0.0	1	1015.18	1	41.076845	16.866987
1184	2024-02-19 07:00:00	16	carbonara	7.61	1	81.44	1	0.0	1	null	6	null	6	0.0	5	1014.9	1	41.076845	16.866987
1185	2024-02-19 08:00:00	16	carbonara	7.87	1	79.77	1	0.0	1	null	6	null	6	26.59	1	1015.04	1	41.076845	16.866987
1186	2024-02-19 09:00:00	16	carbonara	10.29	1	73.75	1	0.0	1	null	6	null	6	65.16	1	1015.0	1	41.076845	16.866987
1187	2024-02-19 10:00:00	16	carbonara	14.12	1	60.12	1	0.0	1	null	6	null	6	85.65	1	1014.67	1	41.076845	16.866987
1188	2024-02-19 11:00:00	16	carbonara	16.65	1	48.92	1	0.0	1	null	6	null	6	464.31	1	1014.52	1	41.076845	16.866987
1189	2024-02-19 12:00:00	16	carbonara	16.41	1	52.43	1	0.0	1	null	6	null	6	573.03	1	1014.34	1	41.076845	16.866987
1190	2024-02-19 13:00:00	16	carbonara	17.84	1	52.23	1	0.0	1	null	6	null	6	608.17	1	1013.52	1	41.076845	16.866987
1191	2024-02-19 14:00:00	16	carbonara	18.99	1	49.38	1	0.0	1	null	6	null	6	543.56	1	1012.53	1	41.076845	16.866987
1192	2024-02-19 15:00:00	16	carbonara	18.4	1	50.02	1	0.0	1	null	6	null	6	422.83	1	1011.87	1	41.076845	16.866987
1193	2024-02-19 16:00:00	16	carbonara	16.62	1	57.18	1	0.0	1	null	6	null	6	229.52	1	1011.87	1	41.076845	16.866987
1194	2024-02-19 17:00:00	16	carbonara	15.04	1	62.71	1	0.0	1	null	6	null	6	63.51	1	1012.26	1	41.076845	16.866987
1195	2024-02-19 18:00:00	16	carbonara	13.79	1	72.82	1	0.0	1	null	6	null	6	0.0	5	1012.76	1	41.076845	16.866987
1196	2024-02-19 19:00:00	16	carbonara	13.36	1	75.66	1	0.0	1	null	6	null	6	0.0	1	1013.02	1	41.076845	16.866987
1197	2024-02-19 20:00:00	16	carbonara	12.91	1	77.57	1	0.0	1	null	6	null	6	0.0	1	1013.07	1	41.076845	16.866987
1198	2024-02-19 21:00:00	16	carbonara	11.81	1	83.57	1	0.0	1	null	6	null	6	0.0	1	1012.98	1	41.076845	16.866987
1199	2024-02-19 22:00:00	16	carbonara	11.26	1	89.43	1	0.0	1	null	6	null	6	0.0	1	1013.19	1	41.076845	16.866987
1200	2024-02-19 23:00:00	16	carbonara	11.07	1	90.99	1	0.0	1	null	6	null	6	0.0	1	1013.33	1	41.076845	16.866987
1201	2024-02-20 00:00:00	16	carbonara	11.03	1	90.47	1	0.0	1	null	6	null	6	0.0	1	1013.02	1	41.076845	16.866987
1202	2024-02-20 01:00:00	16	carbonara	11.18	1	90.37	1	0.0	1	null	6	null	6	0.0	1	1012.95	1	41.076845	16.866987
1203	2024-02-20 02:00:00	16	carbonara	11.23	1	90.14	1	0.0	1	null	6	null	6	0.0	1	1012.64	1	41.076845	16.866987
1204	2024-02-20 03:00:00	16	carbonara	11.15	1	89.34	1	0.0	1	null	6	null	6	0.0	1	1012.31	1	41.076845	16.866987
1205	2024-02-20 04:00:00	16	carbonara	11.24	1	85.62	1	0.0	1	null	6	null	6	0.0	1	1011.87	1	41.076845	16.866987
1206	2024-02-20 05:00:00	16	carbonara	10.65	1	85.53	1	0.0	1	null	6	null	6	0.0	1	1011.85	1	41.076845	16.866987
1207	2024-02-20 06:00:00	16	carbonara	9.84	1	88.16	1	0.0	1	null	6	null	6	0.0	1	1011.94	1	41.076845	16.866987
1208	2024-02-20 07:00:00	16	carbonara	9.72	1	88.0	1	0.0	1	null	6	null	6	0.0	5	1011.86	1	41.076845	16.866987
1209	2024-02-20 08:00:00	16	carbonara	10.0	1	87.51	1	0.0	1	null	6	null	6	47.91	1	1012.27	1	41.076845	16.866987
1210	2024-02-20 09:00:00	16	carbonara	11.38	1	84.01	1	0.0	1	null	6	null	6	128.25	1	1012.76	1	41.076845	16.866987
1211	2024-02-20 10:00:00	16	carbonara	12.89	1	77.23	1	0.0	1	null	6	null	6	175.51	1	1012.93	1	41.076845	16.866987
1212	2024-02-20 11:00:00	16	carbonara	14.06	1	73.23	1	0.0	1	null	6	null	6	288.18	1	1012.86	1	41.076845	16.866987
1213	2024-02-20 12:00:00	16	carbonara	15.79	1	60.94	1	0.0	1	null	6	null	6	529.23	1	1012.71	1	41.076845	16.866987
1214	2024-02-20 13:00:00	16	carbonara	17.59	1	58.27	1	0.0	1	null	6	null	6	487.38	1	1012.11	1	41.076845	16.866987
1215	2024-02-20 14:00:00	16	carbonara	16.71	1	61.05	1	0.0	1	null	6	null	6	442.34	1	1011.66	1	41.076845	16.866987
1216	2024-02-20 15:00:00	16	carbonara	17.09	1	60.17	1	0.0	1	null	6	null	6	355.76	1	1011.28	1	41.076845	16.866987
1217	2024-02-20 16:00:00	16	carbonara	17.66	1	59.4	1	0.0	1	null	6	null	6	252.52	1	1011.19	1	41.076845	16.866987
1218	2024-02-20 17:00:00	16	carbonara	15.7	1	62.34	1	0.0	1	null	6	null	6	62.6	1	1011.26	1	41.076845	16.866987
1219	2024-02-20 18:00:00	16	carbonara	14.09	1	65.71	1	0.0	1	null	6	null	6	6.75	1	1011.8	1	41.076845	16.866987
1220	2024-02-20 19:00:00	16	carbonara	13.17	1	74.24	1	0.0	1	null	6	null	6	0.0	1	1012.56	1	41.076845	16.866987
1221	2024-02-20 20:00:00	16	carbonara	12.05	1	81.67	1	0.0	1	null	6	null	6	0.0	1	1012.96	1	41.076845	16.866987
1222	2024-02-20 21:00:00	16	carbonara	10.7	1	85.73	1	0.0	1	null	6	null	6	0.0	1	1013.44	1	41.076845	16.866987
1223	2024-02-20 22:00:00	16	carbonara	10.05	1	89.56	1	0.0	1	null	6	null	6	0.0	1	1013.83	1	41.076845	16.866987
1224	2024-02-20 23:00:00	16	carbonara	9.99	1	91.63	1	0.0	1	null	6	null	6	0.0	1	1013.93	1	41.076845	16.866987
1225	2024-02-21 00:00:00	16	carbonara	9.26	1	92.92	1	0.0	1	null	6	null	6	0.0	1	1014.12	1	41.076845	16.866987
1226	2024-02-21 01:00:00	16	carbonara	9.8	1	92.28	1	0.0	1	null	6	null	6	0.0	1	1014.13	1	41.076845	16.866987
1227	2024-02-21 02:00:00	16	carbonara	10.56	1	91.65	1	0.0	1	null	6	null	6	0.0	1	1014.03	1	41.076845	16.866987
1228	2024-02-21 03:00:00	16	carbonara	10.03	1	86.17	1	0.0	1	null	6	null	6	0.0	1	1013.61	1	41.076845	16.866987
1229	2024-02-21 04:00:00	16	carbonara	9.55	1	83.45	1	0.0	1	null	6	null	6	0.0	1	1013.13	1	41.076845	16.866987
1230	2024-02-21 05:00:00	16	carbonara	8.27	1	86.59	1	0.0	1	null	6	null	6	0.0	1	1013.1	1	41.076845	16.866987
1231	2024-02-21 06:00:00	16	carbonara	7.53	1	88.43	1	0.0	1	null	6	null	6	0.0	1	1013.42	1	41.076845	16.866987
1232	2024-02-21 07:00:00	16	carbonara	7.54	1	87.99	1	0.0	1	null	6	null	6	0.0	5	1013.81	1	41.076845	16.866987
1233	2024-02-21 08:00:00	16	carbonara	9.05	1	83.82	1	0.0	1	null	6	null	6	52.05	1	1014.48	1	41.076845	16.866987
1234	2024-02-21 09:00:00	16	carbonara	11.32	1	80.17	1	0.0	1	null	6	null	6	68.46	1	1015.05	1	41.076845	16.866987
1235	2024-02-21 10:00:00	16	carbonara	13.25	1	73.68	1	0.0	1	null	6	null	6	82.72	1	1015.45	1	41.076845	16.866987
1236	2024-02-21 11:00:00	16	carbonara	15.54	1	62.73	1	0.0	1	null	6	null	6	464.35	1	1015.72	1	41.076845	16.866987
1237	2024-02-21 12:00:00	16	carbonara	15.83	1	52.36	1	0.0	1	null	6	null	6	474.27	1	1015.66	1	41.076845	16.866987
1238	2024-02-21 13:00:00	16	carbonara	17.32	1	43.76	1	0.0	1	null	6	null	6	632.68	1	1015.0	1	41.076845	16.866987
1239	2024-02-21 14:00:00	16	carbonara	17.51	1	43.16	1	0.0	1	null	6	null	6	592.53	1	1014.32	1	41.076845	16.866987
1240	2024-02-21 15:00:00	16	carbonara	17.65	1	43.08	1	0.0	1	null	6	null	6	490.16	1	1013.68	1	41.076845	16.866987
1241	2024-02-21 16:00:00	16	carbonara	17.41	1	47.01	1	0.0	1	null	6	null	6	275.9	1	1013.46	1	41.076845	16.866987
1242	2024-02-21 17:00:00	16	carbonara	15.91	1	53.57	1	0.0	1	null	6	null	6	102.91	1	1013.49	1	41.076845	16.866987
1243	2024-02-21 18:00:00	16	carbonara	13.81	1	59.98	1	0.0	1	null	6	null	6	5.54	1	1013.7	1	41.076845	16.866987
1244	2024-02-21 19:00:00	16	carbonara	12.27	1	69.3	1	0.0	1	null	6	null	6	0.0	1	1014.21	1	41.076845	16.866987
1245	2024-02-21 20:00:00	16	carbonara	11.07	1	75.68	1	0.0	1	null	6	null	6	0.0	1	1014.32	1	41.076845	16.866987
1246	2024-02-21 21:00:00	16	carbonara	9.27	1	81.07	1	0.0	1	null	6	null	6	0.0	1	1014.28	1	41.076845	16.866987
1247	2024-02-21 22:00:00	16	carbonara	8.34	1	83.28	1	0.0	1	null	6	null	6	0.0	1	1014.39	1	41.076845	16.866987
1248	2024-02-21 23:00:00	16	carbonara	7.99	1	82.26	1	0.0	1	null	6	null	6	0.0	1	1014.13	1	41.076845	16.866987
1249	2024-02-22 00:00:00	16	carbonara	7.33	1	83.01	1	0.0	1	null	6	null	6	0.0	1	1013.87	1	41.076845	16.866987
1250	2024-02-22 01:00:00	16	carbonara	6.63	1	83.75	1	0.0	1	null	6	null	6	0.0	1	1013.66	1	41.076845	16.866987
1251	2024-02-22 02:00:00	16	carbonara	6.33	1	83.27	1	0.0	1	null	6	null	6	0.0	1	1013.33	1	41.076845	16.866987
1252	2024-02-22 03:00:00	16	carbonara	6.2	1	81.31	1	0.0	1	null	6	null	6	0.0	1	1012.74	1	41.076845	16.866987
1253	2024-02-22 04:00:00	16	carbonara	6.31	1	78.89	1	0.0	1	null	6	null	6	0.0	1	1011.99	1	41.076845	16.866987
1254	2024-02-22 05:00:00	16	carbonara	6.21	1	74.74	1	0.0	1	null	6	null	6	0.0	1	1011.86	1	41.076845	16.866987
1255	2024-02-22 06:00:00	16	carbonara	6.23	1	73.43	1	0.0	1	null	6	null	6	0.0	1	1011.69	1	41.076845	16.866987
1256	2024-02-22 07:00:00	16	carbonara	6.72	1	76.92	1	0.0	1	null	6	null	6	0.0	5	1011.39	1	41.076845	16.866987
1257	2024-02-22 08:00:00	16	carbonara	8.01	1	74.59	1	0.0	1	null	6	null	6	54.09	1	1011.2	1	41.076845	16.866987
1258	2024-02-22 09:00:00	16	carbonara	11.09	1	64.68	1	0.0	1	null	6	null	6	53.2	1	1011.1	1	41.076845	16.866987
1259	2024-02-22 10:00:00	16	carbonara	14.35	1	52.21	1	0.0	1	null	6	null	6	67.44	1	1010.92	1	41.076845	16.866987
1260	2024-02-22 11:00:00	16	carbonara	17.31	1	38.71	1	0.0	1	null	6	null	6	527.1	1	1010.54	1	41.076845	16.866987
1261	2024-02-22 12:00:00	16	carbonara	18.38	1	38.7	1	0.0	1	null	6	null	6	595.05	1	1010.1	1	41.076845	16.866987
1262	2024-02-22 13:00:00	16	carbonara	19.25	1	35.79	1	0.0	1	null	6	null	6	557.23	1	1009.19	1	41.076845	16.866987
1263	2024-02-22 14:00:00	16	carbonara	19.67	1	33.25	1	0.0	1	null	6	null	6	578.27	1	1008.13	1	41.076845	16.866987
1264	2024-02-22 15:00:00	16	carbonara	19.31	1	39.2	1	0.0	1	null	6	null	6	433.68	1	1007.41	1	41.076845	16.866987
1265	2024-02-22 16:00:00	16	carbonara	18.59	1	39.37	1	0.0	1	null	6	null	6	307.06	1	1006.84	1	41.076845	16.866987
1266	2024-02-22 17:00:00	16	carbonara	16.56	1	45.64	1	0.0	1	null	6	null	6	102.92	1	1006.55	1	41.076845	16.866987
1267	2024-02-22 18:00:00	16	carbonara	14.69	1	52.76	1	0.0	1	null	6	null	6	10.73	1	1006.66	1	41.076845	16.866987
1268	2024-02-22 19:00:00	16	carbonara	13.47	1	59.84	1	0.0	1	null	6	null	6	0.0	1	1006.67	1	41.076845	16.866987
1269	2024-02-22 20:00:00	16	carbonara	12.87	1	69.61	1	0.0	1	null	6	null	6	0.0	1	1006.52	1	41.076845	16.866987
1270	2024-02-22 21:00:00	16	carbonara	12.32	1	77.97	1	0.0	1	null	6	null	6	0.0	1	1006.15	1	41.076845	16.866987
1271	2024-02-22 22:00:00	16	carbonara	11.78	1	82.29	1	0.0	1	null	6	null	6	0.0	1	1005.82	1	41.076845	16.866987
1272	2024-02-22 23:00:00	16	carbonara	11.51	1	76.04	1	0.0	1	null	6	null	6	0.0	1	1005.38	1	41.076845	16.866987
1273	2024-02-23 00:00:00	16	carbonara	11.89	1	60.63	1	0.0	1	null	6	null	6	0.0	1	1004.82	1	41.076845	16.866987
1274	2024-02-23 01:00:00	16	carbonara	12.24	1	55.02	1	0.0	1	null	6	null	6	0.0	1	1004.5	1	41.076845	16.866987
1275	2024-02-23 02:00:00	16	carbonara	12.23	1	52.54	1	0.0	1	null	6	null	6	0.0	1	1004.02	1	41.076845	16.866987
1276	2024-02-23 03:00:00	16	carbonara	12.11	1	50.89	1	0.0	1	null	6	null	6	0.0	1	1003.67	1	41.076845	16.866987
1277	2024-02-23 04:00:00	16	carbonara	11.65	1	53.34	1	0.0	1	null	6	null	6	0.0	1	1003.14	1	41.076845	16.866987
1278	2024-02-23 05:00:00	16	carbonara	11.1	1	57.14	1	0.0	1	null	6	null	6	0.0	1	1002.89	1	41.076845	16.866987
1279	2024-02-23 06:00:00	16	carbonara	10.6	1	59.31	1	0.0	1	null	6	null	6	0.0	1	1002.69	1	41.076845	16.866987
1280	2024-02-23 07:00:00	16	carbonara	10.46	1	70.84	1	0.0	1	null	6	null	6	0.0	5	1002.49	1	41.076845	16.866987
1281	2024-02-23 08:00:00	16	carbonara	11.52	1	62.89	1	0.0	1	null	6	null	6	66.9	1	1002.34	1	41.076845	16.866987
1282	2024-02-23 09:00:00	16	carbonara	13.31	1	55.44	1	0.0	1	null	6	null	6	112.21	1	1002.64	1	41.076845	16.866987
1283	2024-02-23 10:00:00	16	carbonara	14.84	1	56.33	1	0.0	1	null	6	null	6	212.85	1	1002.48	1	41.076845	16.866987
1284	2024-02-23 11:00:00	16	carbonara	16.49	1	45.91	1	0.0	1	null	6	null	6	303.22	1	1002.16	1	41.076845	16.866987
1285	2024-02-23 12:00:00	16	carbonara	17.1	1	43.08	1	0.0	1	null	6	null	6	260.61	1	1001.76	1	41.076845	16.866987
1286	2024-02-23 13:00:00	16	carbonara	16.94	1	46.84	1	0.0	1	null	6	null	6	252.69	1	1001.6	1	41.076845	16.866987
1287	2024-02-23 14:00:00	16	carbonara	16.76	1	47.7	1	0.0	1	null	6	null	6	233.97	1	1001.18	1	41.076845	16.866987
1288	2024-02-23 15:00:00	16	carbonara	16.28	1	45.47	1	0.0	1	null	6	null	6	149.24	1	1000.94	1	41.076845	16.866987
1289	2024-02-23 16:00:00	16	carbonara	16.3	1	44.4	1	0.0	1	null	6	null	6	81.06	1	1000.56	1	41.076845	16.866987
1290	2024-02-23 17:00:00	16	carbonara	15.52	1	56.02	1	0.0	1	null	6	null	6	14.92	1	1000.29	1	41.076845	16.866987
1291	2024-02-23 18:00:00	16	carbonara	14.97	1	67.41	1	0.0	1	null	6	null	6	0.0	5	999.97	1	41.076845	16.866987
1292	2024-02-23 19:00:00	16	carbonara	14.8	1	66.59	1	0.0	1	null	6	null	6	0.0	1	1000.07	1	41.076845	16.866987
1293	2024-02-23 20:00:00	16	carbonara	14.7	1	72.35	1	0.0	1	null	6	null	6	0.0	1	1000.05	1	41.076845	16.866987
1294	2024-02-23 21:00:00	16	carbonara	14.73	1	75.66	1	0.0	1	null	6	null	6	0.0	1	999.89	1	41.076845	16.866987
1295	2024-02-23 22:00:00	16	carbonara	14.86	1	70.53	1	0.0	1	null	6	null	6	0.0	1	999.35	1	41.076845	16.866987
1296	2024-02-23 23:00:00	16	carbonara	15.28	1	62.55	1	0.0	1	null	6	null	6	0.0	1	999.18	1	41.076845	16.866987
1297	2024-02-24 00:00:00	16	carbonara	15.1	1	69.37	1	0.0	1	null	6	null	6	0.0	1	999.35	1	41.076845	16.866987
1298	2024-02-24 01:00:00	16	carbonara	14.86	1	72.72	1	0.0	1	null	6	null	6	0.0	1	1000.24	1	41.076845	16.866987
1299	2024-02-24 02:00:00	16	carbonara	14.72	1	75.15	1	0.0	1	null	6	null	6	0.0	1	1000.28	1	41.076845	16.866987
1300	2024-02-24 03:00:00	16	carbonara	14.79	1	71.07	1	0.0	1	null	6	null	6	0.0	1	1000.05	1	41.076845	16.866987
1301	2024-02-24 04:00:00	16	carbonara	14.8	1	69.69	1	0.0	1	null	6	null	6	0.0	1	999.94	1	41.076845	16.866987
1302	2024-02-24 05:00:00	16	carbonara	14.49	1	72.71	1	0.0	1	null	6	null	6	0.0	1	1000.27	1	41.076845	16.866987
1303	2024-02-24 06:00:00	16	carbonara	13.97	1	79.26	1	0.0	1	null	6	null	6	0.0	1	1000.62	1	41.076845	16.866987
1304	2024-02-24 07:00:00	16	carbonara	13.67	1	83.13	1	0.0	1	null	6	null	6	0.0	5	1001.27	1	41.076845	16.866987
1305	2024-02-24 08:00:00	16	carbonara	13.26	1	88.32	1	0.6	1	null	6	null	6	13.84	1	1002.08	1	41.076845	16.866987
1306	2024-02-24 09:00:00	16	carbonara	13.35	1	89.75	1	0.0	1	null	6	null	6	56.27	1	1002.51	1	41.076845	16.866987
1307	2024-02-24 10:00:00	16	carbonara	14.07	1	84.44	1	0.2	1	null	6	null	6	67.49	1	1002.9	1	41.076845	16.866987
1308	2024-02-24 11:00:00	16	carbonara	14.23	1	80.14	1	0.0	1	null	6	null	6	56.15	1	1003.28	1	41.076845	16.866987
1309	2024-02-24 12:00:00	16	carbonara	14.26	1	83.96	1	0.4	1	null	6	null	6	101.48	1	1003.54	1	41.076845	16.866987
1310	2024-02-24 13:00:00	16	carbonara	13.58	1	83.23	1	0.4	1	null	6	null	6	109.42	1	1003.27	1	41.076845	16.866987
1311	2024-02-24 14:00:00	16	carbonara	13.26	1	84.51	1	0.4	1	null	6	null	6	203.8	1	1002.65	1	41.076845	16.866987
1312	2024-02-24 15:00:00	16	carbonara	13.69	1	79.82	1	0.0	1	null	6	null	6	214.64	1	1002.31	1	41.076845	16.866987
1313	2024-02-24 16:00:00	16	carbonara	14.61	1	78.15	1	0.0	1	null	6	null	6	155.79	1	1001.96	1	41.076845	16.866987
1314	2024-02-24 17:00:00	16	carbonara	15.9	1	71.83	1	0.0	1	null	6	null	6	99.95	1	1001.63	1	41.076845	16.866987
1315	2024-02-24 18:00:00	16	carbonara	15.05	1	76.66	1	0.0	1	null	6	null	6	0.0	5	1002.36	1	41.076845	16.866987
1316	2024-02-24 19:00:00	16	carbonara	12.64	1	88.02	1	0.0	1	null	6	null	6	0.0	1	1002.81	1	41.076845	16.866987
1317	2024-02-24 20:00:00	16	carbonara	11.72	1	93.08	1	0.0	1	null	6	null	6	0.0	1	1003.16	1	41.076845	16.866987
1318	2024-02-24 21:00:00	16	carbonara	11.71	1	94.49	1	0.2	1	null	6	null	6	0.0	1	1003.63	1	41.076845	16.866987
1319	2024-02-24 22:00:00	16	carbonara	11.86	1	94.82	1	0.0	1	null	6	null	6	0.0	1	1003.23	1	41.076845	16.866987
1320	2024-02-24 23:00:00	16	carbonara	11.5	1	95.76	1	0.0	1	null	6	null	6	0.0	1	1003.4	1	41.076845	16.866987
1321	2024-02-25 00:00:00	16	carbonara	11.5	1	96.23	1	0.0	1	null	6	null	6	0.0	1	1003.23	1	41.076845	16.866987
1322	2024-02-25 01:00:00	16	carbonara	11.31	1	95.78	1	0.0	1	null	6	null	6	0.0	1	1003.12	1	41.076845	16.866987
1323	2024-02-25 02:00:00	16	carbonara	10.95	1	95.58	1	0.0	1	null	6	null	6	0.0	1	1002.94	1	41.076845	16.866987
1324	2024-02-25 03:00:00	16	carbonara	10.87	1	95.29	1	1.4	1	null	6	null	6	0.0	1	1002.72	1	41.076845	16.866987
1325	2024-02-25 04:00:00	16	carbonara	10.94	1	95.37	1	3.2	1	null	6	null	6	0.0	1	1002.12	1	41.076845	16.866987
1326	2024-02-25 05:00:00	16	carbonara	10.94	1	96.35	1	0.8	1	null	6	null	6	0.0	1	1001.47	1	41.076845	16.866987
1327	2024-02-25 06:00:00	16	carbonara	10.89	1	97.93	1	0.4	1	null	6	null	6	0.0	1	1001.18	1	41.076845	16.866987
1328	2024-02-25 07:00:00	16	carbonara	10.78	1	99.14	1	0.0	1	null	6	null	6	0.0	5	1001.07	1	41.076845	16.866987
1329	2024-02-25 08:00:00	16	carbonara	10.7	1	99.04	1	0.0	1	null	6	null	6	14.37	1	1001.48	1	41.076845	16.866987
1330	2024-02-25 09:00:00	16	carbonara	10.93	1	97.02	1	0.2	1	null	6	null	6	89.6	1	1001.42	1	41.076845	16.866987
1331	2024-02-25 10:00:00	16	carbonara	11.65	1	93.21	1	0.0	1	null	6	null	6	105.85	1	1001.34	1	41.076845	16.866987
1332	2024-02-25 11:00:00	16	carbonara	11.5	1	93.8	1	2.6	1	null	6	null	6	63.95	1	1001.34	1	41.076845	16.866987
1333	2024-02-25 12:00:00	16	carbonara	11.86	1	95.31	1	0.2	1	null	6	null	6	104.25	1	1000.59	1	41.076845	16.866987
1334	2024-02-25 13:00:00	16	carbonara	11.52	1	94.43	1	2.6	1	null	6	null	6	8.88	1	1000.48	1	41.076845	16.866987
1335	2024-02-25 14:00:00	16	carbonara	11.04	1	97.19	1	9.0	1	null	6	null	6	14.48	1	1000.34	1	41.076845	16.866987
1336	2024-02-25 15:00:00	16	carbonara	10.66	1	99.41	1	6.0	1	null	6	null	6	14.52	1	999.48	1	41.076845	16.866987
1337	2024-02-25 16:00:00	16	carbonara	10.51	1	null	3	8.2	1	null	6	null	6	0.0	5	999.23	1	41.076845	16.866987
1338	2024-02-25 17:00:00	16	carbonara	10.69	1	null	3	5.0	1	null	6	null	6	0.0	5	999.21	1	41.076845	16.866987
1339	2024-02-25 18:00:00	16	carbonara	10.67	1	null	3	5.2	1	null	6	null	6	0.0	5	999.04	1	41.076845	16.866987
1340	2024-02-25 19:00:00	16	carbonara	10.52	1	null	3	2.4	1	null	6	null	6	0.0	1	999.71	1	41.076845	16.866987
1341	2024-02-25 20:00:00	16	carbonara	10.41	1	null	3	0.6	1	null	6	null	6	0.0	1	999.85	1	41.076845	16.866987
1342	2024-02-25 21:00:00	16	carbonara	10.25	1	null	3	0.0	1	null	6	null	6	0.0	1	999.67	1	41.076845	16.866987
1343	2024-02-25 22:00:00	16	carbonara	10.22	1	null	3	0.0	1	null	6	null	6	0.0	1	999.49	1	41.076845	16.866987
1344	2024-02-25 23:00:00	16	carbonara	10.6	1	null	3	0.0	1	null	6	null	6	0.0	1	999.62	1	41.076845	16.866987
1345	2024-02-26 00:00:00	16	carbonara	10.69	1	null	3	0.0	1	null	6	null	6	0.0	1	1000.04	1	41.076845	16.866987
1346	2024-02-26 01:00:00	16	carbonara	10.58	1	null	3	0.0	1	null	6	null	6	0.0	1	999.97	1	41.076845	16.866987
1347	2024-02-26 02:00:00	16	carbonara	10.48	1	null	3	0.0	1	null	6	null	6	0.0	1	999.66	1	41.076845	16.866987
1348	2024-02-26 03:00:00	16	carbonara	10.45	1	null	3	0.0	1	null	6	null	6	0.0	1	999.4	1	41.076845	16.866987
1349	2024-02-26 04:00:00	16	carbonara	10.38	1	null	3	0.0	1	null	6	null	6	0.0	1	999.15	1	41.076845	16.866987
1350	2024-02-26 05:00:00	16	carbonara	10.38	1	null	3	0.0	1	null	6	null	6	0.0	1	999.07	1	41.076845	16.866987
1351	2024-02-26 06:00:00	16	carbonara	9.96	1	null	3	0.0	1	null	6	null	6	0.0	1	998.98	1	41.076845	16.866987
1352	2024-02-26 07:00:00	16	carbonara	9.6	1	null	3	0.0	1	null	6	null	6	0.0	5	999.35	1	41.076845	16.866987
1353	2024-02-26 08:00:00	16	carbonara	9.93	1	98.44	1	0.0	1	null	6	null	6	52.22	1	999.71	1	41.076845	16.866987
1354	2024-02-26 09:00:00	16	carbonara	10.92	1	88.51	1	0.0	1	null	6	null	6	72.39	1	1000.08	1	41.076845	16.866987
1355	2024-02-26 10:00:00	16	carbonara	12.68	1	74.35	1	0.0	1	null	6	null	6	137.2	1	999.99	1	41.076845	16.866987
1356	2024-02-26 11:00:00	16	carbonara	15.29	1	64.13	1	0.0	1	null	6	null	6	527.48	1	999.9	1	41.076845	16.866987
1357	2024-02-26 12:00:00	16	carbonara	17.01	1	58.8	1	0.0	1	null	6	null	6	597.8	1	999.65	1	41.076845	16.866987
1358	2024-02-26 13:00:00	16	carbonara	18.53	1	56.64	1	0.0	1	null	6	null	6	628.04	1	999.05	1	41.076845	16.866987
1359	2024-02-26 14:00:00	16	carbonara	17.83	1	62.04	1	0.0	1	null	6	null	6	586.91	1	998.34	1	41.076845	16.866987
1360	2024-02-26 15:00:00	16	carbonara	17.53	1	64.93	1	0.0	1	null	6	null	6	481.12	1	998.27	1	41.076845	16.866987
1361	2024-02-26 16:00:00	16	carbonara	15.9	1	72.96	1	0.0	1	null	6	null	6	162.37	1	998.25	1	41.076845	16.866987
1362	2024-02-26 17:00:00	16	carbonara	14.63	1	80.5	1	0.0	1	null	6	null	6	80.93	1	998.46	1	41.076845	16.866987
1363	2024-02-26 18:00:00	16	carbonara	13.63	1	86.74	1	0.0	1	null	6	null	6	10.45	1	998.77	1	41.076845	16.866987
1364	2024-02-26 19:00:00	16	carbonara	12.85	1	91.68	1	0.0	1	null	6	null	6	0.0	1	999.19	1	41.076845	16.866987
1365	2024-02-26 20:00:00	16	carbonara	12.49	1	94.83	1	0.0	1	null	6	null	6	0.0	1	999.6	1	41.076845	16.866987
1366	2024-02-26 21:00:00	16	carbonara	12.26	1	95.15	1	0.0	1	null	6	null	6	0.0	1	1000.04	1	41.076845	16.866987
1367	2024-02-26 22:00:00	16	carbonara	12.22	1	92.59	1	0.0	1	null	6	null	6	0.0	1	1000.47	1	41.076845	16.866987
1368	2024-02-26 23:00:00	16	carbonara	12.31	1	87.97	1	0.0	1	null	6	null	6	0.0	1	1000.61	1	41.076845	16.866987
1369	2024-02-27 00:00:00	16	carbonara	12.24	1	87.06	1	0.0	1	null	6	null	6	0.0	1	1000.79	1	41.076845	16.866987
1370	2024-02-27 01:00:00	16	carbonara	11.49	1	89.58	1	0.0	1	null	6	null	6	0.0	1	1000.78	1	41.076845	16.866987
1371	2024-02-27 02:00:00	16	carbonara	11.22	1	91.54	1	0.0	1	null	6	null	6	0.0	1	1000.6	1	41.076845	16.866987
1372	2024-02-27 03:00:00	16	carbonara	11.05	1	90.3	1	0.0	1	null	6	null	6	0.0	1	1000.61	1	41.076845	16.866987
1373	2024-02-27 04:00:00	16	carbonara	11.41	1	85.62	1	0.0	1	null	6	null	6	0.0	1	1000.62	1	41.076845	16.866987
1374	2024-02-27 05:00:00	16	carbonara	11.83	1	83.04	1	0.0	1	null	6	null	6	0.0	1	1000.79	1	41.076845	16.866987
1375	2024-02-27 06:00:00	16	carbonara	11.99	1	89.27	1	0.0	1	null	6	null	6	0.0	1	1001.1	1	41.076845	16.866987
1376	2024-02-27 07:00:00	16	carbonara	11.31	1	92.62	1	0.0	1	null	6	null	6	0.0	5	1001.16	1	41.076845	16.866987
1377	2024-02-27 08:00:00	16	carbonara	11.81	1	92.54	1	0.0	1	null	6	null	6	67.29	1	1001.43	1	41.076845	16.866987
1378	2024-02-27 09:00:00	16	carbonara	13.91	1	81.46	1	0.0	1	null	6	null	6	70.09	1	1001.63	1	41.076845	16.866987
1379	2024-02-27 10:00:00	16	carbonara	15.81	1	64.63	1	0.0	1	null	6	null	6	123.6	1	1001.94	1	41.076845	16.866987
1380	2024-02-27 11:00:00	16	carbonara	17.34	1	56.95	1	0.0	1	null	6	null	6	576.67	1	1002.28	1	41.076845	16.866987
1381	2024-02-27 12:00:00	16	carbonara	18.07	1	53.66	1	0.0	1	null	6	null	6	580.14	1	1002.16	1	41.076845	16.866987
1382	2024-02-27 13:00:00	16	carbonara	18.57	1	49.21	1	0.0	1	null	6	null	6	573.05	1	1001.69	1	41.076845	16.866987
1383	2024-02-27 14:00:00	16	carbonara	18.03	1	54.83	1	0.0	1	null	6	null	6	378.29	1	1001.46	1	41.076845	16.866987
1384	2024-02-27 15:00:00	16	carbonara	17.86	1	58.72	1	0.0	1	null	6	null	6	355.55	1	1001.08	1	41.076845	16.866987
1385	2024-02-27 16:00:00	16	carbonara	17.44	1	61.98	1	0.0	1	null	6	null	6	220.76	1	1000.95	1	41.076845	16.866987
1386	2024-02-27 17:00:00	16	carbonara	16.48	1	68.58	1	0.0	1	null	6	null	6	82.67	1	1001.08	1	41.076845	16.866987
1387	2024-02-27 18:00:00	16	carbonara	15.95	1	72.03	1	0.0	1	null	6	null	6	0.0	5	1001.57	1	41.076845	16.866987
1388	2024-02-27 19:00:00	16	carbonara	15.72	1	73.9	1	0.0	1	null	6	null	6	0.0	1	1001.99	1	41.076845	16.866987
1389	2024-02-27 20:00:00	16	carbonara	15.66	1	75.68	1	0.0	1	null	6	null	6	0.0	1	1002.39	1	41.076845	16.866987
1390	2024-02-27 21:00:00	16	carbonara	15.59	1	77.47	1	0.0	1	null	6	null	6	0.0	1	1002.8	1	41.076845	16.866987
1391	2024-02-27 22:00:00	16	carbonara	15.6	1	78.13	1	0.0	1	null	6	null	6	0.0	1	1003.18	1	41.076845	16.866987
1392	2024-02-27 23:00:00	16	carbonara	15.58	1	78.28	1	0.0	1	null	6	null	6	0.0	1	1003.39	1	41.076845	16.866987
1393	2024-02-28 00:00:00	16	carbonara	15.42	1	78.97	1	0.0	1	null	6	null	6	0.0	1	1003.21	1	41.076845	16.866987
1394	2024-02-28 01:00:00	16	carbonara	15.3	1	78.71	1	0.0	1	null	6	null	6	0.0	1	1003.25	1	41.076845	16.866987
1395	2024-02-28 02:00:00	16	carbonara	15.21	1	78.29	1	0.0	1	null	6	null	6	0.0	1	1003.54	1	41.076845	16.866987
1396	2024-02-28 03:00:00	16	carbonara	15.08	1	74.87	1	0.0	1	null	6	null	6	0.0	1	1003.45	1	41.076845	16.866987
1397	2024-02-28 04:00:00	16	carbonara	14.8	1	73.41	1	0.0	1	null	6	null	6	0.0	1	1003.44	1	41.076845	16.866987
1398	2024-02-28 05:00:00	16	carbonara	14.38	1	75.99	1	0.0	1	null	6	null	6	0.0	1	1004.12	1	41.076845	16.866987
1399	2024-02-28 06:00:00	16	carbonara	14.25	1	78.18	1	0.0	1	null	6	null	6	0.0	1	1004.31	1	41.076845	16.866987
1400	2024-02-28 07:00:00	16	carbonara	14.34	1	77.13	1	0.0	1	null	6	null	6	0.0	5	1004.08	1	41.076845	16.866987
1401	2024-02-28 08:00:00	16	carbonara	14.3	1	78.59	1	0.0	1	null	6	null	6	60.57	1	1004.88	1	41.076845	16.866987
1402	2024-02-28 09:00:00	16	carbonara	15.89	1	69.89	1	0.0	1	null	6	null	6	113.55	1	1005.33	1	41.076845	16.866987
1403	2024-02-28 10:00:00	16	carbonara	17.1	1	63.99	1	0.0	1	null	6	null	6	232.14	1	1005.11	1	41.076845	16.866987
1404	2024-02-28 11:00:00	16	carbonara	18.41	1	60.91	1	0.0	1	null	6	null	6	359.97	1	1005.1	1	41.076845	16.866987
1405	2024-02-28 12:00:00	16	carbonara	18.27	1	60.36	1	0.0	1	null	6	null	6	286.75	1	1004.86	1	41.076845	16.866987
1406	2024-02-28 13:00:00	16	carbonara	19.44	1	54.97	1	0.0	1	null	6	null	6	535.7	1	1004.1	1	41.076845	16.866987
1407	2024-02-28 14:00:00	16	carbonara	20.33	1	49.77	1	0.0	1	null	6	null	6	595.88	1	1003.4	1	41.076845	16.866987
1408	2024-02-28 15:00:00	16	carbonara	20.38	1	48.88	1	0.0	1	null	6	null	6	340.22	1	1003.28	1	41.076845	16.866987
1409	2024-02-28 16:00:00	16	carbonara	20.04	1	49.43	1	0.0	1	null	6	null	6	321.36	1	1003.27	1	41.076845	16.866987
1410	2024-02-28 17:00:00	16	carbonara	18.68	1	53.18	1	0.0	1	null	6	null	6	113.18	1	1003.42	1	41.076845	16.866987
1411	2024-02-28 18:00:00	16	carbonara	17.63	1	57.61	1	0.0	1	null	6	null	6	15.78	1	1003.47	1	41.076845	16.866987
1412	2024-02-28 19:00:00	16	carbonara	16.84	1	61.29	1	0.0	1	null	6	null	6	0.0	1	1003.6	1	41.076845	16.866987
1413	2024-02-28 20:00:00	16	carbonara	16.5	1	63.95	1	0.0	1	null	6	null	6	0.0	1	1003.86	1	41.076845	16.866987
1414	2024-02-28 21:00:00	16	carbonara	15.62	1	76.5	1	0.0	1	null	6	null	6	0.0	1	1004.14	1	41.076845	16.866987
1415	2024-02-28 22:00:00	16	carbonara	15.16	1	78.94	1	0.0	1	null	6	null	6	0.0	1	1004.39	1	41.076845	16.866987
1416	2024-02-28 23:00:00	16	carbonara	14.92	1	83.31	1	0.0	1	null	6	null	6	0.0	1	1004.2	1	41.076845	16.866987
1417	2024-02-29 00:00:00	16	carbonara	16.44	1	58.65	1	0.0	1	null	6	null	6	0.0	1	1003.96	1	41.076845	16.866987
1418	2024-02-29 01:00:00	16	carbonara	16.63	1	58.62	1	0.0	1	null	6	null	6	0.0	1	1004.0	1	41.076845	16.866987
1419	2024-02-29 02:00:00	16	carbonara	15.59	1	72.73	1	0.0	1	null	6	null	6	0.0	1	1003.9	1	41.076845	16.866987
1420	2024-02-29 03:00:00	16	carbonara	15.33	1	82.69	1	0.0	1	null	6	null	6	0.0	1	1003.32	1	41.076845	16.866987
1421	2024-02-29 04:00:00	16	carbonara	15.18	1	84.09	1	0.0	1	null	6	null	6	0.0	1	1002.63	1	41.076845	16.866987
1422	2024-02-29 05:00:00	16	carbonara	15.37	1	80.96	1	0.0	1	null	6	null	6	0.0	1	1002.06	1	41.076845	16.866987
1423	2024-02-29 06:00:00	16	carbonara	15.23	1	77.6	1	0.0	1	null	6	null	6	0.0	1	1001.63	1	41.076845	16.866987
1424	2024-02-29 07:00:00	16	carbonara	14.82	1	80.86	1	0.0	1	null	6	null	6	0.0	5	1001.03	1	41.076845	16.866987
1425	2024-02-29 08:00:00	16	carbonara	14.77	1	83.63	1	0.0	1	null	6	null	6	49.12	1	1001.04	1	41.076845	16.866987
1426	2024-02-29 09:00:00	16	carbonara	16.16	1	74.31	1	0.0	1	null	6	null	6	134.26	1	1001.1	1	41.076845	16.866987
1427	2024-02-29 10:00:00	16	carbonara	17.1	1	64.23	1	0.0	1	null	6	null	6	98.19	1	1001.49	1	41.076845	16.866987
1428	2024-02-29 11:00:00	16	carbonara	17.79	1	61.9	1	0.0	1	null	6	null	6	149.07	1	1001.38	1	41.076845	16.866987
1429	2024-02-29 12:00:00	16	carbonara	17.26	1	70.33	1	0.0	1	null	6	null	6	230.36	1	1001.12	1	41.076845	16.866987
1430	2024-02-29 13:00:00	16	carbonara	17.96	1	65.76	1	0.0	1	null	6	null	6	141.69	1	1000.14	1	41.076845	16.866987
1431	2024-02-29 14:00:00	16	carbonara	17.32	1	72.15	1	0.0	1	null	6	null	6	60.35	1	999.24	1	41.076845	16.866987
1432	2024-02-29 15:00:00	16	carbonara	14.23	1	90.09	1	11.8	1	null	6	null	6	10.9	1	999.32	1	41.076845	16.866987
1433	2024-02-29 16:00:00	16	carbonara	13.22	1	97.88	1	1.8	1	null	6	null	6	29.1	1	998.97	1	41.076845	16.866987
1434	2024-02-29 17:00:00	16	carbonara	13.78	1	97.14	1	0.8	1	null	6	null	6	11.57	1	998.57	1	41.076845	16.866987
1435	2024-02-29 18:00:00	16	carbonara	13.55	1	91.22	1	0.0	1	null	6	null	6	0.0	5	998.01	1	41.076845	16.866987
1436	2024-02-29 19:00:00	16	carbonara	13.15	1	93.5	1	1.8	1	null	6	null	6	0.0	1	998.05	1	41.076845	16.866987
1437	2024-02-29 20:00:00	16	carbonara	12.9	1	97.8	1	2.6	1	null	6	null	6	0.0	1	998.12	1	41.076845	16.866987
1438	2024-02-29 21:00:00	16	carbonara	12.37	1	98.99	1	1.8	1	null	6	null	6	0.0	1	998.22	1	41.076845	16.866987
1439	2024-02-29 22:00:00	16	carbonara	12.04	1	99.61	1	1.2	1	null	6	null	6	0.0	1	997.81	1	41.076845	16.866987
1440	2024-02-29 23:00:00	16	carbonara	11.65	1	null	3	0.0	1	null	6	null	6	0.0	1	997.7	1	41.076845	16.866987
1441	2024-03-01 00:00:00	16	carbonara	11.41	1	98.17	1	0.0	1	null	6	null	6	0.0	1	997.35	1	41.076845	16.866987
1442	2024-03-01 01:00:00	16	carbonara	11.4	1	92.86	1	0.0	1	null	6	null	6	0.0	1	997.34	1	41.076845	16.866987
1443	2024-03-01 02:00:00	16	carbonara	11.54	1	92.04	1	0.4	1	null	6	null	6	0.0	1	997.18	1	41.076845	16.866987
1444	2024-03-01 03:00:00	16	carbonara	11.41	1	94.75	1	0.2	1	null	6	null	6	0.0	1	996.92	1	41.076845	16.866987
1445	2024-03-01 04:00:00	16	carbonara	11.16	1	94.44	1	0.0	1	null	6	null	6	0.0	1	996.76	1	41.076845	16.866987
1446	2024-03-01 05:00:00	16	carbonara	10.42	1	95.07	1	0.0	1	null	6	null	6	0.0	1	997.13	1	41.076845	16.866987
1447	2024-03-01 06:00:00	16	carbonara	9.69	1	92.9	1	0.0	1	null	6	null	6	0.0	1	997.72	1	41.076845	16.866987
1448	2024-03-01 07:00:00	16	carbonara	9.12	1	89.58	1	0.0	1	null	6	null	6	5.47	1	997.91	1	41.076845	16.866987
1449	2024-03-01 08:00:00	16	carbonara	9.57	1	85.06	1	0.0	1	null	6	null	6	69.62	1	998.3	1	41.076845	16.866987
1450	2024-03-01 09:00:00	16	carbonara	12.16	1	74.23	1	0.0	1	null	6	null	6	65.38	1	998.34	1	41.076845	16.866987
1451	2024-03-01 10:00:00	16	carbonara	14.64	1	60.05	1	0.0	1	null	6	null	6	138.3	1	998.75	1	41.076845	16.866987
1452	2024-03-01 11:00:00	16	carbonara	16.88	1	49.92	1	0.0	1	null	6	null	6	595.04	1	998.73	1	41.076845	16.866987
1453	2024-03-01 12:00:00	16	carbonara	17.76	1	46.37	1	0.0	1	null	6	null	6	636.51	1	998.63	1	41.076845	16.866987
1454	2024-03-01 13:00:00	16	carbonara	19.12	1	42.68	1	0.0	1	null	6	null	6	680.99	1	998.35	1	41.076845	16.866987
1455	2024-03-01 14:00:00	16	carbonara	19.74	1	39.92	1	0.0	1	null	6	null	6	599.55	1	997.99	1	41.076845	16.866987
1456	2024-03-01 15:00:00	16	carbonara	19.95	1	38.61	1	0.0	1	null	6	null	6	542.13	1	997.66	1	41.076845	16.866987
1457	2024-03-01 16:00:00	16	carbonara	19.47	1	39.28	1	0.0	1	null	6	null	6	348.8	1	997.65	1	41.076845	16.866987
1458	2024-03-01 17:00:00	16	carbonara	18.15	1	46.2	1	0.0	1	null	6	null	6	214.63	1	998.1	1	41.076845	16.866987
1459	2024-03-01 18:00:00	16	carbonara	15.29	1	57.09	1	0.0	1	null	6	null	6	9.11	1	998.69	1	41.076845	16.866987
1460	2024-03-01 19:00:00	16	carbonara	13.89	1	70.32	1	0.0	1	null	6	null	6	0.0	1	999.08	1	41.076845	16.866987
1461	2024-03-01 20:00:00	16	carbonara	12.82	1	81.37	1	0.0	1	null	6	null	6	0.0	1	999.39	1	41.076845	16.866987
1462	2024-03-01 21:00:00	16	carbonara	12.04	1	85.44	1	0.0	1	null	6	null	6	0.0	1	999.6	1	41.076845	16.866987
1463	2024-03-01 22:00:00	16	carbonara	11.28	1	88.28	1	0.0	1	null	6	null	6	0.0	1	999.74	1	41.076845	16.866987
1464	2024-03-01 23:00:00	16	carbonara	10.75	1	90.88	1	0.0	1	null	6	null	6	0.0	1	999.84	1	41.076845	16.866987
1465	2024-03-02 00:00:00	16	carbonara	10.38	1	92.01	1	0.0	1	null	6	null	6	0.0	1	1000.04	1	41.076845	16.866987
1466	2024-03-02 01:00:00	16	carbonara	9.67	1	93.84	1	0.0	1	null	6	null	6	0.0	1	1000.14	1	41.076845	16.866987
1467	2024-03-02 02:00:00	16	carbonara	9.42	1	95.53	1	0.0	1	null	6	null	6	0.0	1	1000.25	1	41.076845	16.866987
1468	2024-03-02 03:00:00	16	carbonara	8.95	1	94.95	1	0.0	1	null	6	null	6	0.0	1	1000.15	1	41.076845	16.866987
1469	2024-03-02 04:00:00	16	carbonara	7.86	1	95.11	1	0.0	1	null	6	null	6	0.0	1	1000.02	1	41.076845	16.866987
1470	2024-03-02 05:00:00	16	carbonara	7.46	1	95.05	1	0.0	1	null	6	null	6	0.0	1	1000.26	1	41.076845	16.866987
1471	2024-03-02 06:00:00	16	carbonara	6.95	1	94.37	1	0.0	1	null	6	null	6	0.0	1	1000.58	1	41.076845	16.866987
1472	2024-03-02 07:00:00	16	carbonara	6.92	1	93.34	1	0.0	1	null	6	null	6	6.8	1	1001.02	1	41.076845	16.866987
1473	2024-03-02 08:00:00	16	carbonara	8.77	1	89.46	1	0.0	1	null	6	null	6	84.31	1	1001.49	1	41.076845	16.866987
1474	2024-03-02 09:00:00	16	carbonara	11.89	1	81.59	1	0.0	1	null	6	null	6	60.55	1	1001.98	1	41.076845	16.866987
1475	2024-03-02 10:00:00	16	carbonara	14.93	1	60.52	1	0.0	1	null	6	null	6	227.9	1	1002.37	1	41.076845	16.866987
1476	2024-03-02 11:00:00	16	carbonara	18.66	1	44.33	1	0.0	1	null	6	null	6	592.45	1	1002.56	1	41.076845	16.866987
1477	2024-03-02 12:00:00	16	carbonara	17.87	1	47.85	1	0.0	1	null	6	null	6	666.54	1	1002.51	1	41.076845	16.866987
1478	2024-03-02 13:00:00	16	carbonara	17.99	1	49.73	1	0.0	1	null	6	null	6	684.0	1	1002.12	1	41.076845	16.866987
1479	2024-03-02 14:00:00	16	carbonara	18.28	1	54.48	1	0.0	1	null	6	null	6	638.0	1	1001.93	1	41.076845	16.866987
1480	2024-03-02 15:00:00	16	carbonara	18.16	1	57.0	1	0.0	1	null	6	null	6	418.5	1	1001.82	1	41.076845	16.866987
1481	2024-03-02 16:00:00	16	carbonara	16.25	1	67.64	1	0.0	1	null	6	null	6	72.02	1	1002.19	1	41.076845	16.866987
1482	2024-03-02 17:00:00	16	carbonara	15.4	1	75.17	1	0.0	1	null	6	null	6	76.08	1	1002.48	1	41.076845	16.866987
1483	2024-03-02 18:00:00	16	carbonara	15.06	1	77.74	1	0.0	1	null	6	null	6	9.1	1	1002.91	1	41.076845	16.866987
1484	2024-03-02 19:00:00	16	carbonara	14.82	1	76.99	1	0.0	1	null	6	null	6	0.0	1	1003.28	1	41.076845	16.866987
1485	2024-03-02 20:00:00	16	carbonara	13.86	1	74.4	1	0.0	1	null	6	null	6	0.0	1	1003.53	1	41.076845	16.866987
1486	2024-03-02 21:00:00	16	carbonara	12.93	1	78.7	1	0.0	1	null	6	null	6	0.0	1	1003.96	1	41.076845	16.866987
1487	2024-03-02 22:00:00	16	carbonara	12.56	1	82.2	1	0.0	1	null	6	null	6	0.0	1	1004.28	1	41.076845	16.866987
1488	2024-03-02 23:00:00	16	carbonara	11.83	1	83.47	1	0.0	1	null	6	null	6	0.0	1	1004.42	1	41.076845	16.866987
1489	2024-03-03 00:00:00	16	carbonara	11.23	1	80.65	1	0.0	1	null	6	null	6	0.0	1	1004.62	1	41.076845	16.866987
1490	2024-03-03 01:00:00	16	carbonara	11.06	1	71.42	1	0.0	1	null	6	null	6	0.0	1	1004.65	1	41.076845	16.866987
1491	2024-03-03 02:00:00	16	carbonara	10.65	1	66.8	1	0.0	1	null	6	null	6	0.0	1	1004.52	1	41.076845	16.866987
1492	2024-03-03 03:00:00	16	carbonara	10.94	1	61.03	1	0.0	1	null	6	null	6	0.0	1	1004.15	1	41.076845	16.866987
1493	2024-03-03 04:00:00	16	carbonara	10.01	1	63.54	1	0.0	1	null	6	null	6	0.0	1	1003.84	1	41.076845	16.866987
1494	2024-03-03 05:00:00	16	carbonara	10.07	1	61.13	1	0.0	1	null	6	null	6	0.0	1	1003.73	1	41.076845	16.866987
1495	2024-03-03 06:00:00	16	carbonara	9.45	1	64.12	1	0.0	1	null	6	null	6	0.0	1	1003.79	1	41.076845	16.866987
1496	2024-03-03 07:00:00	16	carbonara	8.94	1	66.44	1	0.0	1	null	6	null	6	7.13	1	1003.69	1	41.076845	16.866987
1497	2024-03-03 08:00:00	16	carbonara	10.13	1	62.88	1	0.0	1	null	6	null	6	82.45	1	1003.71	1	41.076845	16.866987
1498	2024-03-03 09:00:00	16	carbonara	12.47	1	55.02	1	0.0	1	null	6	null	6	64.59	1	1003.91	1	41.076845	16.866987
1499	2024-03-03 10:00:00	16	carbonara	15.72	1	41.23	1	0.0	1	null	6	null	6	295.63	1	1003.96	1	41.076845	16.866987
1500	2024-03-03 11:00:00	16	carbonara	18.01	1	35.52	1	0.0	1	null	6	null	6	582.29	1	1003.72	1	41.076845	16.866987
1501	2024-03-03 12:00:00	16	carbonara	18.02	1	41.25	1	0.0	1	null	6	null	6	613.22	1	1003.23	1	41.076845	16.866987
1502	2024-03-03 13:00:00	16	carbonara	18.7	1	43.0	1	0.0	1	null	6	null	6	593.69	1	1002.6	1	41.076845	16.866987
1503	2024-03-03 14:00:00	16	carbonara	18.87	1	40.37	1	0.0	1	null	6	null	6	634.57	1	1001.91	1	41.076845	16.866987
1504	2024-03-03 15:00:00	16	carbonara	18.92	1	41.6	1	0.0	1	null	6	null	6	562.19	1	1001.29	1	41.076845	16.866987
1505	2024-03-03 16:00:00	16	carbonara	18.63	1	44.99	1	0.0	1	null	6	null	6	407.98	1	1000.94	1	41.076845	16.866987
1506	2024-03-03 17:00:00	16	carbonara	17.17	1	52.25	1	0.0	1	null	6	null	6	198.36	1	1000.59	1	41.076845	16.866987
1507	2024-03-03 18:00:00	16	carbonara	14.96	1	58.4	1	0.0	1	null	6	null	6	14.33	1	1000.46	1	41.076845	16.866987
1508	2024-03-03 19:00:00	16	carbonara	13.83	1	68.15	1	0.0	1	null	6	null	6	0.0	1	1000.42	1	41.076845	16.866987
1509	2024-03-03 20:00:00	16	carbonara	13.46	1	75.29	1	0.0	1	null	6	null	6	0.0	1	1000.07	1	41.076845	16.866987
1510	2024-03-03 21:00:00	16	carbonara	13.31	1	77.38	1	0.0	1	null	6	null	6	0.0	1	1000.03	1	41.076845	16.866987
1511	2024-03-03 22:00:00	16	carbonara	13.27	1	79.49	1	0.0	1	null	6	null	6	0.0	1	999.9	1	41.076845	16.866987
1512	2024-03-03 23:00:00	16	carbonara	13.17	1	79.58	1	0.0	1	null	6	null	6	0.0	1	999.5	1	41.076845	16.866987
1513	2024-03-04 00:00:00	16	carbonara	13.56	1	78.1	1	0.0	1	null	6	null	6	0.0	1	999.18	1	41.076845	16.866987
1514	2024-03-04 01:00:00	16	carbonara	14.04	1	78.97	1	0.0	1	null	6	null	6	0.0	1	998.57	1	41.076845	16.866987
1515	2024-03-04 02:00:00	16	carbonara	14.42	1	79.24	1	0.0	1	null	6	null	6	0.0	1	998.05	1	41.076845	16.866987
1516	2024-03-04 03:00:00	16	carbonara	14.55	1	79.45	1	0.0	1	null	6	null	6	0.0	1	997.72	1	41.076845	16.866987
1517	2024-03-04 04:00:00	16	carbonara	14.55	1	80.74	1	0.0	1	null	6	null	6	0.0	1	997.31	1	41.076845	16.866987
1518	2024-03-04 05:00:00	16	carbonara	14.55	1	80.06	1	0.0	1	null	6	null	6	0.0	1	996.68	1	41.076845	16.866987
1519	2024-03-04 06:00:00	16	carbonara	14.61	1	80.08	1	0.0	1	null	6	null	6	0.0	1	996.89	1	41.076845	16.866987
1520	2024-03-04 07:00:00	16	carbonara	14.53	1	80.02	1	0.0	1	null	6	null	6	0.0	5	996.52	1	41.076845	16.866987
1521	2024-03-04 08:00:00	16	carbonara	14.43	1	82.53	1	0.2	1	null	6	null	6	29.16	1	996.42	1	41.076845	16.866987
1522	2024-03-04 09:00:00	16	carbonara	13.72	1	90.5	1	6.6	1	null	6	null	6	12.21	1	995.87	1	41.076845	16.866987
1523	2024-03-04 10:00:00	16	carbonara	10.17	1	91.21	1	7.8	1	null	6	null	6	30.77	1	996.73	1	41.076845	16.866987
1524	2024-03-04 11:00:00	16	carbonara	9.89	1	88.58	1	5.4	1	null	6	null	6	11.57	1	997.64	1	41.076845	16.866987
1525	2024-03-04 12:00:00	16	carbonara	9.65	1	93.22	1	5.8	1	null	6	null	6	53.92	1	997.92	1	41.076845	16.866987
1526	2024-03-04 13:00:00	16	carbonara	9.91	1	89.89	1	1.0	1	null	6	null	6	191.69	1	996.98	1	41.076845	16.866987
1527	2024-03-04 14:00:00	16	carbonara	10.24	1	86.15	1	0.0	1	null	6	null	6	109.18	1	996.52	1	41.076845	16.866987
1528	2024-03-04 15:00:00	16	carbonara	10.7	1	83.58	1	0.0	1	null	6	null	6	150.04	1	996.27	1	41.076845	16.866987
1529	2024-03-04 16:00:00	16	carbonara	12.08	1	75.29	1	0.0	1	null	6	null	6	155.58	1	995.6	1	41.076845	16.866987
1530	2024-03-04 17:00:00	16	carbonara	13.29	1	68.8	1	0.0	1	null	6	null	6	144.42	1	995.32	1	41.076845	16.866987
1531	2024-03-04 18:00:00	16	carbonara	12.09	1	67.99	1	0.0	1	null	6	null	6	11.13	1	995.59	1	41.076845	16.866987
1532	2024-03-04 19:00:00	16	carbonara	10.82	1	76.73	1	0.0	1	null	6	null	6	0.0	1	996.19	1	41.076845	16.866987
1533	2024-03-04 20:00:00	16	carbonara	10.08	1	81.66	1	0.0	1	null	6	null	6	0.0	1	996.5	1	41.076845	16.866987
1534	2024-03-04 21:00:00	16	carbonara	9.68	1	80.99	1	0.0	1	null	6	null	6	0.0	1	996.53	1	41.076845	16.866987
1535	2024-03-04 22:00:00	16	carbonara	9.15	1	83.15	1	0.0	1	null	6	null	6	0.0	1	996.85	1	41.076845	16.866987
1536	2024-03-04 23:00:00	16	carbonara	8.31	1	86.31	1	0.0	1	null	6	null	6	0.0	1	997.25	1	41.076845	16.866987
1537	2024-03-05 00:00:00	16	carbonara	7.46	1	89.23	1	0.0	1	null	6	null	6	0.0	1	997.69	1	41.076845	16.866987
1538	2024-03-05 01:00:00	16	carbonara	7.49	1	87.98	1	0.0	1	null	6	null	6	0.0	1	997.95	1	41.076845	16.866987
1539	2024-03-05 02:00:00	16	carbonara	7.6	1	88.38	1	0.0	1	null	6	null	6	0.0	1	998.43	1	41.076845	16.866987
1540	2024-03-05 03:00:00	16	carbonara	7.6	1	89.82	1	0.0	1	null	6	null	6	0.0	1	998.67	1	41.076845	16.866987
1541	2024-03-05 04:00:00	16	carbonara	7.44	1	91.29	1	0.0	1	null	6	null	6	0.0	1	998.84	1	41.076845	16.866987
1542	2024-03-05 05:00:00	16	carbonara	7.36	1	92.59	1	0.0	1	null	6	null	6	0.0	1	999.36	1	41.076845	16.866987
1543	2024-03-05 06:00:00	16	carbonara	7.2	1	93.38	1	0.0	1	null	6	null	6	0.0	1	999.76	1	41.076845	16.866987
1544	2024-03-05 07:00:00	16	carbonara	7.01	1	93.34	1	0.0	1	null	6	null	6	7.41	1	1000.04	1	41.076845	16.866987
1545	2024-03-05 08:00:00	16	carbonara	7.77	1	87.52	1	0.0	1	null	6	null	6	87.93	1	1000.52	1	41.076845	16.866987
1546	2024-03-05 09:00:00	16	carbonara	10.24	1	70.6	1	0.0	1	null	6	null	6	74.97	1	1001.07	1	41.076845	16.866987
1547	2024-03-05 10:00:00	16	carbonara	12.58	1	64.96	1	0.0	1	null	6	null	6	241.71	1	1001.69	1	41.076845	16.866987
1548	2024-03-05 11:00:00	16	carbonara	12.93	1	63.05	1	0.0	1	null	6	null	6	262.49	1	1001.99	1	41.076845	16.866987
1549	2024-03-05 12:00:00	16	carbonara	13.53	1	58.63	1	0.0	1	null	6	null	6	207.45	1	1002.28	1	41.076845	16.866987
1550	2024-03-05 13:00:00	16	carbonara	13.77	1	58.99	1	0.0	1	null	6	null	6	152.08	1	1002.49	1	41.076845	16.866987
1551	2024-03-05 14:00:00	16	carbonara	15.11	1	58.02	1	0.0	1	null	6	null	6	343.21	1	1002.33	1	41.076845	16.866987
1552	2024-03-05 15:00:00	16	carbonara	16.18	1	56.96	1	0.0	1	null	6	null	6	226.16	1	1002.29	1	41.076845	16.866987
1553	2024-03-05 16:00:00	16	carbonara	17.32	1	53.38	1	0.0	1	null	6	null	6	298.04	1	1002.34	1	41.076845	16.866987
1554	2024-03-05 17:00:00	16	carbonara	16.53	1	60.9	1	0.0	1	null	6	null	6	111.97	1	1002.58	1	41.076845	16.866987
1555	2024-03-05 18:00:00	16	carbonara	14.25	1	75.73	1	0.0	1	null	6	null	6	13.4	1	1003.21	1	41.076845	16.866987
1556	2024-03-05 19:00:00	16	carbonara	12.9	1	81.7	1	0.0	1	null	6	null	6	0.0	1	1003.68	1	41.076845	16.866987
1557	2024-03-05 20:00:00	16	carbonara	11.81	1	86.68	1	0.0	1	null	6	null	6	0.0	1	1004.11	1	41.076845	16.866987
1558	2024-03-05 21:00:00	16	carbonara	10.83	1	89.13	1	0.0	1	null	6	null	6	0.0	1	1004.68	1	41.076845	16.866987
1559	2024-03-05 22:00:00	16	carbonara	10.09	1	89.07	1	0.0	1	null	6	null	6	0.0	1	1004.93	1	41.076845	16.866987
1560	2024-03-05 23:00:00	16	carbonara	9.36	1	89.12	1	0.0	1	null	6	null	6	0.0	1	1005.14	1	41.076845	16.866987
1561	2024-03-06 00:00:00	16	carbonara	9.08	1	88.17	1	0.0	1	null	6	null	6	0.0	1	1005.39	1	41.076845	16.866987
1562	2024-03-06 01:00:00	16	carbonara	9.07	1	86.27	1	0.0	1	null	6	null	6	0.0	1	1005.59	1	41.076845	16.866987
1563	2024-03-06 02:00:00	16	carbonara	8.96	1	85.09	1	0.0	1	null	6	null	6	0.0	1	1005.75	1	41.076845	16.866987
1564	2024-03-06 03:00:00	16	carbonara	8.98	1	84.25	1	0.0	1	null	6	null	6	0.0	1	1005.76	1	41.076845	16.866987
1565	2024-03-06 04:00:00	16	carbonara	9.01	1	81.06	1	0.0	1	null	6	null	6	0.0	1	1005.68	1	41.076845	16.866987
1566	2024-03-06 05:00:00	16	carbonara	8.91	1	78.14	1	0.0	1	null	6	null	6	0.0	1	1005.65	1	41.076845	16.866987
1567	2024-03-06 06:00:00	16	carbonara	8.72	1	76.6	1	0.0	1	null	6	null	6	0.0	1	1005.59	1	41.076845	16.866987
1568	2024-03-06 07:00:00	16	carbonara	8.67	1	76.55	1	0.0	1	null	6	null	6	10.57	1	1005.79	1	41.076845	16.866987
1569	2024-03-06 08:00:00	16	carbonara	10.33	1	72.7	1	0.0	1	null	6	null	6	102.53	1	1006.43	1	41.076845	16.866987
1570	2024-03-06 09:00:00	16	carbonara	12.33	1	65.81	1	0.0	1	null	6	null	6	78.95	1	1006.71	1	41.076845	16.866987
1571	2024-03-06 10:00:00	16	carbonara	15.35	1	56.19	1	0.0	1	null	6	null	6	293.73	1	1006.9	1	41.076845	16.866987
1572	2024-03-06 11:00:00	16	carbonara	17.18	1	52.21	1	0.0	1	null	6	null	6	332.05	1	1007.05	1	41.076845	16.866987
1573	2024-03-06 12:00:00	16	carbonara	16.6	1	54.92	1	0.0	1	null	6	null	6	461.74	1	1006.95	1	41.076845	16.866987
1574	2024-03-06 13:00:00	16	carbonara	16.44	1	54.78	1	0.0	1	null	6	null	6	298.28	1	1006.59	1	41.076845	16.866987
1575	2024-03-06 14:00:00	16	carbonara	16.61	1	56.78	1	0.0	1	null	6	null	6	470.47	1	1006.03	1	41.076845	16.866987
1576	2024-03-06 15:00:00	16	carbonara	19.17	1	48.48	1	0.0	1	null	6	null	6	552.71	1	1005.21	1	41.076845	16.866987
1577	2024-03-06 16:00:00	16	carbonara	17.76	1	53.55	1	0.0	1	null	6	null	6	145.69	1	1004.88	1	41.076845	16.866987
1578	2024-03-06 17:00:00	16	carbonara	16.18	1	64.83	1	0.0	1	null	6	null	6	48.32	1	1005.04	1	41.076845	16.866987
1579	2024-03-06 18:00:00	16	carbonara	15.35	1	63.39	1	0.0	1	null	6	null	6	24.52	1	1005.77	1	41.076845	16.866987
1580	2024-03-06 19:00:00	16	carbonara	14.25	1	50.96	1	0.0	1	null	6	null	6	0.0	1	1006.25	1	41.076845	16.866987
1581	2024-03-06 20:00:00	16	carbonara	13.32	1	46.95	1	0.0	1	null	6	null	6	0.0	1	1006.64	1	41.076845	16.866987
1582	2024-03-06 21:00:00	16	carbonara	12.48	1	49.58	1	0.0	1	null	6	null	6	0.0	1	1007.37	1	41.076845	16.866987
1583	2024-03-06 22:00:00	16	carbonara	11.45	1	52.85	1	0.0	1	null	6	null	6	0.0	1	1007.52	1	41.076845	16.866987
1584	2024-03-06 23:00:00	16	carbonara	10.31	1	54.49	1	0.0	1	null	6	null	6	0.0	1	1007.56	1	41.076845	16.866987
1585	2024-03-07 00:00:00	16	carbonara	9.38	1	59.37	1	0.0	1	null	6	null	6	0.0	1	1007.54	1	41.076845	16.866987
1586	2024-03-07 01:00:00	16	carbonara	8.64	1	62.11	1	0.0	1	null	6	null	6	0.0	1	1007.09	1	41.076845	16.866987
1587	2024-03-07 02:00:00	16	carbonara	8.31	1	65.28	1	0.0	1	null	6	null	6	0.0	1	1007.06	1	41.076845	16.866987
1588	2024-03-07 03:00:00	16	carbonara	8.09	1	68.54	1	0.0	1	null	6	null	6	0.0	1	1006.63	1	41.076845	16.866987
1589	2024-03-07 04:00:00	16	carbonara	7.87	1	69.33	1	0.0	1	null	6	null	6	0.0	1	1006.15	1	41.076845	16.866987
1590	2024-03-07 05:00:00	16	carbonara	7.49	1	69.97	1	0.0	1	null	6	null	6	0.0	1	1005.91	1	41.076845	16.866987
1591	2024-03-07 06:00:00	16	carbonara	7.0	1	72.82	1	0.0	1	null	6	null	6	0.0	1	1005.91	1	41.076845	16.866987
1592	2024-03-07 07:00:00	16	carbonara	7.49	1	70.34	1	0.0	1	null	6	null	6	12.94	1	1006.12	1	41.076845	16.866987
1593	2024-03-07 08:00:00	16	carbonara	9.21	1	64.53	1	0.0	1	null	6	null	6	134.85	1	1006.47	1	41.076845	16.866987
1594	2024-03-07 09:00:00	16	carbonara	11.85	1	50.6	1	0.0	1	null	6	null	6	60.64	1	1006.58	1	41.076845	16.866987
1595	2024-03-07 10:00:00	16	carbonara	13.58	1	40.91	1	0.0	1	null	6	null	6	292.1	1	1006.82	1	41.076845	16.866987
1596	2024-03-07 11:00:00	16	carbonara	15.29	1	35.84	1	0.0	1	null	6	null	6	602.46	1	1006.91	1	41.076845	16.866987
1597	2024-03-07 12:00:00	16	carbonara	15.31	1	38.94	1	0.0	1	null	6	null	6	385.09	1	1006.8	1	41.076845	16.866987
1598	2024-03-07 13:00:00	16	carbonara	15.47	1	43.52	1	0.0	1	null	6	null	6	528.29	1	1006.51	1	41.076845	16.866987
1599	2024-03-07 14:00:00	16	carbonara	16.41	1	41.98	1	0.0	1	null	6	null	6	481.08	1	1006.07	1	41.076845	16.866987
1600	2024-03-07 15:00:00	16	carbonara	15.39	1	44.74	1	0.0	1	null	6	null	6	251.9	1	1005.9	1	41.076845	16.866987
1601	2024-03-07 16:00:00	16	carbonara	16.16	1	47.75	1	0.0	1	null	6	null	6	375.96	1	1006.0	1	41.076845	16.866987
1602	2024-03-07 17:00:00	16	carbonara	16.12	1	45.64	1	0.0	1	null	6	null	6	171.58	1	1005.88	1	41.076845	16.866987
1603	2024-03-07 18:00:00	16	carbonara	13.04	1	58.48	1	0.0	1	null	6	null	6	16.95	1	1006.54	1	41.076845	16.866987
1604	2024-03-07 19:00:00	16	carbonara	11.64	1	68.72	1	0.0	1	null	6	null	6	0.0	1	1007.25	1	41.076845	16.866987
1605	2024-03-07 20:00:00	16	carbonara	11.12	1	71.34	1	0.0	1	null	6	null	6	0.0	1	1007.7	1	41.076845	16.866987
1606	2024-03-07 21:00:00	16	carbonara	10.85	1	74.48	1	0.0	1	null	6	null	6	0.0	1	1007.97	1	41.076845	16.866987
1607	2024-03-07 22:00:00	16	carbonara	9.55	1	81.28	1	0.0	1	null	6	null	6	0.0	1	1008.12	1	41.076845	16.866987
1608	2024-03-07 23:00:00	16	carbonara	9.23	1	81.32	1	0.0	1	null	6	null	6	0.0	1	1008.12	1	41.076845	16.866987
1609	2024-03-08 00:00:00	16	carbonara	8.69	1	83.14	1	0.0	1	null	6	null	6	0.0	1	1008.25	1	41.076845	16.866987
1610	2024-03-08 01:00:00	16	carbonara	8.66	1	84.72	1	0.0	1	null	6	null	6	0.0	1	1008.25	1	41.076845	16.866987
1611	2024-03-08 02:00:00	16	carbonara	8.34	1	83.43	1	0.0	1	null	6	null	6	0.0	1	1008.36	1	41.076845	16.866987
1612	2024-03-08 03:00:00	16	carbonara	8.36	1	85.02	1	0.0	1	null	6	null	6	0.0	1	1008.16	1	41.076845	16.866987
1613	2024-03-08 04:00:00	16	carbonara	8.75	1	84.35	1	0.0	1	null	6	null	6	0.0	1	1008.06	1	41.076845	16.866987
1614	2024-03-08 05:00:00	16	carbonara	8.81	1	82.95	1	0.0	1	null	6	null	6	0.0	1	1007.98	1	41.076845	16.866987
1615	2024-03-08 06:00:00	16	carbonara	8.59	1	82.63	1	0.0	1	null	6	null	6	0.0	1	1007.93	1	41.076845	16.866987
1616	2024-03-08 07:00:00	16	carbonara	8.07	1	81.42	1	0.0	1	null	6	null	6	16.82	1	1008.05	1	41.076845	16.866987
1617	2024-03-08 08:00:00	16	carbonara	9.31	1	76.41	1	0.0	1	null	6	null	6	144.91	1	1008.4	1	41.076845	16.866987
1618	2024-03-08 09:00:00	16	carbonara	11.89	1	63.96	1	0.0	1	null	6	null	6	60.0	1	1008.58	1	41.076845	16.866987
1619	2024-03-08 10:00:00	16	carbonara	13.75	1	56.59	1	0.0	1	null	6	null	6	348.42	1	1008.58	1	41.076845	16.866987
1620	2024-03-08 11:00:00	16	carbonara	15.77	1	51.83	1	0.0	1	null	6	null	6	590.27	1	1008.41	1	41.076845	16.866987
1621	2024-03-08 12:00:00	16	carbonara	15.6	1	53.58	1	0.0	1	null	6	null	6	688.35	1	1008.3	1	41.076845	16.866987
1622	2024-03-08 13:00:00	16	carbonara	16.06	1	54.02	1	0.0	1	null	6	null	6	703.01	1	1007.8	1	41.076845	16.866987
1623	2024-03-08 14:00:00	16	carbonara	16.19	1	54.45	1	0.0	1	null	6	null	6	644.13	1	1007.2	1	41.076845	16.866987
1624	2024-03-08 15:00:00	16	carbonara	16.18	1	55.19	1	0.0	1	null	6	null	6	587.74	1	1006.81	1	41.076845	16.866987
1625	2024-03-08 16:00:00	16	carbonara	15.86	1	56.55	1	0.0	1	null	6	null	6	441.1	1	1006.43	1	41.076845	16.866987
1626	2024-03-08 17:00:00	16	carbonara	15.51	1	58.53	1	0.0	1	null	6	null	6	231.23	1	1006.28	1	41.076845	16.866987
1627	2024-03-08 18:00:00	16	carbonara	14.07	1	57.49	1	0.0	1	null	6	null	6	17.68	1	1006.68	1	41.076845	16.866987
1628	2024-03-08 19:00:00	16	carbonara	13.0	1	54.1	1	0.0	1	null	6	null	6	0.0	1	1007.17	1	41.076845	16.866987
1629	2024-03-08 20:00:00	16	carbonara	12.16	1	64.75	1	0.0	1	null	6	null	6	0.0	1	1007.37	1	41.076845	16.866987
1630	2024-03-08 21:00:00	16	carbonara	11.39	1	72.11	1	0.0	1	null	6	null	6	0.0	1	1007.38	1	41.076845	16.866987
1631	2024-03-08 22:00:00	16	carbonara	11.18	1	76.9	1	0.0	1	null	6	null	6	0.0	1	1007.31	1	41.076845	16.866987
1632	2024-03-08 23:00:00	16	carbonara	11.77	1	77.49	1	0.0	1	null	6	null	6	0.0	1	1006.94	1	41.076845	16.866987
1633	2024-03-09 00:00:00	16	carbonara	12.08	1	77.98	1	0.0	1	null	6	null	6	0.0	1	1006.67	1	41.076845	16.866987
1634	2024-03-09 01:00:00	16	carbonara	12.16	1	80.14	1	0.0	1	null	6	null	6	0.0	1	1006.19	1	41.076845	16.866987
1635	2024-03-09 02:00:00	16	carbonara	12.85	1	80.4	1	0.0	1	null	6	null	6	0.0	1	1005.8	1	41.076845	16.866987
1636	2024-03-09 03:00:00	16	carbonara	13.15	1	81.46	1	0.0	1	null	6	null	6	0.0	1	1005.1	1	41.076845	16.866987
1637	2024-03-09 04:00:00	16	carbonara	13.22	1	85.43	1	0.0	1	null	6	null	6	0.0	1	1005.15	1	41.076845	16.866987
1638	2024-03-09 05:00:00	16	carbonara	13.25	1	87.02	1	0.0	1	null	6	null	6	0.0	1	1004.65	1	41.076845	16.866987
1639	2024-03-09 06:00:00	16	carbonara	13.51	1	86.82	1	0.0	1	null	6	null	6	0.0	1	1004.63	1	41.076845	16.866987
1640	2024-03-09 07:00:00	16	carbonara	13.65	1	87.69	1	0.0	1	null	6	null	6	5.26	1	1004.42	1	41.076845	16.866987
1641	2024-03-09 08:00:00	16	carbonara	13.77	1	89.18	1	0.0	1	null	6	null	6	48.29	1	1004.19	1	41.076845	16.866987
1642	2024-03-09 09:00:00	16	carbonara	15.11	1	84.33	1	0.0	1	null	6	null	6	149.57	1	1004.2	1	41.076845	16.866987
1643	2024-03-09 10:00:00	16	carbonara	16.45	1	75.37	1	0.0	1	null	6	null	6	261.22	1	1004.07	1	41.076845	16.866987
1644	2024-03-09 11:00:00	16	carbonara	16.58	1	72.86	1	0.0	1	null	6	null	6	137.71	1	1004.25	1	41.076845	16.866987
1645	2024-03-09 12:00:00	16	carbonara	17.49	1	67.38	1	0.0	1	null	6	null	6	244.17	1	1004.23	1	41.076845	16.866987
1646	2024-03-09 13:00:00	16	carbonara	18.12	1	62.1	1	0.0	1	null	6	null	6	216.57	1	1004.06	1	41.076845	16.866987
1647	2024-03-09 14:00:00	16	carbonara	18.61	1	58.58	1	0.0	1	null	6	null	6	196.0	1	1003.86	1	41.076845	16.866987
1648	2024-03-09 15:00:00	16	carbonara	17.91	1	61.76	1	0.0	1	null	6	null	6	198.27	1	1003.83	1	41.076845	16.866987
1649	2024-03-09 16:00:00	16	carbonara	19.2	1	48.69	1	0.0	1	null	6	null	6	236.45	1	1003.5	1	41.076845	16.866987
1650	2024-03-09 17:00:00	16	carbonara	19.06	1	54.88	1	0.0	1	null	6	null	6	159.86	1	1003.19	1	41.076845	16.866987
1651	2024-03-09 18:00:00	16	carbonara	16.95	1	63.75	1	0.0	1	null	6	null	6	18.0	1	1003.33	1	41.076845	16.866987
1652	2024-03-09 19:00:00	16	carbonara	15.45	1	74.03	1	0.0	1	null	6	null	6	0.0	1	1003.65	1	41.076845	16.866987
1653	2024-03-09 20:00:00	16	carbonara	14.54	1	82.93	1	0.0	1	null	6	null	6	0.0	1	1004.0	1	41.076845	16.866987
1654	2024-03-09 21:00:00	16	carbonara	14.03	1	85.46	1	0.0	1	null	6	null	6	0.0	1	1004.1	1	41.076845	16.866987
1655	2024-03-09 22:00:00	16	carbonara	13.66	1	85.93	1	0.0	1	null	6	null	6	0.0	1	1003.92	1	41.076845	16.866987
1656	2024-03-09 23:00:00	16	carbonara	13.15	1	88.27	1	0.0	1	null	6	null	6	0.0	1	1003.72	1	41.076845	16.866987
1657	2024-03-10 00:00:00	16	carbonara	13.44	1	87.38	1	0.0	1	null	6	null	6	0.0	1	1003.32	1	41.076845	16.866987
1658	2024-03-10 01:00:00	16	carbonara	13.78	1	83.33	1	0.0	1	null	6	null	6	0.0	1	1002.97	1	41.076845	16.866987
1659	2024-03-10 02:00:00	16	carbonara	14.18	1	79.87	1	0.0	1	null	6	null	6	0.0	1	1002.44	1	41.076845	16.866987
1660	2024-03-10 03:00:00	16	carbonara	14.2	1	78.24	1	0.0	1	null	6	null	6	0.0	1	1001.89	1	41.076845	16.866987
1661	2024-03-10 04:00:00	16	carbonara	14.12	1	78.13	1	0.0	1	null	6	null	6	0.0	1	1001.45	1	41.076845	16.866987
1662	2024-03-10 05:00:00	16	carbonara	14.18	1	77.74	1	0.0	1	null	6	null	6	0.0	1	1001.06	1	41.076845	16.866987
1663	2024-03-10 06:00:00	16	carbonara	14.38	1	78.29	1	0.0	1	null	6	null	6	0.0	1	1000.99	1	41.076845	16.866987
1664	2024-03-10 07:00:00	16	carbonara	14.59	1	77.59	1	0.0	1	null	6	null	6	16.51	1	1000.9	1	41.076845	16.866987
1665	2024-03-10 08:00:00	16	carbonara	15.1	1	74.95	1	0.0	1	null	6	null	6	94.54	1	1000.58	1	41.076845	16.866987
1666	2024-03-10 09:00:00	16	carbonara	16.03	1	70.52	1	0.0	1	null	6	null	6	160.81	1	1000.58	1	41.076845	16.866987
1667	2024-03-10 10:00:00	16	carbonara	15.95	1	70.48	1	0.0	1	null	6	null	6	104.57	1	1000.44	1	41.076845	16.866987
1668	2024-03-10 11:00:00	16	carbonara	16.05	1	70.0	1	0.0	1	null	6	null	6	135.98	1	1000.85	1	41.076845	16.866987
1669	2024-03-10 12:00:00	16	carbonara	16.43	1	67.0	1	0.0	1	null	6	null	6	191.56	1	1000.62	1	41.076845	16.866987
1670	2024-03-10 13:00:00	16	carbonara	16.87	1	64.42	1	0.0	1	null	6	null	6	234.71	1	1000.27	1	41.076845	16.866987
1671	2024-03-10 14:00:00	16	carbonara	16.94	1	63.92	1	0.0	1	null	6	null	6	182.74	1	999.85	1	41.076845	16.866987
1672	2024-03-10 15:00:00	16	carbonara	16.81	1	64.0	1	0.0	1	null	6	null	6	149.03	1	999.68	1	41.076845	16.866987
1673	2024-03-10 16:00:00	16	carbonara	16.65	1	64.37	1	0.0	1	null	6	null	6	125.39	1	999.24	1	41.076845	16.866987
1674	2024-03-10 17:00:00	16	carbonara	16.47	1	66.05	1	0.0	1	null	6	null	6	92.46	1	999.19	1	41.076845	16.866987
1675	2024-03-10 18:00:00	16	carbonara	16.0	1	68.0	1	0.0	1	null	6	null	6	22.8	1	999.09	1	41.076845	16.866987
1676	2024-03-10 19:00:00	16	carbonara	15.62	1	70.56	1	0.0	1	null	6	null	6	0.0	1	999.56	1	41.076845	16.866987
1677	2024-03-10 20:00:00	16	carbonara	15.52	1	70.62	1	0.0	1	null	6	null	6	0.0	1	999.96	1	41.076845	16.866987
1678	2024-03-10 21:00:00	16	carbonara	15.46	1	71.97	1	0.0	1	null	6	null	6	0.0	1	999.82	1	41.076845	16.866987
1679	2024-03-10 22:00:00	16	carbonara	15.54	1	71.54	1	0.0	1	null	6	null	6	0.0	1	999.4	1	41.076845	16.866987
1680	2024-03-10 23:00:00	16	carbonara	15.7	1	71.58	1	0.0	1	null	6	null	6	0.0	1	998.72	1	41.076845	16.866987
1681	2024-03-11 00:00:00	16	carbonara	15.69	1	74.36	1	0.0	1	null	6	null	6	0.0	1	998.16	1	41.076845	16.866987
1682	2024-03-11 01:00:00	16	carbonara	15.68	1	76.24	1	0.0	1	null	6	null	6	0.0	1	998.09	1	41.076845	16.866987
1683	2024-03-11 02:00:00	16	carbonara	15.71	1	77.27	1	0.0	1	null	6	null	6	0.0	1	997.64	1	41.076845	16.866987
1684	2024-03-11 03:00:00	16	carbonara	15.61	1	77.96	1	0.0	1	null	6	null	6	0.0	1	996.47	1	41.076845	16.866987
1685	2024-03-11 04:00:00	16	carbonara	15.66	1	77.59	1	0.0	1	null	6	null	6	0.0	1	995.66	1	41.076845	16.866987
1686	2024-03-11 05:00:00	16	carbonara	15.71	1	76.5	1	0.0	1	null	6	null	6	0.0	1	994.6	1	41.076845	16.866987
1687	2024-03-11 06:00:00	16	carbonara	15.77	1	76.27	1	0.0	1	null	6	null	6	0.0	1	994.52	1	41.076845	16.866987
1688	2024-03-11 07:00:00	16	carbonara	14.83	1	80.55	1	1.6	1	null	6	null	6	0.0	5	995.05	1	41.076845	16.866987
1689	2024-03-11 08:00:00	16	carbonara	11.42	1	96.4	1	5.6	1	null	6	null	6	14.36	1	996.09	1	41.076845	16.866987
1690	2024-03-11 09:00:00	16	carbonara	12.4	1	93.51	1	4.0	1	null	6	null	6	77.6	1	997.04	1	41.076845	16.866987
1691	2024-03-11 10:00:00	16	carbonara	15.99	1	60.5	1	2.2	1	null	6	null	6	398.75	1	997.22	1	41.076845	16.866987
1692	2024-03-11 11:00:00	16	carbonara	18.02	1	48.6	1	1.4	1	null	6	null	6	656.5	1	997.26	1	41.076845	16.866987
1693	2024-03-11 12:00:00	16	carbonara	19.07	1	42.77	1	0.6	1	null	6	null	6	736.61	1	997.55	1	41.076845	16.866987
1694	2024-03-11 13:00:00	16	carbonara	19.41	1	46.74	1	0.0	1	null	6	null	6	676.75	1	997.64	1	41.076845	16.866987
1695	2024-03-11 14:00:00	16	carbonara	19.68	1	48.27	1	0.0	1	null	6	null	6	656.68	1	997.51	1	41.076845	16.866987
1696	2024-03-11 15:00:00	16	carbonara	17.5	1	58.54	1	0.0	1	null	6	null	6	433.3	1	997.37	1	41.076845	16.866987
1697	2024-03-11 16:00:00	16	carbonara	15.19	1	70.94	1	0.0	1	null	6	null	6	86.43	1	998.22	1	41.076845	16.866987
1698	2024-03-11 17:00:00	16	carbonara	15.7	1	72.06	1	0.0	1	null	6	null	6	203.21	1	998.41	1	41.076845	16.866987
1699	2024-03-11 18:00:00	16	carbonara	14.52	1	78.09	1	0.0	1	null	6	null	6	23.93	1	998.77	1	41.076845	16.866987
1700	2024-03-11 19:00:00	16	carbonara	13.76	1	81.8	1	0.0	1	null	6	null	6	0.0	1	999.31	1	41.076845	16.866987
1701	2024-03-11 20:00:00	16	carbonara	13.6	1	80.5	1	0.0	1	null	6	null	6	0.0	1	999.83	1	41.076845	16.866987
1702	2024-03-11 21:00:00	16	carbonara	13.21	1	77.93	1	0.0	1	null	6	null	6	0.0	1	1000.27	1	41.076845	16.866987
1703	2024-03-11 22:00:00	16	carbonara	12.42	1	69.78	1	0.0	1	null	6	null	6	0.0	1	1000.4	1	41.076845	16.866987
1704	2024-03-11 23:00:00	16	carbonara	11.72	1	70.71	1	0.0	1	null	6	null	6	0.0	1	1000.53	1	41.076845	16.866987
1705	2024-03-12 00:00:00	16	carbonara	11.22	1	69.73	1	0.0	1	null	6	null	6	0.0	1	1000.54	1	41.076845	16.866987
1706	2024-03-12 01:00:00	16	carbonara	11.0	1	71.0	1	0.0	1	null	6	null	6	0.0	1	1000.62	1	41.076845	16.866987
1707	2024-03-12 02:00:00	16	carbonara	11.11	1	70.19	1	0.0	1	null	6	null	6	0.0	1	1000.66	1	41.076845	16.866987
1708	2024-03-12 03:00:00	16	carbonara	11.6	1	59.08	1	0.0	1	null	6	null	6	0.0	1	999.79	1	41.076845	16.866987
1709	2024-03-12 04:00:00	16	carbonara	11.24	1	58.57	1	0.0	1	null	6	null	6	0.0	1	999.86	1	41.076845	16.866987
1710	2024-03-12 05:00:00	16	carbonara	10.36	1	60.34	1	0.0	1	null	6	null	6	0.0	1	999.94	1	41.076845	16.866987
1711	2024-03-12 06:00:00	16	carbonara	9.68	1	63.53	1	0.0	1	null	6	null	6	0.0	1	1000.05	1	41.076845	16.866987
1712	2024-03-12 07:00:00	16	carbonara	9.07	1	69.72	1	0.0	1	null	6	null	6	23.34	1	1000.4	1	41.076845	16.866987
1713	2024-03-12 08:00:00	16	carbonara	11.05	1	64.01	1	0.0	1	null	6	null	6	148.72	1	1000.99	1	41.076845	16.866987
1714	2024-03-12 09:00:00	16	carbonara	13.75	1	54.81	1	0.0	1	null	6	null	6	199.61	1	1001.5	1	41.076845	16.866987
1715	2024-03-12 10:00:00	16	carbonara	15.01	1	50.54	1	0.0	1	null	6	null	6	418.12	1	1001.85	1	41.076845	16.866987
1716	2024-03-12 11:00:00	16	carbonara	16.06	1	49.08	1	0.0	1	null	6	null	6	480.26	1	1002.05	1	41.076845	16.866987
1717	2024-03-12 12:00:00	16	carbonara	17.0	1	45.6	1	0.0	1	null	6	null	6	578.73	1	1002.17	1	41.076845	16.866987
1718	2024-03-12 13:00:00	16	carbonara	17.73	1	48.77	1	0.0	1	null	6	null	6	538.78	1	1002.04	1	41.076845	16.866987
1719	2024-03-12 14:00:00	16	carbonara	18.25	1	48.95	1	0.0	1	null	6	null	6	570.73	1	1001.84	1	41.076845	16.866987
1720	2024-03-12 15:00:00	16	carbonara	16.11	1	54.94	1	0.0	1	null	6	null	6	323.43	1	1002.1	1	41.076845	16.866987
1721	2024-03-12 16:00:00	16	carbonara	17.13	1	54.7	1	0.0	1	null	6	null	6	368.74	1	1002.43	1	41.076845	16.866987
1722	2024-03-12 17:00:00	16	carbonara	14.62	1	66.46	1	0.0	1	null	6	null	6	86.58	1	1002.92	1	41.076845	16.866987
1723	2024-03-12 18:00:00	16	carbonara	13.7	1	68.34	1	0.0	1	null	6	null	6	20.09	1	1003.45	1	41.076845	16.866987
1724	2024-03-12 19:00:00	16	carbonara	13.1	1	67.98	1	0.0	1	null	6	null	6	0.0	1	1003.73	1	41.076845	16.866987
1725	2024-03-12 20:00:00	16	carbonara	12.64	1	68.91	1	0.0	1	null	6	null	6	0.0	1	1004.26	1	41.076845	16.866987
1726	2024-03-12 21:00:00	16	carbonara	11.99	1	74.56	1	0.0	1	null	6	null	6	0.0	1	1004.51	1	41.076845	16.866987
1727	2024-03-12 22:00:00	16	carbonara	11.02	1	76.85	1	0.0	1	null	6	null	6	0.0	1	1004.94	1	41.076845	16.866987
1728	2024-03-12 23:00:00	16	carbonara	10.41	1	75.74	1	0.0	1	null	6	null	6	0.0	1	1005.14	1	41.076845	16.866987
1729	2024-03-13 00:00:00	16	carbonara	10.34	1	73.98	1	0.0	1	null	6	null	6	0.0	1	1005.18	1	41.076845	16.866987
1730	2024-03-13 01:00:00	16	carbonara	10.85	1	75.5	1	0.0	1	null	6	null	6	0.0	1	1005.23	1	41.076845	16.866987
1731	2024-03-13 02:00:00	16	carbonara	10.57	1	77.38	1	0.0	1	null	6	null	6	0.0	1	1005.26	1	41.076845	16.866987
1732	2024-03-13 03:00:00	16	carbonara	10.58	1	74.74	1	0.0	1	null	6	null	6	0.0	1	1005.16	1	41.076845	16.866987
1733	2024-03-13 04:00:00	16	carbonara	10.83	1	70.65	1	0.0	1	null	6	null	6	0.0	1	1005.11	1	41.076845	16.866987
1734	2024-03-13 05:00:00	16	carbonara	11.22	1	68.48	1	0.0	1	null	6	null	6	0.0	1	1005.18	1	41.076845	16.866987
1735	2024-03-13 06:00:00	16	carbonara	10.77	1	70.89	1	0.0	1	null	6	null	6	0.0	1	1005.24	1	41.076845	16.866987
1736	2024-03-13 07:00:00	16	carbonara	10.23	1	72.03	1	0.0	1	null	6	null	6	20.41	1	1005.48	1	41.076845	16.866987
1737	2024-03-13 08:00:00	16	carbonara	11.34	1	69.38	1	0.0	1	null	6	null	6	104.51	1	1005.92	1	41.076845	16.866987
1738	2024-03-13 09:00:00	16	carbonara	13.45	1	59.45	1	0.0	1	null	6	null	6	66.9	1	1006.64	1	41.076845	16.866987
1739	2024-03-13 10:00:00	16	carbonara	15.61	1	53.47	1	0.0	1	null	6	null	6	422.45	1	1006.96	1	41.076845	16.866987
1740	2024-03-13 11:00:00	16	carbonara	17.12	1	51.5	1	0.0	1	null	6	null	6	656.35	1	1007.17	1	41.076845	16.866987
1741	2024-03-13 12:00:00	16	carbonara	17.58	1	48.45	1	0.0	1	null	6	null	6	737.34	1	1007.1	1	41.076845	16.866987
1742	2024-03-13 13:00:00	16	carbonara	17.66	1	50.55	1	0.0	1	null	6	null	6	517.47	1	1006.97	1	41.076845	16.866987
1743	2024-03-13 14:00:00	16	carbonara	17.91	1	52.31	1	0.0	1	null	6	null	6	631.11	1	1006.79	1	41.076845	16.866987
1744	2024-03-13 15:00:00	16	carbonara	18.25	1	54.19	1	0.0	1	null	6	null	6	599.33	1	1006.43	1	41.076845	16.866987
1745	2024-03-13 16:00:00	16	carbonara	17.61	1	53.15	1	0.0	1	null	6	null	6	372.7	1	1006.33	1	41.076845	16.866987
1746	2024-03-13 17:00:00	16	carbonara	16.58	1	59.75	1	0.0	1	null	6	null	6	207.42	1	1006.36	1	41.076845	16.866987
1747	2024-03-13 18:00:00	16	carbonara	14.63	1	64.34	1	0.0	1	null	6	null	6	14.65	1	1006.71	1	41.076845	16.866987
1748	2024-03-13 19:00:00	16	carbonara	13.4	1	72.07	1	0.0	1	null	6	null	6	0.0	1	1007.04	1	41.076845	16.866987
1749	2024-03-13 20:00:00	16	carbonara	12.73	1	70.46	1	0.0	1	null	6	null	6	0.0	1	1007.44	1	41.076845	16.866987
1750	2024-03-13 21:00:00	16	carbonara	11.65	1	75.97	1	0.0	1	null	6	null	6	0.0	1	1007.98	1	41.076845	16.866987
1751	2024-03-13 22:00:00	16	carbonara	10.66	1	79.84	1	0.0	1	null	6	null	6	0.0	1	1008.29	1	41.076845	16.866987
1752	2024-03-13 23:00:00	16	carbonara	10.0	1	80.74	1	0.0	1	null	6	null	6	0.0	1	1008.27	1	41.076845	16.866987
1753	2024-03-14 00:00:00	16	carbonara	9.45	1	81.22	1	0.0	1	null	6	null	6	0.0	1	1008.35	1	41.076845	16.866987
1754	2024-03-14 01:00:00	16	carbonara	8.89	1	80.09	1	0.0	1	null	6	null	6	0.0	1	1008.38	1	41.076845	16.866987
1755	2024-03-14 02:00:00	16	carbonara	8.95	1	71.81	1	0.0	1	null	6	null	6	0.0	1	1008.32	1	41.076845	16.866987
1756	2024-03-14 03:00:00	16	carbonara	8.96	1	66.11	1	0.0	1	null	6	null	6	0.0	1	1008.01	1	41.076845	16.866987
1757	2024-03-14 04:00:00	16	carbonara	8.67	1	63.53	1	0.0	1	null	6	null	6	0.0	1	1007.84	1	41.076845	16.866987
1758	2024-03-14 05:00:00	16	carbonara	8.18	1	63.78	1	0.0	1	null	6	null	6	0.0	1	1008.15	1	41.076845	16.866987
1759	2024-03-14 06:00:00	16	carbonara	8.12	1	61.12	1	0.0	1	null	6	null	6	0.0	1	1008.68	1	41.076845	16.866987
1760	2024-03-14 07:00:00	16	carbonara	7.78	1	61.87	1	0.0	1	null	6	null	6	29.57	1	1008.91	1	41.076845	16.866987
1761	2024-03-14 08:00:00	16	carbonara	10.76	1	51.69	1	0.0	1	null	6	null	6	173.53	1	1009.09	1	41.076845	16.866987
1762	2024-03-14 09:00:00	16	carbonara	13.62	1	44.0	1	0.0	1	null	6	null	6	59.16	1	1009.36	1	41.076845	16.866987
1763	2024-03-14 10:00:00	16	carbonara	16.52	1	34.22	1	0.0	1	null	6	null	6	442.37	1	1009.58	1	41.076845	16.866987
1764	2024-03-14 11:00:00	16	carbonara	18.17	1	32.95	1	0.0	1	null	6	null	6	679.68	1	1009.71	1	41.076845	16.866987
1765	2024-03-14 12:00:00	16	carbonara	18.33	1	35.21	1	0.0	1	null	6	null	6	754.18	1	1009.55	1	41.076845	16.866987
1766	2024-03-14 13:00:00	16	carbonara	18.86	1	35.87	1	0.0	1	null	6	null	6	768.87	1	1009.38	1	41.076845	16.866987
1767	2024-03-14 14:00:00	16	carbonara	20.42	1	26.4	1	0.0	1	null	6	null	6	723.5	1	1008.93	1	41.076845	16.866987
1768	2024-03-14 15:00:00	16	carbonara	20.16	1	33.0	1	0.0	1	null	6	null	6	618.91	1	1008.63	1	41.076845	16.866987
1769	2024-03-14 16:00:00	16	carbonara	18.84	1	46.86	1	0.0	1	null	6	null	6	457.76	1	1008.4	1	41.076845	16.866987
1770	2024-03-14 17:00:00	16	carbonara	18.32	1	51.36	1	0.0	1	null	6	null	6	255.27	1	1008.15	1	41.076845	16.866987
1771	2024-03-14 18:00:00	16	carbonara	15.81	1	62.44	1	0.0	1	null	6	null	6	29.44	1	1008.46	1	41.076845	16.866987
1772	2024-03-14 19:00:00	16	carbonara	14.2	1	69.81	1	0.0	1	null	6	null	6	0.0	1	1008.85	1	41.076845	16.866987
1773	2024-03-14 20:00:00	16	carbonara	12.8	1	69.55	1	0.0	1	null	6	null	6	0.0	1	1009.16	1	41.076845	16.866987
1774	2024-03-14 21:00:00	16	carbonara	11.29	1	68.2	1	0.0	1	null	6	null	6	0.0	1	1009.38	1	41.076845	16.866987
1775	2024-03-14 22:00:00	16	carbonara	10.21	1	68.89	1	0.0	1	null	6	null	6	0.0	1	1009.49	1	41.076845	16.866987
1776	2024-03-14 23:00:00	16	carbonara	9.38	1	68.09	1	0.0	1	null	6	null	6	0.0	1	1009.62	1	41.076845	16.866987
1777	2024-03-15 00:00:00	16	carbonara	9.18	1	67.59	1	0.0	1	null	6	null	6	0.0	1	1009.52	1	41.076845	16.866987
1778	2024-03-15 01:00:00	16	carbonara	8.87	1	70.52	1	0.0	1	null	6	null	6	0.0	1	1009.49	1	41.076845	16.866987
1779	2024-03-15 02:00:00	16	carbonara	8.48	1	74.95	1	0.0	1	null	6	null	6	0.0	1	1009.44	1	41.076845	16.866987
1780	2024-03-15 03:00:00	16	carbonara	8.25	1	79.39	1	0.0	1	null	6	null	6	0.0	1	1009.11	1	41.076845	16.866987
1781	2024-03-15 04:00:00	16	carbonara	7.95	1	82.51	1	0.0	1	null	6	null	6	0.0	1	1009.04	1	41.076845	16.866987
1782	2024-03-15 05:00:00	16	carbonara	7.5	1	85.37	1	0.0	1	null	6	null	6	0.0	1	1009.02	1	41.076845	16.866987
1783	2024-03-15 06:00:00	16	carbonara	7.43	1	85.92	1	0.0	1	null	6	null	6	0.0	1	1009.03	1	41.076845	16.866987
1784	2024-03-15 07:00:00	16	carbonara	7.73	1	85.31	1	0.0	1	null	6	null	6	32.73	1	1009.27	1	41.076845	16.866987
1785	2024-03-15 08:00:00	16	carbonara	10.72	1	76.65	1	0.0	1	null	6	null	6	181.31	1	1009.39	1	41.076845	16.866987
1786	2024-03-15 09:00:00	16	carbonara	14.73	1	62.25	1	0.0	1	null	6	null	6	105.0	1	1009.58	1	41.076845	16.866987
1787	2024-03-15 10:00:00	16	carbonara	17.24	1	51.71	1	0.0	1	null	6	null	6	399.81	1	1009.73	1	41.076845	16.866987
1788	2024-03-15 11:00:00	16	carbonara	20.13	1	44.39	1	0.0	1	null	6	null	6	634.42	1	1009.62	1	41.076845	16.866987
1789	2024-03-15 12:00:00	16	carbonara	20.05	1	42.96	1	0.0	1	null	6	null	6	690.1	1	1009.32	1	41.076845	16.866987
1790	2024-03-15 13:00:00	16	carbonara	19.59	1	46.17	1	0.0	1	null	6	null	6	741.99	1	1008.9	1	41.076845	16.866987
1791	2024-03-15 14:00:00	16	carbonara	19.66	1	48.34	1	0.0	1	null	6	null	6	695.8	1	1008.35	1	41.076845	16.866987
1792	2024-03-15 15:00:00	16	carbonara	19.2	1	50.82	1	0.0	1	null	6	null	6	589.61	1	1008.06	1	41.076845	16.866987
1793	2024-03-15 16:00:00	16	carbonara	18.91	1	50.16	1	0.0	1	null	6	null	6	427.08	1	1007.79	1	41.076845	16.866987
1794	2024-03-15 17:00:00	16	carbonara	18.32	1	53.09	1	0.0	1	null	6	null	6	222.36	1	1007.74	1	41.076845	16.866987
1795	2024-03-15 18:00:00	16	carbonara	16.71	1	61.04	1	0.0	1	null	6	null	6	40.02	1	1008.13	1	41.076845	16.866987
1796	2024-03-15 19:00:00	16	carbonara	15.3	1	70.34	1	0.0	1	null	6	null	6	0.0	1	1008.6	1	41.076845	16.866987
1797	2024-03-15 20:00:00	16	carbonara	15.06	1	54.7	1	0.0	1	null	6	null	6	0.0	1	1009.02	1	41.076845	16.866987
1798	2024-03-15 21:00:00	16	carbonara	13.95	1	59.77	1	0.0	1	null	6	null	6	0.0	1	1009.41	1	41.076845	16.866987
1799	2024-03-15 22:00:00	16	carbonara	13.02	1	61.02	1	0.0	1	null	6	null	6	0.0	1	1009.56	1	41.076845	16.866987
1800	2024-03-15 23:00:00	16	carbonara	12.33	1	63.76	1	0.0	1	null	6	null	6	0.0	1	1009.68	1	41.076845	16.866987
1801	2024-03-16 00:00:00	16	carbonara	12.17	1	67.02	1	0.0	1	null	6	null	6	0.0	1	1009.71	1	41.076845	16.866987
1802	2024-03-16 01:00:00	16	carbonara	12.17	1	69.79	1	0.0	1	null	6	null	6	0.0	1	1009.92	1	41.076845	16.866987
1803	2024-03-16 02:00:00	16	carbonara	12.18	1	71.66	1	0.0	1	null	6	null	6	0.0	1	1010.05	1	41.076845	16.866987
1804	2024-03-16 03:00:00	16	carbonara	11.34	1	75.34	1	0.0	1	null	6	null	6	0.0	1	1009.97	1	41.076845	16.866987
1805	2024-03-16 04:00:00	16	carbonara	10.26	1	79.76	1	0.0	1	null	6	null	6	0.0	1	1009.86	1	41.076845	16.866987
1806	2024-03-16 05:00:00	16	carbonara	9.71	1	82.0	1	0.0	1	null	6	null	6	0.0	1	1009.91	1	41.076845	16.866987
1807	2024-03-16 06:00:00	16	carbonara	9.48	1	81.39	1	0.0	1	null	6	null	6	0.0	1	1010.04	1	41.076845	16.866987
1808	2024-03-16 07:00:00	16	carbonara	9.46	1	79.4	1	0.0	1	null	6	null	6	24.65	1	1010.22	1	41.076845	16.866987
1809	2024-03-16 08:00:00	16	carbonara	12.28	1	66.67	1	0.0	1	null	6	null	6	193.1	1	1010.46	1	41.076845	16.866987
1810	2024-03-16 09:00:00	16	carbonara	15.31	1	57.67	1	0.0	1	null	6	null	6	155.58	1	1010.55	1	41.076845	16.866987
1811	2024-03-16 10:00:00	16	carbonara	17.07	1	51.62	1	0.0	1	null	6	null	6	374.56	1	1010.57	1	41.076845	16.866987
1812	2024-03-16 11:00:00	16	carbonara	18.7	1	46.91	1	0.0	1	null	6	null	6	510.3	1	1010.56	1	41.076845	16.866987
1813	2024-03-16 12:00:00	16	carbonara	18.8	1	48.78	1	0.0	1	null	6	null	6	640.16	1	1010.54	1	41.076845	16.866987
1814	2024-03-16 13:00:00	16	carbonara	18.97	1	49.45	1	0.0	1	null	6	null	6	611.84	1	1010.07	1	41.076845	16.866987
1815	2024-03-16 14:00:00	16	carbonara	17.72	1	55.23	1	0.0	1	null	6	null	6	452.19	1	1009.76	1	41.076845	16.866987
1816	2024-03-16 15:00:00	16	carbonara	18.68	1	53.34	1	0.0	1	null	6	null	6	587.32	1	1009.33	1	41.076845	16.866987
1817	2024-03-16 16:00:00	16	carbonara	17.26	1	60.15	1	0.0	1	null	6	null	6	150.83	1	1009.05	1	41.076845	16.866987
1818	2024-03-16 17:00:00	16	carbonara	16.13	1	64.87	1	0.0	1	null	6	null	6	50.0	1	1009.2	1	41.076845	16.866987
1819	2024-03-16 18:00:00	16	carbonara	15.62	1	71.5	1	0.0	1	null	6	null	6	9.21	1	1009.52	1	41.076845	16.866987
1820	2024-03-16 19:00:00	16	carbonara	15.21	1	73.39	1	0.0	1	null	6	null	6	0.0	1	1010.04	1	41.076845	16.866987
1821	2024-03-16 20:00:00	16	carbonara	14.63	1	83.46	1	0.0	1	null	6	null	6	0.0	1	1010.49	1	41.076845	16.866987
1822	2024-03-16 21:00:00	16	carbonara	14.12	1	89.19	1	0.0	1	null	6	null	6	0.0	1	1010.89	1	41.076845	16.866987
1823	2024-03-16 22:00:00	16	carbonara	13.57	1	91.27	1	0.0	1	null	6	null	6	0.0	1	1011.07	1	41.076845	16.866987
1824	2024-03-16 23:00:00	16	carbonara	13.08	1	96.15	1	7.2	1	null	6	null	6	0.0	1	1011.28	1	41.076845	16.866987
1825	2024-03-17 00:00:00	16	carbonara	12.77	1	99.52	1	2.2	1	null	6	null	6	0.0	1	1011.37	1	41.076845	16.866987
1826	2024-03-17 01:00:00	16	carbonara	12.21	1	99.96	1	0.0	1	null	6	null	6	0.0	1	1011.5	1	41.076845	16.866987
1827	2024-03-17 02:00:00	16	carbonara	11.85	1	null	3	0.0	1	null	6	null	6	0.0	1	1011.43	1	41.076845	16.866987
1828	2024-03-17 03:00:00	16	carbonara	11.48	1	null	3	0.0	1	null	6	null	6	0.0	1	1011.3	1	41.076845	16.866987
1829	2024-03-17 04:00:00	16	carbonara	10.93	1	null	3	0.0	1	null	6	null	6	0.0	1	1011.17	1	41.076845	16.866987
1830	2024-03-17 05:00:00	16	carbonara	10.44	1	null	3	0.0	1	null	6	null	6	0.0	1	1011.09	1	41.076845	16.866987
1831	2024-03-17 06:00:00	16	carbonara	9.98	1	null	3	0.0	1	null	6	null	6	0.0	1	1011.38	1	41.076845	16.866987
1832	2024-03-17 07:00:00	16	carbonara	9.93	1	null	3	0.2	1	null	6	null	6	35.14	1	1011.79	1	41.076845	16.866987
1833	2024-03-17 08:00:00	16	carbonara	12.0	1	94.87	1	0.0	1	null	6	null	6	188.48	1	1012.12	1	41.076845	16.866987
1834	2024-03-17 09:00:00	16	carbonara	14.52	1	79.43	1	0.0	1	null	6	null	6	81.2	1	1012.5	1	41.076845	16.866987
1835	2024-03-17 10:00:00	16	carbonara	16.92	1	63.24	1	0.0	1	null	6	null	6	467.5	1	1012.72	1	41.076845	16.866987
1836	2024-03-17 11:00:00	16	carbonara	18.55	1	55.25	1	0.0	1	null	6	null	6	670.07	1	1012.81	1	41.076845	16.866987
1837	2024-03-17 12:00:00	16	carbonara	18.47	1	56.99	1	0.0	1	null	6	null	6	739.28	1	1012.86	1	41.076845	16.866987
1838	2024-03-17 13:00:00	16	carbonara	19.34	1	53.8	1	0.0	1	null	6	null	6	754.84	1	1012.63	1	41.076845	16.866987
1839	2024-03-17 14:00:00	16	carbonara	19.97	1	49.68	1	0.0	1	null	6	null	6	716.66	1	1011.97	1	41.076845	16.866987
1840	2024-03-17 15:00:00	16	carbonara	19.66	1	50.93	1	0.0	1	null	6	null	6	614.18	1	1011.41	1	41.076845	16.866987
1841	2024-03-17 16:00:00	16	carbonara	19.47	1	53.81	1	0.0	1	null	6	null	6	459.06	1	1011.03	1	41.076845	16.866987
1842	2024-03-17 17:00:00	16	carbonara	19.14	1	55.81	1	0.0	1	null	6	null	6	263.36	1	1010.79	1	41.076845	16.866987
1843	2024-03-17 18:00:00	16	carbonara	16.25	1	73.87	1	0.0	1	null	6	null	6	35.56	1	1011.13	1	41.076845	16.866987
1844	2024-03-17 19:00:00	16	carbonara	14.78	1	78.93	1	0.0	1	null	6	null	6	0.0	5	1011.48	1	41.076845	16.866987
1845	2024-03-17 20:00:00	16	carbonara	14.01	1	84.21	1	0.0	1	null	6	null	6	0.0	1	1011.64	1	41.076845	16.866987
1846	2024-03-17 21:00:00	16	carbonara	12.89	1	89.55	1	0.0	1	null	6	null	6	0.0	1	1011.64	1	41.076845	16.866987
1847	2024-03-17 22:00:00	16	carbonara	11.78	1	92.82	1	0.0	1	null	6	null	6	0.0	1	1011.77	1	41.076845	16.866987
1848	2024-03-17 23:00:00	16	carbonara	11.14	1	91.84	1	0.0	1	null	6	null	6	0.0	1	1011.72	1	41.076845	16.866987
1849	2024-03-18 00:00:00	16	carbonara	10.58	1	87.83	1	0.0	1	null	6	null	6	0.0	1	1011.37	1	41.076845	16.866987
1850	2024-03-18 01:00:00	16	carbonara	10.57	1	83.56	1	0.0	1	null	6	null	6	0.0	1	1011.19	1	41.076845	16.866987
1851	2024-03-18 02:00:00	16	carbonara	10.07	1	84.75	1	0.0	1	null	6	null	6	0.0	1	1010.72	1	41.076845	16.866987
1852	2024-03-18 03:00:00	16	carbonara	9.64	1	84.61	1	0.0	1	null	6	null	6	0.0	1	1009.98	1	41.076845	16.866987
1853	2024-03-18 04:00:00	16	carbonara	8.97	1	85.42	1	0.0	1	null	6	null	6	0.0	1	1009.54	1	41.076845	16.866987
1854	2024-03-18 05:00:00	16	carbonara	9.11	1	83.08	1	0.0	1	null	6	null	6	0.0	1	1009.23	1	41.076845	16.866987
1855	2024-03-18 06:00:00	16	carbonara	9.09	1	84.42	1	0.0	1	null	6	null	6	0.0	5	1008.89	1	41.076845	16.866987
1856	2024-03-18 07:00:00	16	carbonara	9.62	1	86.11	1	0.0	1	null	6	null	6	27.53	1	1008.86	1	41.076845	16.866987
1857	2024-03-18 08:00:00	16	carbonara	12.15	1	78.96	1	0.0	1	null	6	null	6	191.26	1	1008.65	1	41.076845	16.866987
1858	2024-03-18 09:00:00	16	carbonara	16.31	1	62.92	1	0.0	1	null	6	null	6	100.92	1	1008.42	1	41.076845	16.866987
1859	2024-03-18 10:00:00	16	carbonara	19.23	1	47.01	1	0.0	1	null	6	null	6	481.64	1	1008.15	1	41.076845	16.866987
1860	2024-03-18 11:00:00	16	carbonara	21.8	1	38.23	1	0.0	1	null	6	null	6	658.25	1	1007.43	1	41.076845	16.866987
1861	2024-03-18 12:00:00	16	carbonara	22.21	1	38.28	1	0.0	1	null	6	null	6	666.98	1	1006.67	1	41.076845	16.866987
1862	2024-03-18 13:00:00	16	carbonara	21.31	1	41.08	1	0.0	1	null	6	null	6	685.03	1	1005.91	1	41.076845	16.866987
1863	2024-03-18 14:00:00	16	carbonara	20.73	1	40.71	1	0.0	1	null	6	null	6	537.53	1	1005.32	1	41.076845	16.866987
1864	2024-03-18 15:00:00	16	carbonara	19.73	1	43.73	1	0.0	1	null	6	null	6	325.49	1	1004.94	1	41.076845	16.866987
1865	2024-03-18 16:00:00	16	carbonara	19.42	1	43.47	1	0.0	1	null	6	null	6	167.95	1	1004.67	1	41.076845	16.866987
1866	2024-03-18 17:00:00	16	carbonara	19.12	1	43.99	1	0.0	1	null	6	null	6	72.37	1	1004.29	1	41.076845	16.866987
1867	2024-03-18 18:00:00	16	carbonara	18.5	1	47.83	1	0.0	1	null	6	null	6	17.92	1	1004.22	1	41.076845	16.866987
1868	2024-03-18 19:00:00	16	carbonara	17.88	1	50.37	1	0.0	1	null	6	null	6	0.0	1	1004.22	1	41.076845	16.866987
1869	2024-03-18 20:00:00	16	carbonara	17.44	1	53.18	1	0.0	1	null	6	null	6	0.0	1	1004.41	1	41.076845	16.866987
1870	2024-03-18 21:00:00	16	carbonara	16.55	1	60.29	1	0.0	1	null	6	null	6	0.0	1	1004.51	1	41.076845	16.866987
1871	2024-03-18 22:00:00	16	carbonara	14.89	1	80.0	1	0.6	1	null	6	null	6	0.0	1	1004.64	1	41.076845	16.866987
1872	2024-03-18 23:00:00	16	carbonara	13.96	1	90.94	1	1.2	1	null	6	null	6	0.0	1	1004.65	1	41.076845	16.866987
1873	2024-03-19 00:00:00	16	carbonara	13.47	1	94.56	1	1.8	1	null	6	null	6	0.0	1	1004.31	1	41.076845	16.866987
1874	2024-03-19 01:00:00	16	carbonara	13.11	1	96.4	1	0.8	1	null	6	null	6	0.0	1	1003.62	1	41.076845	16.866987
1875	2024-03-19 02:00:00	16	carbonara	12.92	1	97.84	1	0.0	1	null	6	null	6	0.0	1	1003.23	1	41.076845	16.866987
1876	2024-03-19 03:00:00	16	carbonara	12.83	1	97.8	1	0.0	1	null	6	null	6	0.0	1	1002.78	1	41.076845	16.866987
1877	2024-03-19 04:00:00	16	carbonara	12.78	1	98.92	1	0.4	1	null	6	null	6	0.0	1	1002.59	1	41.076845	16.866987
1878	2024-03-19 05:00:00	16	carbonara	12.7	1	null	3	0.6	1	null	6	null	6	0.0	1	1002.62	1	41.076845	16.866987
1879	2024-03-19 06:00:00	16	carbonara	12.5	1	null	3	0.0	1	null	6	null	6	0.0	1	1002.86	1	41.076845	16.866987
1880	2024-03-19 07:00:00	16	carbonara	12.71	1	null	3	0.8	1	null	6	null	6	8.93	1	1003.39	1	41.076845	16.866987
1881	2024-03-19 08:00:00	16	carbonara	12.8	1	null	3	1.0	1	null	6	null	6	22.41	1	1004.0	1	41.076845	16.866987
1882	2024-03-19 09:00:00	16	carbonara	12.48	1	null	3	1.2	1	null	6	null	6	38.82	1	1004.83	1	41.076845	16.866987
1883	2024-03-19 10:00:00	16	carbonara	12.49	1	null	3	1.0	1	null	6	null	6	125.2	1	1005.31	1	41.076845	16.866987
1884	2024-03-19 11:00:00	16	carbonara	13.64	1	99.21	1	0.8	1	null	6	null	6	178.12	1	1005.72	1	41.076845	16.866987
1885	2024-03-19 12:00:00	16	carbonara	15.38	1	89.19	1	0.0	1	null	6	null	6	458.67	1	1005.81	1	41.076845	16.866987
1886	2024-03-19 13:00:00	16	carbonara	17.34	1	72.32	1	0.0	1	null	6	null	6	604.0	1	1005.73	1	41.076845	16.866987
1887	2024-03-19 14:00:00	16	carbonara	17.32	1	64.94	1	0.0	1	null	6	null	6	311.71	1	1005.76	1	41.076845	16.866987
1888	2024-03-19 15:00:00	16	carbonara	16.75	1	70.03	1	0.0	1	null	6	null	6	356.56	1	1005.84	1	41.076845	16.866987
1889	2024-03-19 16:00:00	16	carbonara	17.72	1	66.03	1	0.0	1	null	6	null	6	344.46	1	1005.62	1	41.076845	16.866987
1890	2024-03-19 17:00:00	16	carbonara	18.01	1	63.92	1	0.0	1	null	6	null	6	277.76	1	1005.68	1	41.076845	16.866987
1891	2024-03-19 18:00:00	16	carbonara	15.8	1	77.06	1	0.0	1	null	6	null	6	52.64	1	1006.31	1	41.076845	16.866987
1892	2024-03-19 19:00:00	16	carbonara	13.95	1	82.07	1	0.0	1	null	6	null	6	0.0	5	1006.99	1	41.076845	16.866987
1893	2024-03-19 20:00:00	16	carbonara	13.38	1	83.5	1	0.0	1	null	6	null	6	0.0	1	1007.63	1	41.076845	16.866987
1894	2024-03-19 21:00:00	16	carbonara	12.7	1	87.05	1	0.0	1	null	6	null	6	0.0	1	1008.16	1	41.076845	16.866987
1895	2024-03-19 22:00:00	16	carbonara	12.35	1	79.19	1	0.0	1	null	6	null	6	0.0	1	1008.43	1	41.076845	16.866987
1896	2024-03-19 23:00:00	16	carbonara	12.42	1	68.86	1	0.0	1	null	6	null	6	0.0	1	1008.61	1	41.076845	16.866987
1897	2024-03-20 00:00:00	16	carbonara	11.18	1	76.66	1	0.0	1	null	6	null	6	0.0	1	1008.92	1	41.076845	16.866987
1898	2024-03-20 01:00:00	16	carbonara	10.95	1	77.02	1	0.0	1	null	6	null	6	0.0	1	1009.35	1	41.076845	16.866987
1899	2024-03-20 02:00:00	16	carbonara	10.92	1	76.25	1	0.0	1	null	6	null	6	0.0	1	1009.46	1	41.076845	16.866987
1900	2024-03-20 03:00:00	16	carbonara	10.33	1	78.95	1	0.0	1	null	6	null	6	0.0	1	1009.53	1	41.076845	16.866987
1901	2024-03-20 04:00:00	16	carbonara	9.79	1	83.34	1	0.0	1	null	6	null	6	0.0	1	1009.56	1	41.076845	16.866987
1902	2024-03-20 05:00:00	16	carbonara	9.24	1	86.81	1	0.0	1	null	6	null	6	0.0	1	1009.65	1	41.076845	16.866987
1903	2024-03-20 06:00:00	16	carbonara	8.7	1	88.44	1	0.0	1	null	6	null	6	0.0	1	1009.93	1	41.076845	16.866987
1904	2024-03-20 07:00:00	16	carbonara	8.41	1	87.35	1	0.0	1	null	6	null	6	50.59	1	1010.64	1	41.076845	16.866987
1905	2024-03-20 08:00:00	16	carbonara	11.0	1	75.58	1	0.0	1	null	6	null	6	213.57	1	1011.26	1	41.076845	16.866987
1906	2024-03-20 09:00:00	16	carbonara	14.09	1	59.29	1	0.0	1	null	6	null	6	149.53	1	1011.87	1	41.076845	16.866987
1907	2024-03-20 10:00:00	16	carbonara	15.46	1	48.42	1	0.0	1	null	6	null	6	531.45	1	1012.24	1	41.076845	16.866987
1908	2024-03-20 11:00:00	16	carbonara	16.75	1	42.77	1	0.0	1	null	6	null	6	698.75	1	1012.54	1	41.076845	16.866987
1909	2024-03-20 12:00:00	16	carbonara	17.0	1	41.21	1	0.0	1	null	6	null	6	782.01	1	1012.69	1	41.076845	16.866987
1910	2024-03-20 13:00:00	16	carbonara	17.3	1	41.11	1	0.0	1	null	6	null	6	799.46	1	1012.7	1	41.076845	16.866987
1911	2024-03-20 14:00:00	16	carbonara	17.75	1	41.74	1	0.0	1	null	6	null	6	755.82	1	1012.45	1	41.076845	16.866987
1912	2024-03-20 15:00:00	16	carbonara	17.99	1	39.85	1	0.0	1	null	6	null	6	649.1	1	1012.28	1	41.076845	16.866987
1913	2024-03-20 16:00:00	16	carbonara	18.36	1	39.69	1	0.0	1	null	6	null	6	488.59	1	1012.07	1	41.076845	16.866987
1914	2024-03-20 17:00:00	16	carbonara	17.96	1	44.82	1	0.0	1	null	6	null	6	291.62	1	1012.16	1	41.076845	16.866987
1915	2024-03-20 18:00:00	16	carbonara	15.49	1	51.17	1	0.0	1	null	6	null	6	44.1	1	1012.61	1	41.076845	16.866987
1916	2024-03-20 19:00:00	16	carbonara	13.21	1	56.82	1	0.0	1	null	6	null	6	0.0	5	1013.12	1	41.076845	16.866987
1917	2024-03-20 20:00:00	16	carbonara	12.18	1	59.87	1	0.0	1	null	6	null	6	0.0	1	1013.59	1	41.076845	16.866987
1918	2024-03-20 21:00:00	16	carbonara	10.93	1	67.08	1	0.0	1	null	6	null	6	0.0	1	1014.02	1	41.076845	16.866987
1919	2024-03-20 22:00:00	16	carbonara	9.46	1	74.87	1	0.0	1	null	6	null	6	0.0	1	1014.27	1	41.076845	16.866987
1920	2024-03-20 23:00:00	16	carbonara	8.76	1	77.59	1	0.0	1	null	6	null	6	0.0	1	1014.34	1	41.076845	16.866987
1921	2024-03-21 00:00:00	16	carbonara	8.19	1	79.9	1	0.0	1	null	6	null	6	0.0	1	1014.47	1	41.076845	16.866987
1922	2024-03-21 01:00:00	16	carbonara	7.69	1	79.21	1	0.0	1	null	6	null	6	0.0	1	1014.57	1	41.076845	16.866987
1923	2024-03-21 02:00:00	16	carbonara	7.15	1	74.26	1	0.0	1	null	6	null	6	0.0	1	1014.44	1	41.076845	16.866987
1924	2024-03-21 03:00:00	16	carbonara	6.51	1	68.03	1	0.0	1	null	6	null	6	0.0	1	1014.21	1	41.076845	16.866987
1925	2024-03-21 04:00:00	16	carbonara	5.95	1	62.4	1	0.0	1	null	6	null	6	0.0	1	1014.2	1	41.076845	16.866987
1926	2024-03-21 05:00:00	16	carbonara	5.82	1	57.12	1	0.0	1	null	6	null	6	0.0	1	1014.15	1	41.076845	16.866987
1927	2024-03-21 06:00:00	16	carbonara	5.37	1	60.41	1	0.0	1	null	6	null	6	0.0	5	1014.28	1	41.076845	16.866987
1928	2024-03-21 07:00:00	16	carbonara	6.01	1	62.12	1	0.0	1	null	6	null	6	57.21	1	1014.41	1	41.076845	16.866987
1929	2024-03-21 08:00:00	16	carbonara	9.59	1	55.44	1	0.0	1	null	6	null	6	226.14	1	1014.48	1	41.076845	16.866987
1930	2024-03-21 09:00:00	16	carbonara	15.33	1	41.02	1	0.0	1	null	6	null	6	179.56	1	1014.62	1	41.076845	16.866987
1931	2024-03-21 10:00:00	16	carbonara	16.38	1	34.65	1	0.0	1	null	6	null	6	541.38	1	1014.55	1	41.076845	16.866987
1932	2024-03-21 11:00:00	16	carbonara	19.07	1	30.96	1	0.0	1	null	6	null	6	719.98	1	1014.52	1	41.076845	16.866987
1933	2024-03-21 12:00:00	16	carbonara	19.12	1	29.62	1	0.0	1	null	6	null	6	799.18	1	1014.25	1	41.076845	16.866987
1934	2024-03-21 13:00:00	16	carbonara	20.42	1	28.26	1	0.0	1	null	6	null	6	801.52	1	1013.57	1	41.076845	16.866987
1935	2024-03-21 14:00:00	16	carbonara	20.49	1	27.06	1	0.0	1	null	6	null	6	735.55	1	1012.69	1	41.076845	16.866987
1936	2024-03-21 15:00:00	16	carbonara	20.41	1	26.84	1	0.0	1	null	6	null	6	639.7	1	1011.81	1	41.076845	16.866987
1937	2024-03-21 16:00:00	16	carbonara	19.86	1	24.7	1	0.0	1	null	6	null	6	485.09	1	1010.99	1	41.076845	16.866987
1938	2024-03-21 17:00:00	16	carbonara	19.5	1	21.84	1	0.0	1	null	6	null	6	293.42	1	1010.28	1	41.076845	16.866987
1939	2024-03-21 18:00:00	16	carbonara	17.94	1	25.98	1	0.0	1	null	6	null	6	45.46	1	1010.12	1	41.076845	16.866987
1940	2024-03-21 19:00:00	16	carbonara	15.78	1	29.64	1	0.0	1	null	6	null	6	0.0	5	1010.15	1	41.076845	16.866987
1941	2024-03-21 20:00:00	16	carbonara	14.51	1	36.03	1	0.0	1	null	6	null	6	0.0	1	1010.28	1	41.076845	16.866987
1942	2024-03-21 21:00:00	16	carbonara	13.97	1	56.84	1	0.0	1	null	6	null	6	0.0	1	1010.57	1	41.076845	16.866987
1943	2024-03-21 22:00:00	16	carbonara	12.23	1	63.68	1	0.0	1	null	6	null	6	0.0	1	1010.44	1	41.076845	16.866987
1944	2024-03-21 23:00:00	16	carbonara	11.96	1	72.61	1	0.0	1	null	6	null	6	0.0	1	1010.27	1	41.076845	16.866987
1945	2024-03-22 00:00:00	16	carbonara	12.02	1	77.08	1	0.0	1	null	6	null	6	0.0	1	1009.84	1	41.076845	16.866987
1946	2024-03-22 01:00:00	16	carbonara	11.35	1	79.74	1	0.0	1	null	6	null	6	0.0	1	1009.45	1	41.076845	16.866987
1947	2024-03-22 02:00:00	16	carbonara	11.13	1	78.81	1	0.0	1	null	6	null	6	0.0	1	1008.81	1	41.076845	16.866987
1948	2024-03-22 03:00:00	16	carbonara	11.59	1	76.71	1	0.0	1	null	6	null	6	0.0	1	1008.39	1	41.076845	16.866987
1949	2024-03-22 04:00:00	16	carbonara	11.9	1	76.11	1	0.0	1	null	6	null	6	0.0	1	1008.48	1	41.076845	16.866987
1950	2024-03-22 05:00:00	16	carbonara	11.8	1	77.1	1	0.0	1	null	6	null	6	0.0	1	1008.62	1	41.076845	16.866987
1951	2024-03-22 06:00:00	16	carbonara	12.57	1	78.33	1	0.0	1	null	6	null	6	0.0	5	1008.78	1	41.076845	16.866987
1952	2024-03-22 07:00:00	16	carbonara	13.17	1	83.15	1	0.0	1	null	6	null	6	42.23	1	1009.22	1	41.076845	16.866987
1953	2024-03-22 08:00:00	16	carbonara	14.12	1	85.13	1	0.0	1	null	6	null	6	117.72	1	1009.35	1	41.076845	16.866987
1954	2024-03-22 09:00:00	16	carbonara	15.68	1	76.59	1	0.0	1	null	6	null	6	211.88	1	1009.73	1	41.076845	16.866987
1955	2024-03-22 10:00:00	16	carbonara	17.14	1	59.26	1	0.0	1	null	6	null	6	416.07	1	1010.04	1	41.076845	16.866987
1956	2024-03-22 11:00:00	16	carbonara	18.92	1	55.2	1	0.0	1	null	6	null	6	539.35	1	1010.11	1	41.076845	16.866987
1957	2024-03-22 12:00:00	16	carbonara	17.93	1	60.95	1	0.0	1	null	6	null	6	377.1	1	1009.75	1	41.076845	16.866987
1958	2024-03-22 13:00:00	16	carbonara	17.66	1	60.31	1	0.0	1	null	6	null	6	361.01	1	1009.38	1	41.076845	16.866987
1959	2024-03-22 14:00:00	16	carbonara	17.36	1	68.92	1	0.0	1	null	6	null	6	201.71	1	1009.13	1	41.076845	16.866987
1960	2024-03-22 15:00:00	16	carbonara	17.42	1	71.45	1	0.0	1	null	6	null	6	312.4	1	1008.72	1	41.076845	16.866987
1961	2024-03-22 16:00:00	16	carbonara	17.43	1	68.04	1	0.0	1	null	6	null	6	254.05	1	1008.42	1	41.076845	16.866987
1962	2024-03-22 17:00:00	16	carbonara	18.53	1	61.05	1	0.0	1	null	6	null	6	268.07	1	1008.17	1	41.076845	16.866987
1963	2024-03-22 18:00:00	16	carbonara	16.18	1	73.85	1	0.0	1	null	6	null	6	50.38	1	1008.0	1	41.076845	16.866987
1964	2024-03-22 19:00:00	16	carbonara	14.63	1	85.29	1	0.0	1	null	6	null	6	0.0	5	1008.18	1	41.076845	16.866987
1965	2024-03-22 20:00:00	16	carbonara	13.92	1	90.35	1	0.0	1	null	6	null	6	0.0	1	1008.3	1	41.076845	16.866987
1966	2024-03-22 21:00:00	16	carbonara	13.73	1	90.78	1	0.0	1	null	6	null	6	0.0	1	1008.38	1	41.076845	16.866987
1967	2024-03-22 22:00:00	16	carbonara	12.32	1	91.43	1	0.0	1	null	6	null	6	0.0	1	1008.56	1	41.076845	16.866987
1968	2024-03-22 23:00:00	16	carbonara	11.07	1	92.89	1	0.0	1	null	6	null	6	0.0	1	1008.58	1	41.076845	16.866987
1969	2024-03-23 00:00:00	16	carbonara	10.25	1	91.49	1	0.0	1	null	6	null	6	0.0	1	1008.58	1	41.076845	16.866987
1970	2024-03-23 01:00:00	16	carbonara	9.86	1	88.36	1	0.0	1	null	6	null	6	0.0	1	1008.6	1	41.076845	16.866987
1971	2024-03-23 02:00:00	16	carbonara	9.46	1	88.99	1	0.0	1	null	6	null	6	0.0	1	1008.34	1	41.076845	16.866987
1972	2024-03-23 03:00:00	16	carbonara	9.24	1	88.87	1	0.0	1	null	6	null	6	0.0	1	1008.02	1	41.076845	16.866987
1973	2024-03-23 04:00:00	16	carbonara	8.91	1	88.3	1	0.0	1	null	6	null	6	0.0	1	1007.79	1	41.076845	16.866987
1974	2024-03-23 05:00:00	16	carbonara	8.88	1	86.62	1	0.0	1	null	6	null	6	0.0	1	1007.63	1	41.076845	16.866987
1975	2024-03-23 06:00:00	16	carbonara	8.6	1	85.88	1	0.0	1	null	6	null	6	0.0	5	1007.55	1	41.076845	16.866987
1976	2024-03-23 07:00:00	16	carbonara	8.88	1	85.62	1	0.0	1	null	6	null	6	57.0	1	1007.62	1	41.076845	16.866987
1977	2024-03-23 08:00:00	16	carbonara	11.91	1	75.9	1	0.0	1	null	6	null	6	224.57	1	1007.69	1	41.076845	16.866987
1978	2024-03-23 09:00:00	16	carbonara	17.57	1	54.84	1	0.0	1	null	6	null	6	269.38	1	1007.63	1	41.076845	16.866987
1979	2024-03-23 10:00:00	16	carbonara	20.56	1	36.41	1	0.0	1	null	6	null	6	541.0	1	1007.57	1	41.076845	16.866987
1980	2024-03-23 11:00:00	16	carbonara	21.68	1	27.71	1	0.0	1	null	6	null	6	704.43	1	1007.16	1	41.076845	16.866987
1981	2024-03-23 12:00:00	16	carbonara	22.26	1	25.59	1	0.0	1	null	6	null	6	772.9	1	1006.6	1	41.076845	16.866987
1982	2024-03-23 13:00:00	16	carbonara	23.51	1	23.05	1	0.0	1	null	6	null	6	781.22	1	1005.79	1	41.076845	16.866987
1983	2024-03-23 14:00:00	16	carbonara	24.35	1	21.25	1	0.0	1	null	6	null	6	738.56	1	1004.76	1	41.076845	16.866987
1984	2024-03-23 15:00:00	16	carbonara	24.31	1	22.56	1	0.0	1	null	6	null	6	638.92	1	1003.82	1	41.076845	16.866987
1985	2024-03-23 16:00:00	16	carbonara	23.35	1	30.03	1	0.0	1	null	6	null	6	477.39	1	1003.16	1	41.076845	16.866987
1986	2024-03-23 17:00:00	16	carbonara	21.66	1	30.73	1	0.0	1	null	6	null	6	282.68	1	1003.0	1	41.076845	16.866987
1987	2024-03-23 18:00:00	16	carbonara	18.51	1	37.92	1	0.0	1	null	6	null	6	40.95	1	1003.29	1	41.076845	16.866987
1988	2024-03-23 19:00:00	16	carbonara	16.78	1	48.58	1	0.0	1	null	6	null	6	0.0	5	1003.49	1	41.076845	16.866987
1989	2024-03-23 20:00:00	16	carbonara	15.5	1	56.45	1	0.0	1	null	6	null	6	0.0	1	1003.74	1	41.076845	16.866987
1990	2024-03-23 21:00:00	16	carbonara	14.54	1	68.28	1	0.0	1	null	6	null	6	0.0	1	1003.7	1	41.076845	16.866987
1991	2024-03-23 22:00:00	16	carbonara	14.15	1	75.18	1	0.0	1	null	6	null	6	0.0	1	1003.29	1	41.076845	16.866987
1992	2024-03-23 23:00:00	16	carbonara	13.64	1	80.16	1	0.0	1	null	6	null	6	0.0	1	1002.82	1	41.076845	16.866987
1993	2024-03-24 00:00:00	16	carbonara	13.49	1	75.94	1	0.0	1	null	6	null	6	0.0	1	1002.35	1	41.076845	16.866987
1994	2024-03-24 01:00:00	16	carbonara	13.39	1	68.53	1	0.0	1	null	6	null	6	0.0	1	1001.94	1	41.076845	16.866987
1995	2024-03-24 02:00:00	16	carbonara	12.84	1	68.24	1	0.0	1	null	6	null	6	0.0	1	1001.66	1	41.076845	16.866987
1996	2024-03-24 03:00:00	16	carbonara	12.02	1	72.44	1	0.0	1	null	6	null	6	0.0	1	1001.37	1	41.076845	16.866987
1997	2024-03-24 04:00:00	16	carbonara	11.54	1	72.6	1	0.0	1	null	6	null	6	0.0	1	1000.94	1	41.076845	16.866987
1998	2024-03-24 05:00:00	16	carbonara	11.42	1	70.11	1	0.0	1	null	6	null	6	0.0	1	1000.41	1	41.076845	16.866987
1999	2024-03-24 06:00:00	16	carbonara	11.52	1	66.81	1	0.0	1	null	6	null	6	0.0	5	1000.02	1	41.076845	16.866987
2000	2024-03-24 07:00:00	16	carbonara	12.21	1	68.64	1	0.0	1	null	6	null	6	85.15	1	1000.23	1	41.076845	16.866987
2001	2024-03-24 08:00:00	16	carbonara	15.95	1	55.36	1	0.0	1	null	6	null	6	220.58	1	1000.19	1	41.076845	16.866987
2002	2024-03-24 09:00:00	16	carbonara	18.6	1	45.54	1	0.0	1	null	6	null	6	285.15	1	999.78	1	41.076845	16.866987
2003	2024-03-24 10:00:00	16	carbonara	20.67	1	39.0	1	0.0	1	null	6	null	6	485.59	1	999.96	1	41.076845	16.866987
2004	2024-03-24 11:00:00	16	carbonara	21.07	1	40.07	1	0.0	1	null	6	null	6	429.21	1	1000.21	1	41.076845	16.866987
2005	2024-03-24 12:00:00	16	carbonara	21.68	1	35.26	1	0.0	1	null	6	null	6	654.35	1	999.66	1	41.076845	16.866987
2006	2024-03-24 13:00:00	16	carbonara	22.62	1	31.43	1	0.0	1	null	6	null	6	653.86	1	998.58	1	41.076845	16.866987
2007	2024-03-24 14:00:00	16	carbonara	23.42	1	29.15	1	0.0	1	null	6	null	6	695.5	1	997.3	1	41.076845	16.866987
2008	2024-03-24 15:00:00	16	carbonara	24.02	1	25.43	1	0.0	1	null	6	null	6	678.01	1	996.33	1	41.076845	16.866987
2009	2024-03-24 16:00:00	16	carbonara	23.55	1	27.85	1	0.0	1	null	6	null	6	514.66	1	995.4	1	41.076845	16.866987
2010	2024-03-24 17:00:00	16	carbonara	22.12	1	32.21	1	0.0	1	null	6	null	6	282.8	1	995.02	1	41.076845	16.866987
2011	2024-03-24 18:00:00	16	carbonara	20.06	1	37.04	1	0.0	1	null	6	null	6	54.31	1	995.36	1	41.076845	16.866987
2012	2024-03-24 19:00:00	16	carbonara	18.02	1	44.4	1	0.0	1	null	6	null	6	0.0	5	995.61	1	41.076845	16.866987
2013	2024-03-24 20:00:00	16	carbonara	17.02	1	38.0	1	0.0	1	null	6	null	6	0.0	1	996.29	1	41.076845	16.866987
2014	2024-03-24 21:00:00	16	carbonara	15.25	1	63.69	1	0.0	1	null	6	null	6	0.0	1	997.16	1	41.076845	16.866987
2015	2024-03-24 22:00:00	16	carbonara	13.97	1	70.85	1	0.0	1	null	6	null	6	0.0	1	997.54	1	41.076845	16.866987
2016	2024-03-24 23:00:00	16	carbonara	13.46	1	74.44	1	0.0	1	null	6	null	6	0.0	1	997.65	1	41.076845	16.866987
2017	2024-03-25 00:00:00	16	carbonara	13.24	1	62.17	1	0.0	1	null	6	null	6	0.0	1	997.99	1	41.076845	16.866987
2018	2024-03-25 01:00:00	16	carbonara	12.73	1	62.31	1	0.0	1	null	6	null	6	0.0	1	998.0	1	41.076845	16.866987
2019	2024-03-25 02:00:00	16	carbonara	12.04	1	65.7	1	0.0	1	null	6	null	6	0.0	1	998.01	1	41.076845	16.866987
2020	2024-03-25 03:00:00	16	carbonara	10.99	1	73.65	1	0.0	1	null	6	null	6	0.0	1	997.72	1	41.076845	16.866987
2021	2024-03-25 04:00:00	16	carbonara	10.09	1	79.09	1	0.0	1	null	6	null	6	0.0	1	997.76	1	41.076845	16.866987
2022	2024-03-25 05:00:00	16	carbonara	10.03	1	76.23	1	0.0	1	null	6	null	6	0.0	1	997.99	1	41.076845	16.866987
2023	2024-03-25 06:00:00	16	carbonara	9.55	1	73.84	1	0.0	1	null	6	null	6	0.0	5	998.32	1	41.076845	16.866987
2024	2024-03-25 07:00:00	16	carbonara	9.99	1	68.26	1	0.0	1	null	6	null	6	67.85	1	999.01	1	41.076845	16.866987
2025	2024-03-25 08:00:00	16	carbonara	12.75	1	58.07	1	0.0	1	null	6	null	6	247.61	1	999.66	1	41.076845	16.866987
2026	2024-03-25 09:00:00	16	carbonara	14.79	1	52.31	1	0.0	1	null	6	null	6	291.39	1	1000.39	1	41.076845	16.866987
2027	2024-03-25 10:00:00	16	carbonara	16.68	1	45.04	1	0.0	1	null	6	null	6	596.74	1	1001.02	1	41.076845	16.866987
2028	2024-03-25 11:00:00	16	carbonara	17.57	1	42.06	1	0.0	1	null	6	null	6	746.4	1	1001.41	1	41.076845	16.866987
2029	2024-03-25 12:00:00	16	carbonara	18.09	1	43.21	1	0.0	1	null	6	null	6	817.86	1	1001.79	1	41.076845	16.866987
2030	2024-03-25 13:00:00	16	carbonara	18.79	1	36.91	1	0.0	1	null	6	null	6	831.18	1	1001.58	1	41.076845	16.866987
2031	2024-03-25 14:00:00	16	carbonara	18.71	1	32.89	1	0.0	1	null	6	null	6	550.77	1	1001.04	1	41.076845	16.866987
2032	2024-03-25 15:00:00	16	carbonara	17.77	1	36.55	1	0.0	1	null	6	null	6	577.11	1	1000.78	1	41.076845	16.866987
2033	2024-03-25 16:00:00	16	carbonara	17.64	1	35.91	1	0.0	1	null	6	null	6	422.68	1	1000.21	1	41.076845	16.866987
2034	2024-03-25 17:00:00	16	carbonara	15.46	1	48.81	1	0.0	1	null	6	null	6	137.94	1	1000.26	1	41.076845	16.866987
2035	2024-03-25 18:00:00	16	carbonara	14.57	1	46.62	1	0.0	1	null	6	null	6	35.36	1	1000.83	1	41.076845	16.866987
2036	2024-03-25 19:00:00	16	carbonara	13.89	1	45.46	1	0.0	1	null	6	null	6	0.0	5	1000.54	1	41.076845	16.866987
2037	2024-03-25 20:00:00	16	carbonara	13.7	1	46.67	1	0.0	1	null	6	null	6	0.0	1	1000.77	1	41.076845	16.866987
2038	2024-03-25 21:00:00	16	carbonara	13.49	1	48.35	1	0.0	1	null	6	null	6	0.0	1	1001.0	1	41.076845	16.866987
2039	2024-03-25 22:00:00	16	carbonara	13.2	1	49.76	1	0.0	1	null	6	null	6	0.0	1	1000.89	1	41.076845	16.866987
2040	2024-03-25 23:00:00	16	carbonara	13.1	1	45.79	1	0.0	1	null	6	null	6	0.0	1	1000.99	1	41.076845	16.866987
2041	2024-03-26 00:00:00	16	carbonara	12.57	1	41.81	1	0.0	1	null	6	null	6	0.0	1	1000.73	1	41.076845	16.866987
2042	2024-03-26 01:00:00	16	carbonara	12.75	1	32.18	1	0.0	1	null	6	null	6	0.0	1	1000.11	1	41.076845	16.866987
2043	2024-03-26 02:00:00	16	carbonara	12.99	1	41.88	1	0.0	1	null	6	null	6	0.0	1	999.69	1	41.076845	16.866987
2044	2024-03-26 03:00:00	16	carbonara	12.79	1	56.1	1	0.0	1	null	6	null	6	0.0	1	998.73	1	41.076845	16.866987
2045	2024-03-26 04:00:00	16	carbonara	12.95	1	66.81	1	0.0	1	null	6	null	6	0.0	1	997.76	1	41.076845	16.866987
2046	2024-03-26 05:00:00	16	carbonara	13.08	1	72.49	1	0.0	1	null	6	null	6	0.0	1	997.21	1	41.076845	16.866987
2047	2024-03-26 06:00:00	16	carbonara	13.33	1	75.05	1	0.2	1	null	6	null	6	0.0	1	997.53	1	41.076845	16.866987
2048	2024-03-26 07:00:00	16	carbonara	12.39	1	83.14	1	0.2	1	null	6	null	6	0.0	5	997.25	1	41.076845	16.866987
2049	2024-03-26 08:00:00	16	carbonara	11.65	1	85.75	1	0.4	1	null	6	null	6	19.53	1	997.05	1	41.076845	16.866987
2050	2024-03-26 09:00:00	16	carbonara	12.13	1	91.19	1	0.4	1	null	6	null	6	36.33	1	996.93	1	41.076845	16.866987
2051	2024-03-26 10:00:00	16	carbonara	12.73	1	94.61	1	0.4	1	null	6	null	6	78.37	1	996.12	1	41.076845	16.866987
2052	2024-03-26 11:00:00	16	carbonara	13.5	1	93.1	1	0.4	1	null	6	null	6	76.14	1	995.3	1	41.076845	16.866987
2053	2024-03-26 12:00:00	16	carbonara	13.5	1	91.0	1	0.6	1	null	6	null	6	53.71	1	994.39	1	41.076845	16.866987
2054	2024-03-26 13:00:00	16	carbonara	13.31	1	92.79	1	0.4	1	null	6	null	6	60.97	1	993.38	1	41.076845	16.866987
2055	2024-03-26 14:00:00	16	carbonara	15.4	1	86.38	1	0.6	1	null	6	null	6	97.28	1	991.98	1	41.076845	16.866987
2056	2024-03-26 15:00:00	16	carbonara	16.79	1	80.44	1	0.4	1	null	6	null	6	136.85	1	990.54	1	41.076845	16.866987
2057	2024-03-26 16:00:00	16	carbonara	17.07	1	82.3	1	0.4	1	null	6	null	6	60.52	1	990.03	1	41.076845	16.866987
2058	2024-03-26 17:00:00	16	carbonara	16.56	1	85.4	1	0.4	1	null	6	null	6	38.76	1	989.8	1	41.076845	16.866987
2059	2024-03-26 18:00:00	16	carbonara	16.05	1	89.62	1	0.8	1	null	6	null	6	15.65	1	988.63	1	41.076845	16.866987
2060	2024-03-26 19:00:00	16	carbonara	15.62	1	92.16	1	0.4	1	null	6	null	6	0.0	5	988.99	1	41.076845	16.866987
2061	2024-03-26 20:00:00	16	carbonara	15.61	1	90.07	1	0.0	1	null	6	null	6	0.0	1	989.95	1	41.076845	16.866987
2062	2024-03-26 21:00:00	16	carbonara	15.38	1	90.02	1	0.0	1	null	6	null	6	0.0	1	990.71	1	41.076845	16.866987
2063	2024-03-26 22:00:00	16	carbonara	14.85	1	89.82	1	0.0	1	null	6	null	6	0.0	1	991.04	1	41.076845	16.866987
2064	2024-03-26 23:00:00	16	carbonara	14.22	1	89.49	1	0.0	1	null	6	null	6	0.0	1	991.24	1	41.076845	16.866987
2065	2024-03-27 00:00:00	16	carbonara	13.88	1	89.41	1	0.0	1	null	6	null	6	0.0	1	991.44	1	41.076845	16.866987
2066	2024-03-27 01:00:00	16	carbonara	13.57	1	91.22	1	0.0	1	null	6	null	6	0.0	1	991.39	1	41.076845	16.866987
2067	2024-03-27 02:00:00	16	carbonara	13.26	1	92.66	1	0.0	1	null	6	null	6	0.0	1	991.25	1	41.076845	16.866987
2068	2024-03-27 03:00:00	16	carbonara	13.29	1	91.29	1	0.0	1	null	6	null	6	0.0	1	991.01	1	41.076845	16.866987
2069	2024-03-27 04:00:00	16	carbonara	13.16	1	93.86	1	0.0	1	null	6	null	6	0.0	1	991.09	1	41.076845	16.866987
2070	2024-03-27 05:00:00	16	carbonara	13.65	1	96.51	1	0.0	1	null	6	null	6	0.0	1	990.96	1	41.076845	16.866987
2071	2024-03-27 06:00:00	16	carbonara	14.06	1	95.41	1	0.0	1	null	6	null	6	0.0	5	991.14	1	41.076845	16.866987
2072	2024-03-27 07:00:00	16	carbonara	14.55	1	92.26	1	0.0	1	null	6	null	6	43.1	1	991.03	1	41.076845	16.866987
2073	2024-03-27 08:00:00	16	carbonara	15.48	1	89.67	1	0.0	1	null	6	null	6	151.83	1	990.64	1	41.076845	16.866987
2074	2024-03-27 09:00:00	16	carbonara	17.3	1	82.58	1	0.0	1	null	6	null	6	334.22	1	990.38	1	41.076845	16.866987
2075	2024-03-27 10:00:00	16	carbonara	19.63	1	73.01	1	0.0	1	null	6	null	6	489.08	1	990.32	1	41.076845	16.866987
2076	2024-03-27 11:00:00	16	carbonara	20.52	1	68.63	1	0.0	1	null	6	null	6	531.8	1	990.24	1	41.076845	16.866987
2077	2024-03-27 12:00:00	16	carbonara	20.25	1	68.5	1	0.0	1	null	6	null	6	508.68	1	989.83	1	41.076845	16.866987
2078	2024-03-27 13:00:00	16	carbonara	20.27	1	67.76	1	0.0	1	null	6	null	6	541.22	1	988.86	1	41.076845	16.866987
2079	2024-03-27 14:00:00	16	carbonara	20.9	1	63.09	1	0.0	1	null	6	null	6	587.76	1	988.09	1	41.076845	16.866987
2080	2024-03-27 15:00:00	16	carbonara	21.15	1	63.01	1	0.0	1	null	6	null	6	470.44	1	987.84	1	41.076845	16.866987
2081	2024-03-27 16:00:00	16	carbonara	20.69	1	64.22	1	0.0	1	null	6	null	6	193.58	1	986.59	1	41.076845	16.866987
2082	2024-03-27 17:00:00	16	carbonara	20.23	1	64.32	1	0.0	1	null	6	null	6	152.25	1	985.63	1	41.076845	16.866987
2083	2024-03-27 18:00:00	16	carbonara	19.83	1	67.12	1	0.0	1	null	6	null	6	78.98	1	986.32	1	41.076845	16.866987
2084	2024-03-27 19:00:00	16	carbonara	16.54	1	71.59	1	0.2	1	null	6	null	6	0.0	5	989.12	1	41.076845	16.866987
2085	2024-03-27 20:00:00	16	carbonara	13.8	1	70.84	1	0.2	1	null	6	null	6	0.0	1	990.81	1	41.076845	16.866987
2086	2024-03-27 21:00:00	16	carbonara	13.5	1	73.37	1	0.0	1	null	6	null	6	0.0	1	991.39	1	41.076845	16.866987
2087	2024-03-27 22:00:00	16	carbonara	13.91	1	60.49	1	0.2	1	null	6	null	6	0.0	1	992.08	1	41.076845	16.866987
2088	2024-03-27 23:00:00	16	carbonara	13.88	1	58.61	1	0.2	1	null	6	null	6	0.0	1	993.11	1	41.076845	16.866987
2089	2024-03-28 00:00:00	16	carbonara	13.12	1	60.93	1	0.0	1	null	6	null	6	0.0	1	994.15	1	41.076845	16.866987
2090	2024-03-28 01:00:00	16	carbonara	12.25	1	62.52	1	0.0	1	null	6	null	6	0.0	1	995.64	1	41.076845	16.866987
2091	2024-03-28 02:00:00	16	carbonara	12.17	1	60.59	1	0.0	1	null	6	null	6	0.0	1	996.45	1	41.076845	16.866987
2092	2024-03-28 03:00:00	16	carbonara	11.81	1	60.47	1	0.0	1	null	6	null	6	0.0	1	996.77	1	41.076845	16.866987
2093	2024-03-28 04:00:00	16	carbonara	10.54	1	66.38	1	0.0	1	null	6	null	6	0.0	1	997.64	1	41.076845	16.866987
2094	2024-03-28 05:00:00	16	carbonara	10.43	1	66.82	1	0.0	1	null	6	null	6	0.0	1	998.54	1	41.076845	16.866987
2095	2024-03-28 06:00:00	16	carbonara	10.48	1	64.27	1	0.0	1	null	6	null	6	0.0	5	999.44	1	41.076845	16.866987
2096	2024-03-28 07:00:00	16	carbonara	11.16	1	65.6	1	0.0	1	null	6	null	6	84.81	1	1000.28	1	41.076845	16.866987
2097	2024-03-28 08:00:00	16	carbonara	14.08	1	58.36	1	0.0	1	null	6	null	6	276.65	1	1000.32	1	41.076845	16.866987
2098	2024-03-28 09:00:00	16	carbonara	17.84	1	39.93	1	0.0	1	null	6	null	6	331.8	1	1000.74	1	41.076845	16.866987
2099	2024-03-28 10:00:00	16	carbonara	19.01	1	37.51	1	0.0	1	null	6	null	6	599.06	1	1002.2	1	41.076845	16.866987
2100	2024-03-28 11:00:00	16	carbonara	20.46	1	36.68	1	0.0	1	null	6	null	6	743.36	1	1002.51	1	41.076845	16.866987
2101	2024-03-28 12:00:00	16	carbonara	21.66	1	35.77	1	0.0	1	null	6	null	6	757.1	1	1002.65	1	41.076845	16.866987
2102	2024-03-28 13:00:00	16	carbonara	22.64	1	34.0	1	0.0	1	null	6	null	6	764.74	1	1002.61	1	41.076845	16.866987
2103	2024-03-28 14:00:00	16	carbonara	23.9	1	31.51	1	0.0	1	null	6	null	6	622.82	1	1002.44	1	41.076845	16.866987
2104	2024-03-28 15:00:00	16	carbonara	24.0	1	31.4	1	0.0	1	null	6	null	6	665.11	1	1002.51	1	41.076845	16.866987
2105	2024-03-28 16:00:00	16	carbonara	22.75	1	33.33	1	0.0	1	null	6	null	6	184.0	1	1002.83	1	41.076845	16.866987
2106	2024-03-28 17:00:00	16	carbonara	22.15	1	35.15	1	0.0	1	null	6	null	6	181.07	1	1003.2	1	41.076845	16.866987
2107	2024-03-28 18:00:00	16	carbonara	20.22	1	40.35	1	0.0	1	null	6	null	6	36.27	1	1004.04	1	41.076845	16.866987
2108	2024-03-28 19:00:00	16	carbonara	18.9	1	45.34	1	0.0	1	null	6	null	6	0.0	5	1004.56	1	41.076845	16.866987
2109	2024-03-28 20:00:00	16	carbonara	18.08	1	48.0	1	0.0	1	null	6	null	6	0.0	1	1004.89	1	41.076845	16.866987
2110	2024-03-28 21:00:00	16	carbonara	16.76	1	52.43	1	0.0	1	null	6	null	6	0.0	1	1005.62	1	41.076845	16.866987
2111	2024-03-28 22:00:00	16	carbonara	16.32	1	52.26	1	0.0	1	null	6	null	6	0.0	1	1005.7	1	41.076845	16.866987
2112	2024-03-28 23:00:00	16	carbonara	15.43	1	55.65	1	0.0	1	null	6	null	6	0.0	1	1005.63	1	41.076845	16.866987
2113	2024-03-29 00:00:00	16	carbonara	15.05	1	55.5	1	0.0	1	null	6	null	6	0.0	1	1005.72	1	41.076845	16.866987
2114	2024-03-29 01:00:00	16	carbonara	14.77	1	55.83	1	0.0	1	null	6	null	6	0.0	1	1006.39	1	41.076845	16.866987
2115	2024-03-29 02:00:00	16	carbonara	14.2	1	58.13	1	0.0	1	null	6	null	6	0.0	1	1006.61	1	41.076845	16.866987
2116	2024-03-29 03:00:00	16	carbonara	14.0	1	57.04	1	0.0	1	null	6	null	6	0.0	1	1006.54	1	41.076845	16.866987
2117	2024-03-29 04:00:00	16	carbonara	13.61	1	62.62	1	0.0	1	null	6	null	6	0.0	1	1006.6	1	41.076845	16.866987
2118	2024-03-29 05:00:00	16	carbonara	13.76	1	71.07	1	0.0	1	null	6	null	6	0.0	1	1007.14	1	41.076845	16.866987
2119	2024-03-29 06:00:00	16	carbonara	13.39	1	78.16	1	0.0	1	null	6	null	6	0.0	5	1007.78	1	41.076845	16.866987
2120	2024-03-29 07:00:00	16	carbonara	14.36	1	73.72	1	0.0	1	null	6	null	6	80.63	1	1008.19	1	41.076845	16.866987
2121	2024-03-29 08:00:00	16	carbonara	16.98	1	61.42	1	0.0	1	null	6	null	6	215.49	1	1008.34	1	41.076845	16.866987
2122	2024-03-29 09:00:00	16	carbonara	19.46	1	50.98	1	0.0	1	null	6	null	6	401.25	1	1008.56	1	41.076845	16.866987
2123	2024-03-29 10:00:00	16	carbonara	23.35	1	35.56	1	0.0	1	null	6	null	6	593.15	1	1008.61	1	41.076845	16.866987
2124	2024-03-29 11:00:00	16	carbonara	24.26	1	33.66	1	0.0	1	null	6	null	6	504.23	1	1008.19	1	41.076845	16.866987
2125	2024-03-29 12:00:00	16	carbonara	24.24	1	34.21	1	0.0	1	null	6	null	6	722.84	1	1007.86	1	41.076845	16.866987
2126	2024-03-29 13:00:00	16	carbonara	25.9	1	30.43	1	0.0	1	null	6	null	6	782.22	1	1007.21	1	41.076845	16.866987
2127	2024-03-29 14:00:00	16	carbonara	26.0	1	33.4	1	0.0	1	null	6	null	6	741.54	1	1006.34	1	41.076845	16.866987
2128	2024-03-29 15:00:00	16	carbonara	25.83	1	36.15	1	0.0	1	null	6	null	6	653.18	1	1005.6	1	41.076845	16.866987
2129	2024-03-29 16:00:00	16	carbonara	25.5	1	32.2	1	0.0	1	null	6	null	6	513.57	1	1005.13	1	41.076845	16.866987
2130	2024-03-29 17:00:00	16	carbonara	24.18	1	32.09	1	0.0	1	null	6	null	6	321.59	1	1005.23	1	41.076845	16.866987
2131	2024-03-29 18:00:00	16	carbonara	21.81	1	36.14	1	0.0	1	null	6	null	6	78.16	1	1005.64	1	41.076845	16.866987
2132	2024-03-29 19:00:00	16	carbonara	18.99	1	48.16	1	0.0	1	null	6	null	6	0.0	5	1006.05	1	41.076845	16.866987
2133	2024-03-29 20:00:00	16	carbonara	17.36	1	54.81	1	0.0	1	null	6	null	6	0.0	1	1006.08	1	41.076845	16.866987
2134	2024-03-29 21:00:00	16	carbonara	16.64	1	60.31	1	0.0	1	null	6	null	6	0.0	1	1005.82	1	41.076845	16.866987
2135	2024-03-29 22:00:00	16	carbonara	16.14	1	62.65	1	0.0	1	null	6	null	6	0.0	1	1005.17	1	41.076845	16.866987
2136	2024-03-29 23:00:00	16	carbonara	15.87	1	61.59	1	0.0	1	null	6	null	6	0.0	1	1005.21	1	41.076845	16.866987
2137	2024-03-30 00:00:00	16	carbonara	15.44	1	68.7	1	0.0	1	null	6	null	6	0.0	1	1004.9	1	41.076845	16.866987
2138	2024-03-30 01:00:00	16	carbonara	14.96	1	69.98	1	0.0	1	null	6	null	6	0.0	1	1005.12	1	41.076845	16.866987
2139	2024-03-30 02:00:00	16	carbonara	14.38	1	74.28	1	0.0	1	null	6	null	6	0.0	1	1004.88	1	41.076845	16.866987
2140	2024-03-30 03:00:00	16	carbonara	13.73	1	84.26	1	0.0	1	null	6	null	6	0.0	1	1004.56	1	41.076845	16.866987
2141	2024-03-30 04:00:00	16	carbonara	13.01	1	89.77	1	0.0	1	null	6	null	6	0.0	1	1004.27	1	41.076845	16.866987
2142	2024-03-30 05:00:00	16	carbonara	13.02	1	90.42	1	0.0	1	null	6	null	6	0.0	1	1003.95	1	41.076845	16.866987
2143	2024-03-30 06:00:00	16	carbonara	14.52	1	87.68	1	0.0	1	null	6	null	6	0.0	5	1003.56	1	41.076845	16.866987
2144	2024-03-30 07:00:00	16	carbonara	15.36	1	80.58	1	0.0	1	null	6	null	6	79.38	1	1003.5	1	41.076845	16.866987
2145	2024-03-30 08:00:00	16	carbonara	16.98	1	71.14	1	0.0	1	null	6	null	6	247.7	1	1003.61	1	41.076845	16.866987
2146	2024-03-30 09:00:00	16	carbonara	18.73	1	59.89	1	0.0	1	null	6	null	6	434.8	1	1003.64	1	41.076845	16.866987
2147	2024-03-30 10:00:00	16	carbonara	19.8	1	53.91	1	0.0	1	null	6	null	6	610.41	1	1003.73	1	41.076845	16.866987
2148	2024-03-30 11:00:00	16	carbonara	20.66	1	47.57	1	0.0	1	null	6	null	6	708.1	1	1003.18	1	41.076845	16.866987
2149	2024-03-30 12:00:00	16	carbonara	21.58	1	43.09	1	0.0	1	null	6	null	6	728.9	1	1002.62	1	41.076845	16.866987
2150	2024-03-30 13:00:00	16	carbonara	21.5	1	40.66	1	0.0	1	null	6	null	6	662.15	1	1001.42	1	41.076845	16.866987
2151	2024-03-30 14:00:00	16	carbonara	21.84	1	37.64	1	0.0	1	null	6	null	6	605.21	1	1000.81	1	41.076845	16.866987
2152	2024-03-30 15:00:00	16	carbonara	21.65	1	35.12	1	0.0	1	null	6	null	6	491.32	1	1000.73	1	41.076845	16.866987
2153	2024-03-30 16:00:00	16	carbonara	20.85	1	33.92	1	0.0	1	null	6	null	6	350.33	1	1000.28	1	41.076845	16.866987
2154	2024-03-30 17:00:00	16	carbonara	20.11	1	32.79	1	0.0	1	null	6	null	6	195.93	1	1000.29	1	41.076845	16.866987
2155	2024-03-30 18:00:00	16	carbonara	19.08	1	36.68	1	0.0	1	null	6	null	6	63.44	1	1000.54	1	41.076845	16.866987
2156	2024-03-30 19:00:00	16	carbonara	18.23	1	40.1	1	0.0	1	null	6	null	6	0.0	5	1000.65	1	41.076845	16.866987
2157	2024-03-30 20:00:00	16	carbonara	17.76	1	42.91	1	0.0	1	null	6	null	6	0.0	1	1001.55	1	41.076845	16.866987
2158	2024-03-30 21:00:00	16	carbonara	17.39	1	46.49	1	0.0	1	null	6	null	6	0.0	1	1001.75	1	41.076845	16.866987
2159	2024-03-30 22:00:00	16	carbonara	17.02	1	53.56	1	0.0	1	null	6	null	6	0.0	1	1001.6	1	41.076845	16.866987
2160	2024-03-30 23:00:00	16	carbonara	17.05	1	55.95	1	0.0	1	null	6	null	6	0.0	1	1001.67	1	41.076845	16.866987
2161	2024-03-31 00:00:00	16	carbonara	17.39	1	53.46	1	0.0	1	null	6	null	6	0.0	1	1001.57	1	41.076845	16.866987
2162	2024-03-31 01:00:00	16	carbonara	17.43	1	57.01	1	0.0	1	null	6	null	6	0.0	1	1001.31	1	41.076845	16.866987
2163	2024-03-31 03:00:00	16	carbonara	17.62	1	55.16	1	0.0	1	null	6	null	6	0.0	1	1000.92	1	41.076845	16.866987
2164	2024-03-31 03:00:00	16	carbonara	17.4	1	59.9	1	0.0	1	null	6	null	6	0.0	1	1000.95	1	41.076845	16.866987
2165	2024-03-31 04:00:00	16	carbonara	16.6	1	73.81	1	0.0	1	null	6	null	6	0.0	1	1000.92	1	41.076845	16.866987
2166	2024-03-31 05:00:00	16	carbonara	16.54	1	76.2	1	0.0	1	null	6	null	6	0.0	1	1000.84	1	41.076845	16.866987
2167	2024-03-31 06:00:00	16	carbonara	16.55	1	77.07	1	0.0	1	null	6	null	6	0.0	5	1001.39	1	41.076845	16.866987
2168	2024-03-31 07:00:00	16	carbonara	16.63	1	77.67	1	0.0	1	null	6	null	6	30.87	1	1001.47	1	41.076845	16.866987
2169	2024-03-31 08:00:00	16	carbonara	17.26	1	74.7	1	0.0	1	null	6	null	6	153.91	1	1001.99	1	41.076845	16.866987
2170	2024-03-31 09:00:00	16	carbonara	18.66	1	67.59	1	0.0	1	null	6	null	6	347.59	1	1002.28	1	41.076845	16.866987
2171	2024-03-31 10:00:00	16	carbonara	19.67	1	62.77	1	0.0	1	null	6	null	6	487.45	1	1002.69	1	41.076845	16.866987
2172	2024-03-31 11:00:00	16	carbonara	20.22	1	60.35	1	0.0	1	null	6	null	6	504.41	1	1002.78	1	41.076845	16.866987
2173	2024-03-31 12:00:00	16	carbonara	20.22	1	60.49	1	0.0	1	null	6	null	6	500.4	1	1003.07	1	41.076845	16.866987
2174	2024-03-31 13:00:00	16	carbonara	20.1	1	61.81	1	0.0	1	null	6	null	6	365.04	1	1003.03	1	41.076845	16.866987
2175	2024-03-31 14:00:00	16	carbonara	19.82	1	64.32	1	0.0	1	null	6	null	6	290.23	1	1002.18	1	41.076845	16.866987
2176	2024-03-31 15:00:00	16	carbonara	20.82	1	62.16	1	0.0	1	null	6	null	6	476.22	1	1001.78	1	41.076845	16.866987
2177	2024-03-31 16:00:00	16	carbonara	20.49	1	64.97	1	0.0	1	null	6	null	6	382.44	1	1002.1	1	41.076845	16.866987
2178	2024-03-31 17:00:00	16	carbonara	19.35	1	70.28	1	0.0	1	null	6	null	6	148.15	1	1002.03	1	41.076845	16.866987
2179	2024-03-31 18:00:00	16	carbonara	18.5	1	74.64	1	0.0	1	null	6	null	6	27.29	1	1002.2	1	41.076845	16.866987
2180	2024-03-31 19:00:00	16	carbonara	18.13	1	76.97	1	0.0	1	null	6	null	6	0.0	5	1002.76	1	41.076845	16.866987
2181	2024-03-31 20:00:00	16	carbonara	17.85	1	78.79	1	0.0	1	null	6	null	6	0.0	1	1003.44	1	41.076845	16.866987
2182	2024-03-31 21:00:00	16	carbonara	17.51	1	80.01	1	0.0	1	null	6	null	6	0.0	1	1004.11	1	41.076845	16.866987
2183	2024-03-31 22:00:00	16	carbonara	17.07	1	82.21	1	0.0	1	null	6	null	6	0.0	1	1004.12	1	41.076845	16.866987
2184	2024-03-31 23:00:00	16	carbonara	16.9	1	83.4	1	0.0	1	null	6	null	6	0.0	1	1003.89	1	41.076845	16.866987
2185	2024-04-01 00:00:00	16	carbonara	16.77	1	84.76	1	0.0	1	null	6	null	6	0.0	1	1003.83	1	41.076845	16.866987
2186	2024-04-01 01:00:00	16	carbonara	16.45	1	86.17	1	0.0	1	null	6	null	6	0.0	1	1003.74	1	41.076845	16.866987
2187	2024-04-01 02:00:00	16	carbonara	16.22	1	86.62	1	0.0	1	null	6	null	6	0.0	1	1003.3	1	41.076845	16.866987
2188	2024-04-01 03:00:00	16	carbonara	16.2	1	86.11	1	0.0	1	null	6	null	6	0.0	1	1002.63	1	41.076845	16.866987
2189	2024-04-01 04:00:00	16	carbonara	16.23	1	85.56	1	0.0	1	null	6	null	6	0.0	1	1002.26	1	41.076845	16.866987
2190	2024-04-01 05:00:00	16	carbonara	16.14	1	85.89	1	0.0	1	null	6	null	6	0.0	1	1002.42	1	41.076845	16.866987
2191	2024-04-01 06:00:00	16	carbonara	16.19	1	85.01	1	0.0	1	null	6	null	6	0.0	5	1002.11	1	41.076845	16.866987
2192	2024-04-01 07:00:00	16	carbonara	16.74	1	81.37	1	0.0	1	null	6	null	6	74.33	1	1002.24	1	41.076845	16.866987
2193	2024-04-01 08:00:00	16	carbonara	17.51	1	77.84	1	0.0	1	null	6	null	6	207.95	1	1002.24	1	41.076845	16.866987
2194	2024-04-01 09:00:00	16	carbonara	18.43	1	74.46	1	0.0	1	null	6	null	6	395.1	1	1002.34	1	41.076845	16.866987
2195	2024-04-01 10:00:00	16	carbonara	19.59	1	69.01	1	0.0	1	null	6	null	6	589.0	1	1002.23	1	41.076845	16.866987
2196	2024-04-01 11:00:00	16	carbonara	20.52	1	65.22	1	0.0	1	null	6	null	6	649.68	1	1002.46	1	41.076845	16.866987
2197	2024-04-01 12:00:00	16	carbonara	20.98	1	62.9	1	0.0	1	null	6	null	6	572.31	1	1001.88	1	41.076845	16.866987
2198	2024-04-01 13:00:00	16	carbonara	21.25	1	61.6	1	0.0	1	null	6	null	6	363.63	1	1001.4	1	41.076845	16.866987
2199	2024-04-01 14:00:00	16	carbonara	21.99	1	59.67	1	0.0	1	null	6	null	6	585.47	1	1000.15	1	41.076845	16.866987
2200	2024-04-01 15:00:00	16	carbonara	23.08	1	55.05	1	0.0	1	null	6	null	6	577.24	1	999.66	1	41.076845	16.866987
2201	2024-04-01 16:00:00	16	carbonara	22.91	1	55.92	1	0.0	1	null	6	null	6	412.43	1	999.01	1	41.076845	16.866987
2202	2024-04-01 17:00:00	16	carbonara	22.4	1	58.5	1	0.0	1	null	6	null	6	269.31	1	998.38	1	41.076845	16.866987
2203	2024-04-01 18:00:00	16	carbonara	20.59	1	64.83	1	0.0	1	null	6	null	6	78.64	1	998.1	1	41.076845	16.866987
2204	2024-04-01 19:00:00	16	carbonara	19.01	1	70.81	1	0.0	1	null	6	null	6	0.0	5	997.6	1	41.076845	16.866987
2205	2024-04-01 20:00:00	16	carbonara	18.14	1	75.32	1	0.0	1	null	6	null	6	0.0	1	998.74	1	41.076845	16.866987
2206	2024-04-01 21:00:00	16	carbonara	17.37	1	80.38	1	0.0	1	null	6	null	6	0.0	1	1000.74	1	41.076845	16.866987
2207	2024-04-01 22:00:00	16	carbonara	17.52	1	62.84	1	0.0	1	null	6	null	6	0.0	1	1002.6	1	41.076845	16.866987
2208	2024-04-01 23:00:00	16	carbonara	17.0	1	48.62	1	0.0	1	null	6	null	6	0.0	1	1003.66	1	41.076845	16.866987
2209	2024-04-02 00:00:00	16	carbonara	16.72	1	49.41	1	0.0	1	null	6	null	6	0.0	1	1003.53	1	41.076845	16.866987
2210	2024-04-02 01:00:00	16	carbonara	17.72	1	44.62	1	0.0	1	null	6	null	6	0.0	1	1003.26	1	41.076845	16.866987
2211	2024-04-02 02:00:00	16	carbonara	17.08	1	48.73	1	0.0	1	null	6	null	6	0.0	1	1004.69	1	41.076845	16.866987
2212	2024-04-02 03:00:00	16	carbonara	15.33	1	57.54	1	0.0	1	null	6	null	6	0.0	1	1006.03	1	41.076845	16.866987
2213	2024-04-02 04:00:00	16	carbonara	13.8	1	63.29	1	0.0	1	null	6	null	6	0.0	1	1006.46	1	41.076845	16.866987
2214	2024-04-02 05:00:00	16	carbonara	13.08	1	66.54	1	0.0	1	null	6	null	6	0.0	1	1007.21	1	41.076845	16.866987
2215	2024-04-02 06:00:00	16	carbonara	12.76	1	68.76	1	0.0	1	null	6	null	6	0.0	5	1007.3	1	41.076845	16.866987
2216	2024-04-02 07:00:00	16	carbonara	12.77	1	67.94	1	0.0	1	null	6	null	6	57.98	1	1007.42	1	41.076845	16.866987
2217	2024-04-02 08:00:00	16	carbonara	14.62	1	58.78	1	0.0	1	null	6	null	6	181.33	1	1007.6	1	41.076845	16.866987
2218	2024-04-02 09:00:00	16	carbonara	17.68	1	46.95	1	0.0	1	null	6	null	6	398.82	1	1007.78	1	41.076845	16.866987
2219	2024-04-02 10:00:00	16	carbonara	19.07	1	41.0	1	0.0	1	null	6	null	6	541.17	1	1008.08	1	41.076845	16.866987
2220	2024-04-02 11:00:00	16	carbonara	20.57	1	32.01	1	0.0	1	null	6	null	6	778.13	1	1007.9	1	41.076845	16.866987
2221	2024-04-02 12:00:00	16	carbonara	21.55	1	30.16	1	0.0	1	null	6	null	6	769.36	1	1007.58	1	41.076845	16.866987
2222	2024-04-02 13:00:00	16	carbonara	21.12	1	34.86	1	0.0	1	null	6	null	6	803.86	1	1007.16	1	41.076845	16.866987
2223	2024-04-02 14:00:00	16	carbonara	21.44	1	35.64	1	0.0	1	null	6	null	6	743.02	1	1007.07	1	41.076845	16.866987
2224	2024-04-02 15:00:00	16	carbonara	21.18	1	36.58	1	0.0	1	null	6	null	6	591.47	1	1006.88	1	41.076845	16.866987
2225	2024-04-02 16:00:00	16	carbonara	21.84	1	34.67	1	0.0	1	null	6	null	6	386.56	1	1006.78	1	41.076845	16.866987
2226	2024-04-02 17:00:00	16	carbonara	20.11	1	38.64	1	0.0	1	null	6	null	6	236.32	1	1007.24	1	41.076845	16.866987
2227	2024-04-02 18:00:00	16	carbonara	18.47	1	45.64	1	0.0	1	null	6	null	6	44.82	1	1007.5	1	41.076845	16.866987
2228	2024-04-02 19:00:00	16	carbonara	17.19	1	48.9	1	0.0	1	null	6	null	6	0.0	5	1008.07	1	41.076845	16.866987
2229	2024-04-02 20:00:00	16	carbonara	16.42	1	51.82	1	0.0	1	null	6	null	6	0.0	1	1008.76	1	41.076845	16.866987
2230	2024-04-02 21:00:00	16	carbonara	14.8	1	61.43	1	0.0	1	null	6	null	6	0.0	1	1009.29	1	41.076845	16.866987
2231	2024-04-02 22:00:00	16	carbonara	13.69	1	58.51	1	0.0	1	null	6	null	6	0.0	1	1009.52	1	41.076845	16.866987
2232	2024-04-02 23:00:00	16	carbonara	12.73	1	63.48	1	0.0	1	null	6	null	6	0.0	1	1009.89	1	41.076845	16.866987
2233	2024-04-03 00:00:00	16	carbonara	12.54	1	63.7	1	0.0	1	null	6	null	6	0.0	1	1010.09	1	41.076845	16.866987
2234	2024-04-03 01:00:00	16	carbonara	12.52	1	62.42	1	0.0	1	null	6	null	6	0.0	1	1010.05	1	41.076845	16.866987
2235	2024-04-03 02:00:00	16	carbonara	10.9	1	71.32	1	0.0	1	null	6	null	6	0.0	1	1009.91	1	41.076845	16.866987
2236	2024-04-03 03:00:00	16	carbonara	10.26	1	73.8	1	0.0	1	null	6	null	6	0.0	1	1009.64	1	41.076845	16.866987
2237	2024-04-03 04:00:00	16	carbonara	9.85	1	74.33	1	0.0	1	null	6	null	6	0.0	1	1009.29	1	41.076845	16.866987
2238	2024-04-03 05:00:00	16	carbonara	9.94	1	72.23	1	0.0	1	null	6	null	6	0.0	1	1009.07	1	41.076845	16.866987
2239	2024-04-03 06:00:00	16	carbonara	10.33	1	70.27	1	0.0	1	null	6	null	6	0.0	5	1008.93	1	41.076845	16.866987
2240	2024-04-03 07:00:00	16	carbonara	11.18	1	69.63	1	0.0	1	null	6	null	6	103.88	1	1009.18	1	41.076845	16.866987
2241	2024-04-03 08:00:00	16	carbonara	14.78	1	59.3	1	0.0	1	null	6	null	6	240.3	1	1009.2	1	41.076845	16.866987
2242	2024-04-03 09:00:00	16	carbonara	19.24	1	45.89	1	0.0	1	null	6	null	6	492.43	1	1009.35	1	41.076845	16.866987
2243	2024-04-03 10:00:00	16	carbonara	20.56	1	38.04	1	0.0	1	null	6	null	6	630.28	1	1009.36	1	41.076845	16.866987
2244	2024-04-03 11:00:00	16	carbonara	19.92	1	39.6	1	0.0	1	null	6	null	6	707.27	1	1009.19	1	41.076845	16.866987
2245	2024-04-03 12:00:00	16	carbonara	19.79	1	40.62	1	0.0	1	null	6	null	6	719.89	1	1009.07	1	41.076845	16.866987
2246	2024-04-03 13:00:00	16	carbonara	19.26	1	47.52	1	0.0	1	null	6	null	6	447.04	1	1008.83	1	41.076845	16.866987
2247	2024-04-03 14:00:00	16	carbonara	18.76	1	56.6	1	0.0	1	null	6	null	6	372.15	1	1008.47	1	41.076845	16.866987
2248	2024-04-03 15:00:00	16	carbonara	18.76	1	61.22	1	0.0	1	null	6	null	6	252.73	1	1008.02	1	41.076845	16.866987
2249	2024-04-03 16:00:00	16	carbonara	18.2	1	65.4	1	0.0	1	null	6	null	6	155.26	1	1007.83	1	41.076845	16.866987
2250	2024-04-03 17:00:00	16	carbonara	18.7	1	65.61	1	0.0	1	null	6	null	6	198.25	1	1007.48	1	41.076845	16.866987
2251	2024-04-03 18:00:00	16	carbonara	20.64	1	56.45	1	0.0	1	null	6	null	6	91.04	1	1007.36	1	41.076845	16.866987
2252	2024-04-03 19:00:00	16	carbonara	18.54	1	66.7	1	0.0	1	null	6	null	6	0.0	5	1007.89	1	41.076845	16.866987
2253	2024-04-03 20:00:00	16	carbonara	17.14	1	69.78	1	0.0	1	null	6	null	6	0.0	1	1008.43	1	41.076845	16.866987
2254	2024-04-03 21:00:00	16	carbonara	16.31	1	53.43	1	0.0	1	null	6	null	6	0.0	1	1008.73	1	41.076845	16.866987
2255	2024-04-03 22:00:00	16	carbonara	14.06	1	60.29	1	0.0	1	null	6	null	6	0.0	1	1008.92	1	41.076845	16.866987
2256	2024-04-03 23:00:00	16	carbonara	13.52	1	60.04	1	0.0	1	null	6	null	6	0.0	1	1009.23	1	41.076845	16.866987
2257	2024-04-04 00:00:00	16	carbonara	12.98	1	62.49	1	0.0	1	null	6	null	6	0.0	1	1009.36	1	41.076845	16.866987
2258	2024-04-04 01:00:00	16	carbonara	12.7	1	62.08	1	0.0	1	null	6	null	6	0.0	1	1009.33	1	41.076845	16.866987
2259	2024-04-04 02:00:00	16	carbonara	12.34	1	60.25	1	0.0	1	null	6	null	6	0.0	1	1009.18	1	41.076845	16.866987
2260	2024-04-04 03:00:00	16	carbonara	11.63	1	61.76	1	0.0	1	null	6	null	6	0.0	1	1009.34	1	41.076845	16.866987
2261	2024-04-04 04:00:00	16	carbonara	11.35	1	60.27	1	0.0	1	null	6	null	6	0.0	1	1009.46	1	41.076845	16.866987
2262	2024-04-04 05:00:00	16	carbonara	11.78	1	59.39	1	0.0	1	null	6	null	6	0.0	1	1009.68	1	41.076845	16.866987
2263	2024-04-04 06:00:00	16	carbonara	11.81	1	61.62	1	0.0	1	null	6	null	6	0.0	5	1009.82	1	41.076845	16.866987
2264	2024-04-04 07:00:00	16	carbonara	13.2	1	59.92	1	0.0	1	null	6	null	6	113.29	1	1010.33	1	41.076845	16.866987
2265	2024-04-04 08:00:00	16	carbonara	16.62	1	52.56	1	0.0	1	null	6	null	6	295.85	1	1010.95	1	41.076845	16.866987
2266	2024-04-04 09:00:00	16	carbonara	19.86	1	42.98	1	0.0	1	null	6	null	6	490.13	1	1011.53	1	41.076845	16.866987
2267	2024-04-04 10:00:00	16	carbonara	20.9	1	37.74	1	0.0	1	null	6	null	6	655.74	1	1011.84	1	41.076845	16.866987
2268	2024-04-04 11:00:00	16	carbonara	21.27	1	36.48	1	0.0	1	null	6	null	6	776.11	1	1011.94	1	41.076845	16.866987
2269	2024-04-04 12:00:00	16	carbonara	21.51	1	34.51	1	0.0	1	null	6	null	6	840.54	1	1011.98	1	41.076845	16.866987
2270	2024-04-04 13:00:00	16	carbonara	21.89	1	33.08	1	0.0	1	null	6	null	6	840.34	1	1011.71	1	41.076845	16.866987
2271	2024-04-04 14:00:00	16	carbonara	21.43	1	34.09	1	0.0	1	null	6	null	6	785.92	1	1011.32	1	41.076845	16.866987
2272	2024-04-04 15:00:00	16	carbonara	20.95	1	38.91	1	0.0	1	null	6	null	6	689.38	1	1011.0	1	41.076845	16.866987
2273	2024-04-04 16:00:00	16	carbonara	20.55	1	42.84	1	0.0	1	null	6	null	6	534.0	1	1010.72	1	41.076845	16.866987
2274	2024-04-04 17:00:00	16	carbonara	20.14	1	46.16	1	0.0	1	null	6	null	6	341.43	1	1010.96	1	41.076845	16.866987
2275	2024-04-04 18:00:00	16	carbonara	18.54	1	53.81	1	0.0	1	null	6	null	6	98.87	1	1011.22	1	41.076845	16.866987
2276	2024-04-04 19:00:00	16	carbonara	17.27	1	53.82	1	0.0	1	null	6	null	6	0.0	5	1011.31	1	41.076845	16.866987
2277	2024-04-04 20:00:00	16	carbonara	16.79	1	51.09	1	0.0	1	null	6	null	6	0.0	1	1011.96	1	41.076845	16.866987
2278	2024-04-04 21:00:00	16	carbonara	15.23	1	57.77	1	0.0	1	null	6	null	6	0.0	1	1012.51	1	41.076845	16.866987
2279	2024-04-04 22:00:00	16	carbonara	13.71	1	63.51	1	0.0	1	null	6	null	6	0.0	1	1012.79	1	41.076845	16.866987
2280	2024-04-04 23:00:00	16	carbonara	12.87	1	65.87	1	0.0	1	null	6	null	6	0.0	1	1013.03	1	41.076845	16.866987
2281	2024-04-05 00:00:00	16	carbonara	12.79	1	64.39	1	0.0	1	null	6	null	6	0.0	1	1012.91	1	41.076845	16.866987
2282	2024-04-05 01:00:00	16	carbonara	12.51	1	64.4	1	0.0	1	null	6	null	6	0.0	1	1012.63	1	41.076845	16.866987
2283	2024-04-05 02:00:00	16	carbonara	12.34	1	65.18	1	0.0	1	null	6	null	6	0.0	1	1012.89	1	41.076845	16.866987
2284	2024-04-05 03:00:00	16	carbonara	12.14	1	67.8	1	0.0	1	null	6	null	6	0.0	1	1012.83	1	41.076845	16.866987
2285	2024-04-05 04:00:00	16	carbonara	11.78	1	71.3	1	0.0	1	null	6	null	6	0.0	1	1012.89	1	41.076845	16.866987
2286	2024-04-05 05:00:00	16	carbonara	11.45	1	71.99	1	0.0	1	null	6	null	6	0.0	1	1013.08	1	41.076845	16.866987
2287	2024-04-05 06:00:00	16	carbonara	11.04	1	73.8	1	0.0	1	null	6	null	6	0.0	5	1013.64	1	41.076845	16.866987
2288	2024-04-05 07:00:00	16	carbonara	12.31	1	68.07	1	0.0	1	null	6	null	6	117.69	1	1014.41	1	41.076845	16.866987
2289	2024-04-05 08:00:00	16	carbonara	15.84	1	57.99	1	0.0	1	null	6	null	6	278.93	1	1014.68	1	41.076845	16.866987
2290	2024-04-05 09:00:00	16	carbonara	19.81	1	47.39	1	0.0	1	null	6	null	6	467.32	1	1015.1	1	41.076845	16.866987
2291	2024-04-05 10:00:00	16	carbonara	21.28	1	40.21	1	0.0	1	null	6	null	6	635.79	1	1015.29	1	41.076845	16.866987
2292	2024-04-05 11:00:00	16	carbonara	21.82	1	37.93	1	0.0	1	null	6	null	6	763.55	1	1015.4	1	41.076845	16.866987
2293	2024-04-05 12:00:00	16	carbonara	21.43	1	38.78	1	0.0	1	null	6	null	6	822.23	1	1015.16	1	41.076845	16.866987
2294	2024-04-05 13:00:00	16	carbonara	21.86	1	40.84	1	0.0	1	null	6	null	6	835.85	1	1015.03	1	41.076845	16.866987
2295	2024-04-05 14:00:00	16	carbonara	21.68	1	39.14	1	0.0	1	null	6	null	6	635.96	1	1014.78	1	41.076845	16.866987
2296	2024-04-05 15:00:00	16	carbonara	20.97	1	46.18	1	0.0	1	null	6	null	6	576.01	1	1014.52	1	41.076845	16.866987
2297	2024-04-05 16:00:00	16	carbonara	21.4	1	42.76	1	0.0	1	null	6	null	6	457.14	1	1013.97	1	41.076845	16.866987
2298	2024-04-05 17:00:00	16	carbonara	21.94	1	37.97	1	0.0	1	null	6	null	6	339.58	1	1013.92	1	41.076845	16.866987
2299	2024-04-05 18:00:00	16	carbonara	20.55	1	36.24	1	0.0	1	null	6	null	6	97.64	1	1014.05	1	41.076845	16.866987
2300	2024-04-05 19:00:00	16	carbonara	18.47	1	37.9	1	0.0	1	null	6	null	6	0.0	5	1014.25	1	41.076845	16.866987
2301	2024-04-05 20:00:00	16	carbonara	17.64	1	39.2	1	0.0	1	null	6	null	6	0.0	1	1014.61	1	41.076845	16.866987
2302	2024-04-05 21:00:00	16	carbonara	15.64	1	53.23	1	0.0	1	null	6	null	6	0.0	1	1014.88	1	41.076845	16.866987
2303	2024-04-05 22:00:00	16	carbonara	13.98	1	62.29	1	0.0	1	null	6	null	6	0.0	1	1014.87	1	41.076845	16.866987
2304	2024-04-05 23:00:00	16	carbonara	13.32	1	65.37	1	0.0	1	null	6	null	6	0.0	1	1014.72	1	41.076845	16.866987
2305	2024-04-06 00:00:00	16	carbonara	13.44	1	64.56	1	0.0	1	null	6	null	6	0.0	1	1014.73	1	41.076845	16.866987
2306	2024-04-06 01:00:00	16	carbonara	13.81	1	63.01	1	0.0	1	null	6	null	6	0.0	1	1014.65	1	41.076845	16.866987
2307	2024-04-06 02:00:00	16	carbonara	13.46	1	64.54	1	0.0	1	null	6	null	6	0.0	1	1014.49	1	41.076845	16.866987
2308	2024-04-06 03:00:00	16	carbonara	12.69	1	68.07	1	0.0	1	null	6	null	6	0.0	1	1014.13	1	41.076845	16.866987
2309	2024-04-06 04:00:00	16	carbonara	12.14	1	68.38	1	0.0	1	null	6	null	6	0.0	1	1014.09	1	41.076845	16.866987
2310	2024-04-06 05:00:00	16	carbonara	11.91	1	69.34	1	0.0	1	null	6	null	6	0.0	1	1014.46	1	41.076845	16.866987
2311	2024-04-06 06:00:00	16	carbonara	11.55	1	70.88	1	0.0	1	null	6	null	6	7.35	1	1014.66	1	41.076845	16.866987
2312	2024-04-06 07:00:00	16	carbonara	12.62	1	71.07	1	0.0	1	null	6	null	6	124.08	1	1015.17	1	41.076845	16.866987
2313	2024-04-06 08:00:00	16	carbonara	16.76	1	63.25	1	0.0	1	null	6	null	6	274.61	1	1015.44	1	41.076845	16.866987
2314	2024-04-06 09:00:00	16	carbonara	20.01	1	51.04	1	0.0	1	null	6	null	6	431.5	1	1015.47	1	41.076845	16.866987
2315	2024-04-06 10:00:00	16	carbonara	22.26	1	43.65	1	0.0	1	null	6	null	6	641.84	1	1015.61	1	41.076845	16.866987
2316	2024-04-06 11:00:00	16	carbonara	21.81	1	40.32	1	0.0	1	null	6	null	6	747.15	1	1015.5	1	41.076845	16.866987
2317	2024-04-06 12:00:00	16	carbonara	21.77	1	37.31	1	0.0	1	null	6	null	6	652.16	1	1015.17	1	41.076845	16.866987
2318	2024-04-06 13:00:00	16	carbonara	22.55	1	34.98	1	0.0	1	null	6	null	6	741.68	1	1014.65	1	41.076845	16.866987
2319	2024-04-06 14:00:00	16	carbonara	23.58	1	32.05	1	0.0	1	null	6	null	6	641.93	1	1013.94	1	41.076845	16.866987
2320	2024-04-06 15:00:00	16	carbonara	23.79	1	32.14	1	0.0	1	null	6	null	6	687.4	1	1013.32	1	41.076845	16.866987
2321	2024-04-06 16:00:00	16	carbonara	24.1	1	30.73	1	0.0	1	null	6	null	6	546.8	1	1012.82	1	41.076845	16.866987
2322	2024-04-06 17:00:00	16	carbonara	23.39	1	33.24	1	0.0	1	null	6	null	6	348.27	1	1012.5	1	41.076845	16.866987
2323	2024-04-06 18:00:00	16	carbonara	22.19	1	33.81	1	0.0	1	null	6	null	6	105.43	1	1012.61	1	41.076845	16.866987
2324	2024-04-06 19:00:00	16	carbonara	19.46	1	40.65	1	0.0	1	null	6	null	6	0.0	5	1013.03	1	41.076845	16.866987
2325	2024-04-06 20:00:00	16	carbonara	18.18	1	44.75	1	0.0	1	null	6	null	6	0.0	1	1013.31	1	41.076845	16.866987
2326	2024-04-06 21:00:00	16	carbonara	16.81	1	50.03	1	0.0	1	null	6	null	6	0.0	1	1013.64	1	41.076845	16.866987
2327	2024-04-06 22:00:00	16	carbonara	14.71	1	60.95	1	0.0	1	null	6	null	6	0.0	1	1013.52	1	41.076845	16.866987
2328	2024-04-06 23:00:00	16	carbonara	13.96	1	63.59	1	0.0	1	null	6	null	6	0.0	1	1013.32	1	41.076845	16.866987
2329	2024-04-07 00:00:00	16	carbonara	13.43	1	64.64	1	0.0	1	null	6	null	6	0.0	1	1013.13	1	41.076845	16.866987
2330	2024-04-07 01:00:00	16	carbonara	13.23	1	64.94	1	0.0	1	null	6	null	6	0.0	1	1013.16	1	41.076845	16.866987
2331	2024-04-07 02:00:00	16	carbonara	13.2	1	65.97	1	0.0	1	null	6	null	6	0.0	1	1012.66	1	41.076845	16.866987
2332	2024-04-07 03:00:00	16	carbonara	13.32	1	66.4	1	0.0	1	null	6	null	6	0.0	1	1012.37	1	41.076845	16.866987
2333	2024-04-07 04:00:00	16	carbonara	13.17	1	67.26	1	0.0	1	null	6	null	6	0.0	1	1011.92	1	41.076845	16.866987
2334	2024-04-07 05:00:00	16	carbonara	13.29	1	71.38	1	0.0	1	null	6	null	6	0.0	1	1011.78	1	41.076845	16.866987
2335	2024-04-07 06:00:00	16	carbonara	12.95	1	75.21	1	0.0	1	null	6	null	6	5.16	1	1012.04	1	41.076845	16.866987
2336	2024-04-07 07:00:00	16	carbonara	14.39	1	72.85	1	0.0	1	null	6	null	6	123.15	1	1012.3	1	41.076845	16.866987
2337	2024-04-07 08:00:00	16	carbonara	18.03	1	64.56	1	0.0	1	null	6	null	6	309.86	1	1012.25	1	41.076845	16.866987
2338	2024-04-07 09:00:00	16	carbonara	22.08	1	48.43	1	0.0	1	null	6	null	6	501.36	1	1012.21	1	41.076845	16.866987
2339	2024-04-07 10:00:00	16	carbonara	23.74	1	36.94	1	0.0	1	null	6	null	6	669.47	1	1011.95	1	41.076845	16.866987
2340	2024-04-07 11:00:00	16	carbonara	24.46	1	34.61	1	0.0	1	null	6	null	6	787.7	1	1011.87	1	41.076845	16.866987
2341	2024-04-07 12:00:00	16	carbonara	24.93	1	30.03	1	0.0	1	null	6	null	6	849.99	1	1011.44	1	41.076845	16.866987
2342	2024-04-07 13:00:00	16	carbonara	24.82	1	31.1	1	0.0	1	null	6	null	6	851.1	1	1010.96	1	41.076845	16.866987
2343	2024-04-07 14:00:00	16	carbonara	23.99	1	34.17	1	0.0	1	null	6	null	6	800.13	1	1010.43	1	41.076845	16.866987
2344	2024-04-07 15:00:00	16	carbonara	24.61	1	32.32	1	0.0	1	null	6	null	6	702.75	1	1009.84	1	41.076845	16.866987
2345	2024-04-07 16:00:00	16	carbonara	25.39	1	30.17	1	0.0	1	null	6	null	6	549.51	1	1009.16	1	41.076845	16.866987
2346	2024-04-07 17:00:00	16	carbonara	24.56	1	33.18	1	0.0	1	null	6	null	6	354.67	1	1009.02	1	41.076845	16.866987
2347	2024-04-07 18:00:00	16	carbonara	22.35	1	40.03	1	0.0	1	null	6	null	6	95.5	1	1008.92	1	41.076845	16.866987
2348	2024-04-07 19:00:00	16	carbonara	19.53	1	46.55	1	0.0	1	null	6	null	6	0.0	5	1009.16	1	41.076845	16.866987
2349	2024-04-07 20:00:00	16	carbonara	18.63	1	49.56	1	0.0	1	null	6	null	6	0.0	1	1009.42	1	41.076845	16.866987
2350	2024-04-07 21:00:00	16	carbonara	17.71	1	53.48	1	0.0	1	null	6	null	6	0.0	1	1009.82	1	41.076845	16.866987
2351	2024-04-07 22:00:00	16	carbonara	16.1	1	59.68	1	0.0	1	null	6	null	6	0.0	1	1010.05	1	41.076845	16.866987
2352	2024-04-07 23:00:00	16	carbonara	14.81	1	64.05	1	0.0	1	null	6	null	6	0.0	1	1010.19	1	41.076845	16.866987
2353	2024-04-08 00:00:00	16	carbonara	13.95	1	67.99	1	0.0	1	null	6	null	6	0.0	1	1009.92	1	41.076845	16.866987
2354	2024-04-08 01:00:00	16	carbonara	13.47	1	68.37	1	0.0	1	null	6	null	6	0.0	1	1009.71	1	41.076845	16.866987
2355	2024-04-08 02:00:00	16	carbonara	13.26	1	60.09	1	0.0	1	null	6	null	6	0.0	1	1009.36	1	41.076845	16.866987
2356	2024-04-08 03:00:00	16	carbonara	13.18	1	56.03	1	0.0	1	null	6	null	6	0.0	1	1009.48	1	41.076845	16.866987
2357	2024-04-08 04:00:00	16	carbonara	12.48	1	58.44	1	0.0	1	null	6	null	6	0.0	1	1009.51	1	41.076845	16.866987
2358	2024-04-08 05:00:00	16	carbonara	12.3	1	59.21	1	0.0	1	null	6	null	6	0.0	1	1009.54	1	41.076845	16.866987
2359	2024-04-08 06:00:00	16	carbonara	12.13	1	60.53	1	0.0	1	null	6	null	6	7.3	1	1009.66	1	41.076845	16.866987
2360	2024-04-08 07:00:00	16	carbonara	14.11	1	55.15	1	0.0	1	null	6	null	6	129.71	1	1010.13	1	41.076845	16.866987
2361	2024-04-08 08:00:00	16	carbonara	18.52	1	45.51	1	0.0	1	null	6	null	6	314.2	1	1010.3	1	41.076845	16.866987
2362	2024-04-08 09:00:00	16	carbonara	23.24	1	34.63	1	0.0	1	null	6	null	6	503.01	1	1010.19	1	41.076845	16.866987
2363	2024-04-08 10:00:00	16	carbonara	24.81	1	34.16	1	0.0	1	null	6	null	6	666.91	1	1010.15	1	41.076845	16.866987
2364	2024-04-08 11:00:00	16	carbonara	23.61	1	40.07	1	0.0	1	null	6	null	6	780.86	1	1010.0	1	41.076845	16.866987
2365	2024-04-08 12:00:00	16	carbonara	23.36	1	40.56	1	0.0	1	null	6	null	6	838.46	1	1009.53	1	41.076845	16.866987
2366	2024-04-08 13:00:00	16	carbonara	23.62	1	43.45	1	0.0	1	null	6	null	6	841.49	1	1009.01	1	41.076845	16.866987
2367	2024-04-08 14:00:00	16	carbonara	24.36	1	45.2	1	0.0	1	null	6	null	6	781.57	1	1008.38	1	41.076845	16.866987
2368	2024-04-08 15:00:00	16	carbonara	25.43	1	42.45	1	0.0	1	null	6	null	6	693.93	1	1007.69	1	41.076845	16.866987
2369	2024-04-08 16:00:00	16	carbonara	25.91	1	40.34	1	0.0	1	null	6	null	6	447.68	1	1007.39	1	41.076845	16.866987
2370	2024-04-08 17:00:00	16	carbonara	25.41	1	43.9	1	0.0	1	null	6	null	6	334.42	1	1007.29	1	41.076845	16.866987
2371	2024-04-08 18:00:00	16	carbonara	25.16	1	35.41	1	0.0	1	null	6	null	6	129.77	1	1007.32	1	41.076845	16.866987
2372	2024-04-08 19:00:00	16	carbonara	21.93	1	39.23	1	0.0	1	null	6	null	6	0.0	5	1007.71	1	41.076845	16.866987
2373	2024-04-08 20:00:00	16	carbonara	20.2	1	43.42	1	0.0	1	null	6	null	6	0.0	1	1008.12	1	41.076845	16.866987
2374	2024-04-08 21:00:00	16	carbonara	19.38	1	45.25	1	0.0	1	null	6	null	6	0.0	1	1008.31	1	41.076845	16.866987
2375	2024-04-08 22:00:00	16	carbonara	18.89	1	47.76	1	0.0	1	null	6	null	6	0.0	1	1008.24	1	41.076845	16.866987
2376	2024-04-08 23:00:00	16	carbonara	18.28	1	51.4	1	0.0	1	null	6	null	6	0.0	1	1008.16	1	41.076845	16.866987
2377	2024-04-09 00:00:00	16	carbonara	17.77	1	54.04	1	0.0	1	null	6	null	6	0.0	1	1007.95	1	41.076845	16.866987
2378	2024-04-09 01:00:00	16	carbonara	17.56	1	55.65	1	0.0	1	null	6	null	6	0.0	1	1007.74	1	41.076845	16.866987
2379	2024-04-09 02:00:00	16	carbonara	17.12	1	57.32	1	0.0	1	null	6	null	6	0.0	1	1007.5	1	41.076845	16.866987
2380	2024-04-09 03:00:00	16	carbonara	17.71	1	48.84	1	0.0	1	null	6	null	6	0.0	1	1007.14	1	41.076845	16.866987
2381	2024-04-09 04:00:00	16	carbonara	18.29	1	44.07	1	0.0	1	null	6	null	6	0.0	1	1007.01	1	41.076845	16.866987
2382	2024-04-09 05:00:00	16	carbonara	17.37	1	47.27	1	0.0	1	null	6	null	6	0.0	1	1007.19	1	41.076845	16.866987
2383	2024-04-09 06:00:00	16	carbonara	16.7	1	49.12	1	0.0	1	null	6	null	6	8.06	1	1007.43	1	41.076845	16.866987
2384	2024-04-09 07:00:00	16	carbonara	18.42	1	47.91	1	0.0	1	null	6	null	6	131.7	1	1007.72	1	41.076845	16.866987
2385	2024-04-09 08:00:00	16	carbonara	21.06	1	45.52	1	0.0	1	null	6	null	6	316.4	1	1007.75	1	41.076845	16.866987
2386	2024-04-09 09:00:00	16	carbonara	24.43	1	41.61	1	0.0	1	null	6	null	6	497.05	1	1007.53	1	41.076845	16.866987
2387	2024-04-09 10:00:00	16	carbonara	26.88	1	36.04	1	0.0	1	null	6	null	6	640.62	1	1007.33	1	41.076845	16.866987
2388	2024-04-09 11:00:00	16	carbonara	26.56	1	37.24	1	0.0	1	null	6	null	6	772.67	1	1007.05	1	41.076845	16.866987
2389	2024-04-09 12:00:00	16	carbonara	26.22	1	32.22	1	0.0	1	null	6	null	6	835.61	1	1006.63	1	41.076845	16.866987
2390	2024-04-09 13:00:00	16	carbonara	27.21	1	29.27	1	0.0	1	null	6	null	6	808.96	1	1006.1	1	41.076845	16.866987
2391	2024-04-09 14:00:00	16	carbonara	28.48	1	33.08	1	0.0	1	null	6	null	6	697.82	1	1005.35	1	41.076845	16.866987
2392	2024-04-09 15:00:00	16	carbonara	29.71	1	29.79	1	0.0	1	null	6	null	6	665.38	1	1004.84	1	41.076845	16.866987
2393	2024-04-09 16:00:00	16	carbonara	29.37	1	26.14	1	0.0	1	null	6	null	6	503.29	1	1004.63	1	41.076845	16.866987
2394	2024-04-09 17:00:00	16	carbonara	27.23	1	22.52	1	0.0	1	null	6	null	6	330.53	1	1004.82	1	41.076845	16.866987
2395	2024-04-09 18:00:00	16	carbonara	25.49	1	21.03	1	0.0	1	null	6	null	6	110.53	1	1004.92	1	41.076845	16.866987
2396	2024-04-09 19:00:00	16	carbonara	23.04	1	23.25	1	0.0	1	null	6	null	6	0.0	5	1005.27	1	41.076845	16.866987
2397	2024-04-09 20:00:00	16	carbonara	21.0	1	33.78	1	0.0	1	null	6	null	6	0.0	1	1005.78	1	41.076845	16.866987
2398	2024-04-09 21:00:00	16	carbonara	19.55	1	42.72	1	0.0	1	null	6	null	6	0.0	1	1006.04	1	41.076845	16.866987
2399	2024-04-09 22:00:00	16	carbonara	19.1	1	43.72	1	0.0	1	null	6	null	6	0.0	1	1006.1	1	41.076845	16.866987
2400	2024-04-09 23:00:00	16	carbonara	18.63	1	44.37	1	0.0	1	null	6	null	6	0.0	1	1006.1	1	41.076845	16.866987
2401	2024-04-10 00:00:00	16	carbonara	18.06	1	43.66	1	0.0	1	null	6	null	6	0.0	1	1005.9	1	41.076845	16.866987
2402	2024-04-10 01:00:00	16	carbonara	17.91	1	40.21	1	0.0	1	null	6	null	6	0.0	1	1005.51	1	41.076845	16.866987
2403	2024-04-10 02:00:00	16	carbonara	17.23	1	43.07	1	0.0	1	null	6	null	6	0.0	1	1005.4	1	41.076845	16.866987
2404	2024-04-10 03:00:00	16	carbonara	16.76	1	46.93	1	0.0	1	null	6	null	6	0.0	1	1005.17	1	41.076845	16.866987
2405	2024-04-10 04:00:00	16	carbonara	15.69	1	52.45	1	0.0	1	null	6	null	6	0.0	1	1004.98	1	41.076845	16.866987
2406	2024-04-10 05:00:00	16	carbonara	15.29	1	53.54	1	0.0	1	null	6	null	6	0.0	1	1004.91	1	41.076845	16.866987
2407	2024-04-10 06:00:00	16	carbonara	14.46	1	57.67	1	0.0	1	null	6	null	6	11.7	1	1005.03	1	41.076845	16.866987
2408	2024-04-10 07:00:00	16	carbonara	15.53	1	52.37	1	0.0	1	null	6	null	6	91.21	1	1005.3	1	41.076845	16.866987
2409	2024-04-10 08:00:00	16	carbonara	18.33	1	47.43	1	0.0	1	null	6	null	6	217.68	1	1005.43	1	41.076845	16.866987
2410	2024-04-10 09:00:00	16	carbonara	23.24	1	36.78	1	0.0	1	null	6	null	6	462.59	1	1005.65	1	41.076845	16.866987
2411	2024-04-10 10:00:00	16	carbonara	24.56	1	34.21	1	0.0	1	null	6	null	6	473.9	1	1006.22	1	41.076845	16.866987
2412	2024-04-10 11:00:00	16	carbonara	23.05	1	39.01	1	0.0	1	null	6	null	6	540.23	1	1006.69	1	41.076845	16.866987
2413	2024-04-10 12:00:00	16	carbonara	23.91	1	36.81	1	0.0	1	null	6	null	6	730.25	1	1006.69	1	41.076845	16.866987
2414	2024-04-10 13:00:00	16	carbonara	23.81	1	41.85	1	0.0	1	null	6	null	6	695.75	1	1006.46	1	41.076845	16.866987
2415	2024-04-10 14:00:00	16	carbonara	23.34	1	43.96	1	0.0	1	null	6	null	6	686.23	1	1006.55	1	41.076845	16.866987
2416	2024-04-10 15:00:00	16	carbonara	23.54	1	48.87	1	0.0	1	null	6	null	6	581.6	1	1006.76	1	41.076845	16.866987
2417	2024-04-10 16:00:00	16	carbonara	23.5	1	47.06	1	0.0	1	null	6	null	6	410.39	1	1006.92	1	41.076845	16.866987
2418	2024-04-10 17:00:00	16	carbonara	22.73	1	47.45	1	0.0	1	null	6	null	6	189.7	1	1007.4	1	41.076845	16.866987
2419	2024-04-10 18:00:00	16	carbonara	21.49	1	50.3	1	0.0	1	null	6	null	6	109.02	1	1007.87	1	41.076845	16.866987
2420	2024-04-10 19:00:00	16	carbonara	19.88	1	47.28	1	0.0	1	null	6	null	6	0.0	5	1008.7	1	41.076845	16.866987
2421	2024-04-10 20:00:00	16	carbonara	18.56	1	53.19	1	0.0	1	null	6	null	6	0.0	1	1009.6	1	41.076845	16.866987
2422	2024-04-10 21:00:00	16	carbonara	17.8	1	53.15	1	0.0	1	null	6	null	6	0.0	1	1010.39	1	41.076845	16.866987
2423	2024-04-10 22:00:00	16	carbonara	17.35	1	48.14	1	0.0	1	null	6	null	6	0.0	1	1010.8	1	41.076845	16.866987
2424	2024-04-10 23:00:00	16	carbonara	16.58	1	50.88	1	0.0	1	null	6	null	6	0.0	1	1011.15	1	41.076845	16.866987
2425	2024-04-11 00:00:00	16	carbonara	16.21	1	52.65	1	0.0	1	null	6	null	6	0.0	1	1011.49	1	41.076845	16.866987
2426	2024-04-11 01:00:00	16	carbonara	15.48	1	57.13	1	0.0	1	null	6	null	6	0.0	1	1011.5	1	41.076845	16.866987
2427	2024-04-11 02:00:00	16	carbonara	15.55	1	50.78	1	0.0	1	null	6	null	6	0.0	1	1011.39	1	41.076845	16.866987
2428	2024-04-11 03:00:00	16	carbonara	15.39	1	46.43	1	0.0	1	null	6	null	6	0.0	1	1011.53	1	41.076845	16.866987
2429	2024-04-11 04:00:00	16	carbonara	14.51	1	49.66	1	0.0	1	null	6	null	6	0.0	1	1011.57	1	41.076845	16.866987
2430	2024-04-11 05:00:00	16	carbonara	13.83	1	48.75	1	0.0	1	null	6	null	6	0.0	1	1011.74	1	41.076845	16.866987
2431	2024-04-11 06:00:00	16	carbonara	13.76	1	45.88	1	0.0	1	null	6	null	6	12.86	1	1012.18	1	41.076845	16.866987
2432	2024-04-11 07:00:00	16	carbonara	15.45	1	42.21	1	0.0	1	null	6	null	6	123.93	1	1012.6	1	41.076845	16.866987
2433	2024-04-11 08:00:00	16	carbonara	17.75	1	45.96	1	0.0	1	null	6	null	6	244.74	1	1012.94	1	41.076845	16.866987
2434	2024-04-11 09:00:00	16	carbonara	20.66	1	46.29	1	0.0	1	null	6	null	6	421.73	1	1013.23	1	41.076845	16.866987
2435	2024-04-11 10:00:00	16	carbonara	20.46	1	52.19	1	0.0	1	null	6	null	6	340.33	1	1013.69	1	41.076845	16.866987
2436	2024-04-11 11:00:00	16	carbonara	20.55	1	55.34	1	0.0	1	null	6	null	6	392.03	1	1014.0	1	41.076845	16.866987
2437	2024-04-11 12:00:00	16	carbonara	20.82	1	55.79	1	0.0	1	null	6	null	6	351.93	1	1014.24	1	41.076845	16.866987
2438	2024-04-11 13:00:00	16	carbonara	21.51	1	55.43	1	0.0	1	null	6	null	6	427.55	1	1014.25	1	41.076845	16.866987
2439	2024-04-11 14:00:00	16	carbonara	23.73	1	47.16	1	0.0	1	null	6	null	6	691.25	1	1013.94	1	41.076845	16.866987
2440	2024-04-11 15:00:00	16	carbonara	23.98	5	null	6	0.0	5	null	6	null	6	null	6	1013.77	5	41.076845	16.866987
2441	2024-04-11 16:00:00	16	carbonara	24.23	1	39.84	1	0.0	1	null	6	null	6	580.43	1	1013.59	1	41.076845	16.866987
2442	2024-04-11 17:00:00	16	carbonara	22.99	1	44.25	1	0.0	1	null	6	null	6	233.17	1	1013.57	1	41.076845	16.866987
2443	2024-04-11 18:00:00	16	carbonara	21.87	1	49.41	1	0.0	1	null	6	null	6	89.44	1	1013.61	1	41.076845	16.866987
2444	2024-04-11 19:00:00	16	carbonara	19.03	1	68.7	1	0.0	1	null	6	null	6	5.01	1	1014.25	1	41.076845	16.866987
2445	2024-04-11 20:00:00	16	carbonara	17.55	1	78.8	1	0.0	1	null	6	null	6	0.0	1	1014.91	1	41.076845	16.866987
2446	2024-04-11 21:00:00	16	carbonara	17.13	1	79.2	1	0.0	1	null	6	null	6	0.0	1	1015.44	1	41.076845	16.866987
2447	2024-04-11 22:00:00	16	carbonara	16.54	1	71.95	1	0.0	1	null	6	null	6	0.0	1	1015.86	1	41.076845	16.866987
2448	2024-04-11 23:00:00	16	carbonara	16.09	1	67.98	1	0.0	1	null	6	null	6	0.0	1	1016.2	1	41.076845	16.866987
2449	2024-04-12 00:00:00	16	carbonara	15.5	1	69.85	1	0.0	1	null	6	null	6	0.0	1	1016.32	1	41.076845	16.866987
2450	2024-04-12 01:00:00	16	carbonara	15.07	1	72.44	1	0.0	1	null	6	null	6	0.0	1	1016.2	1	41.076845	16.866987
2451	2024-04-12 02:00:00	16	carbonara	14.96	1	73.36	1	0.0	1	null	6	null	6	0.0	1	1015.99	1	41.076845	16.866987
2452	2024-04-12 03:00:00	16	carbonara	14.41	1	74.7	1	0.0	1	null	6	null	6	0.0	1	1016.07	1	41.076845	16.866987
2453	2024-04-12 04:00:00	16	carbonara	14.11	1	72.92	1	0.0	1	null	6	null	6	0.0	1	1016.0	1	41.076845	16.866987
2454	2024-04-12 05:00:00	16	carbonara	13.63	1	71.99	1	0.0	1	null	6	null	6	0.0	1	1016.08	1	41.076845	16.866987
2455	2024-04-12 06:00:00	16	carbonara	13.32	1	71.54	1	0.0	1	null	6	null	6	10.29	1	1016.3	1	41.076845	16.866987
2456	2024-04-12 07:00:00	16	carbonara	15.43	1	63.51	1	0.0	1	null	6	null	6	134.94	1	1016.7	1	41.076845	16.866987
2457	2024-04-12 08:00:00	16	carbonara	18.82	1	55.01	1	0.0	1	null	6	null	6	315.61	1	1016.93	1	41.076845	16.866987
2458	2024-04-12 09:00:00	16	carbonara	21.81	1	45.61	1	0.0	1	null	6	null	6	504.4	1	1017.12	1	41.076845	16.866987
2459	2024-04-12 10:00:00	16	carbonara	23.32	1	42.78	1	0.0	1	null	6	null	6	667.14	1	1017.33	1	41.076845	16.866987
2460	2024-04-12 11:00:00	16	carbonara	23.61	1	41.5	1	0.0	1	null	6	null	6	785.4	1	1017.36	1	41.076845	16.866987
2461	2024-04-12 12:00:00	16	carbonara	24.6	1	38.24	1	0.0	1	null	6	null	6	842.26	1	1017.12	1	41.076845	16.866987
2462	2024-04-12 13:00:00	16	carbonara	25.04	1	38.0	1	0.0	1	null	6	null	6	845.5	1	1016.76	1	41.076845	16.866987
2463	2024-04-12 14:00:00	16	carbonara	24.37	1	41.58	1	0.0	1	null	6	null	6	798.01	1	1016.24	1	41.076845	16.866987
2464	2024-04-12 15:00:00	16	carbonara	24.29	1	48.62	1	0.0	1	null	6	null	6	700.44	1	1015.72	1	41.076845	16.866987
2465	2024-04-12 16:00:00	16	carbonara	23.42	1	53.15	1	0.0	1	null	6	null	6	543.62	1	1015.36	1	41.076845	16.866987
2466	2024-04-12 17:00:00	16	carbonara	24.28	1	47.95	1	0.0	1	null	6	null	6	352.81	1	1015.09	1	41.076845	16.866987
2467	2024-04-12 18:00:00	16	carbonara	22.92	1	50.2	1	0.0	1	null	6	null	6	132.41	1	1015.08	1	41.076845	16.866987
2468	2024-04-12 19:00:00	16	carbonara	19.41	1	63.42	1	0.0	1	null	6	null	6	6.69	1	1015.27	1	41.076845	16.866987
2469	2024-04-12 20:00:00	16	carbonara	18.3	1	65.42	1	0.0	1	null	6	null	6	0.0	1	1015.59	1	41.076845	16.866987
2470	2024-04-12 21:00:00	16	carbonara	17.76	1	68.74	1	0.0	1	null	6	null	6	0.0	1	1016.03	1	41.076845	16.866987
2471	2024-04-12 22:00:00	16	carbonara	17.29	1	71.2	1	0.0	1	null	6	null	6	0.0	1	1016.32	1	41.076845	16.866987
2472	2024-04-12 23:00:00	16	carbonara	16.25	1	75.32	1	0.0	1	null	6	null	6	0.0	1	1016.53	1	41.076845	16.866987
2473	2024-04-13 00:00:00	16	carbonara	14.94	1	74.82	1	0.0	1	null	6	null	6	0.0	1	1016.75	1	41.076845	16.866987
2474	2024-04-13 01:00:00	16	carbonara	14.87	1	68.62	1	0.0	1	null	6	null	6	0.0	1	1016.58	1	41.076845	16.866987
2475	2024-04-13 02:00:00	16	carbonara	15.45	1	63.17	1	0.0	1	null	6	null	6	0.0	1	1016.23	1	41.076845	16.866987
2476	2024-04-13 03:00:00	16	carbonara	15.47	1	61.43	1	0.0	1	null	6	null	6	0.0	1	1015.94	1	41.076845	16.866987
2477	2024-04-13 04:00:00	16	carbonara	15.22	1	61.73	1	0.0	1	null	6	null	6	0.0	1	1015.82	1	41.076845	16.866987
2478	2024-04-13 05:00:00	16	carbonara	14.75	1	63.48	1	0.0	1	null	6	null	6	0.0	1	1015.85	1	41.076845	16.866987
2479	2024-04-13 06:00:00	16	carbonara	14.62	1	63.85	1	0.0	1	null	6	null	6	10.7	1	1016.04	1	41.076845	16.866987
2480	2024-04-13 07:00:00	16	carbonara	16.68	1	58.22	1	0.0	1	null	6	null	6	138.1	1	1016.46	1	41.076845	16.866987
2481	2024-04-13 08:00:00	16	carbonara	19.68	1	51.01	1	0.0	1	null	6	null	6	321.86	1	1016.83	1	41.076845	16.866987
2482	2024-04-13 09:00:00	16	carbonara	22.49	1	42.26	1	0.0	1	null	6	null	6	509.62	1	1016.78	1	41.076845	16.866987
2483	2024-04-13 10:00:00	16	carbonara	25.33	1	35.25	1	0.0	1	null	6	null	6	666.28	1	1016.58	1	41.076845	16.866987
2484	2024-04-13 11:00:00	16	carbonara	25.46	1	37.1	1	0.0	1	null	6	null	6	778.58	1	1016.6	1	41.076845	16.866987
2485	2024-04-13 12:00:00	16	carbonara	24.86	1	35.46	1	0.0	1	null	6	null	6	840.26	1	1016.36	1	41.076845	16.866987
2486	2024-04-13 13:00:00	16	carbonara	24.33	1	38.12	1	0.0	1	null	6	null	6	838.99	1	1016.19	1	41.076845	16.866987
2487	2024-04-13 14:00:00	16	carbonara	24.42	1	41.63	1	0.0	1	null	6	null	6	786.78	1	1015.76	1	41.076845	16.866987
2488	2024-04-13 15:00:00	16	carbonara	24.15	1	46.8	1	0.0	1	null	6	null	6	691.8	1	1015.16	1	41.076845	16.866987
2489	2024-04-13 16:00:00	16	carbonara	25.17	1	42.64	1	0.0	1	null	6	null	6	540.17	1	1014.57	1	41.076845	16.866987
2490	2024-04-13 17:00:00	16	carbonara	25.1	1	41.65	1	0.0	1	null	6	null	6	352.25	1	1014.34	1	41.076845	16.866987
2491	2024-04-13 18:00:00	16	carbonara	23.34	1	46.17	1	0.0	1	null	6	null	6	126.41	1	1014.42	1	41.076845	16.866987
2492	2024-04-13 19:00:00	16	carbonara	20.94	1	51.96	1	0.0	1	null	6	null	6	6.26	1	1014.82	1	41.076845	16.866987
2493	2024-04-13 20:00:00	16	carbonara	20.11	1	52.6	1	0.0	1	null	6	null	6	0.0	1	1015.19	1	41.076845	16.866987
2494	2024-04-13 21:00:00	16	carbonara	19.16	1	56.12	1	0.0	1	null	6	null	6	0.0	1	1015.45	1	41.076845	16.866987
2495	2024-04-13 22:00:00	16	carbonara	17.94	1	60.94	1	0.0	1	null	6	null	6	0.0	1	1015.66	1	41.076845	16.866987
2496	2024-04-13 23:00:00	16	carbonara	16.07	1	68.07	1	0.0	1	null	6	null	6	0.0	1	1015.76	1	41.076845	16.866987
2497	2024-04-14 00:00:00	16	carbonara	14.6	1	73.73	1	0.0	1	null	6	null	6	0.0	1	1015.53	1	41.076845	16.866987
2498	2024-04-14 01:00:00	16	carbonara	14.53	1	70.64	1	0.0	1	null	6	null	6	0.0	1	1015.49	1	41.076845	16.866987
2499	2024-04-14 02:00:00	16	carbonara	15.04	1	62.47	1	0.0	1	null	6	null	6	0.0	1	1015.24	1	41.076845	16.866987
2500	2024-04-14 03:00:00	16	carbonara	14.59	1	63.08	1	0.0	1	null	6	null	6	0.0	1	1014.91	1	41.076845	16.866987
2501	2024-04-14 04:00:00	16	carbonara	15.33	1	58.96	1	0.0	1	null	6	null	6	0.0	1	1014.61	1	41.076845	16.866987
2502	2024-04-14 05:00:00	16	carbonara	15.73	1	55.74	1	0.0	1	null	6	null	6	0.0	1	1014.57	1	41.076845	16.866987
2503	2024-04-14 06:00:00	16	carbonara	16.31	1	52.27	1	0.0	1	null	6	null	6	12.52	1	1014.72	1	41.076845	16.866987
2504	2024-04-14 07:00:00	16	carbonara	18.44	1	47.53	1	0.0	1	null	6	null	6	144.17	1	1014.88	1	41.076845	16.866987
2505	2024-04-14 08:00:00	16	carbonara	21.98	1	42.16	1	0.0	1	null	6	null	6	327.91	1	1014.94	1	41.076845	16.866987
2506	2024-04-14 09:00:00	16	carbonara	24.81	1	35.7	1	0.0	1	null	6	null	6	516.74	1	1015.09	1	41.076845	16.866987
2507	2024-04-14 10:00:00	16	carbonara	25.48	1	36.64	1	0.0	1	null	6	null	6	681.2	1	1015.38	1	41.076845	16.866987
2508	2024-04-14 11:00:00	16	carbonara	25.31	1	39.2	1	0.0	1	null	6	null	6	794.71	1	1015.43	1	41.076845	16.866987
2509	2024-04-14 12:00:00	16	carbonara	25.37	1	33.63	1	0.0	1	null	6	null	6	854.29	1	1015.02	1	41.076845	16.866987
2510	2024-04-14 13:00:00	16	carbonara	25.71	1	32.07	1	0.0	1	null	6	null	6	853.57	1	1014.68	1	41.076845	16.866987
2511	2024-04-14 14:00:00	16	carbonara	25.78	1	32.45	1	0.0	1	null	6	null	6	800.78	1	1014.04	1	41.076845	16.866987
2512	2024-04-14 15:00:00	16	carbonara	26.17	1	31.8	1	0.0	1	null	6	null	6	707.33	1	1013.14	1	41.076845	16.866987
2513	2024-04-14 16:00:00	16	carbonara	26.09	1	32.38	1	0.0	1	null	6	null	6	552.99	1	1012.63	1	41.076845	16.866987
2514	2024-04-14 17:00:00	16	carbonara	25.93	1	28.88	1	0.0	1	null	6	null	6	358.87	1	1012.27	1	41.076845	16.866987
2515	2024-04-14 18:00:00	16	carbonara	25.12	1	31.54	1	0.0	1	null	6	null	6	142.14	1	1012.08	1	41.076845	16.866987
2516	2024-04-14 19:00:00	16	carbonara	23.21	1	35.15	1	0.0	1	null	6	null	6	6.15	1	1012.02	1	41.076845	16.866987
2517	2024-04-14 20:00:00	16	carbonara	22.21	1	37.4	1	0.0	1	null	6	null	6	0.0	1	1012.27	1	41.076845	16.866987
2518	2024-04-14 21:00:00	16	carbonara	20.25	1	43.83	1	0.0	1	null	6	null	6	0.0	1	1012.41	1	41.076845	16.866987
2519	2024-04-14 22:00:00	16	carbonara	19.19	1	46.02	1	0.0	1	null	6	null	6	0.0	1	1012.22	1	41.076845	16.866987
2520	2024-04-14 23:00:00	16	carbonara	19.3	1	44.4	1	0.0	1	null	6	null	6	0.0	1	1011.86	1	41.076845	16.866987
2521	2024-04-15 00:00:00	16	carbonara	19.53	1	43.92	1	0.0	1	null	6	null	6	0.0	1	1011.41	1	41.076845	16.866987
2522	2024-04-15 01:00:00	16	carbonara	18.85	1	47.13	1	0.0	1	null	6	null	6	0.0	1	1011.3	1	41.076845	16.866987
2523	2024-04-15 02:00:00	16	carbonara	17.98	1	52.61	1	0.0	1	null	6	null	6	0.0	1	1010.86	1	41.076845	16.866987
2524	2024-04-15 03:00:00	16	carbonara	16.6	1	56.78	1	0.0	1	null	6	null	6	0.0	1	1010.52	1	41.076845	16.866987
2525	2024-04-15 04:00:00	16	carbonara	15.62	1	59.71	1	0.0	1	null	6	null	6	0.0	1	1010.06	1	41.076845	16.866987
2526	2024-04-15 05:00:00	16	carbonara	15.21	1	59.97	1	0.0	1	null	6	null	6	0.0	1	1009.52	1	41.076845	16.866987
2527	2024-04-15 06:00:00	16	carbonara	16.41	1	50.26	1	0.0	1	null	6	null	6	33.51	1	1009.18	1	41.076845	16.866987
2528	2024-04-15 07:00:00	16	carbonara	19.89	1	42.2	1	0.0	1	null	6	null	6	140.77	1	1009.02	1	41.076845	16.866987
2529	2024-04-15 08:00:00	16	carbonara	21.51	1	43.93	1	0.0	1	null	6	null	6	184.89	1	1009.09	1	41.076845	16.866987
2530	2024-04-15 09:00:00	16	carbonara	24.93	1	38.46	1	0.0	1	null	6	null	6	445.11	1	1008.87	1	41.076845	16.866987
2531	2024-04-15 10:00:00	16	carbonara	29.94	1	25.07	1	0.0	1	null	6	null	6	597.14	1	1008.33	1	41.076845	16.866987
2532	2024-04-15 11:00:00	16	carbonara	30.14	1	22.1	1	0.0	1	null	6	null	6	543.11	1	1008.04	1	41.076845	16.866987
2533	2024-04-15 12:00:00	16	carbonara	30.21	1	21.61	1	0.0	1	null	6	null	6	636.34	1	1007.38	1	41.076845	16.866987
2534	2024-04-15 13:00:00	16	carbonara	30.34	1	24.78	1	0.0	1	null	6	null	6	585.17	1	1006.41	1	41.076845	16.866987
2535	2024-04-15 14:00:00	16	carbonara	28.06	1	29.22	1	0.0	1	null	6	null	6	391.59	1	1005.93	1	41.076845	16.866987
2536	2024-04-15 15:00:00	16	carbonara	27.62	1	30.7	1	0.0	1	null	6	null	6	446.26	1	1005.14	1	41.076845	16.866987
2537	2024-04-15 16:00:00	16	carbonara	29.27	1	26.92	1	0.0	1	null	6	null	6	353.81	1	1004.43	1	41.076845	16.866987
2538	2024-04-15 17:00:00	16	carbonara	27.71	1	28.1	1	0.0	1	null	6	null	6	192.55	1	1003.84	1	41.076845	16.866987
2539	2024-04-15 18:00:00	16	carbonara	26.5	1	28.41	1	0.0	1	null	6	null	6	51.17	1	1003.8	1	41.076845	16.866987
2540	2024-04-15 19:00:00	16	carbonara	25.15	1	30.92	1	0.0	1	null	6	null	6	0.0	5	1003.71	1	41.076845	16.866987
2541	2024-04-15 20:00:00	16	carbonara	23.63	1	33.95	1	0.0	1	null	6	null	6	0.0	1	1003.93	1	41.076845	16.866987
2542	2024-04-15 21:00:00	16	carbonara	23.36	1	33.47	1	0.0	1	null	6	null	6	0.0	1	1004.08	1	41.076845	16.866987
2543	2024-04-15 22:00:00	16	carbonara	23.32	1	33.87	1	0.0	1	null	6	null	6	0.0	1	1003.41	1	41.076845	16.866987
2544	2024-04-15 23:00:00	16	carbonara	23.43	1	33.75	1	0.0	1	null	6	null	6	0.0	1	1002.94	1	41.076845	16.866987
2545	2024-04-16 00:00:00	16	carbonara	23.25	1	35.86	1	0.0	1	null	6	null	6	0.0	1	1002.38	1	41.076845	16.866987
2546	2024-04-16 01:00:00	16	carbonara	23.26	1	35.31	1	0.0	1	null	6	null	6	0.0	1	1001.52	1	41.076845	16.866987
2547	2024-04-16 02:00:00	16	carbonara	23.2	1	35.26	1	0.0	1	null	6	null	6	0.0	1	1000.68	1	41.076845	16.866987
2548	2024-04-16 03:00:00	16	carbonara	22.87	1	35.65	1	0.0	1	null	6	null	6	0.0	1	999.89	1	41.076845	16.866987
2549	2024-04-16 04:00:00	16	carbonara	22.63	1	36.09	1	0.0	1	null	6	null	6	0.0	1	999.3	1	41.076845	16.866987
2550	2024-04-16 05:00:00	16	carbonara	22.24	1	38.68	1	0.0	1	null	6	null	6	0.0	1	998.96	1	41.076845	16.866987
2551	2024-04-16 06:00:00	16	carbonara	21.3	1	43.03	1	0.0	1	null	6	null	6	8.55	1	998.5	1	41.076845	16.866987
2552	2024-04-16 07:00:00	16	carbonara	21.31	1	42.74	1	0.0	1	null	6	null	6	37.62	1	998.09	1	41.076845	16.866987
2553	2024-04-16 08:00:00	16	carbonara	22.24	1	39.39	1	0.0	1	null	6	null	6	91.79	1	997.65	1	41.076845	16.866987
2554	2024-04-16 09:00:00	16	carbonara	22.68	1	43.15	1	0.0	1	null	6	null	6	88.38	1	997.48	1	41.076845	16.866987
2555	2024-04-16 10:00:00	16	carbonara	23.49	1	45.12	1	0.0	1	null	6	null	6	251.43	1	997.04	1	41.076845	16.866987
2556	2024-04-16 11:00:00	16	carbonara	26.0	1	37.69	1	0.0	1	null	6	null	6	383.41	1	996.39	1	41.076845	16.866987
2557	2024-04-16 12:00:00	16	carbonara	27.3	1	35.83	1	0.0	1	null	6	null	6	403.05	1	995.78	1	41.076845	16.866987
2558	2024-04-16 13:00:00	16	carbonara	26.41	1	39.18	1	0.0	1	null	6	null	6	209.32	1	995.49	1	41.076845	16.866987
2559	2024-04-16 14:00:00	16	carbonara	25.7	1	38.01	1	0.0	1	null	6	null	6	200.13	1	995.15	1	41.076845	16.866987
2560	2024-04-16 15:00:00	16	carbonara	24.26	1	41.94	1	0.0	1	null	6	null	6	121.71	1	995.01	1	41.076845	16.866987
2561	2024-04-16 16:00:00	16	carbonara	20.89	1	57.06	1	0.0	1	null	6	null	6	106.12	1	995.38	1	41.076845	16.866987
2562	2024-04-16 17:00:00	16	carbonara	18.99	1	61.08	1	0.0	1	null	6	null	6	30.87	1	994.86	1	41.076845	16.866987
2563	2024-04-16 18:00:00	16	carbonara	18.49	1	69.22	1	0.0	1	null	6	null	6	12.12	1	994.18	1	41.076845	16.866987
2564	2024-04-16 19:00:00	16	carbonara	17.78	1	80.46	1	0.2	1	null	6	null	6	0.0	5	993.76	1	41.076845	16.866987
2565	2024-04-16 20:00:00	16	carbonara	17.19	1	85.11	1	0.0	1	null	6	null	6	0.0	1	993.38	1	41.076845	16.866987
2566	2024-04-16 21:00:00	16	carbonara	17.3	1	81.14	1	0.0	1	null	6	null	6	0.0	1	993.38	1	41.076845	16.866987
2567	2024-04-16 22:00:00	16	carbonara	17.09	1	80.87	1	0.0	1	null	6	null	6	0.0	1	993.38	1	41.076845	16.866987
2568	2024-04-16 23:00:00	16	carbonara	17.22	1	78.58	1	0.0	1	null	6	null	6	0.0	1	993.17	1	41.076845	16.866987
2569	2024-04-17 00:00:00	16	carbonara	17.41	1	76.53	1	0.0	1	null	6	null	6	0.0	1	992.67	1	41.076845	16.866987
2570	2024-04-17 01:00:00	16	carbonara	17.18	1	80.32	1	0.0	1	null	6	null	6	0.0	1	991.94	1	41.076845	16.866987
2571	2024-04-17 02:00:00	16	carbonara	17.06	1	81.81	1	0.0	1	null	6	null	6	0.0	1	991.22	1	41.076845	16.866987
2572	2024-04-17 03:00:00	16	carbonara	16.67	1	83.67	1	0.0	1	null	6	null	6	0.0	1	990.88	1	41.076845	16.866987
2573	2024-04-17 04:00:00	16	carbonara	16.42	1	84.47	1	0.0	1	null	6	null	6	0.0	1	990.68	1	41.076845	16.866987
2574	2024-04-17 05:00:00	16	carbonara	15.68	1	88.54	1	0.2	1	null	6	null	6	0.0	1	990.91	1	41.076845	16.866987
2575	2024-04-17 06:00:00	16	carbonara	14.81	1	84.78	1	0.2	1	null	6	null	6	0.0	5	991.26	1	41.076845	16.866987
2576	2024-04-17 07:00:00	16	carbonara	14.64	1	85.2	1	0.4	1	null	6	null	6	26.81	1	991.88	1	41.076845	16.866987
2577	2024-04-17 08:00:00	16	carbonara	15.41	1	74.76	1	0.2	1	null	6	null	6	121.71	1	992.28	1	41.076845	16.866987
2578	2024-04-17 09:00:00	16	carbonara	17.07	1	62.82	1	0.2	1	null	6	null	6	355.84	1	992.2	1	41.076845	16.866987
2579	2024-04-17 10:00:00	16	carbonara	18.73	1	48.06	1	0.0	1	null	6	null	6	604.0	1	992.22	1	41.076845	16.866987
2580	2024-04-17 11:00:00	16	carbonara	18.85	1	49.72	1	0.2	1	null	6	null	6	520.05	1	992.47	1	41.076845	16.866987
2581	2024-04-17 12:00:00	16	carbonara	19.92	1	49.61	1	0.0	1	null	6	null	6	705.46	1	992.54	1	41.076845	16.866987
2582	2024-04-17 13:00:00	16	carbonara	19.69	1	47.48	1	0.0	1	null	6	null	6	634.86	1	992.51	1	41.076845	16.866987
2583	2024-04-17 14:00:00	16	carbonara	20.65	1	40.54	1	0.0	1	null	6	null	6	807.17	1	992.48	1	41.076845	16.866987
2584	2024-04-17 15:00:00	16	carbonara	18.44	1	48.11	1	0.0	1	null	6	null	6	257.54	1	992.84	1	41.076845	16.866987
2585	2024-04-17 16:00:00	16	carbonara	16.92	1	52.97	1	0.0	1	null	6	null	6	122.27	1	993.02	1	41.076845	16.866987
2586	2024-04-17 17:00:00	16	carbonara	16.14	1	56.0	1	0.0	1	null	6	null	6	70.77	1	993.47	1	41.076845	16.866987
2587	2024-04-17 18:00:00	16	carbonara	15.31	1	51.48	1	0.0	1	null	6	null	6	18.81	1	994.34	1	41.076845	16.866987
2588	2024-04-17 19:00:00	16	carbonara	13.86	1	50.4	1	0.0	1	null	6	null	6	0.0	5	995.11	1	41.076845	16.866987
2589	2024-04-17 20:00:00	16	carbonara	13.62	1	48.11	1	0.0	1	null	6	null	6	0.0	1	995.41	1	41.076845	16.866987
2590	2024-04-17 21:00:00	16	carbonara	13.17	1	49.92	1	0.0	1	null	6	null	6	0.0	1	995.95	1	41.076845	16.866987
2591	2024-04-17 22:00:00	16	carbonara	12.69	1	51.91	1	0.0	1	null	6	null	6	0.0	1	996.08	1	41.076845	16.866987
2592	2024-04-17 23:00:00	16	carbonara	12.16	1	53.63	1	0.0	1	null	6	null	6	0.0	1	996.09	1	41.076845	16.866987
2593	2024-04-18 00:00:00	16	carbonara	11.46	1	58.34	1	0.0	1	null	6	null	6	0.0	1	996.36	1	41.076845	16.866987
2594	2024-04-18 01:00:00	16	carbonara	11.12	1	61.8	1	0.0	1	null	6	null	6	0.0	1	996.57	1	41.076845	16.866987
2595	2024-04-18 02:00:00	16	carbonara	10.91	1	63.33	1	0.0	1	null	6	null	6	0.0	1	996.5	1	41.076845	16.866987
2596	2024-04-18 03:00:00	16	carbonara	10.68	1	64.0	1	0.0	1	null	6	null	6	0.0	1	996.51	1	41.076845	16.866987
2597	2024-04-18 04:00:00	16	carbonara	10.79	1	62.38	1	0.0	1	null	6	null	6	0.0	1	996.51	1	41.076845	16.866987
2598	2024-04-18 05:00:00	16	carbonara	10.49	1	63.75	1	0.0	1	null	6	null	6	0.0	1	996.58	1	41.076845	16.866987
2599	2024-04-18 06:00:00	16	carbonara	10.44	1	64.28	1	0.0	1	null	6	null	6	21.82	1	997.01	1	41.076845	16.866987
2600	2024-04-18 07:00:00	16	carbonara	12.7	1	57.87	1	0.0	1	null	6	null	6	174.56	1	997.5	1	41.076845	16.866987
2601	2024-04-18 08:00:00	16	carbonara	15.26	1	49.25	1	0.0	1	null	6	null	6	367.87	1	997.76	1	41.076845	16.866987
2602	2024-04-18 09:00:00	16	carbonara	17.34	1	40.95	1	0.0	1	null	6	null	6	498.72	1	998.06	1	41.076845	16.866987
2603	2024-04-18 10:00:00	16	carbonara	17.86	1	39.77	1	0.0	1	null	6	null	6	416.04	1	998.44	1	41.076845	16.866987
2604	2024-04-18 11:00:00	16	carbonara	18.03	1	41.83	1	0.0	1	null	6	null	6	595.06	1	998.61	1	41.076845	16.866987
2605	2024-04-18 12:00:00	16	carbonara	17.53	1	44.2	1	0.0	1	null	6	null	6	788.1	1	998.62	1	41.076845	16.866987
2606	2024-04-18 13:00:00	16	carbonara	17.18	1	37.2	1	0.0	1	null	6	null	6	531.37	1	998.55	1	41.076845	16.866987
2607	2024-04-18 14:00:00	16	carbonara	15.62	1	47.31	1	0.2	1	null	6	null	6	176.68	1	998.92	1	41.076845	16.866987
2608	2024-04-18 15:00:00	16	carbonara	15.66	1	48.47	1	0.0	1	null	6	null	6	290.72	1	998.81	1	41.076845	16.866987
2609	2024-04-18 16:00:00	16	carbonara	14.94	1	54.66	1	0.0	1	null	6	null	6	96.31	1	999.32	1	41.076845	16.866987
2610	2024-04-18 17:00:00	16	carbonara	13.28	1	70.22	1	0.0	1	null	6	null	6	52.34	1	999.76	1	41.076845	16.866987
2611	2024-04-18 18:00:00	16	carbonara	12.61	1	73.09	1	0.0	1	null	6	null	6	16.8	1	999.94	1	41.076845	16.866987
2612	2024-04-18 19:00:00	16	carbonara	12.71	1	74.2	1	0.0	1	null	6	null	6	0.0	5	1000.14	1	41.076845	16.866987
2613	2024-04-18 20:00:00	16	carbonara	12.58	1	76.29	1	0.0	1	null	6	null	6	0.0	1	1000.47	1	41.076845	16.866987
2614	2024-04-18 21:00:00	16	carbonara	12.52	1	75.56	1	0.0	1	null	6	null	6	0.0	1	1001.04	1	41.076845	16.866987
2615	2024-04-18 22:00:00	16	carbonara	12.36	1	77.65	1	0.0	1	null	6	null	6	0.0	1	1001.48	1	41.076845	16.866987
2616	2024-04-18 23:00:00	16	carbonara	11.76	1	84.97	1	0.2	1	null	6	null	6	0.0	1	1001.53	1	41.076845	16.866987
2617	2024-04-19 00:00:00	16	carbonara	11.43	1	87.23	1	0.2	1	null	6	null	6	0.0	1	1001.29	1	41.076845	16.866987
2618	2024-04-19 01:00:00	16	carbonara	11.16	1	87.38	1	0.0	1	null	6	null	6	0.0	1	1000.99	1	41.076845	16.866987
2619	2024-04-19 02:00:00	16	carbonara	10.39	1	90.93	1	0.2	1	null	6	null	6	0.0	1	1000.79	1	41.076845	16.866987
2620	2024-04-19 03:00:00	16	carbonara	10.13	1	92.06	1	0.0	1	null	6	null	6	0.0	1	1000.55	1	41.076845	16.866987
2621	2024-04-19 04:00:00	16	carbonara	10.22	1	89.68	1	0.2	1	null	6	null	6	0.0	1	1000.0	1	41.076845	16.866987
2622	2024-04-19 05:00:00	16	carbonara	10.05	1	86.98	1	0.2	1	null	6	null	6	0.0	1	999.81	1	41.076845	16.866987
2623	2024-04-19 06:00:00	16	carbonara	10.07	1	89.0	1	0.0	1	null	6	null	6	0.0	5	999.8	1	41.076845	16.866987
2624	2024-04-19 07:00:00	16	carbonara	10.49	1	89.16	1	0.2	1	null	6	null	6	14.09	1	999.97	1	41.076845	16.866987
2625	2024-04-19 08:00:00	16	carbonara	10.69	1	90.31	1	0.4	1	null	6	null	6	50.25	1	1000.41	1	41.076845	16.866987
2626	2024-04-19 09:00:00	16	carbonara	10.9	1	92.67	1	0.2	1	null	6	null	6	96.73	1	1000.64	1	41.076845	16.866987
2627	2024-04-19 10:00:00	16	carbonara	10.48	1	92.87	1	0.2	1	null	6	null	6	244.8	1	1000.86	1	41.076845	16.866987
2628	2024-04-19 11:00:00	16	carbonara	11.0	1	91.3	1	0.4	1	null	6	null	6	138.05	1	1001.4	1	41.076845	16.866987
2629	2024-04-19 12:00:00	16	carbonara	11.22	1	88.82	1	0.4	1	null	6	null	6	224.2	1	1001.06	1	41.076845	16.866987
2630	2024-04-19 13:00:00	16	carbonara	11.69	1	80.0	1	0.4	1	null	6	null	6	169.97	1	1000.75	1	41.076845	16.866987
2631	2024-04-19 14:00:00	16	carbonara	13.07	1	77.73	1	0.4	1	null	6	null	6	393.11	1	1000.67	1	41.076845	16.866987
2632	2024-04-19 15:00:00	16	carbonara	14.07	1	72.29	1	0.2	1	null	6	null	6	203.56	1	1000.51	1	41.076845	16.866987
2633	2024-04-19 16:00:00	16	carbonara	13.24	1	78.87	1	0.4	1	null	6	null	6	117.65	1	1000.45	1	41.076845	16.866987
2634	2024-04-19 17:00:00	16	carbonara	14.49	1	55.11	1	0.2	1	null	6	null	6	143.18	1	1000.7	1	41.076845	16.866987
2635	2024-04-19 18:00:00	16	carbonara	15.51	1	46.2	1	0.4	1	null	6	null	6	175.48	1	1001.01	1	41.076845	16.866987
2636	2024-04-19 19:00:00	16	carbonara	14.23	1	48.31	1	0.2	1	null	6	null	6	16.63	1	1001.55	1	41.076845	16.866987
2637	2024-04-19 20:00:00	16	carbonara	13.23	1	49.56	1	0.4	1	null	6	null	6	0.0	1	1002.1	1	41.076845	16.866987
2638	2024-04-19 21:00:00	16	carbonara	13.03	1	48.02	1	0.2	1	null	6	null	6	0.0	1	1002.45	1	41.076845	16.866987
2639	2024-04-19 22:00:00	16	carbonara	11.44	1	55.57	1	0.2	1	null	6	null	6	0.0	1	1002.58	1	41.076845	16.866987
2640	2024-04-19 23:00:00	16	carbonara	10.26	1	58.29	1	0.2	1	null	6	null	6	0.0	1	1002.67	1	41.076845	16.866987
2641	2024-04-20 00:00:00	16	carbonara	9.51	1	62.92	1	0.2	1	null	6	null	6	0.0	1	1002.52	1	41.076845	16.866987
2642	2024-04-20 01:00:00	16	carbonara	9.49	1	64.88	1	0.2	1	null	6	null	6	0.0	1	1002.17	1	41.076845	16.866987
2643	2024-04-20 02:00:00	16	carbonara	8.08	1	73.55	1	0.2	1	null	6	null	6	0.0	1	1001.64	1	41.076845	16.866987
2644	2024-04-20 03:00:00	16	carbonara	7.94	1	74.08	1	0.2	1	null	6	null	6	0.0	1	1001.26	1	41.076845	16.866987
2645	2024-04-20 04:00:00	16	carbonara	8.08	1	67.46	1	0.0	1	null	6	null	6	0.0	1	1000.87	1	41.076845	16.866987
2646	2024-04-20 05:00:00	16	carbonara	7.83	1	61.9	1	0.2	1	null	6	null	6	0.0	1	1000.74	1	41.076845	16.866987
2647	2024-04-20 06:00:00	16	carbonara	7.87	1	59.33	1	0.2	1	null	6	null	6	29.54	1	1000.54	1	41.076845	16.866987
2648	2024-04-20 07:00:00	16	carbonara	11.15	1	54.72	1	0.0	1	null	6	null	6	189.0	1	1000.37	1	41.076845	16.866987
2649	2024-04-20 08:00:00	16	carbonara	15.99	1	44.98	1	0.2	1	null	6	null	6	385.24	1	1000.28	1	41.076845	16.866987
2650	2024-04-20 09:00:00	16	carbonara	18.03	1	39.81	1	0.0	1	null	6	null	6	582.72	1	1000.17	1	41.076845	16.866987
2651	2024-04-20 10:00:00	16	carbonara	18.25	1	38.12	1	0.2	1	null	6	null	6	566.84	1	1000.49	1	41.076845	16.866987
2652	2024-04-20 11:00:00	16	carbonara	18.35	1	39.56	1	0.0	1	null	6	null	6	632.14	1	1000.6	1	41.076845	16.866987
2653	2024-04-20 12:00:00	16	carbonara	18.52	1	40.7	1	0.0	1	null	6	null	6	778.98	1	1000.35	1	41.076845	16.866987
2654	2024-04-20 13:00:00	16	carbonara	17.58	1	47.82	1	0.0	1	null	6	null	6	480.79	1	1000.23	1	41.076845	16.866987
2655	2024-04-20 14:00:00	16	carbonara	17.58	1	46.15	1	0.0	1	null	6	null	6	602.95	1	999.9	1	41.076845	16.866987
2656	2024-04-20 15:00:00	16	carbonara	17.08	1	47.51	1	0.0	1	null	6	null	6	175.3	1	999.52	1	41.076845	16.866987
2657	2024-04-20 16:00:00	16	carbonara	16.15	1	49.36	1	0.0	1	null	6	null	6	164.23	1	999.69	1	41.076845	16.866987
2658	2024-04-20 17:00:00	16	carbonara	14.84	1	59.9	1	0.0	1	null	6	null	6	39.67	1	999.95	1	41.076845	16.866987
2659	2024-04-20 18:00:00	16	carbonara	13.65	1	76.67	1	0.0	1	null	6	null	6	8.23	1	999.89	1	41.076845	16.866987
2660	2024-04-20 19:00:00	16	carbonara	12.94	1	85.83	1	0.2	1	null	6	null	6	0.0	5	1000.14	1	41.076845	16.866987
2661	2024-04-20 20:00:00	16	carbonara	12.15	1	91.71	1	0.0	1	null	6	null	6	0.0	1	1000.49	1	41.076845	16.866987
2662	2024-04-20 21:00:00	16	carbonara	12.07	1	90.08	1	0.2	1	null	6	null	6	0.0	1	1000.34	1	41.076845	16.866987
2663	2024-04-20 22:00:00	16	carbonara	12.03	1	90.8	1	0.0	1	null	6	null	6	0.0	1	1000.11	1	41.076845	16.866987
2664	2024-04-20 23:00:00	16	carbonara	11.84	1	94.8	1	0.4	1	null	6	null	6	0.0	1	1000.0	1	41.076845	16.866987
2665	2024-04-21 00:00:00	16	carbonara	11.46	1	96.38	1	0.2	1	null	6	null	6	0.0	1	999.59	1	41.076845	16.866987
2666	2024-04-21 01:00:00	16	carbonara	10.98	1	95.87	1	0.2	1	null	6	null	6	0.0	1	999.16	1	41.076845	16.866987
2667	2024-04-21 02:00:00	16	carbonara	10.62	1	96.23	1	0.2	1	null	6	null	6	0.0	1	998.63	1	41.076845	16.866987
2668	2024-04-21 03:00:00	16	carbonara	10.26	1	95.46	1	0.0	1	null	6	null	6	0.0	1	998.74	1	41.076845	16.866987
2669	2024-04-21 04:00:00	16	carbonara	9.59	1	92.04	1	0.0	1	null	6	null	6	0.0	1	998.78	1	41.076845	16.866987
2670	2024-04-21 05:00:00	16	carbonara	9.45	1	87.06	1	0.0	1	null	6	null	6	0.0	1	998.77	1	41.076845	16.866987
2671	2024-04-21 06:00:00	16	carbonara	9.34	1	82.82	1	0.0	1	null	6	null	6	7.18	1	998.89	1	41.076845	16.866987
2672	2024-04-21 07:00:00	16	carbonara	10.13	1	74.68	1	0.0	1	null	6	null	6	173.49	1	998.9	1	41.076845	16.866987
2673	2024-04-21 08:00:00	16	carbonara	11.94	1	63.73	1	0.0	1	null	6	null	6	356.38	1	999.0	1	41.076845	16.866987
2674	2024-04-21 09:00:00	16	carbonara	13.12	1	57.62	1	0.0	1	null	6	null	6	429.9	1	998.94	1	41.076845	16.866987
2675	2024-04-21 10:00:00	16	carbonara	11.85	1	67.35	1	0.0	1	null	6	null	6	192.15	1	999.47	1	41.076845	16.866987
2676	2024-04-21 11:00:00	16	carbonara	11.54	1	79.46	1	0.0	1	null	6	null	6	164.2	1	1000.16	1	41.076845	16.866987
2677	2024-04-21 12:00:00	16	carbonara	12.96	1	81.82	1	0.0	1	null	6	null	6	622.98	1	1000.92	1	41.076845	16.866987
2678	2024-04-21 13:00:00	16	carbonara	15.06	1	63.4	1	0.0	1	null	6	null	6	579.52	1	1001.59	1	41.076845	16.866987
2679	2024-04-21 14:00:00	16	carbonara	15.26	1	54.43	1	0.0	1	null	6	null	6	402.8	1	1002.44	1	41.076845	16.866987
2680	2024-04-21 15:00:00	16	carbonara	15.04	1	57.64	1	0.2	1	null	6	null	6	266.64	1	1002.57	1	41.076845	16.866987
2681	2024-04-21 16:00:00	16	carbonara	13.89	1	64.58	1	0.0	1	null	6	null	6	233.35	1	1003.15	1	41.076845	16.866987
2682	2024-04-21 17:00:00	16	carbonara	16.25	1	56.76	1	0.2	1	null	6	null	6	360.51	1	1003.14	1	41.076845	16.866987
2683	2024-04-21 18:00:00	16	carbonara	16.11	1	57.24	1	0.0	1	null	6	null	6	179.06	1	1003.19	1	41.076845	16.866987
2684	2024-04-21 19:00:00	16	carbonara	14.2	1	60.34	1	0.2	1	null	6	null	6	19.06	1	1003.88	1	41.076845	16.866987
2685	2024-04-21 20:00:00	16	carbonara	12.18	1	68.74	1	0.0	1	null	6	null	6	0.0	1	1004.76	1	41.076845	16.866987
2686	2024-04-21 21:00:00	16	carbonara	10.8	1	77.96	1	0.2	1	null	6	null	6	0.0	1	1005.31	1	41.076845	16.866987
2687	2024-04-21 22:00:00	16	carbonara	9.56	1	82.3	1	0.0	1	null	6	null	6	0.0	1	1005.85	1	41.076845	16.866987
2688	2024-04-21 23:00:00	16	carbonara	8.45	1	85.93	1	0.0	1	null	6	null	6	0.0	1	1006.17	1	41.076845	16.866987
2689	2024-04-22 00:00:00	16	carbonara	7.95	1	86.1	1	0.2	1	null	6	null	6	0.0	1	1006.28	1	41.076845	16.866987
2690	2024-04-22 01:00:00	16	carbonara	7.14	1	88.55	1	0.0	1	null	6	null	6	0.0	1	1006.15	1	41.076845	16.866987
2691	2024-04-22 02:00:00	16	carbonara	6.95	1	88.04	1	0.0	1	null	6	null	6	0.0	1	1005.84	1	41.076845	16.866987
2692	2024-04-22 03:00:00	16	carbonara	6.64	1	87.87	1	0.0	1	null	6	null	6	0.0	1	1005.57	1	41.076845	16.866987
2693	2024-04-22 04:00:00	16	carbonara	6.64	1	86.72	1	0.0	1	null	6	null	6	0.0	1	1005.32	1	41.076845	16.866987
2694	2024-04-22 05:00:00	16	carbonara	6.73	1	86.16	1	0.0	1	null	6	null	6	0.0	1	1005.04	1	41.076845	16.866987
2695	2024-04-22 06:00:00	16	carbonara	7.29	1	84.39	1	0.0	1	null	6	null	6	28.17	1	1004.96	1	41.076845	16.866987
2696	2024-04-22 07:00:00	16	carbonara	9.23	1	79.39	1	0.0	1	null	6	null	6	141.82	1	1004.92	1	41.076845	16.866987
2697	2024-04-22 08:00:00	16	carbonara	13.47	1	66.34	1	0.0	1	null	6	null	6	357.72	1	1004.74	1	41.076845	16.866987
2698	2024-04-22 09:00:00	16	carbonara	16.05	1	54.86	1	0.0	1	null	6	null	6	463.99	1	1004.74	1	41.076845	16.866987
2699	2024-04-22 10:00:00	16	carbonara	16.97	1	45.76	1	0.0	1	null	6	null	6	636.7	1	1004.72	1	41.076845	16.866987
2700	2024-04-22 11:00:00	16	carbonara	18.71	1	42.1	1	0.0	1	null	6	null	6	660.05	1	1004.54	1	41.076845	16.866987
2701	2024-04-22 12:00:00	16	carbonara	18.69	1	44.64	1	0.0	1	null	6	null	6	719.32	1	1004.02	1	41.076845	16.866987
2702	2024-04-22 13:00:00	16	carbonara	18.19	1	51.26	1	0.0	1	null	6	null	6	635.11	1	1003.55	1	41.076845	16.866987
2703	2024-04-22 14:00:00	16	carbonara	18.54	1	52.17	1	0.0	1	null	6	null	6	689.97	1	1003.03	1	41.076845	16.866987
2704	2024-04-22 15:00:00	16	carbonara	19.26	1	49.47	1	0.0	1	null	6	null	6	581.37	1	1002.33	1	41.076845	16.866987
2705	2024-04-22 16:00:00	16	carbonara	18.86	1	48.84	1	0.0	1	null	6	null	6	538.32	1	1002.0	1	41.076845	16.866987
2706	2024-04-22 17:00:00	16	carbonara	18.63	1	52.12	1	0.0	1	null	6	null	6	453.27	1	1001.71	1	41.076845	16.866987
2707	2024-04-22 18:00:00	16	carbonara	17.82	1	55.76	1	0.0	1	null	6	null	6	168.75	1	1001.39	1	41.076845	16.866987
2708	2024-04-22 19:00:00	16	carbonara	16.35	1	62.22	1	0.0	1	null	6	null	6	14.03	1	1001.53	1	41.076845	16.866987
2709	2024-04-22 20:00:00	16	carbonara	15.33	1	69.15	1	0.0	1	null	6	null	6	0.0	1	1001.82	1	41.076845	16.866987
2710	2024-04-22 21:00:00	16	carbonara	14.67	1	73.2	1	0.0	1	null	6	null	6	0.0	1	1001.92	1	41.076845	16.866987
2711	2024-04-22 22:00:00	16	carbonara	14.25	1	73.7	1	0.0	1	null	6	null	6	0.0	1	1001.57	1	41.076845	16.866987
2712	2024-04-22 23:00:00	16	carbonara	13.74	1	70.56	1	0.0	1	null	6	null	6	0.0	1	1001.28	1	41.076845	16.866987
2713	2024-04-23 00:00:00	16	carbonara	13.31	1	68.97	1	0.0	1	null	6	null	6	0.0	1	1001.05	1	41.076845	16.866987
2714	2024-04-23 01:00:00	16	carbonara	12.52	1	72.84	1	0.0	1	null	6	null	6	0.0	1	1000.6	1	41.076845	16.866987
2715	2024-04-23 02:00:00	16	carbonara	11.6	1	78.46	1	0.0	1	null	6	null	6	0.0	1	1000.17	1	41.076845	16.866987
2716	2024-04-23 03:00:00	16	carbonara	11.51	1	74.55	1	0.0	1	null	6	null	6	0.0	1	999.49	1	41.076845	16.866987
2717	2024-04-23 04:00:00	16	carbonara	10.71	1	76.91	1	0.0	1	null	6	null	6	0.0	1	999.26	1	41.076845	16.866987
2718	2024-04-23 05:00:00	16	carbonara	10.04	1	76.57	1	0.0	1	null	6	null	6	0.0	1	998.64	1	41.076845	16.866987
2719	2024-04-23 06:00:00	16	carbonara	10.2	1	71.34	1	0.0	1	null	6	null	6	17.23	1	998.37	1	41.076845	16.866987
2720	2024-04-23 07:00:00	16	carbonara	11.05	1	70.49	1	0.0	1	null	6	null	6	91.08	1	998.14	1	41.076845	16.866987
2721	2024-04-23 08:00:00	16	carbonara	13.55	1	64.52	1	0.0	1	null	6	null	6	222.02	1	997.63	1	41.076845	16.866987
2722	2024-04-23 09:00:00	16	carbonara	15.7	1	55.21	1	0.0	1	null	6	null	6	241.71	1	997.38	1	41.076845	16.866987
2723	2024-04-23 10:00:00	16	carbonara	17.34	1	49.14	1	0.0	1	null	6	null	6	336.38	1	997.15	1	41.076845	16.866987
2724	2024-04-23 11:00:00	16	carbonara	17.63	1	53.95	1	0.0	1	null	6	null	6	266.6	1	996.86	1	41.076845	16.866987
2725	2024-04-23 12:00:00	16	carbonara	17.31	1	57.3	1	0.0	1	null	6	null	6	423.73	1	996.3	1	41.076845	16.866987
2726	2024-04-23 13:00:00	16	carbonara	18.84	1	50.01	1	0.0	1	null	6	null	6	662.1	1	996.05	1	41.076845	16.866987
2727	2024-04-23 14:00:00	16	carbonara	19.49	1	45.93	1	0.0	1	null	6	null	6	842.33	1	995.7	1	41.076845	16.866987
2728	2024-04-23 15:00:00	16	carbonara	19.7	1	47.68	1	0.0	1	null	6	null	6	750.95	1	995.11	1	41.076845	16.866987
2729	2024-04-23 16:00:00	16	carbonara	19.52	1	49.73	1	0.0	1	null	6	null	6	499.82	1	995.0	1	41.076845	16.866987
2730	2024-04-23 17:00:00	16	carbonara	18.13	1	56.53	1	0.0	1	null	6	null	6	133.47	1	995.68	1	41.076845	16.866987
2731	2024-04-23 18:00:00	16	carbonara	17.0	1	64.8	1	0.0	1	null	6	null	6	76.85	1	995.87	1	41.076845	16.866987
2732	2024-04-23 19:00:00	16	carbonara	16.41	1	65.35	1	0.0	1	null	6	null	6	10.1	1	996.54	1	41.076845	16.866987
2733	2024-04-23 20:00:00	16	carbonara	15.97	1	50.33	1	0.0	1	null	6	null	6	0.0	1	997.51	1	41.076845	16.866987
2734	2024-04-23 21:00:00	16	carbonara	14.75	1	39.0	1	0.0	1	null	6	null	6	0.0	1	998.58	1	41.076845	16.866987
2735	2024-04-23 22:00:00	16	carbonara	13.22	1	43.83	1	0.0	1	null	6	null	6	0.0	1	999.18	1	41.076845	16.866987
2736	2024-04-23 23:00:00	16	carbonara	12.59	1	45.92	1	0.0	1	null	6	null	6	0.0	1	999.61	1	41.076845	16.866987
2737	2024-04-24 00:00:00	16	carbonara	12.02	1	49.26	1	0.0	1	null	6	null	6	0.0	1	999.96	1	41.076845	16.866987
2738	2024-04-24 01:00:00	16	carbonara	11.39	1	51.68	1	0.0	1	null	6	null	6	0.0	1	999.84	1	41.076845	16.866987
2739	2024-04-24 02:00:00	16	carbonara	10.45	1	57.62	1	0.0	1	null	6	null	6	0.0	1	999.83	1	41.076845	16.866987
2740	2024-04-24 03:00:00	16	carbonara	10.17	1	58.32	1	0.0	1	null	6	null	6	0.0	1	999.62	1	41.076845	16.866987
2741	2024-04-24 04:00:00	16	carbonara	9.48	1	61.7	1	0.0	1	null	6	null	6	0.0	1	999.51	1	41.076845	16.866987
2742	2024-04-24 05:00:00	16	carbonara	9.23	1	60.29	1	0.0	1	null	6	null	6	0.0	1	999.52	1	41.076845	16.866987
2743	2024-04-24 06:00:00	16	carbonara	9.21	1	61.31	1	0.0	1	null	6	null	6	39.08	1	999.35	1	41.076845	16.866987
2744	2024-04-24 07:00:00	16	carbonara	11.36	1	56.36	1	0.0	1	null	6	null	6	162.1	1	999.24	1	41.076845	16.866987
2745	2024-04-24 08:00:00	16	carbonara	13.41	1	50.55	1	0.0	1	null	6	null	6	172.52	1	999.23	1	41.076845	16.866987
2746	2024-04-24 09:00:00	16	carbonara	16.95	1	39.38	1	0.0	1	null	6	null	6	520.88	1	999.0	1	41.076845	16.866987
2747	2024-04-24 10:00:00	16	carbonara	18.57	1	34.76	1	0.0	1	null	6	null	6	512.94	1	998.87	1	41.076845	16.866987
2748	2024-04-24 11:00:00	16	carbonara	16.54	1	46.76	1	0.0	1	null	6	null	6	181.04	1	999.23	1	41.076845	16.866987
2749	2024-04-24 12:00:00	16	carbonara	14.83	1	60.66	1	0.0	1	null	6	null	6	450.08	1	999.43	1	41.076845	16.866987
2750	2024-04-24 13:00:00	16	carbonara	14.76	1	65.22	1	0.0	1	null	6	null	6	627.11	1	999.3	1	41.076845	16.866987
2751	2024-04-24 14:00:00	16	carbonara	17.15	1	48.46	1	0.0	1	null	6	null	6	461.02	1	998.39	1	41.076845	16.866987
2752	2024-04-24 15:00:00	16	carbonara	15.37	1	61.68	1	0.2	1	null	6	null	6	329.3	1	997.87	1	41.076845	16.866987
2753	2024-04-24 16:00:00	16	carbonara	15.53	1	59.76	1	0.0	1	null	6	null	6	315.19	1	997.74	1	41.076845	16.866987
2754	2024-04-24 17:00:00	16	carbonara	15.76	1	60.22	1	0.2	1	null	6	null	6	260.42	1	997.56	1	41.076845	16.866987
2755	2024-04-24 18:00:00	16	carbonara	14.93	1	63.36	1	0.0	1	null	6	null	6	110.41	1	997.75	1	41.076845	16.866987
2756	2024-04-24 19:00:00	16	carbonara	14.12	1	68.41	1	0.0	1	null	6	null	6	9.75	1	997.8	1	41.076845	16.866987
2757	2024-04-24 20:00:00	16	carbonara	13.52	1	71.14	1	0.0	1	null	6	null	6	0.0	1	998.05	1	41.076845	16.866987
2758	2024-04-24 21:00:00	16	carbonara	12.57	1	72.43	1	0.2	1	null	6	null	6	0.0	1	998.88	1	41.076845	16.866987
2759	2024-04-24 22:00:00	16	carbonara	11.9	1	75.41	1	0.0	1	null	6	null	6	0.0	1	998.93	1	41.076845	16.866987
2760	2024-04-24 23:00:00	16	carbonara	10.72	1	83.33	1	0.2	1	null	6	null	6	0.0	1	998.87	1	41.076845	16.866987
2761	2024-04-25 00:00:00	16	carbonara	10.14	1	78.92	1	0.0	1	null	6	null	6	0.0	1	998.97	1	41.076845	16.866987
2762	2024-04-25 01:00:00	16	carbonara	9.57	1	73.63	1	0.0	1	null	6	null	6	0.0	1	998.82	1	41.076845	16.866987
2763	2024-04-25 02:00:00	16	carbonara	8.39	1	75.54	1	0.0	1	null	6	null	6	0.0	1	998.49	1	41.076845	16.866987
2764	2024-04-25 03:00:00	16	carbonara	8.29	1	69.28	1	0.0	1	null	6	null	6	0.0	1	997.91	1	41.076845	16.866987
2765	2024-04-25 04:00:00	16	carbonara	7.8	1	71.37	1	0.0	1	null	6	null	6	0.0	1	997.93	1	41.076845	16.866987
2766	2024-04-25 05:00:00	16	carbonara	7.62	1	72.65	1	0.0	1	null	6	null	6	0.0	1	998.16	1	41.076845	16.866987
2767	2024-04-25 06:00:00	16	carbonara	7.62	1	72.39	1	0.0	1	null	6	null	6	40.05	1	998.22	1	41.076845	16.866987
2768	2024-04-25 07:00:00	16	carbonara	10.95	1	59.84	1	0.0	1	null	6	null	6	206.64	1	998.47	1	41.076845	16.866987
2769	2024-04-25 08:00:00	16	carbonara	13.67	1	52.98	1	0.0	1	null	6	null	6	403.77	1	998.65	1	41.076845	16.866987
2770	2024-04-25 09:00:00	16	carbonara	15.93	1	42.95	1	0.0	1	null	6	null	6	591.49	1	998.78	1	41.076845	16.866987
2771	2024-04-25 10:00:00	16	carbonara	17.48	1	36.44	1	0.0	1	null	6	null	6	716.62	1	998.77	1	41.076845	16.866987
2772	2024-04-25 11:00:00	16	carbonara	17.74	1	40.78	1	0.0	1	null	6	null	6	637.61	1	998.95	1	41.076845	16.866987
2773	2024-04-25 12:00:00	16	carbonara	17.32	1	44.16	1	0.0	1	null	6	null	6	828.6	1	998.87	1	41.076845	16.866987
2774	2024-04-25 13:00:00	16	carbonara	18.41	1	41.39	1	0.0	1	null	6	null	6	929.42	1	998.79	1	41.076845	16.866987
2775	2024-04-25 14:00:00	16	carbonara	18.12	1	44.57	1	0.0	1	null	6	null	6	877.44	1	998.81	1	41.076845	16.866987
2776	2024-04-25 15:00:00	16	carbonara	17.27	1	46.58	1	0.0	1	null	6	null	6	447.61	1	998.78	1	41.076845	16.866987
2777	2024-04-25 16:00:00	16	carbonara	16.61	1	49.26	1	0.0	1	null	6	null	6	278.4	1	999.21	1	41.076845	16.866987
2778	2024-04-25 17:00:00	16	carbonara	16.36	1	49.91	1	0.0	1	null	6	null	6	155.24	1	999.61	1	41.076845	16.866987
2779	2024-04-25 18:00:00	16	carbonara	16.44	1	48.8	1	0.0	1	null	6	null	6	102.03	1	999.83	1	41.076845	16.866987
2780	2024-04-25 19:00:00	16	carbonara	15.43	1	53.74	1	0.0	1	null	6	null	6	9.28	1	1000.39	1	41.076845	16.866987
2781	2024-04-25 20:00:00	16	carbonara	14.21	1	56.76	1	0.0	1	null	6	null	6	0.0	1	1001.14	1	41.076845	16.866987
2782	2024-04-25 21:00:00	16	carbonara	13.28	1	61.69	1	0.0	1	null	6	null	6	0.0	1	1001.73	1	41.076845	16.866987
2783	2024-04-25 22:00:00	16	carbonara	12.16	1	70.06	1	0.0	1	null	6	null	6	0.0	1	1002.29	1	41.076845	16.866987
2784	2024-04-25 23:00:00	16	carbonara	12.13	1	69.62	1	0.0	1	null	6	null	6	0.0	1	1002.59	1	41.076845	16.866987
2785	2024-04-26 00:00:00	16	carbonara	12.19	1	67.4	1	0.0	1	null	6	null	6	0.0	1	1002.87	1	41.076845	16.866987
2786	2024-04-26 01:00:00	16	carbonara	11.14	1	71.65	1	0.0	1	null	6	null	6	0.0	1	1002.94	1	41.076845	16.866987
2787	2024-04-26 02:00:00	16	carbonara	10.24	1	74.81	1	0.0	1	null	6	null	6	0.0	1	1002.88	1	41.076845	16.866987
2788	2024-04-26 03:00:00	16	carbonara	9.79	1	75.56	1	0.0	1	null	6	null	6	0.0	1	1002.96	1	41.076845	16.866987
2789	2024-04-26 04:00:00	16	carbonara	9.7	1	73.9	1	0.0	1	null	6	null	6	0.0	1	1003.04	1	41.076845	16.866987
2790	2024-04-26 05:00:00	16	carbonara	9.2	1	75.64	1	0.0	1	null	6	null	6	0.0	1	1003.24	1	41.076845	16.866987
2791	2024-04-26 06:00:00	16	carbonara	9.15	1	74.32	1	0.0	1	null	6	null	6	26.2	1	1003.44	1	41.076845	16.866987
2792	2024-04-26 07:00:00	16	carbonara	11.87	1	63.57	1	0.0	1	null	6	null	6	175.89	1	1003.55	1	41.076845	16.866987
2793	2024-04-26 08:00:00	16	carbonara	16.53	1	48.04	1	0.0	1	null	6	null	6	396.44	1	1003.93	1	41.076845	16.866987
2794	2024-04-26 09:00:00	16	carbonara	18.44	1	33.67	1	0.0	1	null	6	null	6	360.96	1	1004.08	1	41.076845	16.866987
2795	2024-04-26 10:00:00	16	carbonara	18.88	1	31.95	1	0.0	1	null	6	null	6	327.65	1	1004.47	1	41.076845	16.866987
2796	2024-04-26 11:00:00	16	carbonara	18.67	1	33.38	1	0.0	1	null	6	null	6	537.81	1	1004.62	1	41.076845	16.866987
2797	2024-04-26 12:00:00	16	carbonara	20.59	1	30.85	1	0.0	1	null	6	null	6	868.87	1	1004.2	1	41.076845	16.866987
2798	2024-04-26 13:00:00	16	carbonara	20.92	1	32.1	1	0.0	1	null	6	null	6	623.6	1	1003.93	1	41.076845	16.866987
2799	2024-04-26 14:00:00	16	carbonara	19.92	1	37.06	1	0.0	1	null	6	null	6	529.56	1	1003.78	1	41.076845	16.866987
2800	2024-04-26 15:00:00	16	carbonara	19.98	1	41.52	1	0.0	1	null	6	null	6	459.1	1	1003.6	1	41.076845	16.866987
2801	2024-04-26 16:00:00	16	carbonara	19.93	1	48.14	1	0.0	1	null	6	null	6	454.5	1	1003.39	1	41.076845	16.866987
2802	2024-04-26 17:00:00	16	carbonara	18.96	1	54.0	1	0.0	1	null	6	null	6	152.65	1	1003.49	1	41.076845	16.866987
2803	2024-04-26 18:00:00	16	carbonara	19.0	1	42.62	1	0.0	1	null	6	null	6	95.53	1	1003.77	1	41.076845	16.866987
2804	2024-04-26 19:00:00	16	carbonara	17.67	1	44.59	1	0.0	1	null	6	null	6	16.44	1	1004.37	1	41.076845	16.866987
2805	2024-04-26 20:00:00	16	carbonara	16.55	1	54.42	1	0.0	1	null	6	null	6	0.0	1	1005.13	1	41.076845	16.866987
2806	2024-04-26 21:00:00	16	carbonara	15.68	1	61.66	1	0.0	1	null	6	null	6	0.0	1	1005.59	1	41.076845	16.866987
2807	2024-04-26 22:00:00	16	carbonara	14.69	1	70.28	1	0.0	1	null	6	null	6	0.0	1	1005.76	1	41.076845	16.866987
2808	2024-04-26 23:00:00	16	carbonara	14.57	1	75.24	1	0.0	1	null	6	null	6	0.0	1	1005.6	1	41.076845	16.866987
2809	2024-04-27 00:00:00	16	carbonara	14.85	1	75.98	1	0.0	1	null	6	null	6	0.0	1	1005.7	1	41.076845	16.866987
2810	2024-04-27 01:00:00	16	carbonara	14.9	1	76.48	1	0.0	1	null	6	null	6	0.0	1	1005.58	1	41.076845	16.866987
2811	2024-04-27 02:00:00	16	carbonara	14.38	1	78.87	1	0.0	1	null	6	null	6	0.0	1	1005.45	1	41.076845	16.866987
2812	2024-04-27 03:00:00	16	carbonara	13.49	1	82.38	1	0.0	1	null	6	null	6	0.0	1	1005.52	1	41.076845	16.866987
2813	2024-04-27 04:00:00	16	carbonara	12.94	1	83.67	1	0.0	1	null	6	null	6	0.0	1	1005.75	1	41.076845	16.866987
2814	2024-04-27 05:00:00	16	carbonara	11.42	1	89.01	1	0.0	1	null	6	null	6	0.0	1	1006.16	1	41.076845	16.866987
2815	2024-04-27 06:00:00	16	carbonara	11.13	1	91.38	1	0.0	1	null	6	null	6	40.49	1	1006.79	1	41.076845	16.866987
2816	2024-04-27 07:00:00	16	carbonara	14.24	1	84.38	1	0.0	1	null	6	null	6	197.88	1	1007.37	1	41.076845	16.866987
2817	2024-04-27 08:00:00	16	carbonara	19.01	1	61.07	1	0.0	1	null	6	null	6	391.03	1	1007.58	1	41.076845	16.866987
2818	2024-04-27 09:00:00	16	carbonara	20.01	1	53.96	1	0.0	1	null	6	null	6	575.86	1	1007.66	1	41.076845	16.866987
2819	2024-04-27 10:00:00	16	carbonara	19.57	1	55.92	1	0.0	1	null	6	null	6	733.03	1	1007.91	1	41.076845	16.866987
2820	2024-04-27 11:00:00	16	carbonara	19.99	1	54.6	1	0.0	1	null	6	null	6	847.72	1	1008.07	1	41.076845	16.866987
2821	2024-04-27 12:00:00	16	carbonara	20.63	1	44.81	1	0.0	1	null	6	null	6	912.13	1	1007.96	1	41.076845	16.866987
2822	2024-04-27 13:00:00	16	carbonara	21.4	1	41.12	1	0.0	1	null	6	null	6	915.04	1	1007.74	1	41.076845	16.866987
2823	2024-04-27 14:00:00	16	carbonara	21.62	1	41.51	1	0.0	1	null	6	null	6	864.43	1	1007.69	1	41.076845	16.866987
2824	2024-04-27 15:00:00	16	carbonara	21.99	1	43.14	1	0.0	1	null	6	null	6	757.81	1	1007.48	1	41.076845	16.866987
2825	2024-04-27 16:00:00	16	carbonara	22.0	1	44.18	1	0.0	1	null	6	null	6	603.03	1	1007.27	1	41.076845	16.866987
2826	2024-04-27 17:00:00	16	carbonara	21.71	1	46.08	1	0.0	1	null	6	null	6	410.34	1	1007.4	1	41.076845	16.866987
2827	2024-04-27 18:00:00	16	carbonara	20.45	1	53.0	1	0.0	1	null	6	null	6	201.02	1	1007.55	1	41.076845	16.866987
2828	2024-04-27 19:00:00	16	carbonara	18.57	1	61.71	1	0.0	1	null	6	null	6	30.01	1	1007.84	1	41.076845	16.866987
2829	2024-04-27 20:00:00	16	carbonara	16.93	1	67.49	1	0.0	1	null	6	null	6	0.0	1	1008.39	1	41.076845	16.866987
2830	2024-04-27 21:00:00	16	carbonara	16.3	1	67.13	1	0.0	1	null	6	null	6	0.0	1	1009.12	1	41.076845	16.866987
2831	2024-04-27 22:00:00	16	carbonara	15.82	1	64.05	1	0.0	1	null	6	null	6	0.0	1	1009.33	1	41.076845	16.866987
2832	2024-04-27 23:00:00	16	carbonara	15.07	1	64.27	1	0.0	1	null	6	null	6	0.0	1	1009.45	1	41.076845	16.866987
2833	2024-04-28 00:00:00	16	carbonara	14.34	1	66.71	1	0.0	1	null	6	null	6	0.0	1	1009.59	1	41.076845	16.866987
2834	2024-04-28 01:00:00	16	carbonara	13.84	1	66.08	1	0.0	1	null	6	null	6	0.0	1	1009.64	1	41.076845	16.866987
2835	2024-04-28 02:00:00	16	carbonara	13.6	1	59.6	1	0.0	1	null	6	null	6	0.0	1	1009.32	1	41.076845	16.866987
2836	2024-04-28 03:00:00	16	carbonara	12.8	1	59.88	1	0.0	1	null	6	null	6	0.0	1	1009.42	1	41.076845	16.866987
2837	2024-04-28 04:00:00	16	carbonara	12.06	1	63.38	1	0.0	1	null	6	null	6	0.0	1	1009.58	1	41.076845	16.866987
2838	2024-04-28 05:00:00	16	carbonara	10.92	1	69.69	1	0.0	1	null	6	null	6	0.0	5	1009.82	1	41.076845	16.866987
2839	2024-04-28 06:00:00	16	carbonara	11.0	1	69.58	1	0.0	1	null	6	null	6	47.75	1	1010.23	1	41.076845	16.866987
2840	2024-04-28 07:00:00	16	carbonara	14.75	1	58.4	1	0.0	1	null	6	null	6	211.87	1	1010.62	1	41.076845	16.866987
2841	2024-04-28 08:00:00	16	carbonara	18.62	1	53.03	1	0.0	1	null	6	null	6	405.9	1	1010.72	1	41.076845	16.866987
2842	2024-04-28 09:00:00	16	carbonara	21.47	1	45.57	1	0.0	1	null	6	null	6	593.54	1	1010.66	1	41.076845	16.866987
2843	2024-04-28 10:00:00	16	carbonara	21.5	1	44.38	1	0.0	1	null	6	null	6	757.36	1	1010.76	1	41.076845	16.866987
2844	2024-04-28 11:00:00	16	carbonara	22.01	1	35.45	1	0.0	1	null	6	null	6	870.39	1	1010.69	1	41.076845	16.866987
2845	2024-04-28 12:00:00	16	carbonara	22.13	1	36.66	1	0.0	1	null	6	null	6	923.28	1	1010.43	1	41.076845	16.866987
2846	2024-04-28 13:00:00	16	carbonara	21.96	1	41.37	1	0.0	1	null	6	null	6	924.81	1	1009.95	1	41.076845	16.866987
2847	2024-04-28 14:00:00	16	carbonara	22.38	1	39.25	1	0.0	1	null	6	null	6	872.98	1	1009.63	1	41.076845	16.866987
2848	2024-04-28 15:00:00	16	carbonara	22.9	1	34.73	1	0.0	1	null	6	null	6	769.8	1	1009.03	1	41.076845	16.866987
2849	2024-04-28 16:00:00	16	carbonara	22.64	1	35.4	1	0.0	1	null	6	null	6	621.36	1	1008.68	1	41.076845	16.866987
2850	2024-04-28 17:00:00	16	carbonara	22.05	1	42.66	1	0.0	1	null	6	null	6	432.33	1	1008.61	1	41.076845	16.866987
2851	2024-04-28 18:00:00	16	carbonara	21.36	1	49.25	1	0.0	1	null	6	null	6	224.52	1	1008.57	1	41.076845	16.866987
2852	2024-04-28 19:00:00	16	carbonara	19.22	1	61.38	1	0.0	1	null	6	null	6	39.17	1	1008.69	1	41.076845	16.866987
2853	2024-04-28 20:00:00	16	carbonara	17.4	1	74.11	1	0.0	1	null	6	null	6	0.0	1	1009.23	1	41.076845	16.866987
2854	2024-04-28 21:00:00	16	carbonara	17.08	1	74.12	1	0.0	1	null	6	null	6	0.0	1	1009.79	1	41.076845	16.866987
2855	2024-04-28 22:00:00	16	carbonara	16.4	1	71.07	1	0.0	1	null	6	null	6	0.0	1	1009.95	1	41.076845	16.866987
2856	2024-04-28 23:00:00	16	carbonara	14.43	1	76.39	1	0.0	1	null	6	null	6	0.0	1	1010.04	1	41.076845	16.866987
2857	2024-04-29 00:00:00	16	carbonara	13.47	1	73.59	1	0.0	1	null	6	null	6	0.0	1	1010.49	1	41.076845	16.866987
2858	2024-04-29 01:00:00	16	carbonara	12.64	1	72.39	1	0.0	1	null	6	null	6	0.0	1	1010.39	1	41.076845	16.866987
2859	2024-04-29 02:00:00	16	carbonara	11.78	1	71.43	1	0.0	1	null	6	null	6	0.0	1	1010.18	1	41.076845	16.866987
2860	2024-04-29 03:00:00	16	carbonara	11.28	1	74.18	1	0.0	1	null	6	null	6	0.0	1	1010.17	1	41.076845	16.866987
2861	2024-04-29 04:00:00	16	carbonara	10.94	1	73.33	1	0.0	1	null	6	null	6	0.0	1	1010.09	1	41.076845	16.866987
2862	2024-04-29 05:00:00	16	carbonara	10.74	1	73.71	1	0.0	1	null	6	null	6	0.0	5	1010.25	1	41.076845	16.866987
2863	2024-04-29 06:00:00	16	carbonara	11.3	1	72.9	1	0.0	1	null	6	null	6	50.19	1	1010.54	1	41.076845	16.866987
2864	2024-04-29 07:00:00	16	carbonara	15.05	1	68.52	1	0.0	1	null	6	null	6	214.27	1	1010.89	1	41.076845	16.866987
2865	2024-04-29 08:00:00	16	carbonara	19.04	1	68.01	1	0.0	1	null	6	null	6	401.83	1	1011.05	1	41.076845	16.866987
2866	2024-04-29 09:00:00	16	carbonara	20.63	1	61.93	1	0.0	1	null	6	null	6	587.71	1	1011.31	1	41.076845	16.866987
2867	2024-04-29 10:00:00	16	carbonara	21.67	1	52.44	1	0.0	1	null	6	null	6	746.93	1	1011.45	1	41.076845	16.866987
2868	2024-04-29 11:00:00	16	carbonara	22.43	1	44.54	1	0.0	1	null	6	null	6	857.44	1	1011.5	1	41.076845	16.866987
2869	2024-04-29 12:00:00	16	carbonara	22.88	1	42.54	1	0.0	1	null	6	null	6	913.51	1	1011.22	1	41.076845	16.866987
2870	2024-04-29 13:00:00	16	carbonara	23.52	1	31.25	1	0.0	1	null	6	null	6	919.35	1	1010.9	1	41.076845	16.866987
2871	2024-04-29 14:00:00	16	carbonara	23.89	1	34.31	1	0.0	1	null	6	null	6	868.66	1	1010.52	1	41.076845	16.866987
2872	2024-04-29 15:00:00	16	carbonara	23.3	1	38.97	1	0.0	1	null	6	null	6	762.98	1	1010.13	1	41.076845	16.866987
2873	2024-04-29 16:00:00	16	carbonara	23.53	1	40.62	1	0.0	1	null	6	null	6	610.76	1	1009.67	1	41.076845	16.866987
2874	2024-04-29 17:00:00	16	carbonara	23.51	1	43.99	1	0.0	1	null	6	null	6	418.18	1	1009.46	1	41.076845	16.866987
2875	2024-04-29 18:00:00	16	carbonara	23.12	1	46.1	1	0.0	1	null	6	null	6	206.03	1	1009.29	1	41.076845	16.866987
2876	2024-04-29 19:00:00	16	carbonara	20.8	1	58.56	1	0.0	1	null	6	null	6	27.29	1	1009.61	1	41.076845	16.866987
2877	2024-04-29 20:00:00	16	carbonara	18.29	1	74.0	1	0.0	1	null	6	null	6	0.0	1	1010.27	1	41.076845	16.866987
2878	2024-04-29 21:00:00	16	carbonara	17.44	1	76.27	1	0.0	1	null	6	null	6	0.0	1	1010.87	1	41.076845	16.866987
2879	2024-04-29 22:00:00	16	carbonara	15.95	1	76.71	1	0.0	1	null	6	null	6	0.0	1	1011.04	1	41.076845	16.866987
2880	2024-04-29 23:00:00	16	carbonara	14.86	1	78.3	1	0.0	1	null	6	null	6	0.0	1	1011.24	1	41.076845	16.866987
2881	2024-04-30 00:00:00	16	carbonara	14.02	1	80.18	1	0.0	1	null	6	null	6	0.0	1	1011.24	1	41.076845	16.866987
2882	2024-04-30 01:00:00	16	carbonara	13.42	1	80.22	1	0.0	1	null	6	null	6	0.0	1	1011.06	1	41.076845	16.866987
2883	2024-04-30 02:00:00	16	carbonara	13.27	1	75.27	1	0.0	1	null	6	null	6	0.0	1	1010.77	1	41.076845	16.866987
2884	2024-04-30 03:00:00	16	carbonara	12.65	1	72.28	1	0.0	1	null	6	null	6	0.0	1	1010.64	1	41.076845	16.866987
2885	2024-04-30 04:00:00	16	carbonara	12.34	1	69.64	1	0.0	1	null	6	null	6	0.0	1	1010.24	1	41.076845	16.866987
2886	2024-04-30 05:00:00	16	carbonara	12.07	1	69.93	1	0.0	1	null	6	null	6	0.0	5	1010.03	1	41.076845	16.866987
2887	2024-04-30 06:00:00	16	carbonara	12.29	1	69.79	1	0.0	1	null	6	null	6	51.73	1	1010.04	1	41.076845	16.866987
2888	2024-04-30 07:00:00	16	carbonara	15.81	1	59.58	1	0.0	1	null	6	null	6	214.88	1	1010.16	1	41.076845	16.866987
2889	2024-04-30 08:00:00	16	carbonara	19.91	1	56.61	1	0.0	1	null	6	null	6	406.03	1	1010.16	1	41.076845	16.866987
2890	2024-04-30 09:00:00	16	carbonara	22.11	1	47.33	1	0.0	1	null	6	null	6	590.84	1	1010.31	1	41.076845	16.866987
2891	2024-04-30 10:00:00	16	carbonara	23.21	1	42.27	1	0.0	1	null	6	null	6	748.76	1	1009.85	1	41.076845	16.866987
2892	2024-04-30 11:00:00	16	carbonara	23.18	1	48.69	1	0.0	1	null	6	null	6	808.04	1	1009.67	1	41.076845	16.866987
2893	2024-04-30 12:00:00	16	carbonara	22.55	1	56.09	1	0.0	1	null	6	null	6	864.67	1	1009.25	1	41.076845	16.866987
2894	2024-04-30 13:00:00	16	carbonara	22.52	1	58.63	1	0.0	1	null	6	null	6	878.28	1	1008.48	1	41.076845	16.866987
2895	2024-04-30 14:00:00	16	carbonara	22.69	1	58.6	1	0.0	1	null	6	null	6	810.83	1	1007.56	1	41.076845	16.866987
2896	2024-04-30 15:00:00	16	carbonara	23.61	1	51.9	1	0.0	1	null	6	null	6	660.97	1	1006.95	1	41.076845	16.866987
2897	2024-04-30 16:00:00	16	carbonara	23.53	1	51.76	1	0.0	1	null	6	null	6	449.65	1	1006.12	1	41.076845	16.866987
2898	2024-04-30 17:00:00	16	carbonara	23.82	1	48.87	1	0.0	1	null	6	null	6	298.99	1	1005.79	1	41.076845	16.866987
2899	2024-04-30 18:00:00	16	carbonara	23.33	1	41.06	1	0.0	1	null	6	null	6	89.63	1	1005.18	1	41.076845	16.866987
2900	2024-04-30 19:00:00	16	carbonara	22.13	1	48.37	1	0.0	1	null	6	null	6	12.48	1	1005.04	1	41.076845	16.866987
2901	2024-04-30 20:00:00	16	carbonara	21.42	1	45.82	1	0.0	1	null	6	null	6	0.0	1	1005.27	1	41.076845	16.866987
2902	2024-04-30 21:00:00	16	carbonara	21.08	1	42.61	1	0.0	1	null	6	null	6	0.0	1	1005.64	1	41.076845	16.866987
2903	2024-04-30 22:00:00	16	carbonara	20.33	1	46.19	1	0.0	1	null	6	null	6	0.0	1	1005.43	1	41.076845	16.866987
2904	2024-04-30 23:00:00	16	carbonara	19.63	1	51.09	1	0.0	1	null	6	null	6	0.0	1	1005.27	1	41.076845	16.866987
2905	2024-05-01 00:00:00	16	carbonara	18.88	1	53.1	1	0.0	1	null	6	null	6	0.0	1	1004.86	1	41.076845	16.866987
2906	2024-05-01 01:00:00	16	carbonara	18.83	1	49.08	1	0.0	1	null	6	null	6	0.0	1	1004.26	1	41.076845	16.866987
2907	2024-05-01 02:00:00	16	carbonara	18.28	1	50.71	1	0.0	1	null	6	null	6	0.0	1	1003.73	1	41.076845	16.866987
2908	2024-05-01 03:00:00	16	carbonara	18.09	1	47.44	1	0.0	1	null	6	null	6	0.0	1	1003.57	1	41.076845	16.866987
2909	2024-05-01 04:00:00	16	carbonara	18.25	1	45.15	1	0.0	1	null	6	null	6	0.0	1	1003.14	1	41.076845	16.866987
2910	2024-05-01 05:00:00	16	carbonara	18.18	1	46.49	1	0.0	1	null	6	null	6	0.0	1	1002.98	1	41.076845	16.866987
2911	2024-05-01 06:00:00	16	carbonara	18.61	1	46.57	1	0.0	1	null	6	null	6	7.21	1	1002.68	1	41.076845	16.866987
2912	2024-05-01 07:00:00	16	carbonara	19.1	1	48.2	1	0.0	1	null	6	null	6	21.5	1	1002.67	1	41.076845	16.866987
2913	2024-05-01 08:00:00	16	carbonara	20.28	1	44.53	1	0.0	1	null	6	null	6	99.09	1	1002.32	1	41.076845	16.866987
2914	2024-05-01 09:00:00	16	carbonara	22.12	1	37.88	1	0.0	1	null	6	null	6	363.14	1	1002.09	1	41.076845	16.866987
2915	2024-05-01 10:00:00	16	carbonara	24.31	1	30.82	1	0.0	1	null	6	null	6	728.77	1	1001.93	1	41.076845	16.866987
2916	2024-05-01 11:00:00	16	carbonara	24.71	1	31.31	1	0.0	1	null	6	null	6	826.34	1	1001.53	1	41.076845	16.866987
2917	2024-05-01 12:00:00	16	carbonara	25.06	1	32.93	1	0.0	1	null	6	null	6	875.59	1	1001.07	1	41.076845	16.866987
2918	2024-05-01 13:00:00	16	carbonara	25.24	1	34.28	1	0.0	1	null	6	null	6	876.65	1	1000.73	1	41.076845	16.866987
2919	2024-05-01 14:00:00	16	carbonara	25.78	1	34.03	1	0.0	1	null	6	null	6	782.21	1	1000.28	1	41.076845	16.866987
2920	2024-05-01 15:00:00	16	carbonara	25.85	1	37.9	1	0.0	1	null	6	null	6	707.55	1	999.98	1	41.076845	16.866987
2921	2024-05-01 16:00:00	16	carbonara	24.15	1	53.76	1	0.0	1	null	6	null	6	323.63	1	999.87	1	41.076845	16.866987
2922	2024-05-01 17:00:00	16	carbonara	21.89	1	63.71	1	0.0	1	null	6	null	6	137.86	1	1000.54	1	41.076845	16.866987
2923	2024-05-01 18:00:00	16	carbonara	21.32	1	67.83	1	0.0	1	null	6	null	6	146.74	1	1000.59	1	41.076845	16.866987
2924	2024-05-01 19:00:00	16	carbonara	21.18	1	68.9	1	0.0	1	null	6	null	6	90.08	1	1000.78	1	41.076845	16.866987
2925	2024-05-01 20:00:00	16	carbonara	20.22	1	63.64	1	0.0	1	null	6	null	6	0.0	1	1001.08	1	41.076845	16.866987
2926	2024-05-01 21:00:00	16	carbonara	19.22	1	66.64	1	0.0	1	null	6	null	6	0.0	1	1001.63	1	41.076845	16.866987
2927	2024-05-01 22:00:00	16	carbonara	18.46	1	76.24	1	0.0	1	null	6	null	6	0.0	1	1002.15	1	41.076845	16.866987
2928	2024-05-01 23:00:00	16	carbonara	17.94	1	84.43	1	0.0	1	null	6	null	6	0.0	1	1002.46	1	41.076845	16.866987
2929	2024-05-02 00:00:00	16	carbonara	17.61	1	85.09	1	0.0	1	null	6	null	6	0.0	1	1002.61	1	41.076845	16.866987
2930	2024-05-02 01:00:00	16	carbonara	16.85	1	87.47	1	0.0	1	null	6	null	6	0.0	1	1002.71	1	41.076845	16.866987
2931	2024-05-02 02:00:00	16	carbonara	16.17	1	85.88	1	0.0	1	null	6	null	6	0.0	1	1002.9	1	41.076845	16.866987
2932	2024-05-02 03:00:00	16	carbonara	15.51	1	81.05	1	0.0	1	null	6	null	6	0.0	1	1002.92	1	41.076845	16.866987
2933	2024-05-02 04:00:00	16	carbonara	15.04	1	71.46	1	0.0	1	null	6	null	6	0.0	1	1002.62	1	41.076845	16.866987
2934	2024-05-02 05:00:00	16	carbonara	14.73	1	68.67	1	0.0	1	null	6	null	6	0.0	5	1002.55	1	41.076845	16.866987
2935	2024-05-02 06:00:00	16	carbonara	14.86	1	68.11	1	0.0	1	null	6	null	6	54.58	1	1002.72	1	41.076845	16.866987
2936	2024-05-02 07:00:00	16	carbonara	17.34	1	59.72	1	0.0	1	null	6	null	6	209.23	1	1003.05	1	41.076845	16.866987
2937	2024-05-02 08:00:00	16	carbonara	20.97	1	44.59	1	0.0	1	null	6	null	6	399.54	1	1002.69	1	41.076845	16.866987
2938	2024-05-02 09:00:00	16	carbonara	23.05	1	36.82	1	0.0	1	null	6	null	6	584.63	1	1002.47	1	41.076845	16.866987
2939	2024-05-02 10:00:00	16	carbonara	23.95	1	34.53	1	0.0	1	null	6	null	6	648.24	1	1002.62	1	41.076845	16.866987
2940	2024-05-02 11:00:00	16	carbonara	24.54	1	32.53	1	0.0	1	null	6	null	6	631.25	1	1002.5	1	41.076845	16.866987
2941	2024-05-02 12:00:00	16	carbonara	24.41	1	36.74	1	0.0	1	null	6	null	6	810.54	1	1001.92	1	41.076845	16.866987
2942	2024-05-02 13:00:00	16	carbonara	24.57	1	35.13	1	0.0	1	null	6	null	6	957.2	1	1001.47	1	41.076845	16.866987
2943	2024-05-02 14:00:00	16	carbonara	24.62	1	34.17	1	0.0	1	null	6	null	6	579.73	1	1001.08	1	41.076845	16.866987
2944	2024-05-02 15:00:00	16	carbonara	22.89	1	42.43	1	0.0	1	null	6	null	6	127.37	1	1001.33	1	41.076845	16.866987
2945	2024-05-02 16:00:00	16	carbonara	21.63	1	51.21	1	0.0	1	null	6	null	6	109.52	1	1001.38	1	41.076845	16.866987
2946	2024-05-02 17:00:00	16	carbonara	18.48	1	74.19	1	0.6	1	null	6	null	6	57.08	1	1002.64	1	41.076845	16.866987
2947	2024-05-02 18:00:00	16	carbonara	16.88	1	77.75	1	0.6	1	null	6	null	6	21.93	1	1003.17	1	41.076845	16.866987
2948	2024-05-02 19:00:00	16	carbonara	16.4	1	69.62	1	0.6	1	null	6	null	6	8.86	1	1003.25	1	41.076845	16.866987
2949	2024-05-02 20:00:00	16	carbonara	16.44	1	61.41	1	0.4	1	null	6	null	6	0.0	1	1002.82	1	41.076845	16.866987
2950	2024-05-02 21:00:00	16	carbonara	15.71	1	50.39	1	0.2	1	null	6	null	6	0.0	1	1003.16	1	41.076845	16.866987
2951	2024-05-02 22:00:00	16	carbonara	15.29	1	52.14	1	0.4	1	null	6	null	6	0.0	1	1003.32	1	41.076845	16.866987
2952	2024-05-02 23:00:00	16	carbonara	15.57	1	51.34	1	0.0	1	null	6	null	6	0.0	1	1003.45	1	41.076845	16.866987
2953	2024-05-03 00:00:00	16	carbonara	14.74	1	55.94	1	0.0	1	null	6	null	6	0.0	1	1003.57	1	41.076845	16.866987
2954	2024-05-03 01:00:00	16	carbonara	13.3	1	61.24	1	0.0	1	null	6	null	6	0.0	1	1003.19	1	41.076845	16.866987
2955	2024-05-03 02:00:00	16	carbonara	12.77	1	63.79	1	0.0	1	null	6	null	6	0.0	1	1002.55	1	41.076845	16.866987
2956	2024-05-03 03:00:00	16	carbonara	13.68	1	60.6	1	0.0	1	null	6	null	6	0.0	1	1002.39	1	41.076845	16.866987
2957	2024-05-03 04:00:00	16	carbonara	13.3	1	61.95	1	0.0	1	null	6	null	6	0.0	1	1002.26	1	41.076845	16.866987
2958	2024-05-03 05:00:00	16	carbonara	12.47	1	66.19	1	0.0	1	null	6	null	6	0.0	5	1002.39	1	41.076845	16.866987
2959	2024-05-03 06:00:00	16	carbonara	12.84	1	64.33	1	0.0	1	null	6	null	6	61.92	1	1002.64	1	41.076845	16.866987
2960	2024-05-03 07:00:00	16	carbonara	14.9	1	56.86	1	0.0	1	null	6	null	6	235.04	1	1002.98	1	41.076845	16.866987
2961	2024-05-03 08:00:00	16	carbonara	17.36	1	44.82	1	0.0	1	null	6	null	6	429.93	1	1003.41	1	41.076845	16.866987
2962	2024-05-03 09:00:00	16	carbonara	18.51	1	37.81	1	0.0	1	null	6	null	6	615.25	1	1003.5	1	41.076845	16.866987
2963	2024-05-03 10:00:00	16	carbonara	20.06	1	33.69	1	0.0	1	null	6	null	6	758.81	1	1003.54	1	41.076845	16.866987
2964	2024-05-03 11:00:00	16	carbonara	20.8	1	32.8	1	0.0	1	null	6	null	6	702.99	1	1003.41	1	41.076845	16.866987
2965	2024-05-03 12:00:00	16	carbonara	21.0	1	33.06	1	0.0	1	null	6	null	6	438.62	1	1003.14	1	41.076845	16.866987
2966	2024-05-03 13:00:00	16	carbonara	21.04	1	35.28	1	0.0	1	null	6	null	6	401.43	1	1002.85	1	41.076845	16.866987
2967	2024-05-03 14:00:00	16	carbonara	21.14	1	37.35	1	0.0	1	null	6	null	6	280.56	1	1002.45	1	41.076845	16.866987
2968	2024-05-03 15:00:00	16	carbonara	20.75	1	40.98	1	0.0	1	null	6	null	6	219.47	1	1002.16	1	41.076845	16.866987
2969	2024-05-03 16:00:00	16	carbonara	18.82	1	54.05	1	0.6	1	null	6	null	6	32.46	1	1002.24	1	41.076845	16.866987
2970	2024-05-03 17:00:00	16	carbonara	17.35	1	52.05	1	0.2	1	null	6	null	6	83.65	1	1002.83	1	41.076845	16.866987
2971	2024-05-03 18:00:00	16	carbonara	18.28	1	52.51	1	0.0	1	null	6	null	6	168.05	1	1002.71	1	41.076845	16.866987
2972	2024-05-03 19:00:00	16	carbonara	18.0	1	48.02	1	0.0	1	null	6	null	6	46.95	1	1002.71	1	41.076845	16.866987
2973	2024-05-03 20:00:00	16	carbonara	16.52	1	53.46	1	0.0	1	null	6	null	6	0.0	1	1003.14	1	41.076845	16.866987
2974	2024-05-03 21:00:00	16	carbonara	15.4	1	58.01	1	0.0	1	null	6	null	6	0.0	1	1003.64	1	41.076845	16.866987
2975	2024-05-03 22:00:00	16	carbonara	15.12	1	60.17	1	0.0	1	null	6	null	6	0.0	1	1003.89	1	41.076845	16.866987
2976	2024-05-03 23:00:00	16	carbonara	15.03	1	68.46	1	0.2	1	null	6	null	6	0.0	1	1003.89	1	41.076845	16.866987
2977	2024-05-04 00:00:00	16	carbonara	14.68	1	66.5	1	0.0	1	null	6	null	6	0.0	1	1003.88	1	41.076845	16.866987
2978	2024-05-04 01:00:00	16	carbonara	13.92	1	70.22	1	0.0	1	null	6	null	6	0.0	1	1003.74	1	41.076845	16.866987
2979	2024-05-04 02:00:00	16	carbonara	13.01	1	73.66	1	0.0	1	null	6	null	6	0.0	1	1003.41	1	41.076845	16.866987
2980	2024-05-04 03:00:00	16	carbonara	12.25	1	74.42	1	0.0	1	null	6	null	6	0.0	1	1003.25	1	41.076845	16.866987
2981	2024-05-04 04:00:00	16	carbonara	12.04	1	72.94	1	0.0	1	null	6	null	6	0.0	1	1003.44	1	41.076845	16.866987
2982	2024-05-04 05:00:00	16	carbonara	11.7	1	74.02	1	0.0	1	null	6	null	6	0.0	5	1003.55	1	41.076845	16.866987
2983	2024-05-04 06:00:00	16	carbonara	12.53	1	71.24	1	0.0	1	null	6	null	6	64.16	1	1003.96	1	41.076845	16.866987
2984	2024-05-04 07:00:00	16	carbonara	15.42	1	59.18	1	0.0	1	null	6	null	6	236.84	1	1004.27	1	41.076845	16.866987
2985	2024-05-04 08:00:00	16	carbonara	17.89	1	48.75	1	0.0	1	null	6	null	6	425.04	1	1004.43	1	41.076845	16.866987
2986	2024-05-04 09:00:00	16	carbonara	19.41	1	44.69	1	0.0	1	null	6	null	6	601.87	1	1004.71	1	41.076845	16.866987
2987	2024-05-04 10:00:00	16	carbonara	20.61	1	43.09	1	0.0	1	null	6	null	6	742.18	1	1004.91	1	41.076845	16.866987
2988	2024-05-04 11:00:00	16	carbonara	20.96	1	45.13	1	0.0	1	null	6	null	6	864.38	1	1005.17	1	41.076845	16.866987
2989	2024-05-04 12:00:00	16	carbonara	21.27	1	45.41	1	0.0	1	null	6	null	6	885.58	1	1005.15	1	41.076845	16.866987
2990	2024-05-04 13:00:00	16	carbonara	21.85	1	44.45	1	0.0	1	null	6	null	6	924.41	1	1005.17	1	41.076845	16.866987
2991	2024-05-04 14:00:00	16	carbonara	21.55	1	51.86	1	0.0	1	null	6	null	6	866.19	1	1005.27	1	41.076845	16.866987
2992	2024-05-04 15:00:00	16	carbonara	21.53	1	52.76	1	0.0	1	null	6	null	6	770.65	1	1005.24	1	41.076845	16.866987
2993	2024-05-04 16:00:00	16	carbonara	21.32	1	55.13	1	0.0	1	null	6	null	6	619.22	1	1005.29	1	41.076845	16.866987
2994	2024-05-04 17:00:00	16	carbonara	20.49	1	60.49	1	0.0	1	null	6	null	6	436.66	1	1005.45	1	41.076845	16.866987
2995	2024-05-04 18:00:00	16	carbonara	20.49	1	59.72	1	0.0	1	null	6	null	6	233.04	1	1005.52	1	41.076845	16.866987
2996	2024-05-04 19:00:00	16	carbonara	18.49	1	69.22	1	0.0	1	null	6	null	6	37.46	1	1005.89	1	41.076845	16.866987
2997	2024-05-04 20:00:00	16	carbonara	17.05	1	75.71	1	0.0	1	null	6	null	6	0.0	1	1006.46	1	41.076845	16.866987
2998	2024-05-04 21:00:00	16	carbonara	16.46	1	80.59	1	0.0	1	null	6	null	6	0.0	1	1007.03	1	41.076845	16.866987
2999	2024-05-04 22:00:00	16	carbonara	15.6	1	83.17	1	0.0	1	null	6	null	6	0.0	1	1007.57	1	41.076845	16.866987
3000	2024-05-04 23:00:00	16	carbonara	15.1	1	78.21	1	0.0	1	null	6	null	6	0.0	1	1007.88	1	41.076845	16.866987
3001	2024-05-05 00:00:00	16	carbonara	14.14	1	78.59	1	0.0	1	null	6	null	6	0.0	1	1008.0	1	41.076845	16.866987
3002	2024-05-05 01:00:00	16	carbonara	13.58	1	75.87	1	0.0	1	null	6	null	6	0.0	1	1007.77	1	41.076845	16.866987
3003	2024-05-05 02:00:00	16	carbonara	13.1	1	75.3	1	0.0	1	null	6	null	6	0.0	1	1007.57	1	41.076845	16.866987
3004	2024-05-05 03:00:00	16	carbonara	12.7	1	75.33	1	0.0	1	null	6	null	6	0.0	1	1007.45	1	41.076845	16.866987
3005	2024-05-05 04:00:00	16	carbonara	13.13	1	69.85	1	0.0	1	null	6	null	6	0.0	1	1007.37	1	41.076845	16.866987
3006	2024-05-05 05:00:00	16	carbonara	12.87	1	70.97	1	0.0	1	null	6	null	6	0.0	5	1007.58	1	41.076845	16.866987
3007	2024-05-05 06:00:00	16	carbonara	13.63	1	69.74	1	0.0	1	null	6	null	6	64.09	1	1007.89	1	41.076845	16.866987
3008	2024-05-05 07:00:00	16	carbonara	16.5	1	62.35	1	0.0	1	null	6	null	6	233.02	1	1008.1	1	41.076845	16.866987
3009	2024-05-05 08:00:00	16	carbonara	19.85	1	52.54	1	0.0	1	null	6	null	6	422.26	1	1008.36	1	41.076845	16.866987
3010	2024-05-05 09:00:00	16	carbonara	21.26	1	46.45	1	0.0	1	null	6	null	6	610.01	1	1008.48	1	41.076845	16.866987
3011	2024-05-05 10:00:00	16	carbonara	21.91	1	45.5	1	0.0	1	null	6	null	6	763.18	1	1008.46	1	41.076845	16.866987
3012	2024-05-05 11:00:00	16	carbonara	23.13	1	41.67	1	0.0	1	null	6	null	6	869.13	1	1008.21	1	41.076845	16.866987
3013	2024-05-05 12:00:00	16	carbonara	22.19	1	41.59	1	0.0	1	null	6	null	6	923.74	1	1007.86	1	41.076845	16.866987
3014	2024-05-05 13:00:00	16	carbonara	22.12	1	42.42	1	0.0	1	null	6	null	6	925.17	1	1007.57	1	41.076845	16.866987
3015	2024-05-05 14:00:00	16	carbonara	22.2	1	43.54	1	0.0	1	null	6	null	6	871.48	1	1007.19	1	41.076845	16.866987
3016	2024-05-05 15:00:00	16	carbonara	22.49	1	44.78	1	0.0	1	null	6	null	6	768.88	1	1006.61	1	41.076845	16.866987
3017	2024-05-05 16:00:00	16	carbonara	22.64	1	42.41	1	0.0	1	null	6	null	6	616.63	1	1006.21	1	41.076845	16.866987
3018	2024-05-05 17:00:00	16	carbonara	22.79	1	38.07	1	0.0	1	null	6	null	6	429.29	1	1005.8	1	41.076845	16.866987
3019	2024-05-05 18:00:00	16	carbonara	21.76	1	40.39	1	0.0	1	null	6	null	6	156.33	1	1005.72	1	41.076845	16.866987
3020	2024-05-05 19:00:00	16	carbonara	20.11	1	47.1	1	0.0	1	null	6	null	6	14.77	1	1006.27	1	41.076845	16.866987
3021	2024-05-05 20:00:00	16	carbonara	19.3	1	53.74	1	0.0	1	null	6	null	6	0.0	1	1006.59	1	41.076845	16.866987
3022	2024-05-05 21:00:00	16	carbonara	19.17	1	52.1	1	0.0	1	null	6	null	6	0.0	1	1006.81	1	41.076845	16.866987
3023	2024-05-05 22:00:00	16	carbonara	19.32	1	42.81	1	0.0	1	null	6	null	6	0.0	1	1006.98	1	41.076845	16.866987
3024	2024-05-05 23:00:00	16	carbonara	17.7	1	49.17	1	0.0	1	null	6	null	6	0.0	1	1006.97	1	41.076845	16.866987
3025	2024-05-06 00:00:00	16	carbonara	16.28	1	53.39	1	0.0	1	null	6	null	6	0.0	1	1006.92	1	41.076845	16.866987
3026	2024-05-06 01:00:00	16	carbonara	15.55	1	54.62	1	0.0	1	null	6	null	6	0.0	1	1006.79	1	41.076845	16.866987
3027	2024-05-06 02:00:00	16	carbonara	15.2	1	55.09	1	0.0	1	null	6	null	6	0.0	1	1006.53	1	41.076845	16.866987
3028	2024-05-06 03:00:00	16	carbonara	14.45	1	57.39	1	0.0	1	null	6	null	6	0.0	1	1006.48	1	41.076845	16.866987
3029	2024-05-06 04:00:00	16	carbonara	13.72	1	61.06	1	0.0	1	null	6	null	6	0.0	1	1006.39	1	41.076845	16.866987
3030	2024-05-06 05:00:00	16	carbonara	13.93	1	65.99	1	0.0	1	null	6	null	6	0.0	5	1006.43	1	41.076845	16.866987
3031	2024-05-06 06:00:00	16	carbonara	13.94	1	69.15	1	0.0	1	null	6	null	6	56.04	1	1006.59	1	41.076845	16.866987
3032	2024-05-06 07:00:00	16	carbonara	16.76	1	60.89	1	0.0	1	null	6	null	6	176.67	1	1006.73	1	41.076845	16.866987
3033	2024-05-06 08:00:00	16	carbonara	22.13	1	46.61	1	0.0	1	null	6	null	6	417.3	1	1006.93	1	41.076845	16.866987
3034	2024-05-06 09:00:00	16	carbonara	23.55	1	43.42	1	0.0	1	null	6	null	6	595.75	1	1006.93	1	41.076845	16.866987
3035	2024-05-06 10:00:00	16	carbonara	22.94	1	45.08	1	0.0	1	null	6	null	6	753.52	1	1006.7	1	41.076845	16.866987
3036	2024-05-06 11:00:00	16	carbonara	23.67	1	42.39	1	0.0	1	null	6	null	6	850.44	1	1006.26	1	41.076845	16.866987
3037	2024-05-06 12:00:00	16	carbonara	24.29	1	42.32	1	0.0	1	null	6	null	6	910.68	1	1005.83	1	41.076845	16.866987
3038	2024-05-06 13:00:00	16	carbonara	25.0	1	45.1	1	0.0	1	null	6	null	6	884.0	1	1005.28	1	41.076845	16.866987
3039	2024-05-06 14:00:00	16	carbonara	27.48	1	30.42	1	0.0	1	null	6	null	6	773.72	1	1004.75	1	41.076845	16.866987
3040	2024-05-06 15:00:00	16	carbonara	28.8	1	20.41	1	0.0	1	null	6	null	6	733.73	1	1004.29	1	41.076845	16.866987
3041	2024-05-06 16:00:00	16	carbonara	28.88	1	20.14	1	0.0	1	null	6	null	6	611.38	1	1003.97	1	41.076845	16.866987
3042	2024-05-06 17:00:00	16	carbonara	28.39	1	21.73	1	0.0	1	null	6	null	6	448.17	1	1003.83	1	41.076845	16.866987
3043	2024-05-06 18:00:00	16	carbonara	26.04	1	31.06	1	0.0	1	null	6	null	6	212.81	1	1004.08	1	41.076845	16.866987
3044	2024-05-06 19:00:00	16	carbonara	22.93	1	38.48	1	0.0	1	null	6	null	6	21.57	1	1004.79	1	41.076845	16.866987
3045	2024-05-06 20:00:00	16	carbonara	20.73	1	43.56	1	0.0	1	null	6	null	6	0.0	1	1005.3	1	41.076845	16.866987
3046	2024-05-06 21:00:00	16	carbonara	19.55	1	47.02	1	0.0	1	null	6	null	6	0.0	1	1005.72	1	41.076845	16.866987
3047	2024-05-06 22:00:00	16	carbonara	18.5	1	60.3	1	0.0	1	null	6	null	6	0.0	1	1005.73	1	41.076845	16.866987
3048	2024-05-06 23:00:00	16	carbonara	17.72	1	70.12	1	0.0	1	null	6	null	6	0.0	1	1005.63	1	41.076845	16.866987
3049	2024-05-07 00:00:00	16	carbonara	17.15	1	78.05	1	0.0	1	null	6	null	6	0.0	1	1005.62	1	41.076845	16.866987
3050	2024-05-07 01:00:00	16	carbonara	16.88	1	77.85	1	0.0	1	null	6	null	6	0.0	1	1005.2	1	41.076845	16.866987
3051	2024-05-07 02:00:00	16	carbonara	16.59	1	77.03	1	0.0	1	null	6	null	6	0.0	1	1004.83	1	41.076845	16.866987
3052	2024-05-07 03:00:00	16	carbonara	16.18	1	76.53	1	0.0	1	null	6	null	6	0.0	1	1004.74	1	41.076845	16.866987
3053	2024-05-07 04:00:00	16	carbonara	15.81	1	73.75	1	0.0	1	null	6	null	6	0.0	1	1004.65	1	41.076845	16.866987
3054	2024-05-07 05:00:00	16	carbonara	15.65	1	73.32	1	0.0	1	null	6	null	6	0.0	5	1004.31	1	41.076845	16.866987
3055	2024-05-07 06:00:00	16	carbonara	16.06	1	75.56	1	0.0	1	null	6	null	6	45.89	1	1004.49	1	41.076845	16.866987
3056	2024-05-07 07:00:00	16	carbonara	17.65	1	70.09	1	0.0	1	null	6	null	6	126.6	1	1004.46	1	41.076845	16.866987
3057	2024-05-07 08:00:00	16	carbonara	21.14	1	55.81	1	0.0	1	null	6	null	6	336.42	1	1004.47	1	41.076845	16.866987
3058	2024-05-07 09:00:00	16	carbonara	23.81	1	50.62	1	0.0	1	null	6	null	6	415.53	1	1004.52	1	41.076845	16.866987
3059	2024-05-07 10:00:00	16	carbonara	24.81	1	46.25	1	0.0	1	null	6	null	6	409.04	1	1004.62	1	41.076845	16.866987
3060	2024-05-07 11:00:00	16	carbonara	26.31	1	41.19	1	0.0	1	null	6	null	6	768.04	1	1004.23	1	41.076845	16.866987
3061	2024-05-07 12:00:00	16	carbonara	27.67	1	36.48	1	0.0	1	null	6	null	6	732.37	1	1003.68	1	41.076845	16.866987
3062	2024-05-07 13:00:00	16	carbonara	27.1	1	35.87	1	0.0	1	null	6	null	6	620.88	1	1003.34	1	41.076845	16.866987
3063	2024-05-07 14:00:00	16	carbonara	27.63	1	33.38	1	0.0	1	null	6	null	6	564.33	1	1003.11	1	41.076845	16.866987
3064	2024-05-07 15:00:00	16	carbonara	28.06	1	34.89	1	0.0	1	null	6	null	6	682.18	1	1002.63	1	41.076845	16.866987
3065	2024-05-07 16:00:00	16	carbonara	27.81	1	35.34	1	0.0	1	null	6	null	6	468.56	1	1002.43	1	41.076845	16.866987
3066	2024-05-07 17:00:00	16	carbonara	25.43	1	42.3	1	0.0	1	null	6	null	6	125.4	1	1003.08	1	41.076845	16.866987
3067	2024-05-07 18:00:00	16	carbonara	23.67	1	48.96	1	0.0	1	null	6	null	6	97.05	1	1003.44	1	41.076845	16.866987
3068	2024-05-07 19:00:00	16	carbonara	21.79	1	57.0	1	0.0	1	null	6	null	6	15.67	1	1003.69	1	41.076845	16.866987
3069	2024-05-07 20:00:00	16	carbonara	20.13	1	66.53	1	0.0	1	null	6	null	6	0.0	1	1004.03	1	41.076845	16.866987
3070	2024-05-07 21:00:00	16	carbonara	19.74	1	67.81	1	0.0	1	null	6	null	6	0.0	1	1004.15	1	41.076845	16.866987
3071	2024-05-07 22:00:00	16	carbonara	19.89	1	64.33	1	0.0	1	null	6	null	6	0.0	1	1004.57	1	41.076845	16.866987
3072	2024-05-07 23:00:00	16	carbonara	20.22	1	64.18	1	0.0	1	null	6	null	6	0.0	1	1004.98	1	41.076845	16.866987
3073	2024-05-08 00:00:00	16	carbonara	20.25	1	64.15	1	0.0	1	null	6	null	6	0.0	1	1005.13	1	41.076845	16.866987
3074	2024-05-08 01:00:00	16	carbonara	19.64	1	65.55	1	0.0	1	null	6	null	6	0.0	1	1004.85	1	41.076845	16.866987
3075	2024-05-08 02:00:00	16	carbonara	18.16	1	73.84	1	0.0	1	null	6	null	6	0.0	1	1004.84	1	41.076845	16.866987
3076	2024-05-08 03:00:00	16	carbonara	17.27	1	74.64	1	0.0	1	null	6	null	6	0.0	1	1004.8	1	41.076845	16.866987
3077	2024-05-08 04:00:00	16	carbonara	15.82	1	76.33	1	0.0	1	null	6	null	6	0.0	1	1004.82	1	41.076845	16.866987
3078	2024-05-08 05:00:00	16	carbonara	14.91	1	77.7	1	0.0	1	null	6	null	6	0.0	5	1005.06	1	41.076845	16.866987
3079	2024-05-08 06:00:00	16	carbonara	14.7	1	75.5	1	0.0	1	null	6	null	6	65.12	1	1005.39	1	41.076845	16.866987
3080	2024-05-08 07:00:00	16	carbonara	17.91	1	64.33	1	0.0	1	null	6	null	6	224.0	1	1005.49	1	41.076845	16.866987
3081	2024-05-08 08:00:00	16	carbonara	21.83	1	50.82	1	0.0	1	null	6	null	6	400.7	1	1005.62	1	41.076845	16.866987
3082	2024-05-08 09:00:00	16	carbonara	21.93	1	57.85	1	0.0	1	null	6	null	6	594.13	1	1005.81	1	41.076845	16.866987
3083	2024-05-08 10:00:00	16	carbonara	21.61	1	67.43	1	0.0	1	null	6	null	6	713.71	1	1005.94	1	41.076845	16.866987
3084	2024-05-08 11:00:00	16	carbonara	21.77	1	64.96	1	0.0	1	null	6	null	6	811.58	1	1005.88	1	41.076845	16.866987
3085	2024-05-08 12:00:00	16	carbonara	22.21	1	59.68	1	0.0	1	null	6	null	6	853.19	1	1005.52	1	41.076845	16.866987
3086	2024-05-08 13:00:00	16	carbonara	22.05	1	61.55	1	0.0	1	null	6	null	6	753.1	1	1005.23	1	41.076845	16.866987
3087	2024-05-08 14:00:00	16	carbonara	22.23	1	62.88	1	0.0	1	null	6	null	6	782.68	1	1004.59	1	41.076845	16.866987
3088	2024-05-08 15:00:00	16	carbonara	22.14	1	64.69	1	0.0	1	null	6	null	6	629.34	1	1003.96	1	41.076845	16.866987
3089	2024-05-08 16:00:00	16	carbonara	21.84	1	66.21	1	0.0	1	null	6	null	6	459.21	1	1003.84	1	41.076845	16.866987
3090	2024-05-08 17:00:00	16	carbonara	21.32	1	69.55	1	0.0	1	null	6	null	6	251.24	1	1003.83	1	41.076845	16.866987
3091	2024-05-08 18:00:00	16	carbonara	20.85	1	71.32	1	0.0	1	null	6	null	6	105.16	1	1003.94	1	41.076845	16.866987
3092	2024-05-08 19:00:00	16	carbonara	19.71	1	77.23	1	0.0	1	null	6	null	6	15.83	1	1004.27	1	41.076845	16.866987
3093	2024-05-08 20:00:00	16	carbonara	19.31	1	80.96	1	0.0	1	null	6	null	6	0.0	1	1004.67	1	41.076845	16.866987
3094	2024-05-08 21:00:00	16	carbonara	19.01	1	83.2	1	0.0	1	null	6	null	6	0.0	1	1005.27	1	41.076845	16.866987
3095	2024-05-08 22:00:00	16	carbonara	18.7	1	85.11	1	0.0	1	null	6	null	6	0.0	1	1005.3	1	41.076845	16.866987
3096	2024-05-08 23:00:00	16	carbonara	18.35	1	86.71	1	0.0	1	null	6	null	6	0.0	1	1005.24	1	41.076845	16.866987
3097	2024-05-09 00:00:00	16	carbonara	18.33	1	85.34	1	0.0	1	null	6	null	6	0.0	1	1005.15	1	41.076845	16.866987
3098	2024-05-09 01:00:00	16	carbonara	18.58	1	82.95	1	0.0	1	null	6	null	6	0.0	1	1004.94	1	41.076845	16.866987
3099	2024-05-09 02:00:00	16	carbonara	17.71	1	88.2	1	0.0	1	null	6	null	6	0.0	1	1004.23	1	41.076845	16.866987
3100	2024-05-09 03:00:00	16	carbonara	16.94	1	89.28	1	0.0	1	null	6	null	6	0.0	1	1003.87	1	41.076845	16.866987
3101	2024-05-09 04:00:00	16	carbonara	16.63	1	88.34	1	0.0	1	null	6	null	6	0.0	1	1003.58	1	41.076845	16.866987
3102	2024-05-09 05:00:00	16	carbonara	16.46	1	86.95	1	0.0	1	null	6	null	6	0.0	5	1003.49	1	41.076845	16.866987
3103	2024-05-09 06:00:00	16	carbonara	16.87	1	81.48	1	0.0	1	null	6	null	6	34.37	1	1003.97	1	41.076845	16.866987
3104	2024-05-09 07:00:00	16	carbonara	17.73	1	78.29	1	0.0	1	null	6	null	6	131.51	1	1004.33	1	41.076845	16.866987
3105	2024-05-09 08:00:00	16	carbonara	19.89	1	66.94	1	0.0	1	null	6	null	6	351.88	1	1004.53	1	41.076845	16.866987
3106	2024-05-09 09:00:00	16	carbonara	22.65	1	55.15	1	0.0	1	null	6	null	6	546.3	1	1004.39	1	41.076845	16.866987
3107	2024-05-09 10:00:00	16	carbonara	24.13	1	50.02	1	0.0	1	null	6	null	6	687.61	1	1004.26	1	41.076845	16.866987
3108	2024-05-09 11:00:00	16	carbonara	24.61	1	49.12	1	0.0	1	null	6	null	6	818.14	1	1004.24	1	41.076845	16.866987
3109	2024-05-09 12:00:00	16	carbonara	23.45	1	53.32	1	0.0	1	null	6	null	6	559.14	1	1004.3	1	41.076845	16.866987
3110	2024-05-09 13:00:00	16	carbonara	22.65	1	59.0	1	0.0	1	null	6	null	6	516.56	1	1004.11	1	41.076845	16.866987
3111	2024-05-09 14:00:00	16	carbonara	24.78	1	52.19	1	0.0	1	null	6	null	6	831.97	1	1003.5	1	41.076845	16.866987
3112	2024-05-09 15:00:00	16	carbonara	25.48	1	47.19	1	0.0	1	null	6	null	6	746.38	1	1002.68	1	41.076845	16.866987
3113	2024-05-09 16:00:00	16	carbonara	25.32	1	48.83	1	0.0	1	null	6	null	6	619.03	1	1002.47	1	41.076845	16.866987
3114	2024-05-09 17:00:00	16	carbonara	24.48	1	53.05	1	0.0	1	null	6	null	6	298.59	1	1002.62	1	41.076845	16.866987
3115	2024-05-09 18:00:00	16	carbonara	23.29	1	63.75	1	0.0	1	null	6	null	6	189.75	1	1002.78	1	41.076845	16.866987
3116	2024-05-09 19:00:00	16	carbonara	21.31	1	69.41	1	0.0	1	null	6	null	6	30.0	1	1003.28	1	41.076845	16.866987
3117	2024-05-09 20:00:00	16	carbonara	20.1	1	77.92	1	0.0	1	null	6	null	6	0.0	1	1003.95	1	41.076845	16.866987
3118	2024-05-09 21:00:00	16	carbonara	20.28	1	70.06	1	0.0	1	null	6	null	6	0.0	1	1004.35	1	41.076845	16.866987
3119	2024-05-09 22:00:00	16	carbonara	20.47	1	66.67	1	0.0	1	null	6	null	6	0.0	1	1004.77	1	41.076845	16.866987
3120	2024-05-09 23:00:00	16	carbonara	20.09	1	72.59	1	0.6	1	null	6	null	6	0.0	1	1005.4	1	41.076845	16.866987
3121	2024-05-10 00:00:00	16	carbonara	18.25	1	89.51	1	1.2	1	null	6	null	6	0.0	1	1005.41	1	41.076845	16.866987
3122	2024-05-10 01:00:00	16	carbonara	17.59	1	89.9	1	0.2	1	null	6	null	6	0.0	1	1005.34	1	41.076845	16.866987
3123	2024-05-10 02:00:00	16	carbonara	17.38	1	87.18	1	0.0	1	null	6	null	6	0.0	1	1005.09	1	41.076845	16.866987
3124	2024-05-10 03:00:00	16	carbonara	16.95	1	85.2	1	0.0	1	null	6	null	6	0.0	1	1005.11	1	41.076845	16.866987
3125	2024-05-10 04:00:00	16	carbonara	16.87	1	84.14	1	0.0	1	null	6	null	6	0.0	1	1004.91	1	41.076845	16.866987
3126	2024-05-10 05:00:00	16	carbonara	16.95	1	84.49	1	0.0	1	null	6	null	6	0.0	5	1004.88	1	41.076845	16.866987
3127	2024-05-10 06:00:00	16	carbonara	17.02	1	83.48	1	0.0	1	null	6	null	6	47.83	1	1005.28	1	41.076845	16.866987
3128	2024-05-10 07:00:00	16	carbonara	18.35	1	77.57	1	0.0	1	null	6	null	6	205.54	1	1005.55	1	41.076845	16.866987
3129	2024-05-10 08:00:00	16	carbonara	20.11	1	68.88	1	0.0	1	null	6	null	6	265.38	1	1005.72	1	41.076845	16.866987
3130	2024-05-10 09:00:00	16	carbonara	22.34	1	58.19	1	0.0	1	null	6	null	6	574.23	1	1005.8	1	41.076845	16.866987
3131	2024-05-10 10:00:00	16	carbonara	23.46	1	52.08	1	0.0	1	null	6	null	6	712.31	1	1005.8	1	41.076845	16.866987
3132	2024-05-10 11:00:00	16	carbonara	23.77	1	50.39	1	0.0	1	null	6	null	6	830.8	1	1005.71	1	41.076845	16.866987
3133	2024-05-10 12:00:00	16	carbonara	24.13	1	45.7	1	0.0	1	null	6	null	6	902.17	1	1005.54	1	41.076845	16.866987
3134	2024-05-10 13:00:00	16	carbonara	24.57	1	41.78	1	0.0	1	null	6	null	6	906.28	1	1005.53	1	41.076845	16.866987
3135	2024-05-10 14:00:00	16	carbonara	24.8	1	39.2	1	0.0	1	null	6	null	6	867.2	1	1005.21	1	41.076845	16.866987
3136	2024-05-10 15:00:00	16	carbonara	25.35	1	39.64	1	0.0	1	null	6	null	6	780.49	1	1004.62	1	41.076845	16.866987
3137	2024-05-10 16:00:00	16	carbonara	24.75	1	47.02	1	0.0	1	null	6	null	6	631.21	1	1004.37	1	41.076845	16.866987
3138	2024-05-10 17:00:00	16	carbonara	24.41	1	47.25	1	0.0	1	null	6	null	6	444.54	1	1004.0	1	41.076845	16.866987
3139	2024-05-10 18:00:00	16	carbonara	23.87	1	45.54	1	0.0	1	null	6	null	6	241.07	1	1003.98	1	41.076845	16.866987
3140	2024-05-10 19:00:00	16	carbonara	21.61	1	47.69	1	0.0	1	null	6	null	6	35.42	1	1004.36	1	41.076845	16.866987
3141	2024-05-10 20:00:00	16	carbonara	20.46	1	51.59	1	0.0	1	null	6	null	6	0.0	1	1004.82	1	41.076845	16.866987
3142	2024-05-10 21:00:00	16	carbonara	20.03	1	55.68	1	0.0	1	null	6	null	6	0.0	1	1005.29	1	41.076845	16.866987
3143	2024-05-10 22:00:00	16	carbonara	20.05	1	51.49	1	0.0	1	null	6	null	6	0.0	1	1005.5	1	41.076845	16.866987
3144	2024-05-10 23:00:00	16	carbonara	19.76	1	49.78	1	0.0	1	null	6	null	6	0.0	1	1005.63	1	41.076845	16.866987
3145	2024-05-11 00:00:00	16	carbonara	19.2	1	47.34	1	0.0	1	null	6	null	6	0.0	1	1005.67	1	41.076845	16.866987
3146	2024-05-11 01:00:00	16	carbonara	18.42	1	50.24	1	0.0	1	null	6	null	6	0.0	1	1005.41	1	41.076845	16.866987
3147	2024-05-11 02:00:00	16	carbonara	17.54	1	54.5	1	0.0	1	null	6	null	6	0.0	1	1005.28	1	41.076845	16.866987
3148	2024-05-11 03:00:00	16	carbonara	16.84	1	59.91	1	0.0	1	null	6	null	6	0.0	1	1005.39	1	41.076845	16.866987
3149	2024-05-11 04:00:00	16	carbonara	16.14	1	61.46	1	0.0	1	null	6	null	6	0.0	1	1005.35	1	41.076845	16.866987
3150	2024-05-11 05:00:00	16	carbonara	15.68	1	61.32	1	0.0	1	null	6	null	6	0.0	5	1005.41	1	41.076845	16.866987
3151	2024-05-11 06:00:00	16	carbonara	16.27	1	62.09	1	0.0	1	null	6	null	6	73.73	1	1005.72	1	41.076845	16.866987
3152	2024-05-11 07:00:00	16	carbonara	19.1	1	56.16	1	0.0	1	null	6	null	6	238.22	1	1006.2	1	41.076845	16.866987
3153	2024-05-11 08:00:00	16	carbonara	21.3	1	57.85	1	0.0	1	null	6	null	6	425.51	1	1006.57	1	41.076845	16.866987
3154	2024-05-11 09:00:00	16	carbonara	22.71	1	57.08	1	0.0	1	null	6	null	6	586.33	1	1006.68	1	41.076845	16.866987
3155	2024-05-11 10:00:00	16	carbonara	23.44	1	59.29	1	0.0	1	null	6	null	6	766.44	1	1006.89	1	41.076845	16.866987
3156	2024-05-11 11:00:00	16	carbonara	24.26	1	53.75	1	0.0	1	null	6	null	6	876.8	1	1007.15	1	41.076845	16.866987
3157	2024-05-11 12:00:00	16	carbonara	24.2	1	46.63	1	0.0	1	null	6	null	6	933.04	1	1007.05	1	41.076845	16.866987
3158	2024-05-11 13:00:00	16	carbonara	24.07	1	44.62	1	0.0	1	null	6	null	6	940.36	1	1007.02	1	41.076845	16.866987
3159	2024-05-11 14:00:00	16	carbonara	24.6	1	43.87	1	0.0	1	null	6	null	6	890.21	1	1007.06	1	41.076845	16.866987
3160	2024-05-11 15:00:00	16	carbonara	24.22	1	41.9	1	0.0	1	null	6	null	6	791.63	1	1006.92	1	41.076845	16.866987
3161	2024-05-11 16:00:00	16	carbonara	23.56	1	37.27	1	0.0	1	null	6	null	6	629.55	1	1006.91	1	41.076845	16.866987
3162	2024-05-11 17:00:00	16	carbonara	22.55	1	43.84	1	0.0	1	null	6	null	6	407.68	1	1006.89	1	41.076845	16.866987
3163	2024-05-11 18:00:00	16	carbonara	22.5	1	43.95	1	0.0	1	null	6	null	6	211.44	1	1007.15	1	41.076845	16.866987
3164	2024-05-11 19:00:00	16	carbonara	21.19	1	42.04	1	0.0	1	null	6	null	6	35.92	1	1007.36	1	41.076845	16.866987
3165	2024-05-11 20:00:00	16	carbonara	19.82	1	47.13	1	0.0	1	null	6	null	6	0.0	1	1007.71	1	41.076845	16.866987
3166	2024-05-11 21:00:00	16	carbonara	18.95	1	55.26	1	0.0	1	null	6	null	6	0.0	1	1008.35	1	41.076845	16.866987
3167	2024-05-11 22:00:00	16	carbonara	17.75	1	60.34	1	0.0	1	null	6	null	6	0.0	1	1008.87	1	41.076845	16.866987
3168	2024-05-11 23:00:00	16	carbonara	15.93	1	59.57	1	0.0	1	null	6	null	6	0.0	1	1008.94	1	41.076845	16.866987
3169	2024-05-12 00:00:00	16	carbonara	15.12	1	61.36	1	0.0	1	null	6	null	6	0.0	1	1008.94	1	41.076845	16.866987
3170	2024-05-12 01:00:00	16	carbonara	14.05	1	65.77	1	0.0	1	null	6	null	6	0.0	1	1008.77	1	41.076845	16.866987
3171	2024-05-12 02:00:00	16	carbonara	13.97	1	64.25	1	0.0	1	null	6	null	6	0.0	1	1008.6	1	41.076845	16.866987
3172	2024-05-12 03:00:00	16	carbonara	13.67	1	61.18	1	0.0	1	null	6	null	6	0.0	1	1008.59	1	41.076845	16.866987
3173	2024-05-12 04:00:00	16	carbonara	13.4	1	56.58	1	0.0	1	null	6	null	6	0.0	1	1008.41	1	41.076845	16.866987
3174	2024-05-12 05:00:00	16	carbonara	13.31	1	54.78	1	0.0	1	null	6	null	6	0.0	5	1008.42	1	41.076845	16.866987
3175	2024-05-12 06:00:00	16	carbonara	14.34	1	52.56	1	0.0	1	null	6	null	6	78.71	1	1008.52	1	41.076845	16.866987
3176	2024-05-12 07:00:00	16	carbonara	18.45	1	43.84	1	0.0	1	null	6	null	6	252.33	1	1008.51	1	41.076845	16.866987
3177	2024-05-12 08:00:00	16	carbonara	21.9	1	35.59	1	0.0	1	null	6	null	6	376.08	1	1008.69	1	41.076845	16.866987
3178	2024-05-12 09:00:00	16	carbonara	23.79	1	30.89	1	0.0	1	null	6	null	6	618.23	1	1008.76	1	41.076845	16.866987
3179	2024-05-12 10:00:00	16	carbonara	24.28	1	30.91	1	0.0	1	null	6	null	6	749.32	1	1008.88	1	41.076845	16.866987
3180	2024-05-12 11:00:00	16	carbonara	24.07	1	32.52	1	0.0	1	null	6	null	6	892.34	1	1008.83	1	41.076845	16.866987
3181	2024-05-12 12:00:00	16	carbonara	23.65	1	34.21	1	0.0	1	null	6	null	6	943.36	1	1008.68	1	41.076845	16.866987
3182	2024-05-12 13:00:00	16	carbonara	23.64	1	33.62	1	0.0	1	null	6	null	6	942.11	1	1008.3	1	41.076845	16.866987
3183	2024-05-12 14:00:00	16	carbonara	24.6	1	31.44	1	0.0	1	null	6	null	6	887.65	1	1007.91	1	41.076845	16.866987
3184	2024-05-12 15:00:00	16	carbonara	24.2	1	33.48	1	0.0	1	null	6	null	6	778.76	1	1007.64	1	41.076845	16.866987
3185	2024-05-12 16:00:00	16	carbonara	24.75	1	33.23	1	0.0	1	null	6	null	6	627.71	1	1007.21	1	41.076845	16.866987
3186	2024-05-12 17:00:00	16	carbonara	24.81	1	31.2	1	0.0	1	null	6	null	6	446.02	1	1006.69	1	41.076845	16.866987
3187	2024-05-12 18:00:00	16	carbonara	24.21	1	32.17	1	0.0	1	null	6	null	6	245.04	1	1006.61	1	41.076845	16.866987
3188	2024-05-12 19:00:00	16	carbonara	22.3	1	36.62	1	0.0	1	null	6	null	6	40.44	1	1007.09	1	41.076845	16.866987
3189	2024-05-12 20:00:00	16	carbonara	21.18	1	35.12	1	0.0	1	null	6	null	6	0.0	5	1007.55	1	41.076845	16.866987
3190	2024-05-12 21:00:00	16	carbonara	20.63	1	35.81	1	0.0	1	null	6	null	6	0.0	1	1008.01	1	41.076845	16.866987
3191	2024-05-12 22:00:00	16	carbonara	19.55	1	39.95	1	0.0	1	null	6	null	6	0.0	1	1008.38	1	41.076845	16.866987
3192	2024-05-12 23:00:00	16	carbonara	18.31	1	45.08	1	0.0	1	null	6	null	6	0.0	1	1008.37	1	41.076845	16.866987
3193	2024-05-13 00:00:00	16	carbonara	16.64	1	49.95	1	0.0	1	null	6	null	6	0.0	1	1008.14	1	41.076845	16.866987
3194	2024-05-13 01:00:00	16	carbonara	16.46	1	48.56	1	0.0	1	null	6	null	6	0.0	1	1007.74	1	41.076845	16.866987
3195	2024-05-13 02:00:00	16	carbonara	15.87	1	50.34	1	0.0	1	null	6	null	6	0.0	1	1007.57	1	41.076845	16.866987
3196	2024-05-13 03:00:00	16	carbonara	14.75	1	53.92	1	0.0	1	null	6	null	6	0.0	1	1007.36	1	41.076845	16.866987
3197	2024-05-13 04:00:00	16	carbonara	14.23	1	54.16	1	0.0	1	null	6	null	6	0.0	1	1007.15	1	41.076845	16.866987
3198	2024-05-13 05:00:00	16	carbonara	13.68	1	55.0	1	0.0	1	null	6	null	6	0.0	5	1007.17	1	41.076845	16.866987
3199	2024-05-13 06:00:00	16	carbonara	14.57	1	53.01	1	0.0	1	null	6	null	6	74.13	1	1007.43	1	41.076845	16.866987
3200	2024-05-13 07:00:00	16	carbonara	18.23	1	48.4	1	0.0	1	null	6	null	6	227.71	1	1007.7	1	41.076845	16.866987
3201	2024-05-13 08:00:00	16	carbonara	22.05	1	44.71	1	0.0	1	null	6	null	6	413.66	1	1007.85	1	41.076845	16.866987
3202	2024-05-13 09:00:00	16	carbonara	23.4	1	41.92	1	0.0	1	null	6	null	6	603.72	1	1007.62	1	41.076845	16.866987
3203	2024-05-13 10:00:00	16	carbonara	24.46	1	44.73	1	0.0	1	null	6	null	6	745.37	1	1007.23	1	41.076845	16.866987
3204	2024-05-13 11:00:00	16	carbonara	23.83	1	52.52	1	0.0	1	null	6	null	6	748.5	1	1006.82	1	41.076845	16.866987
3205	2024-05-13 12:00:00	16	carbonara	24.36	1	44.2	1	0.0	1	null	6	null	6	759.38	1	1006.36	1	41.076845	16.866987
3206	2024-05-13 13:00:00	16	carbonara	24.34	1	39.55	1	0.0	1	null	6	null	6	653.22	1	1005.85	1	41.076845	16.866987
3207	2024-05-13 14:00:00	16	carbonara	25.49	1	33.54	1	0.0	1	null	6	null	6	785.26	1	1005.28	1	41.076845	16.866987
3208	2024-05-13 15:00:00	16	carbonara	25.87	1	31.69	1	0.0	1	null	6	null	6	583.55	1	1004.46	1	41.076845	16.866987
3209	2024-05-13 16:00:00	16	carbonara	24.97	1	32.67	1	0.0	1	null	6	null	6	275.82	1	1004.08	1	41.076845	16.866987
3210	2024-05-13 17:00:00	16	carbonara	24.3	1	37.81	1	0.0	1	null	6	null	6	171.55	1	1003.67	1	41.076845	16.866987
3211	2024-05-13 18:00:00	16	carbonara	23.56	1	43.83	1	0.0	1	null	6	null	6	41.57	1	1003.66	1	41.076845	16.866987
3212	2024-05-13 19:00:00	16	carbonara	23.64	1	37.38	1	0.0	1	null	6	null	6	6.01	1	1003.84	1	41.076845	16.866987
3213	2024-05-13 20:00:00	16	carbonara	22.75	1	41.74	1	0.0	1	null	6	null	6	0.0	1	1004.02	1	41.076845	16.866987
3214	2024-05-13 21:00:00	16	carbonara	22.03	1	43.72	1	0.0	1	null	6	null	6	0.0	1	1004.21	1	41.076845	16.866987
3215	2024-05-13 22:00:00	16	carbonara	21.75	1	36.6	1	0.0	1	null	6	null	6	0.0	1	1004.08	1	41.076845	16.866987
3216	2024-05-13 23:00:00	16	carbonara	21.16	1	39.66	1	0.0	1	null	6	null	6	0.0	1	1003.75	1	41.076845	16.866987
3217	2024-05-14 00:00:00	16	carbonara	21.06	1	43.17	1	0.0	1	null	6	null	6	0.0	1	1003.41	1	41.076845	16.866987
3218	2024-05-14 01:00:00	16	carbonara	20.52	1	47.39	1	0.0	1	null	6	null	6	0.0	1	1003.2	1	41.076845	16.866987
3219	2024-05-14 02:00:00	16	carbonara	20.17	1	45.83	1	0.0	1	null	6	null	6	0.0	1	1002.8	1	41.076845	16.866987
3220	2024-05-14 03:00:00	16	carbonara	20.03	1	50.65	1	0.0	1	null	6	null	6	0.0	1	1002.44	1	41.076845	16.866987
3221	2024-05-14 04:00:00	16	carbonara	19.62	1	62.81	1	0.0	1	null	6	null	6	0.0	1	1002.09	1	41.076845	16.866987
3222	2024-05-14 05:00:00	16	carbonara	18.77	1	70.97	1	0.0	1	null	6	null	6	0.0	5	1002.05	1	41.076845	16.866987
3223	2024-05-14 06:00:00	16	carbonara	18.21	1	73.47	1	0.0	1	null	6	null	6	40.57	1	1001.92	1	41.076845	16.866987
3224	2024-05-14 07:00:00	16	carbonara	19.09	1	70.46	1	0.0	1	null	6	null	6	122.63	1	1001.87	1	41.076845	16.866987
3225	2024-05-14 08:00:00	16	carbonara	21.64	1	61.12	1	0.0	1	null	6	null	6	272.3	1	1001.89	1	41.076845	16.866987
3226	2024-05-14 09:00:00	16	carbonara	22.89	1	56.06	1	0.0	1	null	6	null	6	384.9	1	1001.73	1	41.076845	16.866987
3227	2024-05-14 10:00:00	16	carbonara	24.17	1	50.89	1	0.0	1	null	6	null	6	599.44	1	1001.63	1	41.076845	16.866987
3228	2024-05-14 11:00:00	16	carbonara	24.82	1	46.05	1	0.0	1	null	6	null	6	621.14	1	1001.39	1	41.076845	16.866987
3229	2024-05-14 12:00:00	16	carbonara	26.42	1	40.31	1	0.0	1	null	6	null	6	924.9	1	1001.06	1	41.076845	16.866987
3230	2024-05-14 13:00:00	16	carbonara	27.37	1	35.8	1	0.0	1	null	6	null	6	914.8	1	1000.53	1	41.076845	16.866987
3231	2024-05-14 14:00:00	16	carbonara	25.46	1	38.68	1	0.0	1	null	6	null	6	120.73	1	1000.3	1	41.076845	16.866987
3232	2024-05-14 15:00:00	16	carbonara	25.28	1	41.92	1	0.0	1	null	6	null	6	570.84	1	1000.17	1	41.076845	16.866987
3233	2024-05-14 16:00:00	16	carbonara	25.9	1	41.48	1	0.0	1	null	6	null	6	629.6	1	999.84	1	41.076845	16.866987
3234	2024-05-14 17:00:00	16	carbonara	25.04	1	47.6	1	0.0	1	null	6	null	6	446.06	1	999.8	1	41.076845	16.866987
3235	2024-05-14 18:00:00	16	carbonara	23.81	1	55.34	1	0.0	1	null	6	null	6	245.4	1	1000.0	1	41.076845	16.866987
3236	2024-05-14 19:00:00	16	carbonara	21.93	1	62.74	1	0.0	1	null	6	null	6	37.95	1	1000.59	1	41.076845	16.866987
3237	2024-05-14 20:00:00	16	carbonara	20.64	1	70.14	1	0.0	1	null	6	null	6	0.0	5	1001.31	1	41.076845	16.866987
3238	2024-05-14 21:00:00	16	carbonara	20.02	1	74.25	1	0.0	1	null	6	null	6	0.0	1	1001.81	1	41.076845	16.866987
3239	2024-05-14 22:00:00	16	carbonara	19.73	1	75.82	1	0.0	1	null	6	null	6	0.0	1	1002.14	1	41.076845	16.866987
3240	2024-05-14 23:00:00	16	carbonara	19.46	1	77.78	1	0.0	1	null	6	null	6	0.0	1	1002.23	1	41.076845	16.866987
3241	2024-05-15 00:00:00	16	carbonara	19.23	1	79.88	1	0.0	1	null	6	null	6	0.0	1	1002.01	1	41.076845	16.866987
3242	2024-05-15 01:00:00	16	carbonara	19.23	1	79.86	1	0.0	1	null	6	null	6	0.0	1	1001.86	1	41.076845	16.866987
3243	2024-05-15 02:00:00	16	carbonara	19.26	1	80.16	1	0.0	1	null	6	null	6	0.0	1	1001.53	1	41.076845	16.866987
3244	2024-05-15 03:00:00	16	carbonara	19.15	1	80.55	1	0.0	1	null	6	null	6	0.0	1	1001.29	1	41.076845	16.866987
3245	2024-05-15 04:00:00	16	carbonara	18.83	1	81.92	1	0.0	1	null	6	null	6	0.0	1	1001.01	1	41.076845	16.866987
3246	2024-05-15 05:00:00	16	carbonara	18.64	1	82.84	1	0.0	1	null	6	null	6	0.0	5	1000.98	1	41.076845	16.866987
3247	2024-05-15 06:00:00	16	carbonara	18.65	1	82.97	1	0.0	1	null	6	null	6	65.3	1	1001.21	1	41.076845	16.866987
3248	2024-05-15 07:00:00	16	carbonara	20.29	1	75.89	1	0.0	1	null	6	null	6	145.37	1	1001.41	1	41.076845	16.866987
3249	2024-05-15 08:00:00	16	carbonara	22.19	1	64.72	1	0.0	1	null	6	null	6	350.31	1	1001.7	1	41.076845	16.866987
3250	2024-05-15 09:00:00	16	carbonara	23.09	1	57.44	1	0.0	1	null	6	null	6	445.9	1	1001.65	1	41.076845	16.866987
3251	2024-05-15 10:00:00	16	carbonara	24.34	1	52.52	1	0.0	1	null	6	null	6	593.73	1	1001.57	1	41.076845	16.866987
3252	2024-05-15 11:00:00	16	carbonara	24.96	1	50.2	1	0.0	1	null	6	null	6	695.5	1	1001.56	1	41.076845	16.866987
3253	2024-05-15 12:00:00	16	carbonara	25.39	1	47.71	1	0.0	1	null	6	null	6	647.83	1	1001.51	1	41.076845	16.866987
3254	2024-05-15 13:00:00	16	carbonara	25.85	1	47.15	1	0.0	1	null	6	null	6	661.41	1	1001.31	1	41.076845	16.866987
3255	2024-05-15 14:00:00	16	carbonara	25.31	1	48.12	1	0.0	1	null	6	null	6	614.83	1	1001.19	1	41.076845	16.866987
3256	2024-05-15 15:00:00	16	carbonara	25.53	1	47.89	1	0.0	1	null	6	null	6	703.22	1	1000.85	1	41.076845	16.866987
3257	2024-05-15 16:00:00	16	carbonara	24.91	1	50.18	1	0.0	1	null	6	null	6	482.24	1	1000.6	1	41.076845	16.866987
3258	2024-05-15 17:00:00	16	carbonara	23.1	1	57.35	1	0.0	1	null	6	null	6	186.74	1	1001.0	1	41.076845	16.866987
3259	2024-05-15 18:00:00	16	carbonara	22.05	1	61.69	1	0.0	1	null	6	null	6	112.59	1	1001.04	1	41.076845	16.866987
3260	2024-05-15 19:00:00	16	carbonara	21.26	1	66.71	1	0.0	1	null	6	null	6	22.46	1	1000.95	1	41.076845	16.866987
3261	2024-05-15 20:00:00	16	carbonara	20.77	1	69.77	1	0.0	1	null	6	null	6	0.0	5	1001.12	1	41.076845	16.866987
3262	2024-05-15 21:00:00	16	carbonara	20.41	1	71.69	1	0.0	1	null	6	null	6	0.0	1	1001.64	1	41.076845	16.866987
3263	2024-05-15 22:00:00	16	carbonara	20.2	1	73.99	1	0.0	1	null	6	null	6	0.0	1	1001.88	1	41.076845	16.866987
3264	2024-05-15 23:00:00	16	carbonara	20.16	1	74.51	1	0.0	1	null	6	null	6	0.0	1	1001.68	1	41.076845	16.866987
3265	2024-05-16 00:00:00	16	carbonara	20.07	1	75.64	1	0.0	1	null	6	null	6	0.0	1	1001.56	1	41.076845	16.866987
3266	2024-05-16 01:00:00	16	carbonara	19.61	1	79.69	1	0.0	1	null	6	null	6	0.0	1	1001.18	1	41.076845	16.866987
3267	2024-05-16 02:00:00	16	carbonara	19.28	1	84.21	1	0.0	1	null	6	null	6	0.0	1	1000.93	1	41.076845	16.866987
3268	2024-05-16 03:00:00	16	carbonara	19.56	1	80.97	1	0.0	1	null	6	null	6	0.0	1	1000.5	1	41.076845	16.866987
3269	2024-05-16 04:00:00	16	carbonara	19.71	1	79.11	1	0.0	1	null	6	null	6	0.0	1	1000.2	1	41.076845	16.866987
3270	2024-05-16 05:00:00	16	carbonara	19.85	1	77.77	1	0.0	1	null	6	null	6	0.0	5	1000.16	1	41.076845	16.866987
3271	2024-05-16 06:00:00	16	carbonara	20.06	1	77.63	1	0.0	1	null	6	null	6	8.84	1	1000.37	1	41.076845	16.866987
3272	2024-05-16 07:00:00	16	carbonara	20.35	1	77.35	1	0.0	1	null	6	null	6	55.31	1	999.96	1	41.076845	16.866987
3273	2024-05-16 08:00:00	16	carbonara	20.87	1	74.93	1	0.0	1	null	6	null	6	90.86	1	999.9	1	41.076845	16.866987
3274	2024-05-16 09:00:00	16	carbonara	21.78	1	71.09	1	0.0	1	null	6	null	6	196.86	1	999.18	1	41.076845	16.866987
3275	2024-05-16 10:00:00	16	carbonara	22.23	1	69.74	1	0.0	1	null	6	null	6	217.76	1	999.26	1	41.076845	16.866987
3276	2024-05-16 11:00:00	16	carbonara	22.58	1	68.81	1	0.0	1	null	6	null	6	303.4	1	998.9	1	41.076845	16.866987
3277	2024-05-16 12:00:00	16	carbonara	23.84	1	60.93	1	0.0	1	null	6	null	6	666.06	1	998.69	1	41.076845	16.866987
3278	2024-05-16 13:00:00	16	carbonara	26.19	1	49.44	1	0.0	1	null	6	null	6	831.66	1	997.41	1	41.076845	16.866987
3279	2024-05-16 14:00:00	16	carbonara	27.07	1	47.39	1	0.0	1	null	6	null	6	826.05	1	996.29	1	41.076845	16.866987
3280	2024-05-16 15:00:00	16	carbonara	26.4	1	51.9	1	0.0	1	null	6	null	6	724.2	1	995.17	1	41.076845	16.866987
3281	2024-05-16 16:00:00	16	carbonara	25.02	1	57.55	1	0.0	1	null	6	null	6	429.72	1	994.88	1	41.076845	16.866987
3282	2024-05-16 17:00:00	16	carbonara	23.76	1	62.81	1	0.0	1	null	6	null	6	246.15	1	994.74	1	41.076845	16.866987
3283	2024-05-16 18:00:00	16	carbonara	22.92	1	66.57	1	0.0	1	null	6	null	6	170.23	1	995.13	1	41.076845	16.866987
3284	2024-05-16 19:00:00	16	carbonara	22.43	1	69.81	1	0.0	1	null	6	null	6	74.45	1	996.03	1	41.076845	16.866987
3285	2024-05-16 20:00:00	16	carbonara	21.17	1	76.5	1	0.0	1	null	6	null	6	0.0	5	996.71	1	41.076845	16.866987
3286	2024-05-16 21:00:00	16	carbonara	20.5	1	81.04	1	0.0	1	null	6	null	6	0.0	1	997.59	1	41.076845	16.866987
3287	2024-05-16 22:00:00	16	carbonara	20.29	1	82.58	1	0.0	1	null	6	null	6	0.0	1	998.41	1	41.076845	16.866987
3288	2024-05-16 23:00:00	16	carbonara	20.25	1	82.82	1	0.0	1	null	6	null	6	0.0	1	998.6	1	41.076845	16.866987
3289	2024-05-17 00:00:00	16	carbonara	20.22	1	83.75	1	0.0	1	null	6	null	6	0.0	1	999.15	1	41.076845	16.866987
3290	2024-05-17 01:00:00	16	carbonara	20.23	1	83.86	1	0.0	1	null	6	null	6	0.0	1	999.64	1	41.076845	16.866987
3291	2024-05-17 02:00:00	16	carbonara	20.13	1	83.81	1	0.0	1	null	6	null	6	0.0	1	999.66	1	41.076845	16.866987
3292	2024-05-17 03:00:00	16	carbonara	20.05	1	83.15	1	0.0	1	null	6	null	6	0.0	1	999.83	1	41.076845	16.866987
3293	2024-05-17 04:00:00	16	carbonara	19.93	1	80.58	1	0.0	1	null	6	null	6	0.0	1	1000.22	1	41.076845	16.866987
3294	2024-05-17 05:00:00	16	carbonara	19.48	1	78.27	1	0.0	1	null	6	null	6	0.0	5	1000.89	1	41.076845	16.866987
3295	2024-05-17 06:00:00	16	carbonara	19.33	1	80.68	1	0.0	1	null	6	null	6	83.55	1	1001.19	1	41.076845	16.866987
3296	2024-05-17 07:00:00	16	carbonara	22.47	1	59.79	1	0.0	1	null	6	null	6	261.68	1	1001.42	1	41.076845	16.866987
3297	2024-05-17 08:00:00	16	carbonara	24.53	1	44.66	1	0.0	1	null	6	null	6	451.41	1	1001.84	1	41.076845	16.866987
3298	2024-05-17 09:00:00	16	carbonara	24.77	1	47.54	1	0.0	1	null	6	null	6	633.32	1	1002.09	1	41.076845	16.866987
3299	2024-05-17 10:00:00	16	carbonara	26.11	1	41.46	1	0.0	1	null	6	null	6	776.17	1	1002.44	1	41.076845	16.866987
3300	2024-05-17 11:00:00	16	carbonara	26.66	1	37.58	1	0.0	1	null	6	null	6	881.39	1	1002.68	1	41.076845	16.866987
3301	2024-05-17 12:00:00	16	carbonara	26.51	1	33.99	1	0.0	1	null	6	null	6	936.14	1	1002.88	1	41.076845	16.866987
3302	2024-05-17 13:00:00	16	carbonara	26.66	1	35.03	1	0.0	1	null	6	null	6	937.2	1	1002.92	1	41.076845	16.866987
3303	2024-05-17 14:00:00	16	carbonara	26.3	1	39.46	1	0.0	1	null	6	null	6	888.9	1	1002.92	1	41.076845	16.866987
3304	2024-05-17 15:00:00	16	carbonara	26.26	1	40.8	1	0.0	1	null	6	null	6	782.78	1	1002.83	1	41.076845	16.866987
3305	2024-05-17 16:00:00	16	carbonara	26.8	1	40.06	1	0.0	1	null	6	null	6	639.65	1	1002.64	1	41.076845	16.866987
3306	2024-05-17 17:00:00	16	carbonara	26.32	1	46.61	1	0.0	1	null	6	null	6	461.47	1	1002.51	1	41.076845	16.866987
3307	2024-05-17 18:00:00	16	carbonara	24.92	1	55.24	1	0.0	1	null	6	null	6	256.34	1	1002.6	1	41.076845	16.866987
3308	2024-05-17 19:00:00	16	carbonara	23.53	1	60.42	1	0.0	1	null	6	null	6	43.25	1	1003.23	1	41.076845	16.866987
3309	2024-05-17 20:00:00	16	carbonara	22.54	1	59.23	1	0.0	1	null	6	null	6	0.0	5	1003.88	1	41.076845	16.866987
3310	2024-05-17 21:00:00	16	carbonara	22.38	1	53.09	1	0.0	1	null	6	null	6	0.0	1	1004.42	1	41.076845	16.866987
3311	2024-05-17 22:00:00	16	carbonara	21.63	1	57.2	1	0.0	1	null	6	null	6	0.0	1	1004.71	1	41.076845	16.866987
3312	2024-05-17 23:00:00	16	carbonara	21.19	1	56.39	1	0.0	1	null	6	null	6	0.0	1	1004.64	1	41.076845	16.866987
3313	2024-05-18 00:00:00	16	carbonara	19.94	1	63.08	1	0.0	1	null	6	null	6	0.0	1	1004.43	1	41.076845	16.866987
3314	2024-05-18 01:00:00	16	carbonara	19.55	1	62.53	1	0.0	1	null	6	null	6	0.0	1	1003.98	1	41.076845	16.866987
3315	2024-05-18 02:00:00	16	carbonara	19.14	1	66.07	1	0.0	1	null	6	null	6	0.0	1	1003.73	1	41.076845	16.866987
3316	2024-05-18 03:00:00	16	carbonara	18.67	1	73.18	1	0.0	1	null	6	null	6	0.0	1	1003.76	1	41.076845	16.866987
3317	2024-05-18 04:00:00	16	carbonara	18.17	1	80.32	1	0.0	1	null	6	null	6	0.0	1	1003.69	1	41.076845	16.866987
3318	2024-05-18 05:00:00	16	carbonara	17.29	1	82.88	1	0.0	1	null	6	null	6	0.0	5	1004.1	1	41.076845	16.866987
3319	2024-05-18 06:00:00	16	carbonara	17.69	1	77.68	1	0.0	1	null	6	null	6	69.36	1	1004.39	1	41.076845	16.866987
3320	2024-05-18 07:00:00	16	carbonara	19.84	1	70.84	1	0.0	1	null	6	null	6	193.43	1	1004.62	1	41.076845	16.866987
3321	2024-05-18 08:00:00	16	carbonara	22.56	1	62.02	1	0.0	1	null	6	null	6	371.98	1	1004.7	1	41.076845	16.866987
3322	2024-05-18 09:00:00	16	carbonara	24.64	1	54.2	1	0.0	1	null	6	null	6	502.2	1	1004.59	1	41.076845	16.866987
3323	2024-05-18 10:00:00	16	carbonara	25.71	1	54.46	1	0.0	1	null	6	null	6	644.37	1	1004.38	1	41.076845	16.866987
3324	2024-05-18 11:00:00	16	carbonara	25.34	1	60.29	1	0.0	1	null	6	null	6	727.42	1	1004.75	1	41.076845	16.866987
3325	2024-05-18 12:00:00	16	carbonara	23.8	1	67.83	1	0.0	1	null	6	null	6	589.09	1	1004.95	1	41.076845	16.866987
3326	2024-05-18 13:00:00	16	carbonara	23.54	1	67.66	1	0.0	1	null	6	null	6	658.03	1	1004.03	1	41.076845	16.866987
3327	2024-05-18 14:00:00	16	carbonara	24.4	1	63.97	1	0.0	1	null	6	null	6	479.68	1	1003.28	1	41.076845	16.866987
3328	2024-05-18 15:00:00	16	carbonara	24.06	1	62.71	1	0.0	1	null	6	null	6	196.42	1	1003.11	1	41.076845	16.866987
3329	2024-05-18 16:00:00	16	carbonara	21.24	1	81.61	1	0.2	1	null	6	null	6	0.0	5	1004.79	1	41.076845	16.866987
3330	2024-05-18 17:00:00	16	carbonara	18.55	1	97.34	1	1.4	1	null	6	null	6	76.48	1	1005.3	1	41.076845	16.866987
3331	2024-05-18 18:00:00	16	carbonara	19.12	1	99.95	1	1.2	1	null	6	null	6	29.76	1	1005.49	1	41.076845	16.866987
3332	2024-05-18 19:00:00	16	carbonara	19.03	1	99.86	1	1.0	1	null	6	null	6	7.53	1	1004.99	1	41.076845	16.866987
3333	2024-05-18 20:00:00	16	carbonara	18.89	1	null	3	1.4	1	null	6	null	6	0.0	1	1004.61	1	41.076845	16.866987
3334	2024-05-18 21:00:00	16	carbonara	18.99	1	null	3	1.6	1	null	6	null	6	0.0	1	1004.29	1	41.076845	16.866987
3335	2024-05-18 22:00:00	16	carbonara	18.89	1	null	3	1.8	1	null	6	null	6	0.0	1	1004.26	1	41.076845	16.866987
3336	2024-05-18 23:00:00	16	carbonara	18.74	1	null	3	2.4	1	null	6	null	6	0.0	1	1004.03	1	41.076845	16.866987
3337	2024-05-19 00:00:00	16	carbonara	18.64	1	null	3	2.2	1	null	6	null	6	0.0	1	1004.02	1	41.076845	16.866987
3338	2024-05-19 01:00:00	16	carbonara	18.32	1	null	3	1.8	1	null	6	null	6	0.0	1	1003.23	1	41.076845	16.866987
3339	2024-05-19 02:00:00	16	carbonara	17.94	1	null	3	1.4	1	null	6	null	6	0.0	1	1002.8	1	41.076845	16.866987
3340	2024-05-19 03:00:00	16	carbonara	17.62	1	null	3	1.4	1	null	6	null	6	0.0	1	1002.49	1	41.076845	16.866987
3341	2024-05-19 04:00:00	16	carbonara	17.57	1	null	3	1.0	1	null	6	null	6	0.0	1	1002.0	1	41.076845	16.866987
3342	2024-05-19 05:00:00	16	carbonara	17.1	1	null	3	0.8	1	null	6	null	6	6.45	1	1002.75	1	41.076845	16.866987
3343	2024-05-19 06:00:00	16	carbonara	17.15	1	null	3	0.6	1	null	6	null	6	61.59	1	1003.05	1	41.076845	16.866987
3344	2024-05-19 07:00:00	16	carbonara	18.19	1	99.73	1	0.6	1	null	6	null	6	172.35	1	1003.6	1	41.076845	16.866987
3345	2024-05-19 08:00:00	16	carbonara	20.65	1	93.91	1	0.4	1	null	6	null	6	350.19	1	1003.87	1	41.076845	16.866987
3346	2024-05-19 09:00:00	16	carbonara	22.96	1	76.21	1	0.0	1	null	6	null	6	465.18	1	1004.01	1	41.076845	16.866987
3347	2024-05-19 10:00:00	16	carbonara	22.86	1	71.91	1	0.0	1	null	6	null	6	610.15	1	1003.82	1	41.076845	16.866987
3348	2024-05-19 11:00:00	16	carbonara	23.69	1	67.92	1	0.0	1	null	6	null	6	756.47	1	1003.98	1	41.076845	16.866987
3349	2024-05-19 12:00:00	16	carbonara	24.34	1	64.66	1	0.0	1	null	6	null	6	853.05	1	1003.08	1	41.076845	16.866987
3350	2024-05-19 13:00:00	16	carbonara	24.96	1	62.7	1	0.0	1	null	6	null	6	788.97	1	1002.55	1	41.076845	16.866987
3351	2024-05-19 14:00:00	16	carbonara	25.11	1	63.85	1	0.0	1	null	6	null	6	781.79	1	1002.09	1	41.076845	16.866987
3352	2024-05-19 15:00:00	16	carbonara	23.76	1	69.09	1	0.0	1	null	6	null	6	140.17	1	1001.48	1	41.076845	16.866987
3353	2024-05-19 16:00:00	16	carbonara	21.89	1	81.16	1	0.2	1	null	6	null	6	22.41	1	1001.76	1	41.076845	16.866987
3354	2024-05-19 17:00:00	16	carbonara	20.92	1	89.17	1	0.4	1	null	6	null	6	27.28	1	1000.7	1	41.076845	16.866987
3355	2024-05-19 18:00:00	16	carbonara	20.92	1	92.1	1	0.4	1	null	6	null	6	9.16	1	1001.84	1	41.076845	16.866987
3356	2024-05-19 19:00:00	16	carbonara	19.82	1	99.29	1	0.6	1	null	6	null	6	27.24	1	1001.56	1	41.076845	16.866987
3357	2024-05-19 20:00:00	16	carbonara	19.55	1	99.98	1	0.2	1	null	6	null	6	0.0	5	1001.59	1	41.076845	16.866987
3358	2024-05-19 21:00:00	16	carbonara	19.62	1	null	3	0.8	1	null	6	null	6	0.0	1	1001.88	1	41.076845	16.866987
3359	2024-05-19 22:00:00	16	carbonara	19.42	1	null	3	0.8	1	null	6	null	6	0.0	1	1002.11	1	41.076845	16.866987
3360	2024-05-19 23:00:00	16	carbonara	19.13	1	null	3	0.8	1	null	6	null	6	0.0	1	1002.49	1	41.076845	16.866987
3361	2024-05-20 00:00:00	16	carbonara	18.71	1	null	3	1.2	1	null	6	null	6	0.0	1	1002.37	1	41.076845	16.866987
3362	2024-05-20 01:00:00	16	carbonara	18.38	1	null	3	1.0	1	null	6	null	6	0.0	1	1002.01	1	41.076845	16.866987
3363	2024-05-20 02:00:00	16	carbonara	18.16	1	null	3	1.0	1	null	6	null	6	0.0	1	1001.81	1	41.076845	16.866987
3364	2024-05-20 03:00:00	16	carbonara	18.17	1	null	3	0.8	1	null	6	null	6	0.0	1	1001.97	1	41.076845	16.866987
3365	2024-05-20 04:00:00	16	carbonara	18.22	1	null	3	0.6	1	null	6	null	6	0.0	1	1002.13	1	41.076845	16.866987
3366	2024-05-20 05:00:00	16	carbonara	18.29	1	null	3	0.8	1	null	6	null	6	0.0	5	1002.16	1	41.076845	16.866987
3367	2024-05-20 06:00:00	16	carbonara	18.55	1	null	3	0.4	1	null	6	null	6	35.32	1	1002.36	1	41.076845	16.866987
3368	2024-05-20 07:00:00	16	carbonara	18.93	1	99.58	1	0.4	1	null	6	null	6	97.3	1	1002.46	1	41.076845	16.866987
3369	2024-05-20 08:00:00	16	carbonara	19.81	1	96.06	1	0.2	1	null	6	null	6	164.28	1	1002.76	1	41.076845	16.866987
3370	2024-05-20 09:00:00	16	carbonara	20.78	1	89.53	1	0.4	1	null	6	null	6	272.37	1	1002.66	1	41.076845	16.866987
3371	2024-05-20 10:00:00	16	carbonara	22.89	1	78.95	1	0.0	1	null	6	null	6	495.47	1	1002.32	1	41.076845	16.866987
3372	2024-05-20 11:00:00	16	carbonara	24.02	1	73.49	1	0.2	1	null	6	null	6	541.37	1	1001.98	1	41.076845	16.866987
3373	2024-05-20 12:00:00	16	carbonara	24.24	1	72.46	1	0.0	1	null	6	null	6	843.2	1	1001.59	1	41.076845	16.866987
3374	2024-05-20 13:00:00	16	carbonara	24.92	1	69.31	1	0.0	1	null	6	null	6	845.06	1	1001.38	1	41.076845	16.866987
3375	2024-05-20 14:00:00	16	carbonara	25.31	1	69.64	1	0.0	1	null	6	null	6	813.01	1	1000.98	1	41.076845	16.866987
3376	2024-05-20 15:00:00	16	carbonara	26.44	1	66.14	1	0.0	1	null	6	null	6	743.61	1	1000.25	1	41.076845	16.866987
3377	2024-05-20 16:00:00	16	carbonara	26.25	1	68.5	1	0.0	1	null	6	null	6	579.06	1	999.54	1	41.076845	16.866987
3378	2024-05-20 17:00:00	16	carbonara	25.2	1	73.78	1	0.0	1	null	6	null	6	400.28	1	999.1	1	41.076845	16.866987
3379	2024-05-20 18:00:00	16	carbonara	24.52	1	77.26	1	0.0	1	null	6	null	6	197.53	1	998.85	1	41.076845	16.866987
3380	2024-05-20 19:00:00	16	carbonara	23.77	1	79.36	1	0.0	1	null	6	null	6	42.41	1	998.78	1	41.076845	16.866987
3381	2024-05-20 20:00:00	16	carbonara	23.13	1	80.89	1	0.0	1	null	6	null	6	0.0	5	999.0	1	41.076845	16.866987
3382	2024-05-20 21:00:00	16	carbonara	22.13	1	85.05	1	0.0	1	null	6	null	6	0.0	1	999.36	1	41.076845	16.866987
3383	2024-05-20 22:00:00	16	carbonara	22.33	1	72.99	1	0.0	1	null	6	null	6	0.0	1	999.31	1	41.076845	16.866987
3384	2024-05-20 23:00:00	16	carbonara	21.92	1	73.24	1	0.0	1	null	6	null	6	0.0	1	998.92	1	41.076845	16.866987
3385	2024-05-21 00:00:00	16	carbonara	21.15	1	79.37	1	0.0	1	null	6	null	6	0.0	1	998.45	1	41.076845	16.866987
3386	2024-05-21 01:00:00	16	carbonara	21.47	1	62.81	1	0.0	1	null	6	null	6	0.0	1	997.79	1	41.076845	16.866987
3387	2024-05-21 02:00:00	16	carbonara	21.28	1	61.38	1	0.0	1	null	6	null	6	0.0	1	997.4	1	41.076845	16.866987
3388	2024-05-21 03:00:00	16	carbonara	20.74	1	66.54	1	0.0	1	null	6	null	6	0.0	1	997.32	1	41.076845	16.866987
3389	2024-05-21 04:00:00	16	carbonara	20.64	1	74.46	1	0.0	1	null	6	null	6	0.0	1	996.57	1	41.076845	16.866987
3390	2024-05-21 05:00:00	16	carbonara	20.66	1	75.93	1	0.0	1	null	6	null	6	0.0	5	996.7	1	41.076845	16.866987
3391	2024-05-21 06:00:00	16	carbonara	20.95	1	75.3	1	0.0	1	null	6	null	6	65.25	1	997.18	1	41.076845	16.866987
3392	2024-05-21 07:00:00	16	carbonara	22.42	1	71.29	1	0.0	1	null	6	null	6	192.1	1	997.48	1	41.076845	16.866987
3393	2024-05-21 08:00:00	16	carbonara	23.91	1	66.71	1	0.0	1	null	6	null	6	259.07	1	997.89	1	41.076845	16.866987
3394	2024-05-21 09:00:00	16	carbonara	26.29	1	57.07	1	0.0	1	null	6	null	6	521.08	1	998.01	1	41.076845	16.866987
3395	2024-05-21 10:00:00	16	carbonara	28.36	1	49.26	1	0.0	1	null	6	null	6	659.12	1	997.95	1	41.076845	16.866987
3396	2024-05-21 11:00:00	16	carbonara	30.54	1	39.48	1	0.0	1	null	6	null	6	765.51	1	997.92	1	41.076845	16.866987
3397	2024-05-21 12:00:00	16	carbonara	28.81	1	44.91	1	0.0	1	null	6	null	6	612.44	1	998.53	1	41.076845	16.866987
3398	2024-05-21 13:00:00	16	carbonara	29.37	1	41.85	1	0.0	1	null	6	null	6	702.18	1	998.63	1	41.076845	16.866987
3399	2024-05-21 14:00:00	16	carbonara	28.68	1	42.1	1	0.0	1	null	6	null	6	300.23	1	998.9	1	41.076845	16.866987
3400	2024-05-21 15:00:00	16	carbonara	27.83	1	43.49	1	0.0	1	null	6	null	6	191.75	1	999.22	1	41.076845	16.866987
3401	2024-05-21 16:00:00	16	carbonara	27.4	1	45.29	1	0.0	1	null	6	null	6	176.4	1	999.32	1	41.076845	16.866987
3402	2024-05-21 17:00:00	16	carbonara	29.44	1	31.43	1	0.0	1	null	6	null	6	434.06	1	999.27	1	41.076845	16.866987
3403	2024-05-21 18:00:00	16	carbonara	29.92	1	33.02	1	0.0	1	null	6	null	6	310.63	1	999.22	1	41.076845	16.866987
3404	2024-05-21 19:00:00	16	carbonara	27.28	1	34.98	1	0.0	1	null	6	null	6	50.31	1	999.77	1	41.076845	16.866987
3405	2024-05-21 20:00:00	16	carbonara	24.94	1	40.7	1	0.0	1	null	6	null	6	0.0	5	1000.73	1	41.076845	16.866987
3406	2024-05-21 21:00:00	16	carbonara	23.29	1	45.58	1	0.0	1	null	6	null	6	0.0	1	1001.82	1	41.076845	16.866987
3407	2024-05-21 22:00:00	16	carbonara	21.96	1	49.81	1	0.0	1	null	6	null	6	0.0	1	1002.55	1	41.076845	16.866987
3408	2024-05-21 23:00:00	16	carbonara	20.8	1	52.93	1	0.0	1	null	6	null	6	0.0	1	1003.16	1	41.076845	16.866987
3409	2024-05-22 00:00:00	16	carbonara	20.03	1	52.28	1	0.0	1	null	6	null	6	0.0	1	1003.26	1	41.076845	16.866987
3410	2024-05-22 01:00:00	16	carbonara	19.46	1	51.99	1	0.0	1	null	6	null	6	0.0	1	1003.15	1	41.076845	16.866987
3411	2024-05-22 02:00:00	16	carbonara	19.03	1	50.41	1	0.0	1	null	6	null	6	0.0	1	1003.0	1	41.076845	16.866987
3412	2024-05-22 03:00:00	16	carbonara	18.6	1	49.64	1	0.0	1	null	6	null	6	0.0	1	1003.06	1	41.076845	16.866987
3413	2024-05-22 04:00:00	16	carbonara	18.69	1	48.11	1	0.0	1	null	6	null	6	0.0	1	1002.94	1	41.076845	16.866987
3414	2024-05-22 05:00:00	16	carbonara	19.01	1	48.68	1	0.0	1	null	6	null	6	0.0	5	1002.87	1	41.076845	16.866987
3415	2024-05-22 06:00:00	16	carbonara	19.97	1	48.75	1	0.0	1	null	6	null	6	101.31	1	1003.26	1	41.076845	16.866987
3416	2024-05-22 07:00:00	16	carbonara	22.07	1	44.37	1	0.0	1	null	6	null	6	279.56	1	1003.45	1	41.076845	16.866987
3417	2024-05-22 08:00:00	16	carbonara	23.61	1	39.65	1	0.0	1	null	6	null	6	469.71	1	1003.74	1	41.076845	16.866987
3418	2024-05-22 09:00:00	16	carbonara	24.46	1	35.2	1	0.0	1	null	6	null	6	625.89	1	1003.88	1	41.076845	16.866987
3419	2024-05-22 10:00:00	16	carbonara	25.23	1	31.75	1	0.0	1	null	6	null	6	769.22	1	1004.02	1	41.076845	16.866987
3420	2024-05-22 11:00:00	16	carbonara	26.08	1	32.25	1	0.0	1	null	6	null	6	689.45	1	1004.08	1	41.076845	16.866987
3421	2024-05-22 12:00:00	16	carbonara	26.7	1	35.99	1	0.0	1	null	6	null	6	929.16	1	1003.95	1	41.076845	16.866987
3422	2024-05-22 13:00:00	16	carbonara	25.62	1	44.59	1	0.0	1	null	6	null	6	946.88	1	1003.9	1	41.076845	16.866987
3423	2024-05-22 14:00:00	16	carbonara	25.13	1	51.32	1	0.0	1	null	6	null	6	894.07	1	1003.72	1	41.076845	16.866987
3424	2024-05-22 15:00:00	16	carbonara	25.21	1	45.93	1	0.0	1	null	6	null	6	594.72	1	1003.59	1	41.076845	16.866987
3425	2024-05-22 16:00:00	16	carbonara	25.67	1	37.58	1	0.0	1	null	6	null	6	422.3	1	1003.43	1	41.076845	16.866987
3426	2024-05-22 17:00:00	16	carbonara	25.36	1	41.14	1	0.0	1	null	6	null	6	474.79	1	1003.31	1	41.076845	16.866987
3427	2024-05-22 18:00:00	16	carbonara	24.15	1	47.65	1	0.0	1	null	6	null	6	200.22	1	1003.51	1	41.076845	16.866987
3428	2024-05-22 19:00:00	16	carbonara	22.57	1	56.46	1	0.0	1	null	6	null	6	28.61	1	1004.64	1	41.076845	16.866987
3429	2024-05-22 20:00:00	16	carbonara	21.04	1	71.53	1	0.0	1	null	6	null	6	0.0	5	1004.98	1	41.076845	16.866987
3430	2024-05-22 21:00:00	16	carbonara	20.41	1	71.86	1	0.0	1	null	6	null	6	0.0	1	1005.49	1	41.076845	16.866987
3431	2024-05-22 22:00:00	16	carbonara	19.68	1	77.04	1	0.0	1	null	6	null	6	0.0	1	1006.15	1	41.076845	16.866987
3432	2024-05-22 23:00:00	16	carbonara	19.11	1	76.62	1	0.0	1	null	6	null	6	0.0	1	1006.35	1	41.076845	16.866987
3433	2024-05-23 00:00:00	16	carbonara	18.74	1	66.62	1	0.0	1	null	6	null	6	0.0	1	1006.49	1	41.076845	16.866987
3434	2024-05-23 01:00:00	16	carbonara	18.33	1	61.64	1	0.0	1	null	6	null	6	0.0	1	1006.31	1	41.076845	16.866987
3435	2024-05-23 02:00:00	16	carbonara	18.13	1	57.9	1	0.0	1	null	6	null	6	0.0	1	1006.08	1	41.076845	16.866987
3436	2024-05-23 03:00:00	16	carbonara	17.86	1	58.73	1	0.0	1	null	6	null	6	0.0	1	1006.2	1	41.076845	16.866987
3437	2024-05-23 04:00:00	16	carbonara	17.16	1	62.73	1	0.0	1	null	6	null	6	0.0	1	1006.62	1	41.076845	16.866987
3438	2024-05-23 05:00:00	16	carbonara	16.61	1	65.6	1	0.0	1	null	6	null	6	0.0	5	1006.88	1	41.076845	16.866987
3439	2024-05-23 06:00:00	16	carbonara	17.81	1	62.65	1	0.0	1	null	6	null	6	97.85	1	1007.22	1	41.076845	16.866987
3440	2024-05-23 07:00:00	16	carbonara	20.88	1	53.72	1	0.0	1	null	6	null	6	267.54	1	1007.47	1	41.076845	16.866987
3441	2024-05-23 08:00:00	16	carbonara	23.16	1	46.13	1	0.0	1	null	6	null	6	458.19	1	1007.72	1	41.076845	16.866987
3442	2024-05-23 09:00:00	16	carbonara	24.83	1	41.65	1	0.0	1	null	6	null	6	641.1	1	1007.58	1	41.076845	16.866987
3443	2024-05-23 10:00:00	16	carbonara	25.43	1	40.67	1	0.0	1	null	6	null	6	791.82	1	1007.65	1	41.076845	16.866987
3444	2024-05-23 11:00:00	16	carbonara	25.37	1	41.67	1	0.0	1	null	6	null	6	896.07	1	1007.9	1	41.076845	16.866987
3445	2024-05-23 12:00:00	16	carbonara	24.87	1	43.12	1	0.0	1	null	6	null	6	948.77	1	1007.95	1	41.076845	16.866987
3446	2024-05-23 13:00:00	16	carbonara	25.04	1	38.85	1	0.0	1	null	6	null	6	952.62	1	1007.81	1	41.076845	16.866987
3447	2024-05-23 14:00:00	16	carbonara	25.1	1	37.72	1	0.0	1	null	6	null	6	901.89	1	1007.71	1	41.076845	16.866987
3448	2024-05-23 15:00:00	16	carbonara	25.38	1	38.25	1	0.0	1	null	6	null	6	798.36	1	1007.29	1	41.076845	16.866987
3449	2024-05-23 16:00:00	16	carbonara	25.45	1	39.99	1	0.0	1	null	6	null	6	649.13	1	1006.9	1	41.076845	16.866987
3450	2024-05-23 17:00:00	16	carbonara	25.88	1	39.39	1	0.0	1	null	6	null	6	466.81	1	1006.43	1	41.076845	16.866987
3451	2024-05-23 18:00:00	16	carbonara	25.12	1	45.03	1	0.0	1	null	6	null	6	260.27	1	1006.2	1	41.076845	16.866987
3452	2024-05-23 19:00:00	16	carbonara	23.06	1	53.24	1	0.0	1	null	6	null	6	45.07	1	1006.65	1	41.076845	16.866987
3453	2024-05-23 20:00:00	16	carbonara	21.8	1	60.9	1	0.0	1	null	6	null	6	0.0	5	1007.32	1	41.076845	16.866987
3454	2024-05-23 21:00:00	16	carbonara	21.1	1	64.18	1	0.0	1	null	6	null	6	0.0	1	1007.89	1	41.076845	16.866987
3455	2024-05-23 22:00:00	16	carbonara	20.73	1	64.82	1	0.0	1	null	6	null	6	0.0	1	1008.4	1	41.076845	16.866987
3456	2024-05-23 23:00:00	16	carbonara	20.49	1	62.85	1	0.0	1	null	6	null	6	0.0	1	1008.55	1	41.076845	16.866987
3457	2024-05-24 00:00:00	16	carbonara	19.44	1	63.2	1	0.0	1	null	6	null	6	0.0	1	1008.52	1	41.076845	16.866987
3458	2024-05-24 01:00:00	16	carbonara	18.61	1	66.03	1	0.0	1	null	6	null	6	0.0	1	1008.43	1	41.076845	16.866987
3459	2024-05-24 02:00:00	16	carbonara	17.84	1	68.79	1	0.0	1	null	6	null	6	0.0	1	1008.33	1	41.076845	16.866987
3460	2024-05-24 03:00:00	16	carbonara	17.55	1	69.25	1	0.0	1	null	6	null	6	0.0	1	1008.4	1	41.076845	16.866987
3461	2024-05-24 04:00:00	16	carbonara	16.77	1	71.9	1	0.0	1	null	6	null	6	0.0	1	1008.24	1	41.076845	16.866987
3462	2024-05-24 05:00:00	16	carbonara	16.1	1	73.94	1	0.0	1	null	6	null	6	0.0	5	1008.47	1	41.076845	16.866987
3463	2024-05-24 06:00:00	16	carbonara	17.12	1	68.78	1	0.0	1	null	6	null	6	96.83	1	1008.98	1	41.076845	16.866987
3464	2024-05-24 07:00:00	16	carbonara	20.69	1	53.13	1	0.0	1	null	6	null	6	262.36	1	1009.08	1	41.076845	16.866987
3465	2024-05-24 08:00:00	16	carbonara	23.59	1	44.74	1	0.0	1	null	6	null	6	447.85	1	1009.42	1	41.076845	16.866987
3466	2024-05-24 09:00:00	16	carbonara	24.67	1	48.51	1	0.0	1	null	6	null	6	606.79	1	1009.46	1	41.076845	16.866987
3467	2024-05-24 10:00:00	16	carbonara	24.79	1	50.19	1	0.0	1	null	6	null	6	781.48	1	1009.66	1	41.076845	16.866987
3468	2024-05-24 11:00:00	16	carbonara	24.59	1	51.69	1	0.0	1	null	6	null	6	894.59	1	1009.66	1	41.076845	16.866987
3469	2024-05-24 12:00:00	16	carbonara	24.77	1	53.03	1	0.0	1	null	6	null	6	908.73	1	1009.48	1	41.076845	16.866987
3470	2024-05-24 13:00:00	16	carbonara	24.6	1	52.17	1	0.0	1	null	6	null	6	927.74	1	1009.16	1	41.076845	16.866987
3471	2024-05-24 14:00:00	16	carbonara	25.07	1	49.59	1	0.0	1	null	6	null	6	888.01	1	1008.89	1	41.076845	16.866987
3472	2024-05-24 15:00:00	16	carbonara	25.49	1	46.49	1	0.0	1	null	6	null	6	799.92	1	1008.42	1	41.076845	16.866987
3473	2024-05-24 16:00:00	16	carbonara	25.86	1	45.5	1	0.0	1	null	6	null	6	655.18	1	1008.13	1	41.076845	16.866987
3474	2024-05-24 17:00:00	16	carbonara	25.18	1	45.57	1	0.0	1	null	6	null	6	289.68	1	1007.85	1	41.076845	16.866987
3475	2024-05-24 18:00:00	16	carbonara	23.7	1	54.27	1	0.0	1	null	6	null	6	126.51	1	1008.01	1	41.076845	16.866987
3476	2024-05-24 19:00:00	16	carbonara	22.24	1	64.57	1	0.0	1	null	6	null	6	36.29	1	1008.39	1	41.076845	16.866987
3477	2024-05-24 20:00:00	16	carbonara	21.37	1	69.62	1	0.0	1	null	6	null	6	0.0	5	1008.52	1	41.076845	16.866987
3478	2024-05-24 21:00:00	16	carbonara	21.11	1	71.35	1	0.0	1	null	6	null	6	0.0	1	1008.87	1	41.076845	16.866987
3479	2024-05-24 22:00:00	16	carbonara	20.76	1	74.77	1	0.0	1	null	6	null	6	0.0	1	1008.85	1	41.076845	16.866987
3480	2024-05-24 23:00:00	16	carbonara	20.0	1	77.59	1	0.0	1	null	6	null	6	0.0	1	1008.52	1	41.076845	16.866987
3481	2024-05-25 00:00:00	16	carbonara	19.25	1	79.93	1	0.0	1	null	6	null	6	0.0	1	1008.57	1	41.076845	16.866987
3482	2024-05-25 01:00:00	16	carbonara	18.58	1	81.13	1	0.0	1	null	6	null	6	0.0	1	1008.33	1	41.076845	16.866987
3483	2024-05-25 02:00:00	16	carbonara	17.79	1	83.05	1	0.0	1	null	6	null	6	0.0	1	1008.3	1	41.076845	16.866987
3484	2024-05-25 03:00:00	16	carbonara	17.0	1	83.49	1	0.0	1	null	6	null	6	0.0	1	1008.09	1	41.076845	16.866987
3485	2024-05-25 04:00:00	16	carbonara	16.33	1	81.77	1	0.0	1	null	6	null	6	0.0	1	1007.74	1	41.076845	16.866987
3486	2024-05-25 05:00:00	16	carbonara	15.83	1	81.33	1	0.0	1	null	6	null	6	6.05	1	1007.38	1	41.076845	16.866987
3487	2024-05-25 06:00:00	16	carbonara	17.08	1	78.13	1	0.0	1	null	6	null	6	100.03	1	1007.23	1	41.076845	16.866987
3488	2024-05-25 07:00:00	16	carbonara	20.7	1	68.14	1	0.0	1	null	6	null	6	313.87	1	1006.95	1	41.076845	16.866987
3489	2024-05-25 08:00:00	16	carbonara	24.91	1	48.22	1	0.0	1	null	6	null	6	482.68	1	1006.74	1	41.076845	16.866987
3490	2024-05-25 09:00:00	16	carbonara	25.29	1	46.39	1	0.0	1	null	6	null	6	487.26	1	1006.4	1	41.076845	16.866987
3491	2024-05-25 10:00:00	16	carbonara	24.04	1	57.62	1	0.0	1	null	6	null	6	257.22	1	1006.37	1	41.076845	16.866987
3492	2024-05-25 11:00:00	16	carbonara	22.98	1	65.82	1	0.0	1	null	6	null	6	263.0	1	1006.41	1	41.076845	16.866987
3493	2024-05-25 12:00:00	16	carbonara	24.1	1	55.71	1	0.0	1	null	6	null	6	580.81	1	1006.09	1	41.076845	16.866987
3494	2024-05-25 13:00:00	16	carbonara	24.77	1	43.86	1	0.0	1	null	6	null	6	402.58	1	1005.77	1	41.076845	16.866987
3495	2024-05-25 14:00:00	16	carbonara	23.23	1	49.21	1	0.0	1	null	6	null	6	216.41	1	1005.86	1	41.076845	16.866987
3496	2024-05-25 15:00:00	16	carbonara	22.7	1	54.74	1	0.0	1	null	6	null	6	115.13	1	1005.93	1	41.076845	16.866987
3497	2024-05-25 16:00:00	16	carbonara	21.25	1	64.6	1	0.2	1	null	6	null	6	96.17	1	1006.23	1	41.076845	16.866987
3498	2024-05-25 17:00:00	16	carbonara	20.19	1	70.52	1	0.2	1	null	6	null	6	94.45	1	1005.74	1	41.076845	16.866987
3499	2024-05-25 18:00:00	16	carbonara	20.05	1	74.1	1	0.0	1	null	6	null	6	49.38	1	1005.09	1	41.076845	16.866987
3500	2024-05-25 19:00:00	16	carbonara	19.77	1	74.59	1	0.0	1	null	6	null	6	7.02	1	1005.49	1	41.076845	16.866987
3501	2024-05-25 20:00:00	16	carbonara	18.67	1	77.38	1	0.2	1	null	6	null	6	0.0	1	1005.83	1	41.076845	16.866987
3502	2024-05-25 21:00:00	16	carbonara	17.83	1	73.93	1	0.2	1	null	6	null	6	0.0	1	1006.32	1	41.076845	16.866987
3503	2024-05-25 22:00:00	16	carbonara	17.6	1	68.34	1	0.2	1	null	6	null	6	0.0	1	1006.73	1	41.076845	16.866987
3504	2024-05-25 23:00:00	16	carbonara	17.29	1	68.93	1	0.0	1	null	6	null	6	0.0	1	1006.57	1	41.076845	16.866987
3505	2024-05-26 00:00:00	16	carbonara	17.03	1	72.8	1	0.0	1	null	6	null	6	0.0	1	1006.52	1	41.076845	16.866987
3506	2024-05-26 01:00:00	16	carbonara	16.76	1	73.42	1	0.0	1	null	6	null	6	0.0	1	1006.18	1	41.076845	16.866987
3507	2024-05-26 02:00:00	16	carbonara	17.0	1	70.36	1	0.0	1	null	6	null	6	0.0	1	1005.89	1	41.076845	16.866987
3508	2024-05-26 03:00:00	16	carbonara	17.06	1	70.8	1	0.0	1	null	6	null	6	0.0	1	1005.87	1	41.076845	16.866987
3509	2024-05-26 04:00:00	16	carbonara	17.29	1	67.97	1	0.0	1	null	6	null	6	0.0	1	1005.68	1	41.076845	16.866987
3510	2024-05-26 05:00:00	16	carbonara	17.44	1	66.59	1	0.0	1	null	6	null	6	0.0	5	1005.76	1	41.076845	16.866987
3511	2024-05-26 06:00:00	16	carbonara	17.54	1	74.32	1	0.0	1	null	6	null	6	28.16	1	1005.87	1	41.076845	16.866987
3512	2024-05-26 07:00:00	16	carbonara	18.91	1	78.86	1	0.0	1	null	6	null	6	192.84	1	1006.34	1	41.076845	16.866987
3513	2024-05-26 08:00:00	16	carbonara	20.37	1	72.06	1	0.0	1	null	6	null	6	216.15	1	1006.61	1	41.076845	16.866987
3514	2024-05-26 09:00:00	16	carbonara	18.42	1	70.17	1	0.0	1	null	6	null	6	109.4	1	1007.39	1	41.076845	16.866987
3515	2024-05-26 10:00:00	16	carbonara	19.43	1	63.33	1	0.0	1	null	6	null	6	210.07	1	1007.3	1	41.076845	16.866987
3516	2024-05-26 11:00:00	16	carbonara	19.42	1	68.54	1	0.0	1	null	6	null	6	334.41	1	1007.61	1	41.076845	16.866987
3517	2024-05-26 12:00:00	16	carbonara	22.25	1	54.39	1	0.0	1	null	6	null	6	674.4	1	1007.5	1	41.076845	16.866987
3518	2024-05-26 13:00:00	16	carbonara	24.68	1	43.34	1	0.0	1	null	6	null	6	610.85	1	1007.43	1	41.076845	16.866987
3519	2024-05-26 14:00:00	16	carbonara	24.3	1	45.07	1	0.0	1	null	6	null	6	911.86	1	1007.29	1	41.076845	16.866987
3520	2024-05-26 15:00:00	16	carbonara	23.92	1	51.81	1	0.0	1	null	6	null	6	799.59	1	1007.13	1	41.076845	16.866987
3521	2024-05-26 16:00:00	16	carbonara	23.6	1	55.12	1	0.0	1	null	6	null	6	655.97	1	1006.98	1	41.076845	16.866987
3522	2024-05-26 17:00:00	16	carbonara	23.49	1	56.36	1	0.0	1	null	6	null	6	480.7	1	1006.94	1	41.076845	16.866987
3523	2024-05-26 18:00:00	16	carbonara	22.49	1	60.78	1	0.0	1	null	6	null	6	285.0	1	1006.79	1	41.076845	16.866987
3524	2024-05-26 19:00:00	16	carbonara	20.98	1	67.95	1	0.0	1	null	6	null	6	47.95	1	1007.39	1	41.076845	16.866987
3525	2024-05-26 20:00:00	16	carbonara	20.11	1	71.0	1	0.0	1	null	6	null	6	0.0	5	1008.09	1	41.076845	16.866987
3526	2024-05-26 21:00:00	16	carbonara	19.81	1	75.17	1	0.0	1	null	6	null	6	0.0	1	1008.73	1	41.076845	16.866987
3527	2024-05-26 22:00:00	16	carbonara	19.36	1	78.4	1	0.0	1	null	6	null	6	0.0	1	1009.0	1	41.076845	16.866987
3528	2024-05-26 23:00:00	16	carbonara	18.27	1	82.48	1	0.0	1	null	6	null	6	0.0	1	1008.96	1	41.076845	16.866987
3529	2024-05-27 00:00:00	16	carbonara	17.77	1	84.51	1	0.0	1	null	6	null	6	0.0	1	1009.05	1	41.076845	16.866987
3530	2024-05-27 01:00:00	16	carbonara	17.02	1	86.92	1	0.0	1	null	6	null	6	0.0	1	1008.75	1	41.076845	16.866987
3531	2024-05-27 02:00:00	16	carbonara	16.45	1	88.75	1	0.0	1	null	6	null	6	0.0	1	1008.53	1	41.076845	16.866987
3532	2024-05-27 03:00:00	16	carbonara	16.1	1	88.67	1	0.0	1	null	6	null	6	0.0	1	1008.44	1	41.076845	16.866987
3533	2024-05-27 04:00:00	16	carbonara	16.1	1	86.58	1	0.0	1	null	6	null	6	0.0	1	1008.15	1	41.076845	16.866987
3534	2024-05-27 05:00:00	16	carbonara	15.87	1	87.77	1	0.0	1	null	6	null	6	0.0	5	1008.36	1	41.076845	16.866987
3535	2024-05-27 06:00:00	16	carbonara	16.8	1	86.29	1	0.0	1	null	6	null	6	98.39	1	1008.61	1	41.076845	16.866987
3536	2024-05-27 07:00:00	16	carbonara	19.83	1	76.65	1	0.0	1	null	6	null	6	260.47	1	1008.87	1	41.076845	16.866987
3537	2024-05-27 08:00:00	16	carbonara	22.38	1	64.15	1	0.0	1	null	6	null	6	373.68	1	1009.09	1	41.076845	16.866987
3538	2024-05-27 09:00:00	16	carbonara	22.88	1	57.86	1	0.0	1	null	6	null	6	565.79	1	1009.09	1	41.076845	16.866987
3539	2024-05-27 10:00:00	16	carbonara	23.91	1	52.29	1	0.0	1	null	6	null	6	807.77	1	1008.95	1	41.076845	16.866987
3540	2024-05-27 11:00:00	16	carbonara	23.99	1	50.97	1	0.0	1	null	6	null	6	890.35	1	1009.06	1	41.076845	16.866987
3541	2024-05-27 12:00:00	16	carbonara	23.91	1	51.83	1	0.0	1	null	6	null	6	942.66	1	1008.85	1	41.076845	16.866987
3542	2024-05-27 13:00:00	16	carbonara	23.96	1	50.43	1	0.0	1	null	6	null	6	954.32	1	1008.63	1	41.076845	16.866987
3543	2024-05-27 14:00:00	16	carbonara	24.01	1	54.23	1	0.0	1	null	6	null	6	847.03	1	1008.27	1	41.076845	16.866987
3544	2024-05-27 15:00:00	16	carbonara	24.6	1	50.95	1	0.0	1	null	6	null	6	759.17	1	1007.74	1	41.076845	16.866987
3545	2024-05-27 16:00:00	16	carbonara	25.1	1	46.91	1	0.0	1	null	6	null	6	639.87	1	1007.17	1	41.076845	16.866987
3546	2024-05-27 17:00:00	16	carbonara	25.04	1	48.31	1	0.0	1	null	6	null	6	477.07	1	1006.77	1	41.076845	16.866987
3547	2024-05-27 18:00:00	16	carbonara	24.06	1	54.1	1	0.0	1	null	6	null	6	265.97	1	1006.65	1	41.076845	16.866987
3548	2024-05-27 19:00:00	16	carbonara	22.14	1	61.16	1	0.0	1	null	6	null	6	50.02	1	1006.96	1	41.076845	16.866987
3549	2024-05-27 20:00:00	16	carbonara	20.9	1	66.05	1	0.0	1	null	6	null	6	0.0	5	1007.41	1	41.076845	16.866987
3550	2024-05-27 21:00:00	16	carbonara	20.59	1	68.85	1	0.0	1	null	6	null	6	0.0	1	1007.72	1	41.076845	16.866987
3551	2024-05-27 22:00:00	16	carbonara	20.35	1	70.12	1	0.0	1	null	6	null	6	0.0	1	1007.9	1	41.076845	16.866987
3552	2024-05-27 23:00:00	16	carbonara	20.05	1	72.64	1	0.0	1	null	6	null	6	0.0	1	1007.57	1	41.076845	16.866987
3553	2024-05-28 00:00:00	16	carbonara	19.43	1	74.88	1	0.0	1	null	6	null	6	0.0	1	1007.32	1	41.076845	16.866987
3554	2024-05-28 01:00:00	16	carbonara	18.21	1	80.24	1	0.0	1	null	6	null	6	0.0	1	1007.0	1	41.076845	16.866987
3555	2024-05-28 02:00:00	16	carbonara	17.3	1	83.18	1	0.0	1	null	6	null	6	0.0	1	1006.48	1	41.076845	16.866987
3556	2024-05-28 03:00:00	16	carbonara	16.74	1	83.68	1	0.0	1	null	6	null	6	0.0	1	1006.07	1	41.076845	16.866987
3557	2024-05-28 04:00:00	16	carbonara	16.13	1	83.68	1	0.0	1	null	6	null	6	0.0	1	1005.79	1	41.076845	16.866987
3558	2024-05-28 05:00:00	16	carbonara	16.32	1	80.53	1	0.0	1	null	6	null	6	5.28	1	1005.68	1	41.076845	16.866987
3559	2024-05-28 06:00:00	16	carbonara	17.8	1	76.03	1	0.0	1	null	6	null	6	113.87	1	1005.89	1	41.076845	16.866987
3560	2024-05-28 07:00:00	16	carbonara	20.84	1	66.37	1	0.0	1	null	6	null	6	249.97	1	1006.0	1	41.076845	16.866987
3561	2024-05-28 08:00:00	16	carbonara	23.53	1	56.25	1	0.0	1	null	6	null	6	398.25	1	1006.06	1	41.076845	16.866987
3562	2024-05-28 09:00:00	16	carbonara	24.5	1	53.45	1	0.0	1	null	6	null	6	530.04	1	1005.88	1	41.076845	16.866987
3563	2024-05-28 10:00:00	16	carbonara	24.1	1	54.37	1	0.0	1	null	6	null	6	689.75	1	1005.67	1	41.076845	16.866987
3564	2024-05-28 11:00:00	16	carbonara	24.72	1	51.29	1	0.0	1	null	6	null	6	889.34	1	1005.51	1	41.076845	16.866987
3565	2024-05-28 12:00:00	16	carbonara	24.76	1	51.56	1	0.0	1	null	6	null	6	936.34	1	1005.01	1	41.076845	16.866987
3566	2024-05-28 13:00:00	16	carbonara	24.86	1	52.93	1	0.0	1	null	6	null	6	925.23	1	1004.58	1	41.076845	16.866987
3567	2024-05-28 14:00:00	16	carbonara	25.54	1	49.96	1	0.0	1	null	6	null	6	880.6	1	1004.11	1	41.076845	16.866987
3568	2024-05-28 15:00:00	16	carbonara	26.22	1	47.03	1	0.0	1	null	6	null	6	798.19	1	1003.64	1	41.076845	16.866987
3569	2024-05-28 16:00:00	16	carbonara	26.59	1	45.3	1	0.0	1	null	6	null	6	561.3	1	1003.27	1	41.076845	16.866987
3570	2024-05-28 17:00:00	16	carbonara	26.32	1	44.29	1	0.0	1	null	6	null	6	344.51	1	1003.68	1	41.076845	16.866987
3571	2024-05-28 18:00:00	16	carbonara	25.38	1	43.08	1	0.0	1	null	6	null	6	231.57	1	1003.54	1	41.076845	16.866987
3572	2024-05-28 19:00:00	16	carbonara	24.27	1	54.58	1	0.0	1	null	6	null	6	50.97	1	1003.67	1	41.076845	16.866987
3573	2024-05-28 20:00:00	16	carbonara	22.0	1	71.0	1	0.0	1	null	6	null	6	0.0	5	1004.04	1	41.076845	16.866987
3574	2024-05-28 21:00:00	16	carbonara	21.1	1	79.14	1	0.0	1	null	6	null	6	0.0	1	1004.44	1	41.076845	16.866987
3575	2024-05-28 22:00:00	16	carbonara	20.95	1	81.88	1	0.0	1	null	6	null	6	0.0	1	1004.96	1	41.076845	16.866987
3576	2024-05-28 23:00:00	16	carbonara	20.83	1	82.67	1	0.0	1	null	6	null	6	0.0	1	1005.07	1	41.076845	16.866987
3577	2024-05-29 00:00:00	16	carbonara	20.86	1	81.09	1	0.0	1	null	6	null	6	0.0	1	1005.34	1	41.076845	16.866987
3578	2024-05-29 01:00:00	16	carbonara	20.07	1	82.55	1	0.0	1	null	6	null	6	0.0	1	1005.28	1	41.076845	16.866987
3579	2024-05-29 02:00:00	16	carbonara	19.2	1	85.15	1	0.0	1	null	6	null	6	0.0	1	1005.0	1	41.076845	16.866987
3580	2024-05-29 03:00:00	16	carbonara	18.58	1	87.25	1	0.0	1	null	6	null	6	0.0	1	1004.87	1	41.076845	16.866987
3581	2024-05-29 04:00:00	16	carbonara	18.35	1	88.27	1	0.0	1	null	6	null	6	0.0	1	1004.7	1	41.076845	16.866987
3582	2024-05-29 05:00:00	16	carbonara	18.41	1	88.27	1	0.0	1	null	6	null	6	0.0	5	1004.58	1	41.076845	16.866987
3583	2024-05-29 06:00:00	16	carbonara	18.9	1	87.25	1	0.0	1	null	6	null	6	61.16	1	1004.75	1	41.076845	16.866987
3584	2024-05-29 07:00:00	16	carbonara	21.39	1	79.13	1	0.0	1	null	6	null	6	220.38	1	1004.79	1	41.076845	16.866987
3585	2024-05-29 08:00:00	16	carbonara	23.24	1	67.86	1	0.0	1	null	6	null	6	337.34	1	1005.08	1	41.076845	16.866987
3586	2024-05-29 09:00:00	16	carbonara	23.99	1	64.0	1	0.0	1	null	6	null	6	486.64	1	1005.19	1	41.076845	16.866987
3587	2024-05-29 10:00:00	16	carbonara	24.76	1	59.68	1	0.0	1	null	6	null	6	762.71	1	1005.04	1	41.076845	16.866987
3588	2024-05-29 11:00:00	16	carbonara	25.03	1	53.39	1	0.0	1	null	6	null	6	917.8	1	1004.91	1	41.076845	16.866987
3589	2024-05-29 12:00:00	16	carbonara	24.93	1	56.35	1	0.0	1	null	6	null	6	906.01	1	1004.52	1	41.076845	16.866987
3590	2024-05-29 13:00:00	16	carbonara	24.92	1	54.62	1	0.0	1	null	6	null	6	939.9	1	1003.81	1	41.076845	16.866987
3591	2024-05-29 14:00:00	16	carbonara	24.81	1	51.38	1	0.0	1	null	6	null	6	902.78	1	1003.26	1	41.076845	16.866987
3592	2024-05-29 15:00:00	16	carbonara	25.18	1	54.58	1	0.0	1	null	6	null	6	800.79	1	1002.77	1	41.076845	16.866987
3593	2024-05-29 16:00:00	16	carbonara	25.04	1	56.4	1	0.0	1	null	6	null	6	652.47	1	1002.18	1	41.076845	16.866987
3594	2024-05-29 17:00:00	16	carbonara	25.39	1	55.62	1	0.0	1	null	6	null	6	452.49	1	1002.02	1	41.076845	16.866987
3595	2024-05-29 18:00:00	16	carbonara	24.87	1	56.15	1	0.0	1	null	6	null	6	233.63	1	1002.11	1	41.076845	16.866987
3596	2024-05-29 19:00:00	16	carbonara	23.02	1	63.99	1	0.0	1	null	6	null	6	29.99	1	1002.39	1	41.076845	16.866987
3597	2024-05-29 20:00:00	16	carbonara	21.85	1	69.37	1	0.0	1	null	6	null	6	0.0	5	1002.47	1	41.076845	16.866987
3598	2024-05-29 21:00:00	16	carbonara	21.21	1	75.97	1	0.0	1	null	6	null	6	0.0	1	1002.94	1	41.076845	16.866987
3599	2024-05-29 22:00:00	16	carbonara	20.72	1	76.32	1	0.0	1	null	6	null	6	0.0	1	1003.21	1	41.076845	16.866987
3600	2024-05-29 23:00:00	16	carbonara	20.0	1	74.88	1	0.0	1	null	6	null	6	0.0	1	1003.09	1	41.076845	16.866987
3601	2024-05-30 00:00:00	16	carbonara	18.89	1	67.85	1	0.0	1	null	6	null	6	0.0	1	1002.84	1	41.076845	16.866987
3602	2024-05-30 01:00:00	16	carbonara	18.37	1	66.98	1	0.0	1	null	6	null	6	0.0	1	1002.37	1	41.076845	16.866987
3603	2024-05-30 02:00:00	16	carbonara	17.86	1	69.72	1	0.0	1	null	6	null	6	0.0	1	1001.77	1	41.076845	16.866987
3604	2024-05-30 03:00:00	16	carbonara	17.21	1	72.82	1	0.0	1	null	6	null	6	0.0	1	1001.57	1	41.076845	16.866987
3605	2024-05-30 04:00:00	16	carbonara	16.84	1	73.15	1	0.0	1	null	6	null	6	0.0	1	1001.41	1	41.076845	16.866987
3606	2024-05-30 05:00:00	16	carbonara	16.91	1	70.0	1	0.0	1	null	6	null	6	6.32	1	1001.29	1	41.076845	16.866987
3607	2024-05-30 06:00:00	16	carbonara	17.96	1	66.92	1	0.0	1	null	6	null	6	98.33	1	1001.25	1	41.076845	16.866987
3608	2024-05-30 07:00:00	16	carbonara	21.02	1	58.63	1	0.0	1	null	6	null	6	225.3	1	1001.11	1	41.076845	16.866987
3609	2024-05-30 08:00:00	16	carbonara	24.6	1	46.88	1	0.0	1	null	6	null	6	433.75	1	1001.11	1	41.076845	16.866987
3610	2024-05-30 09:00:00	16	carbonara	26.68	1	40.88	1	0.0	1	null	6	null	6	622.49	1	1000.89	1	41.076845	16.866987
3611	2024-05-30 10:00:00	16	carbonara	28.01	1	36.34	1	0.0	1	null	6	null	6	766.83	1	1000.37	1	41.076845	16.866987
3612	2024-05-30 11:00:00	16	carbonara	26.94	1	41.86	1	0.0	1	null	6	null	6	433.04	1	1000.04	1	41.076845	16.866987
3613	2024-05-30 12:00:00	16	carbonara	26.58	1	46.78	1	0.0	1	null	6	null	6	311.99	1	999.7	1	41.076845	16.866987
3614	2024-05-30 13:00:00	16	carbonara	26.99	1	46.05	1	0.0	1	null	6	null	6	359.7	1	999.26	1	41.076845	16.866987
3615	2024-05-30 14:00:00	16	carbonara	28.26	1	42.1	1	0.0	1	null	6	null	6	636.63	1	998.65	1	41.076845	16.866987
3616	2024-05-30 15:00:00	16	carbonara	28.24	1	39.35	1	0.2	1	null	6	null	6	234.77	1	998.26	1	41.076845	16.866987
3617	2024-05-30 16:00:00	16	carbonara	22.45	1	70.61	1	0.6	1	null	6	null	6	59.42	1	998.83	1	41.076845	16.866987
3618	2024-05-30 17:00:00	16	carbonara	21.17	1	74.44	1	0.6	1	null	6	null	6	51.49	1	998.92	1	41.076845	16.866987
3619	2024-05-30 18:00:00	16	carbonara	23.17	1	58.42	1	0.6	1	null	6	null	6	89.88	1	998.69	1	41.076845	16.866987
3620	2024-05-30 19:00:00	16	carbonara	23.68	1	55.36	1	0.4	1	null	6	null	6	43.83	1	998.79	1	41.076845	16.866987
3621	2024-05-30 20:00:00	16	carbonara	22.82	1	61.07	1	0.4	1	null	6	null	6	0.0	5	998.71	1	41.076845	16.866987
3622	2024-05-30 21:00:00	16	carbonara	21.89	1	71.83	1	0.6	1	null	6	null	6	0.0	1	999.23	1	41.076845	16.866987
3623	2024-05-30 22:00:00	16	carbonara	21.59	1	74.66	1	0.4	1	null	6	null	6	0.0	1	999.37	1	41.076845	16.866987
3624	2024-05-30 23:00:00	16	carbonara	21.48	1	76.98	1	0.4	1	null	6	null	6	0.0	1	999.25	1	41.076845	16.866987
3625	2024-05-31 00:00:00	16	carbonara	21.31	1	79.02	1	0.4	1	null	6	null	6	0.0	1	999.34	1	41.076845	16.866987
3626	2024-05-31 01:00:00	16	carbonara	21.03	1	80.73	1	0.2	1	null	6	null	6	0.0	1	999.09	1	41.076845	16.866987
3627	2024-05-31 02:00:00	16	carbonara	20.69	1	81.99	1	0.2	1	null	6	null	6	0.0	1	998.49	1	41.076845	16.866987
3628	2024-05-31 03:00:00	16	carbonara	20.67	1	79.99	1	0.0	1	null	6	null	6	0.0	1	998.38	1	41.076845	16.866987
3629	2024-05-31 04:00:00	16	carbonara	20.77	1	77.81	1	0.0	1	null	6	null	6	0.0	1	998.42	1	41.076845	16.866987
3630	2024-05-31 05:00:00	16	carbonara	20.99	1	70.61	1	0.0	1	null	6	null	6	0.0	5	998.61	1	41.076845	16.866987
3631	2024-05-31 06:00:00	16	carbonara	21.61	1	62.71	1	0.0	1	null	6	null	6	58.05	1	998.78	1	41.076845	16.866987
3632	2024-05-31 07:00:00	16	carbonara	22.18	1	56.74	1	0.0	1	null	6	null	6	133.01	1	998.77	1	41.076845	16.866987
3633	2024-05-31 08:00:00	16	carbonara	24.44	1	48.31	1	0.0	1	null	6	null	6	178.44	1	999.11	1	41.076845	16.866987
3634	2024-05-31 09:00:00	16	carbonara	25.64	1	46.25	1	0.0	1	null	6	null	6	439.02	1	999.12	1	41.076845	16.866987
3635	2024-05-31 10:00:00	16	carbonara	26.67	1	42.97	1	0.0	1	null	6	null	6	317.14	1	999.23	1	41.076845	16.866987
3636	2024-05-31 11:00:00	16	carbonara	27.2	1	41.31	1	0.0	1	null	6	null	6	333.68	1	999.72	1	41.076845	16.866987
3637	2024-05-31 12:00:00	16	carbonara	26.98	1	40.9	1	0.0	1	null	6	null	6	431.96	1	999.65	1	41.076845	16.866987
3638	2024-05-31 13:00:00	16	carbonara	28.09	1	39.98	1	0.0	1	null	6	null	6	621.17	1	999.53	1	41.076845	16.866987
3639	2024-05-31 14:00:00	16	carbonara	27.8	1	38.75	1	0.0	1	null	6	null	6	364.84	1	999.55	1	41.076845	16.866987
3640	2024-05-31 15:00:00	16	carbonara	26.74	1	40.75	1	0.0	1	null	6	null	6	166.5	1	999.84	1	41.076845	16.866987
3641	2024-05-31 16:00:00	16	carbonara	26.52	1	44.75	1	0.0	1	null	6	null	6	154.4	1	999.97	1	41.076845	16.866987
3642	2024-05-31 17:00:00	16	carbonara	25.61	1	49.53	1	0.0	1	null	6	null	6	66.81	1	1000.15	1	41.076845	16.866987
3643	2024-05-31 18:00:00	16	carbonara	25.27	1	55.09	1	0.0	1	null	6	null	6	109.9	1	1000.16	1	41.076845	16.866987
3644	2024-05-31 19:00:00	16	carbonara	24.13	1	65.09	1	0.0	1	null	6	null	6	59.88	1	1000.47	1	41.076845	16.866987
3645	2024-05-31 20:00:00	16	carbonara	23.1	1	71.82	1	0.0	1	null	6	null	6	0.0	5	1000.73	1	41.076845	16.866987
3646	2024-05-31 21:00:00	16	carbonara	22.57	1	75.22	1	0.0	1	null	6	null	6	0.0	1	1001.27	1	41.076845	16.866987
3647	2024-05-31 22:00:00	16	carbonara	22.32	1	75.98	1	0.0	1	null	6	null	6	0.0	1	1001.68	1	41.076845	16.866987
3648	2024-05-31 23:00:00	16	carbonara	22.0	1	77.15	1	0.0	1	null	6	null	6	0.0	1	1001.77	1	41.076845	"16.866987	"
